<?xml version="1.0" encoding="UTF-8" standalone="no" ?>
<gpx xmlns="http://www.topografix.com/GPX/1/1" xmlns:xsi="http://www.w3.org/2001/XMLSchema-instance" xsi:schemaLocation="http://www.topografix.com/GPX/1/1 http://www.topografix.com/GPX/1/1/gpx.xsd" version="1.1" creator="VisuGPX - https://www.visugpx.com">
  <metadata>
    <name>Circuit VTT (Blou; les Loges)</name>
    <desc><![CDATA[Circuit VTT (Blou; les Loges)]]></desc>
  </metadata>
  <trk>
    <name><![CDATA[Sortie Tony VTT 20 03 11]]></name>
    <trkseg>
      <trkpt lat="47.36093" lon="-0.03481">
        <ele>-24.86</ele>
        <time>2011-03-20T07:24:33Z</time>
      </trkpt>
      <trkpt lat="47.36093" lon="-0.03481">
        <ele>-20.05</ele>
        <time>2011-03-20T07:24:35Z</time>
      </trkpt>
      <trkpt lat="47.36093" lon="-0.03481">
        <ele>-15.24</ele>
        <time>2011-03-20T07:24:37Z</time>
      </trkpt>
      <trkpt lat="47.36093" lon="-0.03483">
        <ele>-4.19</ele>
        <time>2011-03-20T07:24:44Z</time>
      </trkpt>
      <trkpt lat="47.36093" lon="-0.03485">
        <ele>1.1</ele>
        <time>2011-03-20T07:24:47Z</time>
      </trkpt>
      <trkpt lat="47.36094" lon="-0.03485">
        <ele>4.46</ele>
        <time>2011-03-20T07:24:49Z</time>
      </trkpt>
      <trkpt lat="47.36094" lon="-0.03485">
        <ele>8.31</ele>
        <time>2011-03-20T07:24:51Z</time>
      </trkpt>
      <trkpt lat="47.36094" lon="-0.03485">
        <ele>10.23</ele>
        <time>2011-03-20T07:24:53Z</time>
      </trkpt>
      <trkpt lat="47.36094" lon="-0.03485">
        <ele>13.12</ele>
        <time>2011-03-20T07:24:55Z</time>
      </trkpt>
      <trkpt lat="47.36094" lon="-0.03485">
        <ele>17.44</ele>
        <time>2011-03-20T07:24:58Z</time>
      </trkpt>
      <trkpt lat="47.36094" lon="-0.03485">
        <ele>21.29</ele>
        <time>2011-03-20T07:25:01Z</time>
      </trkpt>
      <trkpt lat="47.36094" lon="-0.03485">
        <ele>21.29</ele>
        <time>2011-03-20T07:25:02Z</time>
      </trkpt>
      <trkpt lat="47.36094" lon="-0.03485">
        <ele>24.65</ele>
        <time>2011-03-20T07:25:05Z</time>
      </trkpt>
      <trkpt lat="47.36097" lon="-0.03488">
        <ele>28.5</ele>
        <time>2011-03-20T07:25:09Z</time>
      </trkpt>
      <trkpt lat="47.36097" lon="-0.03488">
        <ele>29.46</ele>
        <time>2011-03-20T07:25:11Z</time>
      </trkpt>
      <trkpt lat="47.36097" lon="-0.03488">
        <ele>32.34</ele>
        <time>2011-03-20T07:25:15Z</time>
      </trkpt>
      <trkpt lat="47.36097" lon="-0.03488">
        <ele>34.26</ele>
        <time>2011-03-20T07:25:16Z</time>
      </trkpt>
      <trkpt lat="47.36097" lon="-0.03488">
        <ele>37.63</ele>
        <time>2011-03-20T07:25:25Z</time>
      </trkpt>
      <trkpt lat="47.36097" lon="-0.03488">
        <ele>40.51</ele>
        <time>2011-03-20T07:25:31Z</time>
      </trkpt>
      <trkpt lat="47.36097" lon="-0.03488">
        <ele>43.4</ele>
        <time>2011-03-20T07:25:40Z</time>
      </trkpt>
      <trkpt lat="47.36097" lon="-0.03488">
        <ele>44.84</ele>
        <time>2011-03-20T07:25:46Z</time>
      </trkpt>
      <trkpt lat="47.36096" lon="-0.03488">
        <ele>48.2</ele>
        <time>2011-03-20T07:25:58Z</time>
      </trkpt>
      <trkpt lat="47.36102" lon="-0.03494">
        <ele>51.09</ele>
        <time>2011-03-20T07:26:29Z</time>
      </trkpt>
      <trkpt lat="47.36101" lon="-0.03494">
        <ele>50.13</ele>
        <time>2011-03-20T07:26:50Z</time>
      </trkpt>
      <trkpt lat="47.36097" lon="-0.0349">
        <ele>50.61</ele>
        <time>2011-03-20T07:26:56Z</time>
      </trkpt>
      <trkpt lat="47.36098" lon="-0.03488">
        <ele>44.36</ele>
        <time>2011-03-20T07:26:59Z</time>
      </trkpt>
      <trkpt lat="47.36098" lon="-0.03486">
        <ele>53.49</ele>
        <time>2011-03-20T07:27:00Z</time>
      </trkpt>
      <trkpt lat="47.36097" lon="-0.03485">
        <ele>54.45</ele>
        <time>2011-03-20T07:27:27Z</time>
      </trkpt>
      <trkpt lat="47.36097" lon="-0.03485">
        <ele>52.05</ele>
        <time>2011-03-20T07:27:28Z</time>
      </trkpt>
      <trkpt lat="47.36097" lon="-0.03485">
        <ele>51.09</ele>
        <time>2011-03-20T07:27:30Z</time>
      </trkpt>
      <trkpt lat="47.36098" lon="-0.03475">
        <ele>54.45</ele>
        <time>2011-03-20T07:29:05Z</time>
      </trkpt>
      <trkpt lat="47.36099" lon="-0.03472">
        <ele>54.93</ele>
        <time>2011-03-20T07:29:24Z</time>
      </trkpt>
      <trkpt lat="47.36099" lon="-0.03472">
        <ele>53.97</ele>
        <time>2011-03-20T07:29:27Z</time>
      </trkpt>
      <trkpt lat="47.36099" lon="-0.03472">
        <ele>50.61</ele>
        <time>2011-03-20T07:29:30Z</time>
      </trkpt>
      <trkpt lat="47.36101" lon="-0.03474">
        <ele>53.97</ele>
        <time>2011-03-20T07:29:32Z</time>
      </trkpt>
      <trkpt lat="47.36107" lon="-0.03478">
        <ele>53.01</ele>
        <time>2011-03-20T07:29:38Z</time>
      </trkpt>
      <trkpt lat="47.36123" lon="-0.03486">
        <ele>53.01</ele>
        <time>2011-03-20T07:29:45Z</time>
      </trkpt>
      <trkpt lat="47.36137" lon="-0.03478">
        <ele>51.57</ele>
        <time>2011-03-20T07:29:50Z</time>
      </trkpt>
      <trkpt lat="47.36137" lon="-0.03453">
        <ele>52.05</ele>
        <time>2011-03-20T07:29:55Z</time>
      </trkpt>
      <trkpt lat="47.36126" lon="-0.03442">
        <ele>53.01</ele>
        <time>2011-03-20T07:29:59Z</time>
      </trkpt>
      <trkpt lat="47.36106" lon="-0.03441">
        <ele>54.45</ele>
        <time>2011-03-20T07:30:05Z</time>
      </trkpt>
      <trkpt lat="47.36078" lon="-0.03438">
        <ele>55.89</ele>
        <time>2011-03-20T07:30:13Z</time>
      </trkpt>
      <trkpt lat="47.3607" lon="-0.03434">
        <ele>56.86</ele>
        <time>2011-03-20T07:30:16Z</time>
      </trkpt>
      <trkpt lat="47.36064" lon="-0.03418">
        <ele>57.82</ele>
        <time>2011-03-20T07:30:20Z</time>
      </trkpt>
      <trkpt lat="47.36062" lon="-0.03406">
        <ele>57.82</ele>
        <time>2011-03-20T07:30:22Z</time>
      </trkpt>
      <trkpt lat="47.36062" lon="-0.03379">
        <ele>59.26</ele>
        <time>2011-03-20T07:30:27Z</time>
      </trkpt>
      <trkpt lat="47.36066" lon="-0.03362">
        <ele>60.22</ele>
        <time>2011-03-20T07:30:30Z</time>
      </trkpt>
      <trkpt lat="47.36067" lon="-0.03355">
        <ele>60.7</ele>
        <time>2011-03-20T07:30:31Z</time>
      </trkpt>
      <trkpt lat="47.3607" lon="-0.03343">
        <ele>59.74</ele>
        <time>2011-03-20T07:30:33Z</time>
      </trkpt>
      <trkpt lat="47.36073" lon="-0.03323">
        <ele>59.74</ele>
        <time>2011-03-20T07:30:36Z</time>
      </trkpt>
      <trkpt lat="47.36073" lon="-0.03308">
        <ele>59.74</ele>
        <time>2011-03-20T07:30:38Z</time>
      </trkpt>
      <trkpt lat="47.36073" lon="-0.03302">
        <ele>60.22</ele>
        <time>2011-03-20T07:30:39Z</time>
      </trkpt>
      <trkpt lat="47.36073" lon="-0.03295">
        <ele>60.22</ele>
        <time>2011-03-20T07:30:40Z</time>
      </trkpt>
      <trkpt lat="47.36076" lon="-0.03243">
        <ele>60.22</ele>
        <time>2011-03-20T07:30:48Z</time>
      </trkpt>
      <trkpt lat="47.36077" lon="-0.03236">
        <ele>59.74</ele>
        <time>2011-03-20T07:30:49Z</time>
      </trkpt>
      <trkpt lat="47.36077" lon="-0.0323">
        <ele>60.22</ele>
        <time>2011-03-20T07:30:50Z</time>
      </trkpt>
      <trkpt lat="47.36077" lon="-0.03223">
        <ele>61.18</ele>
        <time>2011-03-20T07:30:51Z</time>
      </trkpt>
      <trkpt lat="47.36077" lon="-0.03217">
        <ele>61.18</ele>
        <time>2011-03-20T07:30:52Z</time>
      </trkpt>
      <trkpt lat="47.36078" lon="-0.03211">
        <ele>62.14</ele>
        <time>2011-03-20T07:30:53Z</time>
      </trkpt>
      <trkpt lat="47.36079" lon="-0.03199">
        <ele>61.66</ele>
        <time>2011-03-20T07:30:55Z</time>
      </trkpt>
      <trkpt lat="47.36079" lon="-0.03187">
        <ele>60.7</ele>
        <time>2011-03-20T07:30:57Z</time>
      </trkpt>
      <trkpt lat="47.36078" lon="-0.03181">
        <ele>61.18</ele>
        <time>2011-03-20T07:30:58Z</time>
      </trkpt>
      <trkpt lat="47.36073" lon="-0.03145">
        <ele>62.62</ele>
        <time>2011-03-20T07:31:05Z</time>
      </trkpt>
      <trkpt lat="47.36065" lon="-0.03113">
        <ele>63.58</ele>
        <time>2011-03-20T07:31:12Z</time>
      </trkpt>
      <trkpt lat="47.36062" lon="-0.03102">
        <ele>63.1</ele>
        <time>2011-03-20T07:31:14Z</time>
      </trkpt>
      <trkpt lat="47.3606" lon="-0.03097">
        <ele>64.55</ele>
        <time>2011-03-20T07:31:15Z</time>
      </trkpt>
      <trkpt lat="47.36059" lon="-0.03091">
        <ele>64.55</ele>
        <time>2011-03-20T07:31:16Z</time>
      </trkpt>
      <trkpt lat="47.36053" lon="-0.03068">
        <ele>65.99</ele>
        <time>2011-03-20T07:31:21Z</time>
      </trkpt>
      <trkpt lat="47.36049" lon="-0.03051">
        <ele>66.95</ele>
        <time>2011-03-20T07:31:25Z</time>
      </trkpt>
      <trkpt lat="47.36041" lon="-0.03031">
        <ele>68.39</ele>
        <time>2011-03-20T07:31:31Z</time>
      </trkpt>
      <trkpt lat="47.36035" lon="-0.03021">
        <ele>69.35</ele>
        <time>2011-03-20T07:31:34Z</time>
      </trkpt>
      <trkpt lat="47.36032" lon="-0.03017">
        <ele>68.87</ele>
        <time>2011-03-20T07:31:35Z</time>
      </trkpt>
      <trkpt lat="47.36029" lon="-0.03013">
        <ele>69.35</ele>
        <time>2011-03-20T07:31:36Z</time>
      </trkpt>
      <trkpt lat="47.36015" lon="-0.02989">
        <ele>70.31</ele>
        <time>2011-03-20T07:31:42Z</time>
      </trkpt>
      <trkpt lat="47.36009" lon="-0.0298">
        <ele>70.79</ele>
        <time>2011-03-20T07:31:44Z</time>
      </trkpt>
      <trkpt lat="47.36005" lon="-0.02975">
        <ele>70.79</ele>
        <time>2011-03-20T07:31:45Z</time>
      </trkpt>
      <trkpt lat="47.36002" lon="-0.0297">
        <ele>71.76</ele>
        <time>2011-03-20T07:31:46Z</time>
      </trkpt>
      <trkpt lat="47.36" lon="-0.02966">
        <ele>71.27</ele>
        <time>2011-03-20T07:31:47Z</time>
      </trkpt>
      <trkpt lat="47.35998" lon="-0.02963">
        <ele>69.83</ele>
        <time>2011-03-20T07:31:48Z</time>
      </trkpt>
      <trkpt lat="47.35983" lon="-0.02943">
        <ele>72.24</ele>
        <time>2011-03-20T07:31:54Z</time>
      </trkpt>
      <trkpt lat="47.35968" lon="-0.02924">
        <ele>73.68</ele>
        <time>2011-03-20T07:32:00Z</time>
      </trkpt>
      <trkpt lat="47.35964" lon="-0.02921">
        <ele>72.72</ele>
        <time>2011-03-20T07:32:01Z</time>
      </trkpt>
      <trkpt lat="47.3596" lon="-0.02917">
        <ele>76.56</ele>
        <time>2011-03-20T07:32:02Z</time>
      </trkpt>
      <trkpt lat="47.35957" lon="-0.02915">
        <ele>76.08</ele>
        <time>2011-03-20T07:32:03Z</time>
      </trkpt>
      <trkpt lat="47.35936" lon="-0.0289">
        <ele>75.6</ele>
        <time>2011-03-20T07:32:10Z</time>
      </trkpt>
      <trkpt lat="47.35909" lon="-0.0287">
        <ele>77.52</ele>
        <time>2011-03-20T07:32:17Z</time>
      </trkpt>
      <trkpt lat="47.35886" lon="-0.02857">
        <ele>78</ele>
        <time>2011-03-20T07:32:24Z</time>
      </trkpt>
      <trkpt lat="47.35864" lon="-0.0285">
        <ele>77.52</ele>
        <time>2011-03-20T07:32:30Z</time>
      </trkpt>
      <trkpt lat="47.3586" lon="-0.02848">
        <ele>76.56</ele>
        <time>2011-03-20T07:32:31Z</time>
      </trkpt>
      <trkpt lat="47.35837" lon="-0.02838">
        <ele>77.04</ele>
        <time>2011-03-20T07:32:36Z</time>
      </trkpt>
      <trkpt lat="47.35816" lon="-0.0283">
        <ele>78.48</ele>
        <time>2011-03-20T07:32:41Z</time>
      </trkpt>
      <trkpt lat="47.35808" lon="-0.02825">
        <ele>77.04</ele>
        <time>2011-03-20T07:32:43Z</time>
      </trkpt>
      <trkpt lat="47.35789" lon="-0.02808">
        <ele>77.04</ele>
        <time>2011-03-20T07:32:48Z</time>
      </trkpt>
      <trkpt lat="47.35768" lon="-0.02784">
        <ele>78.48</ele>
        <time>2011-03-20T07:32:54Z</time>
      </trkpt>
      <trkpt lat="47.35761" lon="-0.02777">
        <ele>77.04</ele>
        <time>2011-03-20T07:32:56Z</time>
      </trkpt>
      <trkpt lat="47.35748" lon="-0.02763">
        <ele>78.48</ele>
        <time>2011-03-20T07:33:00Z</time>
      </trkpt>
      <trkpt lat="47.35734" lon="-0.0274">
        <ele>78.48</ele>
        <time>2011-03-20T07:33:05Z</time>
      </trkpt>
      <trkpt lat="47.35724" lon="-0.02701">
        <ele>78.48</ele>
        <time>2011-03-20T07:33:12Z</time>
      </trkpt>
      <trkpt lat="47.35715" lon="-0.02648">
        <ele>79.45</ele>
        <time>2011-03-20T07:33:21Z</time>
      </trkpt>
      <trkpt lat="47.35714" lon="-0.02625">
        <ele>81.37</ele>
        <time>2011-03-20T07:33:26Z</time>
      </trkpt>
      <trkpt lat="47.35714" lon="-0.02584">
        <ele>82.33</ele>
        <time>2011-03-20T07:33:33Z</time>
      </trkpt>
      <trkpt lat="47.35712" lon="-0.02551">
        <ele>86.66</ele>
        <time>2011-03-20T07:33:39Z</time>
      </trkpt>
      <trkpt lat="47.35712" lon="-0.02545">
        <ele>85.69</ele>
        <time>2011-03-20T07:33:40Z</time>
      </trkpt>
      <trkpt lat="47.3571" lon="-0.02533">
        <ele>84.73</ele>
        <time>2011-03-20T07:33:42Z</time>
      </trkpt>
      <trkpt lat="47.35706" lon="-0.02483">
        <ele>83.29</ele>
        <time>2011-03-20T07:33:50Z</time>
      </trkpt>
      <trkpt lat="47.35705" lon="-0.0246">
        <ele>85.69</ele>
        <time>2011-03-20T07:33:54Z</time>
      </trkpt>
      <trkpt lat="47.35704" lon="-0.02448">
        <ele>86.18</ele>
        <time>2011-03-20T07:33:56Z</time>
      </trkpt>
      <trkpt lat="47.35702" lon="-0.02399">
        <ele>87.14</ele>
        <time>2011-03-20T07:34:04Z</time>
      </trkpt>
      <trkpt lat="47.357" lon="-0.02368">
        <ele>86.66</ele>
        <time>2011-03-20T07:34:09Z</time>
      </trkpt>
      <trkpt lat="47.35699" lon="-0.02319">
        <ele>87.62</ele>
        <time>2011-03-20T07:34:17Z</time>
      </trkpt>
      <trkpt lat="47.35699" lon="-0.02313">
        <ele>87.14</ele>
        <time>2011-03-20T07:34:18Z</time>
      </trkpt>
      <trkpt lat="47.35699" lon="-0.02307">
        <ele>88.1</ele>
        <time>2011-03-20T07:34:19Z</time>
      </trkpt>
      <trkpt lat="47.35699" lon="-0.02283">
        <ele>88.1</ele>
        <time>2011-03-20T07:34:23Z</time>
      </trkpt>
      <trkpt lat="47.35698" lon="-0.0227">
        <ele>89.06</ele>
        <time>2011-03-20T07:34:25Z</time>
      </trkpt>
      <trkpt lat="47.35697" lon="-0.02264">
        <ele>88.1</ele>
        <time>2011-03-20T07:34:26Z</time>
      </trkpt>
      <trkpt lat="47.35688" lon="-0.02216">
        <ele>88.58</ele>
        <time>2011-03-20T07:34:34Z</time>
      </trkpt>
      <trkpt lat="47.35686" lon="-0.02208">
        <ele>89.54</ele>
        <time>2011-03-20T07:34:35Z</time>
      </trkpt>
      <trkpt lat="47.35684" lon="-0.02202">
        <ele>88.1</ele>
        <time>2011-03-20T07:34:36Z</time>
      </trkpt>
      <trkpt lat="47.35676" lon="-0.02154">
        <ele>88.1</ele>
        <time>2011-03-20T07:34:43Z</time>
      </trkpt>
      <trkpt lat="47.35667" lon="-0.02112">
        <ele>90.02</ele>
        <time>2011-03-20T07:34:50Z</time>
      </trkpt>
      <trkpt lat="47.35659" lon="-0.02069">
        <ele>90.5</ele>
        <time>2011-03-20T07:34:57Z</time>
      </trkpt>
      <trkpt lat="47.35645" lon="-0.02018">
        <ele>90.5</ele>
        <time>2011-03-20T07:35:06Z</time>
      </trkpt>
      <trkpt lat="47.35644" lon="-0.02">
        <ele>90.5</ele>
        <time>2011-03-20T07:35:09Z</time>
      </trkpt>
      <trkpt lat="47.35646" lon="-0.01995">
        <ele>90.5</ele>
        <time>2011-03-20T07:35:10Z</time>
      </trkpt>
      <trkpt lat="47.35667" lon="-0.01961">
        <ele>90.98</ele>
        <time>2011-03-20T07:35:17Z</time>
      </trkpt>
      <trkpt lat="47.35672" lon="-0.0195">
        <ele>90.98</ele>
        <time>2011-03-20T07:35:19Z</time>
      </trkpt>
      <trkpt lat="47.35682" lon="-0.01934">
        <ele>89.54</ele>
        <time>2011-03-20T07:35:22Z</time>
      </trkpt>
      <trkpt lat="47.35702" lon="-0.01896">
        <ele>89.54</ele>
        <time>2011-03-20T07:35:28Z</time>
      </trkpt>
      <trkpt lat="47.35707" lon="-0.01882">
        <ele>89.06</ele>
        <time>2011-03-20T07:35:30Z</time>
      </trkpt>
      <trkpt lat="47.3571" lon="-0.01875">
        <ele>87.14</ele>
        <time>2011-03-20T07:35:31Z</time>
      </trkpt>
      <trkpt lat="47.35732" lon="-0.01806">
        <ele>85.69</ele>
        <time>2011-03-20T07:35:40Z</time>
      </trkpt>
      <trkpt lat="47.35754" lon="-0.01742">
        <ele>85.21</ele>
        <time>2011-03-20T07:35:48Z</time>
      </trkpt>
      <trkpt lat="47.35756" lon="-0.01734">
        <ele>84.73</ele>
        <time>2011-03-20T07:35:49Z</time>
      </trkpt>
      <trkpt lat="47.35759" lon="-0.01725">
        <ele>84.25</ele>
        <time>2011-03-20T07:35:50Z</time>
      </trkpt>
      <trkpt lat="47.35763" lon="-0.01717">
        <ele>84.25</ele>
        <time>2011-03-20T07:35:51Z</time>
      </trkpt>
      <trkpt lat="47.35767" lon="-0.01709">
        <ele>85.21</ele>
        <time>2011-03-20T07:35:52Z</time>
      </trkpt>
      <trkpt lat="47.35772" lon="-0.01702">
        <ele>84.25</ele>
        <time>2011-03-20T07:35:53Z</time>
      </trkpt>
      <trkpt lat="47.35801" lon="-0.01664">
        <ele>81.85</ele>
        <time>2011-03-20T07:35:59Z</time>
      </trkpt>
      <trkpt lat="47.35806" lon="-0.01657">
        <ele>81.85</ele>
        <time>2011-03-20T07:36:00Z</time>
      </trkpt>
      <trkpt lat="47.35811" lon="-0.01651">
        <ele>82.33</ele>
        <time>2011-03-20T07:36:01Z</time>
      </trkpt>
      <trkpt lat="47.35821" lon="-0.01637">
        <ele>81.85</ele>
        <time>2011-03-20T07:36:03Z</time>
      </trkpt>
      <trkpt lat="47.35826" lon="-0.0163">
        <ele>80.89</ele>
        <time>2011-03-20T07:36:04Z</time>
      </trkpt>
      <trkpt lat="47.3583" lon="-0.01621">
        <ele>81.85</ele>
        <time>2011-03-20T07:36:05Z</time>
      </trkpt>
      <trkpt lat="47.35832" lon="-0.01612">
        <ele>81.37</ele>
        <time>2011-03-20T07:36:06Z</time>
      </trkpt>
      <trkpt lat="47.35835" lon="-0.01603">
        <ele>80.41</ele>
        <time>2011-03-20T07:36:07Z</time>
      </trkpt>
      <trkpt lat="47.35845" lon="-0.01541">
        <ele>80.41</ele>
        <time>2011-03-20T07:36:14Z</time>
      </trkpt>
      <trkpt lat="47.35851" lon="-0.01506">
        <ele>79.45</ele>
        <time>2011-03-20T07:36:18Z</time>
      </trkpt>
      <trkpt lat="47.35853" lon="-0.01487">
        <ele>78.97</ele>
        <time>2011-03-20T07:36:20Z</time>
      </trkpt>
      <trkpt lat="47.35855" lon="-0.01479">
        <ele>79.93</ele>
        <time>2011-03-20T07:36:21Z</time>
      </trkpt>
      <trkpt lat="47.35858" lon="-0.01462">
        <ele>79.45</ele>
        <time>2011-03-20T07:36:23Z</time>
      </trkpt>
      <trkpt lat="47.35865" lon="-0.01427">
        <ele>79.45</ele>
        <time>2011-03-20T07:36:27Z</time>
      </trkpt>
      <trkpt lat="47.35866" lon="-0.01419">
        <ele>78</ele>
        <time>2011-03-20T07:36:28Z</time>
      </trkpt>
      <trkpt lat="47.3587" lon="-0.01402">
        <ele>78</ele>
        <time>2011-03-20T07:36:30Z</time>
      </trkpt>
      <trkpt lat="47.35877" lon="-0.01358">
        <ele>78</ele>
        <time>2011-03-20T07:36:35Z</time>
      </trkpt>
      <trkpt lat="47.35879" lon="-0.0135">
        <ele>77.04</ele>
        <time>2011-03-20T07:36:36Z</time>
      </trkpt>
      <trkpt lat="47.35881" lon="-0.01341">
        <ele>76.56</ele>
        <time>2011-03-20T07:36:37Z</time>
      </trkpt>
      <trkpt lat="47.35883" lon="-0.01332">
        <ele>77.04</ele>
        <time>2011-03-20T07:36:38Z</time>
      </trkpt>
      <trkpt lat="47.35885" lon="-0.01323">
        <ele>76.56</ele>
        <time>2011-03-20T07:36:39Z</time>
      </trkpt>
      <trkpt lat="47.35887" lon="-0.01315">
        <ele>76.56</ele>
        <time>2011-03-20T07:36:40Z</time>
      </trkpt>
      <trkpt lat="47.35889" lon="-0.01307">
        <ele>76.56</ele>
        <time>2011-03-20T07:36:41Z</time>
      </trkpt>
      <trkpt lat="47.35892" lon="-0.0129">
        <ele>77.04</ele>
        <time>2011-03-20T07:36:43Z</time>
      </trkpt>
      <trkpt lat="47.35896" lon="-0.01275">
        <ele>77.52</ele>
        <time>2011-03-20T07:36:45Z</time>
      </trkpt>
      <trkpt lat="47.35898" lon="-0.01267">
        <ele>77.52</ele>
        <time>2011-03-20T07:36:46Z</time>
      </trkpt>
      <trkpt lat="47.359" lon="-0.01259">
        <ele>78</ele>
        <time>2011-03-20T07:36:47Z</time>
      </trkpt>
      <trkpt lat="47.35902" lon="-0.01251">
        <ele>77.52</ele>
        <time>2011-03-20T07:36:48Z</time>
      </trkpt>
      <trkpt lat="47.35904" lon="-0.01243">
        <ele>77.52</ele>
        <time>2011-03-20T07:36:49Z</time>
      </trkpt>
      <trkpt lat="47.35921" lon="-0.01187">
        <ele>78.97</ele>
        <time>2011-03-20T07:36:56Z</time>
      </trkpt>
      <trkpt lat="47.35924" lon="-0.01179">
        <ele>78.97</ele>
        <time>2011-03-20T07:36:57Z</time>
      </trkpt>
      <trkpt lat="47.35936" lon="-0.01142">
        <ele>79.93</ele>
        <time>2011-03-20T07:37:02Z</time>
      </trkpt>
      <trkpt lat="47.35938" lon="-0.01134">
        <ele>78.48</ele>
        <time>2011-03-20T07:37:03Z</time>
      </trkpt>
      <trkpt lat="47.35941" lon="-0.01127">
        <ele>78.97</ele>
        <time>2011-03-20T07:37:04Z</time>
      </trkpt>
      <trkpt lat="47.35944" lon="-0.01121">
        <ele>78.97</ele>
        <time>2011-03-20T07:37:05Z</time>
      </trkpt>
      <trkpt lat="47.35946" lon="-0.01115">
        <ele>79.93</ele>
        <time>2011-03-20T07:37:06Z</time>
      </trkpt>
      <trkpt lat="47.35949" lon="-0.01108">
        <ele>79.45</ele>
        <time>2011-03-20T07:37:07Z</time>
      </trkpt>
      <trkpt lat="47.35954" lon="-0.01094">
        <ele>79.45</ele>
        <time>2011-03-20T07:37:09Z</time>
      </trkpt>
      <trkpt lat="47.35956" lon="-0.01086">
        <ele>79.45</ele>
        <time>2011-03-20T07:37:10Z</time>
      </trkpt>
      <trkpt lat="47.35958" lon="-0.01078">
        <ele>79.93</ele>
        <time>2011-03-20T07:37:11Z</time>
      </trkpt>
      <trkpt lat="47.3596" lon="-0.0107">
        <ele>79.45</ele>
        <time>2011-03-20T07:37:12Z</time>
      </trkpt>
      <trkpt lat="47.35961" lon="-0.01062">
        <ele>79.93</ele>
        <time>2011-03-20T07:37:13Z</time>
      </trkpt>
      <trkpt lat="47.35963" lon="-0.01055">
        <ele>79.93</ele>
        <time>2011-03-20T07:37:14Z</time>
      </trkpt>
      <trkpt lat="47.35975" lon="-0.01017">
        <ele>80.41</ele>
        <time>2011-03-20T07:37:19Z</time>
      </trkpt>
      <trkpt lat="47.3599" lon="-0.00969">
        <ele>80.89</ele>
        <time>2011-03-20T07:37:25Z</time>
      </trkpt>
      <trkpt lat="47.35992" lon="-0.00961">
        <ele>79.93</ele>
        <time>2011-03-20T07:37:26Z</time>
      </trkpt>
      <trkpt lat="47.35995" lon="-0.00953">
        <ele>80.89</ele>
        <time>2011-03-20T07:37:27Z</time>
      </trkpt>
      <trkpt lat="47.35999" lon="-0.00937">
        <ele>79.45</ele>
        <time>2011-03-20T07:37:29Z</time>
      </trkpt>
      <trkpt lat="47.36001" lon="-0.00928">
        <ele>79.45</ele>
        <time>2011-03-20T07:37:30Z</time>
      </trkpt>
      <trkpt lat="47.36006" lon="-0.00905">
        <ele>79.93</ele>
        <time>2011-03-20T07:37:33Z</time>
      </trkpt>
      <trkpt lat="47.3601" lon="-0.00889">
        <ele>79.93</ele>
        <time>2011-03-20T07:37:35Z</time>
      </trkpt>
      <trkpt lat="47.36012" lon="-0.00882">
        <ele>80.41</ele>
        <time>2011-03-20T07:37:36Z</time>
      </trkpt>
      <trkpt lat="47.36018" lon="-0.00861">
        <ele>80.41</ele>
        <time>2011-03-20T07:37:39Z</time>
      </trkpt>
      <trkpt lat="47.3602" lon="-0.00854">
        <ele>80.41</ele>
        <time>2011-03-20T07:37:40Z</time>
      </trkpt>
      <trkpt lat="47.36022" lon="-0.00847">
        <ele>80.41</ele>
        <time>2011-03-20T07:37:41Z</time>
      </trkpt>
      <trkpt lat="47.36024" lon="-0.0084">
        <ele>80.89</ele>
        <time>2011-03-20T07:37:42Z</time>
      </trkpt>
      <trkpt lat="47.36026" lon="-0.00832">
        <ele>80.41</ele>
        <time>2011-03-20T07:37:43Z</time>
      </trkpt>
      <trkpt lat="47.36033" lon="-0.00804">
        <ele>80.41</ele>
        <time>2011-03-20T07:37:47Z</time>
      </trkpt>
      <trkpt lat="47.36036" lon="-0.00791">
        <ele>80.89</ele>
        <time>2011-03-20T07:37:49Z</time>
      </trkpt>
      <trkpt lat="47.3605" lon="-0.00744">
        <ele>81.85</ele>
        <time>2011-03-20T07:37:56Z</time>
      </trkpt>
      <trkpt lat="47.36055" lon="-0.00733">
        <ele>81.37</ele>
        <time>2011-03-20T07:37:58Z</time>
      </trkpt>
      <trkpt lat="47.36078" lon="-0.00697">
        <ele>81.85</ele>
        <time>2011-03-20T07:38:05Z</time>
      </trkpt>
      <trkpt lat="47.36085" lon="-0.00688">
        <ele>81.85</ele>
        <time>2011-03-20T07:38:07Z</time>
      </trkpt>
      <trkpt lat="47.36089" lon="-0.00682">
        <ele>81.85</ele>
        <time>2011-03-20T07:38:08Z</time>
      </trkpt>
      <trkpt lat="47.36099" lon="-0.00667">
        <ele>80.41</ele>
        <time>2011-03-20T07:38:11Z</time>
      </trkpt>
      <trkpt lat="47.36108" lon="-0.00656">
        <ele>80.89</ele>
        <time>2011-03-20T07:38:13Z</time>
      </trkpt>
      <trkpt lat="47.36148" lon="-0.00607">
        <ele>79.45</ele>
        <time>2011-03-20T07:38:22Z</time>
      </trkpt>
      <trkpt lat="47.36167" lon="-0.00587">
        <ele>78.97</ele>
        <time>2011-03-20T07:38:26Z</time>
      </trkpt>
      <trkpt lat="47.36172" lon="-0.00583">
        <ele>78.48</ele>
        <time>2011-03-20T07:38:27Z</time>
      </trkpt>
      <trkpt lat="47.36176" lon="-0.00578">
        <ele>78.48</ele>
        <time>2011-03-20T07:38:28Z</time>
      </trkpt>
      <trkpt lat="47.36206" lon="-0.00538">
        <ele>77.52</ele>
        <time>2011-03-20T07:38:35Z</time>
      </trkpt>
      <trkpt lat="47.36235" lon="-0.00505">
        <ele>76.56</ele>
        <time>2011-03-20T07:38:41Z</time>
      </trkpt>
      <trkpt lat="47.36255" lon="-0.00475">
        <ele>76.08</ele>
        <time>2011-03-20T07:38:46Z</time>
      </trkpt>
      <trkpt lat="47.36257" lon="-0.00468">
        <ele>77.04</ele>
        <time>2011-03-20T07:38:47Z</time>
      </trkpt>
      <trkpt lat="47.3626" lon="-0.00461">
        <ele>77.04</ele>
        <time>2011-03-20T07:38:48Z</time>
      </trkpt>
      <trkpt lat="47.36262" lon="-0.00454">
        <ele>76.56</ele>
        <time>2011-03-20T07:38:49Z</time>
      </trkpt>
      <trkpt lat="47.36264" lon="-0.00447">
        <ele>77.52</ele>
        <time>2011-03-20T07:38:50Z</time>
      </trkpt>
      <trkpt lat="47.36266" lon="-0.00441">
        <ele>78.48</ele>
        <time>2011-03-20T07:38:51Z</time>
      </trkpt>
      <trkpt lat="47.36274" lon="-0.00425">
        <ele>78.48</ele>
        <time>2011-03-20T07:38:54Z</time>
      </trkpt>
      <trkpt lat="47.36278" lon="-0.00414">
        <ele>78.97</ele>
        <time>2011-03-20T07:38:56Z</time>
      </trkpt>
      <trkpt lat="47.36289" lon="-0.0039">
        <ele>78.97</ele>
        <time>2011-03-20T07:39:02Z</time>
      </trkpt>
      <trkpt lat="47.36291" lon="-0.00389">
        <ele>78.97</ele>
        <time>2011-03-20T07:39:03Z</time>
      </trkpt>
      <trkpt lat="47.36293" lon="-0.00388">
        <ele>79.45</ele>
        <time>2011-03-20T07:39:04Z</time>
      </trkpt>
      <trkpt lat="47.36296" lon="-0.00388">
        <ele>79.45</ele>
        <time>2011-03-20T07:39:05Z</time>
      </trkpt>
      <trkpt lat="47.36299" lon="-0.00388">
        <ele>79.93</ele>
        <time>2011-03-20T07:39:06Z</time>
      </trkpt>
      <trkpt lat="47.36302" lon="-0.00389">
        <ele>79.45</ele>
        <time>2011-03-20T07:39:07Z</time>
      </trkpt>
      <trkpt lat="47.36304" lon="-0.00391">
        <ele>79.93</ele>
        <time>2011-03-20T07:39:08Z</time>
      </trkpt>
      <trkpt lat="47.36304" lon="-0.0039">
        <ele>79.45</ele>
        <time>2011-03-20T07:39:09Z</time>
      </trkpt>
      <trkpt lat="47.36304" lon="-0.00395">
        <ele>79.45</ele>
        <time>2011-03-20T07:39:10Z</time>
      </trkpt>
      <trkpt lat="47.36305" lon="-0.00399">
        <ele>79.45</ele>
        <time>2011-03-20T07:39:11Z</time>
      </trkpt>
      <trkpt lat="47.36307" lon="-0.00402">
        <ele>78.48</ele>
        <time>2011-03-20T07:39:12Z</time>
      </trkpt>
      <trkpt lat="47.36309" lon="-0.00405">
        <ele>78</ele>
        <time>2011-03-20T07:39:13Z</time>
      </trkpt>
      <trkpt lat="47.36312" lon="-0.00409">
        <ele>78.48</ele>
        <time>2011-03-20T07:39:14Z</time>
      </trkpt>
      <trkpt lat="47.36325" lon="-0.00419">
        <ele>77.04</ele>
        <time>2011-03-20T07:39:18Z</time>
      </trkpt>
      <trkpt lat="47.36342" lon="-0.00435">
        <ele>76.56</ele>
        <time>2011-03-20T07:39:23Z</time>
      </trkpt>
      <trkpt lat="47.36348" lon="-0.00444">
        <ele>74.64</ele>
        <time>2011-03-20T07:39:25Z</time>
      </trkpt>
      <trkpt lat="47.36354" lon="-0.00449">
        <ele>72.72</ele>
        <time>2011-03-20T07:39:26Z</time>
      </trkpt>
      <trkpt lat="47.36367" lon="-0.00461">
        <ele>69.35</ele>
        <time>2011-03-20T07:39:28Z</time>
      </trkpt>
      <trkpt lat="47.36375" lon="-0.00466">
        <ele>68.39</ele>
        <time>2011-03-20T07:39:29Z</time>
      </trkpt>
      <trkpt lat="47.3639" lon="-0.00474">
        <ele>64.07</ele>
        <time>2011-03-20T07:39:31Z</time>
      </trkpt>
      <trkpt lat="47.36425" lon="-0.00501">
        <ele>60.22</ele>
        <time>2011-03-20T07:39:35Z</time>
      </trkpt>
      <trkpt lat="47.3645" lon="-0.00525">
        <ele>57.82</ele>
        <time>2011-03-20T07:39:38Z</time>
      </trkpt>
      <trkpt lat="47.36495" lon="-0.00542">
        <ele>54.93</ele>
        <time>2011-03-20T07:39:43Z</time>
      </trkpt>
      <trkpt lat="47.36522" lon="-0.00542">
        <ele>53.01</ele>
        <time>2011-03-20T07:39:47Z</time>
      </trkpt>
      <trkpt lat="47.36559" lon="-0.00543">
        <ele>50.61</ele>
        <time>2011-03-20T07:39:52Z</time>
      </trkpt>
      <trkpt lat="47.36568" lon="-0.00548">
        <ele>50.13</ele>
        <time>2011-03-20T07:39:54Z</time>
      </trkpt>
      <trkpt lat="47.36593" lon="-0.00533">
        <ele>49.16</ele>
        <time>2011-03-20T07:40:00Z</time>
      </trkpt>
      <trkpt lat="47.36602" lon="-0.0052">
        <ele>50.13</ele>
        <time>2011-03-20T07:40:03Z</time>
      </trkpt>
      <trkpt lat="47.36613" lon="-0.00499">
        <ele>50.13</ele>
        <time>2011-03-20T07:40:08Z</time>
      </trkpt>
      <trkpt lat="47.36616" lon="-0.00464">
        <ele>51.09</ele>
        <time>2011-03-20T07:40:16Z</time>
      </trkpt>
      <trkpt lat="47.36621" lon="-0.00447">
        <ele>50.61</ele>
        <time>2011-03-20T07:40:20Z</time>
      </trkpt>
      <trkpt lat="47.3663" lon="-0.0043">
        <ele>51.57</ele>
        <time>2011-03-20T07:40:25Z</time>
      </trkpt>
      <trkpt lat="47.3664" lon="-0.00408">
        <ele>51.57</ele>
        <time>2011-03-20T07:40:31Z</time>
      </trkpt>
      <trkpt lat="47.36644" lon="-0.00401">
        <ele>52.53</ele>
        <time>2011-03-20T07:40:33Z</time>
      </trkpt>
      <trkpt lat="47.36652" lon="-0.0038">
        <ele>52.53</ele>
        <time>2011-03-20T07:40:39Z</time>
      </trkpt>
      <trkpt lat="47.36645" lon="-0.00362">
        <ele>53.97</ele>
        <time>2011-03-20T07:40:44Z</time>
      </trkpt>
      <trkpt lat="47.36639" lon="-0.00354">
        <ele>54.93</ele>
        <time>2011-03-20T07:40:47Z</time>
      </trkpt>
      <trkpt lat="47.36616" lon="-0.00333">
        <ele>56.37</ele>
        <time>2011-03-20T07:40:55Z</time>
      </trkpt>
      <trkpt lat="47.36597" lon="-0.00315">
        <ele>56.86</ele>
        <time>2011-03-20T07:41:01Z</time>
      </trkpt>
      <trkpt lat="47.36579" lon="-0.00298">
        <ele>57.34</ele>
        <time>2011-03-20T07:41:07Z</time>
      </trkpt>
      <trkpt lat="47.36556" lon="-0.00276">
        <ele>58.3</ele>
        <time>2011-03-20T07:41:15Z</time>
      </trkpt>
      <trkpt lat="47.36554" lon="-0.00274">
        <ele>58.78</ele>
        <time>2011-03-20T07:41:16Z</time>
      </trkpt>
      <trkpt lat="47.36551" lon="-0.00259">
        <ele>58.78</ele>
        <time>2011-03-20T07:41:20Z</time>
      </trkpt>
      <trkpt lat="47.36551" lon="-0.00221">
        <ele>60.7</ele>
        <time>2011-03-20T07:41:28Z</time>
      </trkpt>
      <trkpt lat="47.36553" lon="-0.00197">
        <ele>63.1</ele>
        <time>2011-03-20T07:41:34Z</time>
      </trkpt>
      <trkpt lat="47.36554" lon="-0.0019">
        <ele>63.58</ele>
        <time>2011-03-20T07:41:36Z</time>
      </trkpt>
      <trkpt lat="47.36544" lon="-0.00181">
        <ele>65.03</ele>
        <time>2011-03-20T07:41:41Z</time>
      </trkpt>
      <trkpt lat="47.3652" lon="-0.00176">
        <ele>65.51</ele>
        <time>2011-03-20T07:41:49Z</time>
      </trkpt>
      <trkpt lat="47.36508" lon="-0.00172">
        <ele>66.47</ele>
        <time>2011-03-20T07:41:53Z</time>
      </trkpt>
      <trkpt lat="47.36504" lon="-0.00153">
        <ele>66.95</ele>
        <time>2011-03-20T07:42:00Z</time>
      </trkpt>
      <trkpt lat="47.36497" lon="-0.00141">
        <ele>67.43</ele>
        <time>2011-03-20T07:42:05Z</time>
      </trkpt>
      <trkpt lat="47.3649" lon="-0.00134">
        <ele>69.35</ele>
        <time>2011-03-20T07:42:09Z</time>
      </trkpt>
      <trkpt lat="47.36482" lon="-0.00122">
        <ele>70.79</ele>
        <time>2011-03-20T07:42:15Z</time>
      </trkpt>
      <trkpt lat="47.36472" lon="-0.00105">
        <ele>72.24</ele>
        <time>2011-03-20T07:42:22Z</time>
      </trkpt>
      <trkpt lat="47.36467" lon="-0.00095">
        <ele>73.68</ele>
        <time>2011-03-20T07:42:27Z</time>
      </trkpt>
      <trkpt lat="47.36461" lon="-0.00083">
        <ele>75.12</ele>
        <time>2011-03-20T07:42:34Z</time>
      </trkpt>
      <trkpt lat="47.36458" lon="-0.00077">
        <ele>75.6</ele>
        <time>2011-03-20T07:42:37Z</time>
      </trkpt>
      <trkpt lat="47.36452" lon="-0.00067">
        <ele>77.04</ele>
        <time>2011-03-20T07:42:43Z</time>
      </trkpt>
      <trkpt lat="47.36442" lon="-0.00052">
        <ele>78.48</ele>
        <time>2011-03-20T07:42:50Z</time>
      </trkpt>
      <trkpt lat="47.36439" lon="-0.00048">
        <ele>79.45</ele>
        <time>2011-03-20T07:42:52Z</time>
      </trkpt>
      <trkpt lat="47.36429" lon="-0.00032">
        <ele>80.89</ele>
        <time>2011-03-20T07:43:00Z</time>
      </trkpt>
      <trkpt lat="47.36423" lon="-0.00022">
        <ele>81.37</ele>
        <time>2011-03-20T07:43:04Z</time>
      </trkpt>
      <trkpt lat="47.36413" lon="-8.0E-5">
        <ele>83.77</ele>
        <time>2011-03-20T07:43:11Z</time>
      </trkpt>
      <trkpt lat="47.36405" lon="-1.0E-5">
        <ele>84.25</ele>
        <time>2011-03-20T07:43:16Z</time>
      </trkpt>
      <trkpt lat="47.36394" lon="0.0001">
        <ele>86.18</ele>
        <time>2011-03-20T07:43:23Z</time>
      </trkpt>
      <trkpt lat="47.36396" lon="0.00021">
        <ele>87.62</ele>
        <time>2011-03-20T07:43:29Z</time>
      </trkpt>
      <trkpt lat="47.364" lon="0.00035">
        <ele>88.1</ele>
        <time>2011-03-20T07:43:34Z</time>
      </trkpt>
      <trkpt lat="47.36402" lon="0.00046">
        <ele>87.14</ele>
        <time>2011-03-20T07:43:37Z</time>
      </trkpt>
      <trkpt lat="47.36413" lon="0.00069">
        <ele>87.62</ele>
        <time>2011-03-20T07:43:44Z</time>
      </trkpt>
      <trkpt lat="47.36428" lon="0.00101">
        <ele>88.1</ele>
        <time>2011-03-20T07:43:51Z</time>
      </trkpt>
      <trkpt lat="47.36434" lon="0.00112">
        <ele>87.14</ele>
        <time>2011-03-20T07:43:54Z</time>
      </trkpt>
      <trkpt lat="47.36436" lon="0.00142">
        <ele>88.1</ele>
        <time>2011-03-20T07:44:00Z</time>
      </trkpt>
      <trkpt lat="47.36443" lon="0.00176">
        <ele>89.06</ele>
        <time>2011-03-20T07:44:06Z</time>
      </trkpt>
      <trkpt lat="47.36449" lon="0.00208">
        <ele>87.62</ele>
        <time>2011-03-20T07:44:12Z</time>
      </trkpt>
      <trkpt lat="47.36447" lon="0.00225">
        <ele>87.62</ele>
        <time>2011-03-20T07:44:15Z</time>
      </trkpt>
      <trkpt lat="47.36445" lon="0.00251">
        <ele>87.62</ele>
        <time>2011-03-20T07:44:20Z</time>
      </trkpt>
      <trkpt lat="47.36438" lon="0.00278">
        <ele>87.62</ele>
        <time>2011-03-20T07:44:25Z</time>
      </trkpt>
      <trkpt lat="47.36436" lon="0.00283">
        <ele>87.62</ele>
        <time>2011-03-20T07:44:26Z</time>
      </trkpt>
      <trkpt lat="47.36434" lon="0.00291">
        <ele>87.14</ele>
        <time>2011-03-20T07:44:27Z</time>
      </trkpt>
      <trkpt lat="47.36417" lon="0.00331">
        <ele>86.66</ele>
        <time>2011-03-20T07:44:34Z</time>
      </trkpt>
      <trkpt lat="47.36409" lon="0.00354">
        <ele>86.66</ele>
        <time>2011-03-20T07:44:39Z</time>
      </trkpt>
      <trkpt lat="47.36401" lon="0.00376">
        <ele>85.69</ele>
        <time>2011-03-20T07:44:44Z</time>
      </trkpt>
      <trkpt lat="47.36399" lon="0.00386">
        <ele>85.69</ele>
        <time>2011-03-20T07:44:46Z</time>
      </trkpt>
      <trkpt lat="47.36398" lon="0.00391">
        <ele>86.18</ele>
        <time>2011-03-20T07:44:47Z</time>
      </trkpt>
      <trkpt lat="47.36396" lon="0.00396">
        <ele>85.69</ele>
        <time>2011-03-20T07:44:48Z</time>
      </trkpt>
      <trkpt lat="47.36391" lon="0.00413">
        <ele>84.73</ele>
        <time>2011-03-20T07:44:51Z</time>
      </trkpt>
      <trkpt lat="47.36389" lon="0.00419">
        <ele>84.25</ele>
        <time>2011-03-20T07:44:52Z</time>
      </trkpt>
      <trkpt lat="47.36387" lon="0.00425">
        <ele>84.73</ele>
        <time>2011-03-20T07:44:53Z</time>
      </trkpt>
      <trkpt lat="47.36382" lon="0.00437">
        <ele>84.25</ele>
        <time>2011-03-20T07:44:55Z</time>
      </trkpt>
      <trkpt lat="47.3638" lon="0.00442">
        <ele>83.77</ele>
        <time>2011-03-20T07:44:56Z</time>
      </trkpt>
      <trkpt lat="47.36367" lon="0.00464">
        <ele>82.81</ele>
        <time>2011-03-20T07:45:01Z</time>
      </trkpt>
      <trkpt lat="47.36354" lon="0.00493">
        <ele>81.85</ele>
        <time>2011-03-20T07:45:07Z</time>
      </trkpt>
      <trkpt lat="47.36354" lon="0.00498">
        <ele>80.89</ele>
        <time>2011-03-20T07:45:08Z</time>
      </trkpt>
      <trkpt lat="47.36355" lon="0.00504">
        <ele>80.89</ele>
        <time>2011-03-20T07:45:09Z</time>
      </trkpt>
      <trkpt lat="47.36359" lon="0.00517">
        <ele>79.93</ele>
        <time>2011-03-20T07:45:11Z</time>
      </trkpt>
      <trkpt lat="47.36362" lon="0.00524">
        <ele>78.97</ele>
        <time>2011-03-20T07:45:12Z</time>
      </trkpt>
      <trkpt lat="47.36365" lon="0.0053">
        <ele>78.48</ele>
        <time>2011-03-20T07:45:13Z</time>
      </trkpt>
      <trkpt lat="47.36371" lon="0.00542">
        <ele>77.52</ele>
        <time>2011-03-20T07:45:15Z</time>
      </trkpt>
      <trkpt lat="47.36379" lon="0.00562">
        <ele>76.08</ele>
        <time>2011-03-20T07:45:18Z</time>
      </trkpt>
      <trkpt lat="47.36381" lon="0.00569">
        <ele>75.12</ele>
        <time>2011-03-20T07:45:19Z</time>
      </trkpt>
      <trkpt lat="47.36384" lon="0.00576">
        <ele>75.6</ele>
        <time>2011-03-20T07:45:20Z</time>
      </trkpt>
      <trkpt lat="47.3639" lon="0.0059">
        <ele>74.16</ele>
        <time>2011-03-20T07:45:22Z</time>
      </trkpt>
      <trkpt lat="47.36399" lon="0.0061">
        <ele>71.76</ele>
        <time>2011-03-20T07:45:25Z</time>
      </trkpt>
      <trkpt lat="47.36413" lon="0.00635">
        <ele>69.35</ele>
        <time>2011-03-20T07:45:28Z</time>
      </trkpt>
      <trkpt lat="47.36416" lon="0.0064">
        <ele>68.87</ele>
        <time>2011-03-20T07:45:29Z</time>
      </trkpt>
      <trkpt lat="47.36426" lon="0.00652">
        <ele>66.47</ele>
        <time>2011-03-20T07:45:32Z</time>
      </trkpt>
      <trkpt lat="47.36434" lon="0.00657">
        <ele>66.47</ele>
        <time>2011-03-20T07:45:34Z</time>
      </trkpt>
      <trkpt lat="47.36456" lon="0.00668">
        <ele>63.58</ele>
        <time>2011-03-20T07:45:39Z</time>
      </trkpt>
      <trkpt lat="47.36469" lon="0.00682">
        <ele>62.14</ele>
        <time>2011-03-20T07:45:43Z</time>
      </trkpt>
      <trkpt lat="47.36473" lon="0.00685">
        <ele>62.14</ele>
        <time>2011-03-20T07:45:44Z</time>
      </trkpt>
      <trkpt lat="47.36476" lon="0.00694">
        <ele>61.18</ele>
        <time>2011-03-20T07:45:45Z</time>
      </trkpt>
      <trkpt lat="47.36479" lon="0.00702">
        <ele>61.18</ele>
        <time>2011-03-20T07:45:46Z</time>
      </trkpt>
      <trkpt lat="47.36481" lon="0.00711">
        <ele>61.18</ele>
        <time>2011-03-20T07:45:47Z</time>
      </trkpt>
      <trkpt lat="47.36482" lon="0.0072">
        <ele>60.22</ele>
        <time>2011-03-20T07:45:48Z</time>
      </trkpt>
      <trkpt lat="47.36484" lon="0.00756">
        <ele>58.78</ele>
        <time>2011-03-20T07:45:53Z</time>
      </trkpt>
      <trkpt lat="47.36498" lon="0.00784">
        <ele>57.34</ele>
        <time>2011-03-20T07:45:57Z</time>
      </trkpt>
      <trkpt lat="47.36505" lon="0.00795">
        <ele>57.82</ele>
        <time>2011-03-20T07:46:01Z</time>
      </trkpt>
      <trkpt lat="47.36512" lon="0.00798">
        <ele>58.3</ele>
        <time>2011-03-20T07:46:07Z</time>
      </trkpt>
      <trkpt lat="47.36514" lon="0.00806">
        <ele>58.78</ele>
        <time>2011-03-20T07:46:16Z</time>
      </trkpt>
      <trkpt lat="47.36511" lon="0.00816">
        <ele>58.78</ele>
        <time>2011-03-20T07:46:23Z</time>
      </trkpt>
      <trkpt lat="47.36508" lon="0.00824">
        <ele>59.26</ele>
        <time>2011-03-20T07:46:28Z</time>
      </trkpt>
      <trkpt lat="47.36507" lon="0.00831">
        <ele>58.78</ele>
        <time>2011-03-20T07:46:36Z</time>
      </trkpt>
      <trkpt lat="47.36506" lon="0.00835">
        <ele>59.74</ele>
        <time>2011-03-20T07:46:56Z</time>
      </trkpt>
      <trkpt lat="47.36496" lon="0.00846">
        <ele>59.26</ele>
        <time>2011-03-20T07:47:01Z</time>
      </trkpt>
      <trkpt lat="47.36484" lon="0.00861">
        <ele>62.14</ele>
        <time>2011-03-20T07:47:07Z</time>
      </trkpt>
      <trkpt lat="47.36482" lon="0.00864">
        <ele>61.66</ele>
        <time>2011-03-20T07:47:08Z</time>
      </trkpt>
      <trkpt lat="47.36473" lon="0.00872">
        <ele>62.62</ele>
        <time>2011-03-20T07:47:13Z</time>
      </trkpt>
      <trkpt lat="47.36471" lon="0.00873">
        <ele>62.62</ele>
        <time>2011-03-20T07:47:14Z</time>
      </trkpt>
      <trkpt lat="47.36461" lon="0.00885">
        <ele>63.58</ele>
        <time>2011-03-20T07:47:21Z</time>
      </trkpt>
      <trkpt lat="47.36454" lon="0.00894">
        <ele>65.51</ele>
        <time>2011-03-20T07:47:26Z</time>
      </trkpt>
      <trkpt lat="47.36449" lon="0.00904">
        <ele>65.51</ele>
        <time>2011-03-20T07:47:31Z</time>
      </trkpt>
      <trkpt lat="47.36447" lon="0.00923">
        <ele>64.07</ele>
        <time>2011-03-20T07:47:36Z</time>
      </trkpt>
      <trkpt lat="47.36446" lon="0.00943">
        <ele>62.14</ele>
        <time>2011-03-20T07:47:40Z</time>
      </trkpt>
      <trkpt lat="47.36449" lon="0.00974">
        <ele>61.66</ele>
        <time>2011-03-20T07:47:45Z</time>
      </trkpt>
      <trkpt lat="47.36453" lon="0.01013">
        <ele>60.22</ele>
        <time>2011-03-20T07:47:51Z</time>
      </trkpt>
      <trkpt lat="47.36457" lon="0.01033">
        <ele>60.22</ele>
        <time>2011-03-20T07:47:55Z</time>
      </trkpt>
      <trkpt lat="47.36459" lon="0.01061">
        <ele>59.74</ele>
        <time>2011-03-20T07:48:00Z</time>
      </trkpt>
      <trkpt lat="47.36464" lon="0.01081">
        <ele>60.22</ele>
        <time>2011-03-20T07:48:05Z</time>
      </trkpt>
      <trkpt lat="47.36466" lon="0.01093">
        <ele>60.22</ele>
        <time>2011-03-20T07:48:07Z</time>
      </trkpt>
      <trkpt lat="47.36466" lon="0.01108">
        <ele>61.18</ele>
        <time>2011-03-20T07:48:11Z</time>
      </trkpt>
      <trkpt lat="47.36456" lon="0.01157">
        <ele>62.14</ele>
        <time>2011-03-20T07:48:33Z</time>
      </trkpt>
      <trkpt lat="47.36483" lon="0.01233">
        <ele>63.1</ele>
        <time>2011-03-20T07:48:35Z</time>
      </trkpt>
      <trkpt lat="47.36488" lon="0.01244">
        <ele>62.14</ele>
        <time>2011-03-20T07:48:39Z</time>
      </trkpt>
      <trkpt lat="47.36488" lon="0.01271">
        <ele>63.1</ele>
        <time>2011-03-20T07:48:46Z</time>
      </trkpt>
      <trkpt lat="47.36483" lon="0.01283">
        <ele>65.51</ele>
        <time>2011-03-20T07:48:55Z</time>
      </trkpt>
      <trkpt lat="47.3647" lon="0.01285">
        <ele>67.91</ele>
        <time>2011-03-20T07:49:02Z</time>
      </trkpt>
      <trkpt lat="47.36461" lon="0.01285">
        <ele>70.31</ele>
        <time>2011-03-20T07:49:07Z</time>
      </trkpt>
      <trkpt lat="47.3645" lon="0.01286">
        <ele>72.24</ele>
        <time>2011-03-20T07:49:12Z</time>
      </trkpt>
      <trkpt lat="47.36448" lon="0.01285">
        <ele>72.24</ele>
        <time>2011-03-20T07:49:13Z</time>
      </trkpt>
      <trkpt lat="47.36429" lon="0.01281">
        <ele>74.16</ele>
        <time>2011-03-20T07:49:22Z</time>
      </trkpt>
      <trkpt lat="47.36412" lon="0.01279">
        <ele>75.6</ele>
        <time>2011-03-20T07:49:28Z</time>
      </trkpt>
      <trkpt lat="47.36397" lon="0.01272">
        <ele>76.56</ele>
        <time>2011-03-20T07:49:34Z</time>
      </trkpt>
      <trkpt lat="47.3638" lon="0.01269">
        <ele>77.52</ele>
        <time>2011-03-20T07:49:40Z</time>
      </trkpt>
      <trkpt lat="47.36362" lon="0.01265">
        <ele>77.52</ele>
        <time>2011-03-20T07:49:46Z</time>
      </trkpt>
      <trkpt lat="47.36346" lon="0.01263">
        <ele>78</ele>
        <time>2011-03-20T07:49:51Z</time>
      </trkpt>
      <trkpt lat="47.36323" lon="0.01259">
        <ele>78.48</ele>
        <time>2011-03-20T07:49:58Z</time>
      </trkpt>
      <trkpt lat="47.36297" lon="0.01247">
        <ele>79.93</ele>
        <time>2011-03-20T07:50:06Z</time>
      </trkpt>
      <trkpt lat="47.36284" lon="0.01236">
        <ele>80.41</ele>
        <time>2011-03-20T07:50:11Z</time>
      </trkpt>
      <trkpt lat="47.36269" lon="0.01242">
        <ele>80.89</ele>
        <time>2011-03-20T07:50:17Z</time>
      </trkpt>
      <trkpt lat="47.36247" lon="0.01258">
        <ele>81.37</ele>
        <time>2011-03-20T07:50:25Z</time>
      </trkpt>
      <trkpt lat="47.36232" lon="0.01269">
        <ele>82.33</ele>
        <time>2011-03-20T07:50:31Z</time>
      </trkpt>
      <trkpt lat="47.36216" lon="0.01283">
        <ele>83.29</ele>
        <time>2011-03-20T07:50:37Z</time>
      </trkpt>
      <trkpt lat="47.36195" lon="0.01303">
        <ele>83.77</ele>
        <time>2011-03-20T07:50:45Z</time>
      </trkpt>
      <trkpt lat="47.36176" lon="0.0132">
        <ele>84.25</ele>
        <time>2011-03-20T07:50:53Z</time>
      </trkpt>
      <trkpt lat="47.36157" lon="0.01325">
        <ele>84.25</ele>
        <time>2011-03-20T07:51:00Z</time>
      </trkpt>
      <trkpt lat="47.36138" lon="0.01313">
        <ele>83.77</ele>
        <time>2011-03-20T07:51:07Z</time>
      </trkpt>
      <trkpt lat="47.36121" lon="0.01296">
        <ele>82.33</ele>
        <time>2011-03-20T07:51:14Z</time>
      </trkpt>
      <trkpt lat="47.3611" lon="0.01286">
        <ele>82.33</ele>
        <time>2011-03-20T07:51:20Z</time>
      </trkpt>
      <trkpt lat="47.36108" lon="0.01283">
        <ele>80.89</ele>
        <time>2011-03-20T07:51:23Z</time>
      </trkpt>
      <trkpt lat="47.36101" lon="0.01273">
        <ele>80.89</ele>
        <time>2011-03-20T07:51:27Z</time>
      </trkpt>
      <trkpt lat="47.36087" lon="0.01263">
        <ele>79.45</ele>
        <time>2011-03-20T07:51:33Z</time>
      </trkpt>
      <trkpt lat="47.36075" lon="0.01254">
        <ele>78.97</ele>
        <time>2011-03-20T07:51:38Z</time>
      </trkpt>
      <trkpt lat="47.36067" lon="0.01247">
        <ele>78.48</ele>
        <time>2011-03-20T07:51:44Z</time>
      </trkpt>
      <trkpt lat="47.36052" lon="0.01235">
        <ele>78.97</ele>
        <time>2011-03-20T07:51:51Z</time>
      </trkpt>
      <trkpt lat="47.36047" lon="0.01234">
        <ele>78.48</ele>
        <time>2011-03-20T07:51:53Z</time>
      </trkpt>
      <trkpt lat="47.36032" lon="0.01248">
        <ele>78</ele>
        <time>2011-03-20T07:52:00Z</time>
      </trkpt>
      <trkpt lat="47.36024" lon="0.0126">
        <ele>78</ele>
        <time>2011-03-20T07:52:03Z</time>
      </trkpt>
      <trkpt lat="47.36009" lon="0.01284">
        <ele>78</ele>
        <time>2011-03-20T07:52:09Z</time>
      </trkpt>
      <trkpt lat="47.35994" lon="0.01311">
        <ele>77.52</ele>
        <time>2011-03-20T07:52:15Z</time>
      </trkpt>
      <trkpt lat="47.35985" lon="0.01327">
        <ele>78.48</ele>
        <time>2011-03-20T07:52:19Z</time>
      </trkpt>
      <trkpt lat="47.35975" lon="0.01343">
        <ele>77.04</ele>
        <time>2011-03-20T07:52:23Z</time>
      </trkpt>
      <trkpt lat="47.35961" lon="0.01357">
        <ele>76.56</ele>
        <time>2011-03-20T07:52:26Z</time>
      </trkpt>
      <trkpt lat="47.35957" lon="0.01364">
        <ele>76.56</ele>
        <time>2011-03-20T07:52:27Z</time>
      </trkpt>
      <trkpt lat="47.35952" lon="0.0137">
        <ele>75.12</ele>
        <time>2011-03-20T07:52:28Z</time>
      </trkpt>
      <trkpt lat="47.35947" lon="0.01376">
        <ele>74.64</ele>
        <time>2011-03-20T07:52:29Z</time>
      </trkpt>
      <trkpt lat="47.35938" lon="0.01389">
        <ele>73.68</ele>
        <time>2011-03-20T07:52:31Z</time>
      </trkpt>
      <trkpt lat="47.35928" lon="0.0141">
        <ele>75.6</ele>
        <time>2011-03-20T07:52:35Z</time>
      </trkpt>
      <trkpt lat="47.35916" lon="0.01434">
        <ele>77.04</ele>
        <time>2011-03-20T07:52:40Z</time>
      </trkpt>
      <trkpt lat="47.35913" lon="0.01439">
        <ele>78</ele>
        <time>2011-03-20T07:52:41Z</time>
      </trkpt>
      <trkpt lat="47.3591" lon="0.01445">
        <ele>77.52</ele>
        <time>2011-03-20T07:52:42Z</time>
      </trkpt>
      <trkpt lat="47.35908" lon="0.0145">
        <ele>78</ele>
        <time>2011-03-20T07:52:43Z</time>
      </trkpt>
      <trkpt lat="47.35905" lon="0.01456">
        <ele>77.52</ele>
        <time>2011-03-20T07:52:44Z</time>
      </trkpt>
      <trkpt lat="47.35902" lon="0.01462">
        <ele>78</ele>
        <time>2011-03-20T07:52:45Z</time>
      </trkpt>
      <trkpt lat="47.35889" lon="0.01486">
        <ele>78.48</ele>
        <time>2011-03-20T07:52:50Z</time>
      </trkpt>
      <trkpt lat="47.35874" lon="0.01514">
        <ele>78</ele>
        <time>2011-03-20T07:52:55Z</time>
      </trkpt>
      <trkpt lat="47.3587" lon="0.01521">
        <ele>78</ele>
        <time>2011-03-20T07:52:56Z</time>
      </trkpt>
      <trkpt lat="47.35851" lon="0.01554">
        <ele>78.48</ele>
        <time>2011-03-20T07:53:02Z</time>
      </trkpt>
      <trkpt lat="47.35848" lon="0.0156">
        <ele>78.48</ele>
        <time>2011-03-20T07:53:03Z</time>
      </trkpt>
      <trkpt lat="47.35842" lon="0.01571">
        <ele>78.48</ele>
        <time>2011-03-20T07:53:05Z</time>
      </trkpt>
      <trkpt lat="47.35825" lon="0.01599">
        <ele>78.48</ele>
        <time>2011-03-20T07:53:10Z</time>
      </trkpt>
      <trkpt lat="47.35821" lon="0.01605">
        <ele>78</ele>
        <time>2011-03-20T07:53:11Z</time>
      </trkpt>
      <trkpt lat="47.35801" lon="0.01643">
        <ele>77.04</ele>
        <time>2011-03-20T07:53:17Z</time>
      </trkpt>
      <trkpt lat="47.3578" lon="0.01677">
        <ele>75.6</ele>
        <time>2011-03-20T07:53:23Z</time>
      </trkpt>
      <trkpt lat="47.35777" lon="0.01683">
        <ele>75.6</ele>
        <time>2011-03-20T07:53:24Z</time>
      </trkpt>
      <trkpt lat="47.35759" lon="0.0171">
        <ele>74.16</ele>
        <time>2011-03-20T07:53:29Z</time>
      </trkpt>
      <trkpt lat="47.35751" lon="0.01722">
        <ele>73.68</ele>
        <time>2011-03-20T07:53:31Z</time>
      </trkpt>
      <trkpt lat="47.35747" lon="0.01729">
        <ele>73.68</ele>
        <time>2011-03-20T07:53:32Z</time>
      </trkpt>
      <trkpt lat="47.35743" lon="0.01734">
        <ele>73.2</ele>
        <time>2011-03-20T07:53:33Z</time>
      </trkpt>
      <trkpt lat="47.35731" lon="0.0175">
        <ele>70.31</ele>
        <time>2011-03-20T07:53:36Z</time>
      </trkpt>
      <trkpt lat="47.35726" lon="0.01754">
        <ele>69.83</ele>
        <time>2011-03-20T07:53:37Z</time>
      </trkpt>
      <trkpt lat="47.3572" lon="0.01758">
        <ele>68.87</ele>
        <time>2011-03-20T07:53:38Z</time>
      </trkpt>
      <trkpt lat="47.35715" lon="0.01765">
        <ele>67.91</ele>
        <time>2011-03-20T07:53:39Z</time>
      </trkpt>
      <trkpt lat="47.3571" lon="0.01773">
        <ele>66.47</ele>
        <time>2011-03-20T07:53:40Z</time>
      </trkpt>
      <trkpt lat="47.35704" lon="0.01781">
        <ele>65.51</ele>
        <time>2011-03-20T07:53:41Z</time>
      </trkpt>
      <trkpt lat="47.35699" lon="0.0179">
        <ele>65.51</ele>
        <time>2011-03-20T07:53:42Z</time>
      </trkpt>
      <trkpt lat="47.35675" lon="0.01834">
        <ele>62.62</ele>
        <time>2011-03-20T07:53:47Z</time>
      </trkpt>
      <trkpt lat="47.35653" lon="0.01879">
        <ele>61.66</ele>
        <time>2011-03-20T07:53:52Z</time>
      </trkpt>
      <trkpt lat="47.35649" lon="0.01887">
        <ele>61.18</ele>
        <time>2011-03-20T07:53:53Z</time>
      </trkpt>
      <trkpt lat="47.35644" lon="0.01896">
        <ele>61.18</ele>
        <time>2011-03-20T07:53:54Z</time>
      </trkpt>
      <trkpt lat="47.35629" lon="0.01922">
        <ele>60.22</ele>
        <time>2011-03-20T07:53:57Z</time>
      </trkpt>
      <trkpt lat="47.35624" lon="0.01928">
        <ele>60.7</ele>
        <time>2011-03-20T07:53:58Z</time>
      </trkpt>
      <trkpt lat="47.35619" lon="0.01931">
        <ele>59.26</ele>
        <time>2011-03-20T07:53:59Z</time>
      </trkpt>
      <trkpt lat="47.35613" lon="0.01935">
        <ele>60.22</ele>
        <time>2011-03-20T07:54:00Z</time>
      </trkpt>
      <trkpt lat="47.35608" lon="0.01938">
        <ele>60.22</ele>
        <time>2011-03-20T07:54:01Z</time>
      </trkpt>
      <trkpt lat="47.35603" lon="0.0194">
        <ele>59.26</ele>
        <time>2011-03-20T07:54:02Z</time>
      </trkpt>
      <trkpt lat="47.35592" lon="0.01944">
        <ele>58.3</ele>
        <time>2011-03-20T07:54:04Z</time>
      </trkpt>
      <trkpt lat="47.35586" lon="0.01947">
        <ele>57.82</ele>
        <time>2011-03-20T07:54:05Z</time>
      </trkpt>
      <trkpt lat="47.35581" lon="0.0195">
        <ele>57.82</ele>
        <time>2011-03-20T07:54:06Z</time>
      </trkpt>
      <trkpt lat="47.35576" lon="0.01952">
        <ele>57.82</ele>
        <time>2011-03-20T07:54:07Z</time>
      </trkpt>
      <trkpt lat="47.35559" lon="0.01958">
        <ele>57.34</ele>
        <time>2011-03-20T07:54:10Z</time>
      </trkpt>
      <trkpt lat="47.35554" lon="0.01958">
        <ele>56.37</ele>
        <time>2011-03-20T07:54:11Z</time>
      </trkpt>
      <trkpt lat="47.35548" lon="0.01959">
        <ele>55.89</ele>
        <time>2011-03-20T07:54:12Z</time>
      </trkpt>
      <trkpt lat="47.35542" lon="0.0196">
        <ele>55.89</ele>
        <time>2011-03-20T07:54:13Z</time>
      </trkpt>
      <trkpt lat="47.35537" lon="0.0196">
        <ele>56.37</ele>
        <time>2011-03-20T07:54:14Z</time>
      </trkpt>
      <trkpt lat="47.35531" lon="0.01962">
        <ele>56.37</ele>
        <time>2011-03-20T07:54:15Z</time>
      </trkpt>
      <trkpt lat="47.35527" lon="0.01967">
        <ele>55.89</ele>
        <time>2011-03-20T07:54:16Z</time>
      </trkpt>
      <trkpt lat="47.35522" lon="0.01971">
        <ele>55.41</ele>
        <time>2011-03-20T07:54:17Z</time>
      </trkpt>
      <trkpt lat="47.35516" lon="0.01976">
        <ele>55.41</ele>
        <time>2011-03-20T07:54:18Z</time>
      </trkpt>
      <trkpt lat="47.35512" lon="0.01981">
        <ele>55.41</ele>
        <time>2011-03-20T07:54:19Z</time>
      </trkpt>
      <trkpt lat="47.35509" lon="0.01985">
        <ele>55.41</ele>
        <time>2011-03-20T07:54:20Z</time>
      </trkpt>
      <trkpt lat="47.3551" lon="0.0199">
        <ele>54.93</ele>
        <time>2011-03-20T07:54:21Z</time>
      </trkpt>
      <trkpt lat="47.3551" lon="0.01996">
        <ele>54.93</ele>
        <time>2011-03-20T07:54:22Z</time>
      </trkpt>
      <trkpt lat="47.35511" lon="0.02003">
        <ele>55.89</ele>
        <time>2011-03-20T07:54:23Z</time>
      </trkpt>
      <trkpt lat="47.35513" lon="0.02009">
        <ele>55.89</ele>
        <time>2011-03-20T07:54:24Z</time>
      </trkpt>
      <trkpt lat="47.35515" lon="0.02023">
        <ele>55.89</ele>
        <time>2011-03-20T07:54:26Z</time>
      </trkpt>
      <trkpt lat="47.35519" lon="0.02063">
        <ele>55.41</ele>
        <time>2011-03-20T07:54:32Z</time>
      </trkpt>
      <trkpt lat="47.3552" lon="0.02085">
        <ele>55.41</ele>
        <time>2011-03-20T07:54:35Z</time>
      </trkpt>
      <trkpt lat="47.3552" lon="0.02094">
        <ele>55.41</ele>
        <time>2011-03-20T07:54:36Z</time>
      </trkpt>
      <trkpt lat="47.35521" lon="0.02102">
        <ele>55.89</ele>
        <time>2011-03-20T07:54:37Z</time>
      </trkpt>
      <trkpt lat="47.35522" lon="0.0211">
        <ele>55.89</ele>
        <time>2011-03-20T07:54:38Z</time>
      </trkpt>
      <trkpt lat="47.35522" lon="0.02118">
        <ele>55.89</ele>
        <time>2011-03-20T07:54:39Z</time>
      </trkpt>
      <trkpt lat="47.35523" lon="0.02125">
        <ele>55.89</ele>
        <time>2011-03-20T07:54:40Z</time>
      </trkpt>
      <trkpt lat="47.35524" lon="0.02162">
        <ele>55.89</ele>
        <time>2011-03-20T07:54:46Z</time>
      </trkpt>
      <trkpt lat="47.35525" lon="0.02201">
        <ele>56.37</ele>
        <time>2011-03-20T07:54:53Z</time>
      </trkpt>
      <trkpt lat="47.35523" lon="0.02214">
        <ele>56.86</ele>
        <time>2011-03-20T07:54:56Z</time>
      </trkpt>
      <trkpt lat="47.35522" lon="0.02221">
        <ele>56.86</ele>
        <time>2011-03-20T07:54:57Z</time>
      </trkpt>
      <trkpt lat="47.3552" lon="0.0223">
        <ele>56.86</ele>
        <time>2011-03-20T07:55:02Z</time>
      </trkpt>
      <trkpt lat="47.3552" lon="0.02231">
        <ele>57.34</ele>
        <time>2011-03-20T07:55:11Z</time>
      </trkpt>
      <trkpt lat="47.35519" lon="0.02232">
        <ele>57.34</ele>
        <time>2011-03-20T07:55:21Z</time>
      </trkpt>
      <trkpt lat="47.35518" lon="0.02233">
        <ele>57.34</ele>
        <time>2011-03-20T07:55:22Z</time>
      </trkpt>
      <trkpt lat="47.35508" lon="0.02251">
        <ele>56.86</ele>
        <time>2011-03-20T07:55:29Z</time>
      </trkpt>
      <trkpt lat="47.35507" lon="0.02253">
        <ele>57.34</ele>
        <time>2011-03-20T07:55:34Z</time>
      </trkpt>
      <trkpt lat="47.35507" lon="0.02255">
        <ele>57.34</ele>
        <time>2011-03-20T07:55:44Z</time>
      </trkpt>
      <trkpt lat="47.35506" lon="0.02257">
        <ele>57.34</ele>
        <time>2011-03-20T07:56:13Z</time>
      </trkpt>
      <trkpt lat="47.35505" lon="0.02259">
        <ele>57.34</ele>
        <time>2011-03-20T07:56:14Z</time>
      </trkpt>
      <trkpt lat="47.35504" lon="0.02261">
        <ele>57.34</ele>
        <time>2011-03-20T07:56:15Z</time>
      </trkpt>
      <trkpt lat="47.35503" lon="0.02265">
        <ele>57.34</ele>
        <time>2011-03-20T07:56:16Z</time>
      </trkpt>
      <trkpt lat="47.35502" lon="0.02268">
        <ele>57.82</ele>
        <time>2011-03-20T07:56:17Z</time>
      </trkpt>
      <trkpt lat="47.35492" lon="0.02285">
        <ele>58.3</ele>
        <time>2011-03-20T07:56:22Z</time>
      </trkpt>
      <trkpt lat="47.35483" lon="0.02307">
        <ele>59.26</ele>
        <time>2011-03-20T07:56:28Z</time>
      </trkpt>
      <trkpt lat="47.35477" lon="0.02328">
        <ele>60.22</ele>
        <time>2011-03-20T07:56:34Z</time>
      </trkpt>
      <trkpt lat="47.35468" lon="0.02347">
        <ele>61.66</ele>
        <time>2011-03-20T07:56:40Z</time>
      </trkpt>
      <trkpt lat="47.35461" lon="0.02366">
        <ele>63.1</ele>
        <time>2011-03-20T07:56:46Z</time>
      </trkpt>
      <trkpt lat="47.35453" lon="0.02384">
        <ele>64.07</ele>
        <time>2011-03-20T07:56:52Z</time>
      </trkpt>
      <trkpt lat="47.35447" lon="0.02402">
        <ele>65.51</ele>
        <time>2011-03-20T07:56:58Z</time>
      </trkpt>
      <trkpt lat="47.35441" lon="0.02419">
        <ele>66.95</ele>
        <time>2011-03-20T07:57:04Z</time>
      </trkpt>
      <trkpt lat="47.35433" lon="0.02439">
        <ele>68.39</ele>
        <time>2011-03-20T07:57:10Z</time>
      </trkpt>
      <trkpt lat="47.35429" lon="0.02454">
        <ele>69.83</ele>
        <time>2011-03-20T07:57:15Z</time>
      </trkpt>
      <trkpt lat="47.35424" lon="0.02465">
        <ele>70.31</ele>
        <time>2011-03-20T07:57:19Z</time>
      </trkpt>
      <trkpt lat="47.35418" lon="0.02483">
        <ele>71.76</ele>
        <time>2011-03-20T07:57:25Z</time>
      </trkpt>
      <trkpt lat="47.3541" lon="0.02507">
        <ele>72.72</ele>
        <time>2011-03-20T07:57:33Z</time>
      </trkpt>
      <trkpt lat="47.35406" lon="0.02524">
        <ele>73.68</ele>
        <time>2011-03-20T07:57:39Z</time>
      </trkpt>
      <trkpt lat="47.35396" lon="0.02546">
        <ele>75.12</ele>
        <time>2011-03-20T07:57:45Z</time>
      </trkpt>
      <trkpt lat="47.35389" lon="0.02569">
        <ele>76.08</ele>
        <time>2011-03-20T07:57:51Z</time>
      </trkpt>
      <trkpt lat="47.35384" lon="0.02585">
        <ele>77.52</ele>
        <time>2011-03-20T07:57:56Z</time>
      </trkpt>
      <trkpt lat="47.35377" lon="0.02605">
        <ele>79.45</ele>
        <time>2011-03-20T07:58:03Z</time>
      </trkpt>
      <trkpt lat="47.35368" lon="0.02629">
        <ele>80.41</ele>
        <time>2011-03-20T07:58:10Z</time>
      </trkpt>
      <trkpt lat="47.35365" lon="0.02639">
        <ele>81.85</ele>
        <time>2011-03-20T07:58:13Z</time>
      </trkpt>
      <trkpt lat="47.35357" lon="0.02658">
        <ele>82.81</ele>
        <time>2011-03-20T07:58:19Z</time>
      </trkpt>
      <trkpt lat="47.35346" lon="0.02675">
        <ele>83.29</ele>
        <time>2011-03-20T07:58:25Z</time>
      </trkpt>
      <trkpt lat="47.35333" lon="0.02693">
        <ele>84.25</ele>
        <time>2011-03-20T07:58:32Z</time>
      </trkpt>
      <trkpt lat="47.35329" lon="0.02696">
        <ele>85.21</ele>
        <time>2011-03-20T07:58:34Z</time>
      </trkpt>
      <trkpt lat="47.35328" lon="0.02699">
        <ele>85.21</ele>
        <time>2011-03-20T07:58:35Z</time>
      </trkpt>
      <trkpt lat="47.35314" lon="0.02711">
        <ele>85.69</ele>
        <time>2011-03-20T07:58:42Z</time>
      </trkpt>
      <trkpt lat="47.3531" lon="0.02714">
        <ele>86.66</ele>
        <time>2011-03-20T07:58:47Z</time>
      </trkpt>
      <trkpt lat="47.3531" lon="0.02713">
        <ele>86.66</ele>
        <time>2011-03-20T07:59:01Z</time>
      </trkpt>
      <trkpt lat="47.35306" lon="0.02716">
        <ele>86.18</ele>
        <time>2011-03-20T07:59:09Z</time>
      </trkpt>
      <trkpt lat="47.35306" lon="0.02716">
        <ele>86.18</ele>
        <time>2011-03-20T07:59:10Z</time>
      </trkpt>
      <trkpt lat="47.35302" lon="0.02723">
        <ele>86.18</ele>
        <time>2011-03-20T07:59:14Z</time>
      </trkpt>
      <trkpt lat="47.35291" lon="0.0275">
        <ele>86.66</ele>
        <time>2011-03-20T07:59:23Z</time>
      </trkpt>
      <trkpt lat="47.35289" lon="0.02757">
        <ele>87.14</ele>
        <time>2011-03-20T07:59:27Z</time>
      </trkpt>
      <trkpt lat="47.35288" lon="0.02763">
        <ele>86.66</ele>
        <time>2011-03-20T07:59:32Z</time>
      </trkpt>
      <trkpt lat="47.35287" lon="0.02765">
        <ele>86.66</ele>
        <time>2011-03-20T07:59:40Z</time>
      </trkpt>
      <trkpt lat="47.35281" lon="0.02781">
        <ele>87.14</ele>
        <time>2011-03-20T07:59:45Z</time>
      </trkpt>
      <trkpt lat="47.35268" lon="0.02814">
        <ele>86.66</ele>
        <time>2011-03-20T07:59:53Z</time>
      </trkpt>
      <trkpt lat="47.35258" lon="0.02838">
        <ele>86.66</ele>
        <time>2011-03-20T07:59:59Z</time>
      </trkpt>
      <trkpt lat="47.35251" lon="0.02871">
        <ele>86.66</ele>
        <time>2011-03-20T08:00:06Z</time>
      </trkpt>
      <trkpt lat="47.3524" lon="0.02899">
        <ele>85.69</ele>
        <time>2011-03-20T08:00:12Z</time>
      </trkpt>
      <trkpt lat="47.35238" lon="0.02902">
        <ele>85.21</ele>
        <time>2011-03-20T08:00:13Z</time>
      </trkpt>
      <trkpt lat="47.35228" lon="0.02907">
        <ele>86.18</ele>
        <time>2011-03-20T08:00:18Z</time>
      </trkpt>
      <trkpt lat="47.35222" lon="0.02908">
        <ele>86.18</ele>
        <time>2011-03-20T08:00:21Z</time>
      </trkpt>
      <trkpt lat="47.35219" lon="0.0291">
        <ele>86.66</ele>
        <time>2011-03-20T08:00:24Z</time>
      </trkpt>
      <trkpt lat="47.35208" lon="0.02923">
        <ele>86.66</ele>
        <time>2011-03-20T08:00:31Z</time>
      </trkpt>
      <trkpt lat="47.35198" lon="0.02932">
        <ele>87.14</ele>
        <time>2011-03-20T08:00:35Z</time>
      </trkpt>
      <trkpt lat="47.35193" lon="0.02953">
        <ele>86.66</ele>
        <time>2011-03-20T08:00:40Z</time>
      </trkpt>
      <trkpt lat="47.35189" lon="0.02977">
        <ele>86.18</ele>
        <time>2011-03-20T08:00:45Z</time>
      </trkpt>
      <trkpt lat="47.35188" lon="0.03014">
        <ele>85.21</ele>
        <time>2011-03-20T08:00:51Z</time>
      </trkpt>
      <trkpt lat="47.35189" lon="0.03033">
        <ele>84.25</ele>
        <time>2011-03-20T08:00:55Z</time>
      </trkpt>
      <trkpt lat="47.35181" lon="0.03074">
        <ele>83.77</ele>
        <time>2011-03-20T08:01:04Z</time>
      </trkpt>
      <trkpt lat="47.35176" lon="0.031">
        <ele>82.33</ele>
        <time>2011-03-20T08:01:10Z</time>
      </trkpt>
      <trkpt lat="47.35175" lon="0.03103">
        <ele>81.85</ele>
        <time>2011-03-20T08:01:11Z</time>
      </trkpt>
      <trkpt lat="47.35175" lon="0.03125">
        <ele>80.89</ele>
        <time>2011-03-20T08:01:17Z</time>
      </trkpt>
      <trkpt lat="47.35185" lon="0.03142">
        <ele>80.41</ele>
        <time>2011-03-20T08:01:22Z</time>
      </trkpt>
      <trkpt lat="47.35197" lon="0.03147">
        <ele>79.93</ele>
        <time>2011-03-20T08:01:26Z</time>
      </trkpt>
      <trkpt lat="47.35206" lon="0.03164">
        <ele>79.45</ele>
        <time>2011-03-20T08:01:30Z</time>
      </trkpt>
      <trkpt lat="47.3522" lon="0.03193">
        <ele>79.45</ele>
        <time>2011-03-20T08:01:37Z</time>
      </trkpt>
      <trkpt lat="47.35226" lon="0.0321">
        <ele>78.97</ele>
        <time>2011-03-20T08:01:42Z</time>
      </trkpt>
      <trkpt lat="47.35235" lon="0.03224">
        <ele>77.52</ele>
        <time>2011-03-20T08:01:47Z</time>
      </trkpt>
      <trkpt lat="47.35244" lon="0.03242">
        <ele>75.6</ele>
        <time>2011-03-20T08:01:52Z</time>
      </trkpt>
      <trkpt lat="47.35242" lon="0.03257">
        <ele>75.6</ele>
        <time>2011-03-20T08:01:54Z</time>
      </trkpt>
      <trkpt lat="47.35246" lon="0.03288">
        <ele>72.72</ele>
        <time>2011-03-20T08:01:58Z</time>
      </trkpt>
      <trkpt lat="47.35254" lon="0.03303">
        <ele>72.24</ele>
        <time>2011-03-20T08:02:00Z</time>
      </trkpt>
      <trkpt lat="47.35258" lon="0.03319">
        <ele>71.76</ele>
        <time>2011-03-20T08:02:02Z</time>
      </trkpt>
      <trkpt lat="47.35277" lon="0.03355">
        <ele>69.83</ele>
        <time>2011-03-20T08:02:08Z</time>
      </trkpt>
      <trkpt lat="47.35293" lon="0.03396">
        <ele>68.87</ele>
        <time>2011-03-20T08:02:14Z</time>
      </trkpt>
      <trkpt lat="47.3531" lon="0.03432">
        <ele>66.95</ele>
        <time>2011-03-20T08:02:20Z</time>
      </trkpt>
      <trkpt lat="47.35325" lon="0.03464">
        <ele>64.07</ele>
        <time>2011-03-20T08:02:26Z</time>
      </trkpt>
      <trkpt lat="47.35328" lon="0.0347">
        <ele>63.58</ele>
        <time>2011-03-20T08:02:27Z</time>
      </trkpt>
      <trkpt lat="47.35341" lon="0.03492">
        <ele>61.18</ele>
        <time>2011-03-20T08:02:31Z</time>
      </trkpt>
      <trkpt lat="47.35348" lon="0.03506">
        <ele>59.74</ele>
        <time>2011-03-20T08:02:33Z</time>
      </trkpt>
      <trkpt lat="47.35355" lon="0.03521">
        <ele>59.26</ele>
        <time>2011-03-20T08:02:35Z</time>
      </trkpt>
      <trkpt lat="47.35371" lon="0.03558">
        <ele>56.86</ele>
        <time>2011-03-20T08:02:40Z</time>
      </trkpt>
      <trkpt lat="47.35378" lon="0.03565">
        <ele>56.86</ele>
        <time>2011-03-20T08:02:41Z</time>
      </trkpt>
      <trkpt lat="47.35385" lon="0.0357">
        <ele>56.37</ele>
        <time>2011-03-20T08:02:42Z</time>
      </trkpt>
      <trkpt lat="47.35391" lon="0.03576">
        <ele>56.37</ele>
        <time>2011-03-20T08:02:43Z</time>
      </trkpt>
      <trkpt lat="47.35397" lon="0.03596">
        <ele>55.41</ele>
        <time>2011-03-20T08:02:46Z</time>
      </trkpt>
      <trkpt lat="47.35397" lon="0.03599">
        <ele>55.41</ele>
        <time>2011-03-20T08:02:47Z</time>
      </trkpt>
      <trkpt lat="47.35403" lon="0.03625">
        <ele>55.41</ele>
        <time>2011-03-20T08:02:52Z</time>
      </trkpt>
      <trkpt lat="47.35388" lon="0.03645">
        <ele>56.86</ele>
        <time>2011-03-20T08:02:59Z</time>
      </trkpt>
      <trkpt lat="47.35369" lon="0.0365">
        <ele>57.34</ele>
        <time>2011-03-20T08:03:05Z</time>
      </trkpt>
      <trkpt lat="47.3535" lon="0.03639">
        <ele>57.34</ele>
        <time>2011-03-20T08:03:12Z</time>
      </trkpt>
      <trkpt lat="47.35331" lon="0.03623">
        <ele>58.3</ele>
        <time>2011-03-20T08:03:19Z</time>
      </trkpt>
      <trkpt lat="47.35318" lon="0.03612">
        <ele>58.78</ele>
        <time>2011-03-20T08:03:24Z</time>
      </trkpt>
      <trkpt lat="47.35294" lon="0.0359">
        <ele>60.22</ele>
        <time>2011-03-20T08:03:33Z</time>
      </trkpt>
      <trkpt lat="47.35276" lon="0.03586">
        <ele>61.18</ele>
        <time>2011-03-20T08:03:39Z</time>
      </trkpt>
      <trkpt lat="47.35261" lon="0.03584">
        <ele>62.62</ele>
        <time>2011-03-20T08:03:45Z</time>
      </trkpt>
      <trkpt lat="47.35247" lon="0.03583">
        <ele>64.55</ele>
        <time>2011-03-20T08:03:51Z</time>
      </trkpt>
      <trkpt lat="47.35223" lon="0.03576">
        <ele>66.95</ele>
        <time>2011-03-20T08:03:59Z</time>
      </trkpt>
      <trkpt lat="47.35201" lon="0.03566">
        <ele>68.87</ele>
        <time>2011-03-20T08:04:07Z</time>
      </trkpt>
      <trkpt lat="47.35181" lon="0.03556">
        <ele>70.79</ele>
        <time>2011-03-20T08:04:14Z</time>
      </trkpt>
      <trkpt lat="47.35161" lon="0.0355">
        <ele>72.72</ele>
        <time>2011-03-20T08:04:21Z</time>
      </trkpt>
      <trkpt lat="47.35144" lon="0.03546">
        <ele>74.16</ele>
        <time>2011-03-20T08:04:27Z</time>
      </trkpt>
      <trkpt lat="47.35125" lon="0.03542">
        <ele>75.12</ele>
        <time>2011-03-20T08:04:33Z</time>
      </trkpt>
      <trkpt lat="47.351" lon="0.03537">
        <ele>76.56</ele>
        <time>2011-03-20T08:04:41Z</time>
      </trkpt>
      <trkpt lat="47.35079" lon="0.03529">
        <ele>78</ele>
        <time>2011-03-20T08:04:48Z</time>
      </trkpt>
      <trkpt lat="47.35061" lon="0.03523">
        <ele>79.93</ele>
        <time>2011-03-20T08:04:54Z</time>
      </trkpt>
      <trkpt lat="47.35035" lon="0.03515">
        <ele>80.89</ele>
        <time>2011-03-20T08:05:02Z</time>
      </trkpt>
      <trkpt lat="47.35013" lon="0.0351">
        <ele>81.37</ele>
        <time>2011-03-20T08:05:09Z</time>
      </trkpt>
      <trkpt lat="47.34995" lon="0.03505">
        <ele>81.37</ele>
        <time>2011-03-20T08:05:15Z</time>
      </trkpt>
      <trkpt lat="47.34973" lon="0.03496">
        <ele>82.33</ele>
        <time>2011-03-20T08:05:22Z</time>
      </trkpt>
      <trkpt lat="47.34952" lon="0.03481">
        <ele>82.81</ele>
        <time>2011-03-20T08:05:29Z</time>
      </trkpt>
      <trkpt lat="47.34933" lon="0.03475">
        <ele>82.81</ele>
        <time>2011-03-20T08:05:35Z</time>
      </trkpt>
      <trkpt lat="47.34917" lon="0.03469">
        <ele>83.77</ele>
        <time>2011-03-20T08:05:41Z</time>
      </trkpt>
      <trkpt lat="47.34886" lon="0.0345">
        <ele>84.25</ele>
        <time>2011-03-20T08:05:51Z</time>
      </trkpt>
      <trkpt lat="47.34856" lon="0.03426">
        <ele>83.77</ele>
        <time>2011-03-20T08:06:00Z</time>
      </trkpt>
      <trkpt lat="47.34828" lon="0.03409">
        <ele>83.77</ele>
        <time>2011-03-20T08:06:08Z</time>
      </trkpt>
      <trkpt lat="47.34807" lon="0.03397">
        <ele>83.29</ele>
        <time>2011-03-20T08:06:14Z</time>
      </trkpt>
      <trkpt lat="47.34802" lon="0.03395">
        <ele>82.81</ele>
        <time>2011-03-20T08:06:15Z</time>
      </trkpt>
      <trkpt lat="47.34798" lon="0.03393">
        <ele>83.29</ele>
        <time>2011-03-20T08:06:16Z</time>
      </trkpt>
      <trkpt lat="47.34796" lon="0.03388">
        <ele>83.29</ele>
        <time>2011-03-20T08:06:17Z</time>
      </trkpt>
      <trkpt lat="47.34794" lon="0.03384">
        <ele>83.29</ele>
        <time>2011-03-20T08:06:18Z</time>
      </trkpt>
      <trkpt lat="47.34791" lon="0.0338">
        <ele>83.29</ele>
        <time>2011-03-20T08:06:19Z</time>
      </trkpt>
      <trkpt lat="47.34787" lon="0.03376">
        <ele>83.29</ele>
        <time>2011-03-20T08:06:20Z</time>
      </trkpt>
      <trkpt lat="47.34784" lon="0.03373">
        <ele>82.33</ele>
        <time>2011-03-20T08:06:21Z</time>
      </trkpt>
      <trkpt lat="47.3478" lon="0.03371">
        <ele>83.77</ele>
        <time>2011-03-20T08:06:22Z</time>
      </trkpt>
      <trkpt lat="47.3477" lon="0.03367">
        <ele>83.29</ele>
        <time>2011-03-20T08:06:24Z</time>
      </trkpt>
      <trkpt lat="47.34765" lon="0.03366">
        <ele>83.29</ele>
        <time>2011-03-20T08:06:25Z</time>
      </trkpt>
      <trkpt lat="47.34762" lon="0.03362">
        <ele>83.29</ele>
        <time>2011-03-20T08:06:26Z</time>
      </trkpt>
      <trkpt lat="47.3476" lon="0.03358">
        <ele>82.81</ele>
        <time>2011-03-20T08:06:27Z</time>
      </trkpt>
      <trkpt lat="47.34757" lon="0.03355">
        <ele>83.29</ele>
        <time>2011-03-20T08:06:28Z</time>
      </trkpt>
      <trkpt lat="47.34754" lon="0.03351">
        <ele>83.77</ele>
        <time>2011-03-20T08:06:29Z</time>
      </trkpt>
      <trkpt lat="47.34748" lon="0.03346">
        <ele>83.29</ele>
        <time>2011-03-20T08:06:31Z</time>
      </trkpt>
      <trkpt lat="47.34745" lon="0.03342">
        <ele>83.29</ele>
        <time>2011-03-20T08:06:32Z</time>
      </trkpt>
      <trkpt lat="47.34742" lon="0.03339">
        <ele>83.29</ele>
        <time>2011-03-20T08:06:33Z</time>
      </trkpt>
      <trkpt lat="47.34739" lon="0.03336">
        <ele>83.29</ele>
        <time>2011-03-20T08:06:34Z</time>
      </trkpt>
      <trkpt lat="47.34736" lon="0.03333">
        <ele>82.81</ele>
        <time>2011-03-20T08:06:35Z</time>
      </trkpt>
      <trkpt lat="47.34733" lon="0.0333">
        <ele>83.29</ele>
        <time>2011-03-20T08:06:36Z</time>
      </trkpt>
      <trkpt lat="47.34729" lon="0.03327">
        <ele>83.29</ele>
        <time>2011-03-20T08:06:37Z</time>
      </trkpt>
      <trkpt lat="47.34726" lon="0.03324">
        <ele>83.29</ele>
        <time>2011-03-20T08:06:38Z</time>
      </trkpt>
      <trkpt lat="47.34716" lon="0.03316">
        <ele>84.25</ele>
        <time>2011-03-20T08:06:41Z</time>
      </trkpt>
      <trkpt lat="47.347" lon="0.03297">
        <ele>83.29</ele>
        <time>2011-03-20T08:06:47Z</time>
      </trkpt>
      <trkpt lat="47.34685" lon="0.03288">
        <ele>84.73</ele>
        <time>2011-03-20T08:06:52Z</time>
      </trkpt>
      <trkpt lat="47.34672" lon="0.03274">
        <ele>84.73</ele>
        <time>2011-03-20T08:06:57Z</time>
      </trkpt>
      <trkpt lat="47.34659" lon="0.03264">
        <ele>84.25</ele>
        <time>2011-03-20T08:07:02Z</time>
      </trkpt>
      <trkpt lat="47.34647" lon="0.03259">
        <ele>83.77</ele>
        <time>2011-03-20T08:07:07Z</time>
      </trkpt>
      <trkpt lat="47.34645" lon="0.03259">
        <ele>83.29</ele>
        <time>2011-03-20T08:07:14Z</time>
      </trkpt>
      <trkpt lat="47.34641" lon="0.03261">
        <ele>85.21</ele>
        <time>2011-03-20T08:09:28Z</time>
      </trkpt>
      <trkpt lat="47.3464" lon="0.03262">
        <ele>84.73</ele>
        <time>2011-03-20T08:09:29Z</time>
      </trkpt>
      <trkpt lat="47.34638" lon="0.03265">
        <ele>84.73</ele>
        <time>2011-03-20T08:09:30Z</time>
      </trkpt>
      <trkpt lat="47.34637" lon="0.03269">
        <ele>85.21</ele>
        <time>2011-03-20T08:09:31Z</time>
      </trkpt>
      <trkpt lat="47.34635" lon="0.03272">
        <ele>85.21</ele>
        <time>2011-03-20T08:09:32Z</time>
      </trkpt>
      <trkpt lat="47.34622" lon="0.03301">
        <ele>84.73</ele>
        <time>2011-03-20T08:09:38Z</time>
      </trkpt>
      <trkpt lat="47.34602" lon="0.03335">
        <ele>85.21</ele>
        <time>2011-03-20T08:09:45Z</time>
      </trkpt>
      <trkpt lat="47.34585" lon="0.03361">
        <ele>85.21</ele>
        <time>2011-03-20T08:09:52Z</time>
      </trkpt>
      <trkpt lat="47.34568" lon="0.03396">
        <ele>85.21</ele>
        <time>2011-03-20T08:09:59Z</time>
      </trkpt>
      <trkpt lat="47.34563" lon="0.03403">
        <ele>85.21</ele>
        <time>2011-03-20T08:10:00Z</time>
      </trkpt>
      <trkpt lat="47.34558" lon="0.03408">
        <ele>85.21</ele>
        <time>2011-03-20T08:10:01Z</time>
      </trkpt>
      <trkpt lat="47.34553" lon="0.03413">
        <ele>85.69</ele>
        <time>2011-03-20T08:10:02Z</time>
      </trkpt>
      <trkpt lat="47.34549" lon="0.03418">
        <ele>85.69</ele>
        <time>2011-03-20T08:10:03Z</time>
      </trkpt>
      <trkpt lat="47.34545" lon="0.03424">
        <ele>85.21</ele>
        <time>2011-03-20T08:10:04Z</time>
      </trkpt>
      <trkpt lat="47.34542" lon="0.0343">
        <ele>84.73</ele>
        <time>2011-03-20T08:10:05Z</time>
      </trkpt>
      <trkpt lat="47.34539" lon="0.03435">
        <ele>84.73</ele>
        <time>2011-03-20T08:10:06Z</time>
      </trkpt>
      <trkpt lat="47.34536" lon="0.03441">
        <ele>85.21</ele>
        <time>2011-03-20T08:10:07Z</time>
      </trkpt>
      <trkpt lat="47.34532" lon="0.03447">
        <ele>84.73</ele>
        <time>2011-03-20T08:10:08Z</time>
      </trkpt>
      <trkpt lat="47.34529" lon="0.03452">
        <ele>84.25</ele>
        <time>2011-03-20T08:10:09Z</time>
      </trkpt>
      <trkpt lat="47.34525" lon="0.03456">
        <ele>84.25</ele>
        <time>2011-03-20T08:10:10Z</time>
      </trkpt>
      <trkpt lat="47.3452" lon="0.03459">
        <ele>84.73</ele>
        <time>2011-03-20T08:10:11Z</time>
      </trkpt>
      <trkpt lat="47.34516" lon="0.03462">
        <ele>84.25</ele>
        <time>2011-03-20T08:10:12Z</time>
      </trkpt>
      <trkpt lat="47.34507" lon="0.03467">
        <ele>83.77</ele>
        <time>2011-03-20T08:10:14Z</time>
      </trkpt>
      <trkpt lat="47.34502" lon="0.03468">
        <ele>83.77</ele>
        <time>2011-03-20T08:10:15Z</time>
      </trkpt>
      <trkpt lat="47.34489" lon="0.03475">
        <ele>82.81</ele>
        <time>2011-03-20T08:10:19Z</time>
      </trkpt>
      <trkpt lat="47.34489" lon="0.03478">
        <ele>82.81</ele>
        <time>2011-03-20T08:10:20Z</time>
      </trkpt>
      <trkpt lat="47.34489" lon="0.03481">
        <ele>82.81</ele>
        <time>2011-03-20T08:10:21Z</time>
      </trkpt>
      <trkpt lat="47.34491" lon="0.03483">
        <ele>83.29</ele>
        <time>2011-03-20T08:10:22Z</time>
      </trkpt>
      <trkpt lat="47.34493" lon="0.03486">
        <ele>82.81</ele>
        <time>2011-03-20T08:10:23Z</time>
      </trkpt>
      <trkpt lat="47.34509" lon="0.035">
        <ele>85.21</ele>
        <time>2011-03-20T08:10:30Z</time>
      </trkpt>
      <trkpt lat="47.34523" lon="0.03508">
        <ele>86.18</ele>
        <time>2011-03-20T08:10:35Z</time>
      </trkpt>
      <trkpt lat="47.34538" lon="0.03518">
        <ele>86.18</ele>
        <time>2011-03-20T08:10:40Z</time>
      </trkpt>
      <trkpt lat="47.34547" lon="0.03526">
        <ele>86.18</ele>
        <time>2011-03-20T08:10:44Z</time>
      </trkpt>
      <trkpt lat="47.34549" lon="0.03529">
        <ele>86.66</ele>
        <time>2011-03-20T08:10:45Z</time>
      </trkpt>
      <trkpt lat="47.3455" lon="0.03534">
        <ele>86.18</ele>
        <time>2011-03-20T08:10:46Z</time>
      </trkpt>
      <trkpt lat="47.34555" lon="0.0355">
        <ele>85.69</ele>
        <time>2011-03-20T08:10:49Z</time>
      </trkpt>
      <trkpt lat="47.34557" lon="0.03569">
        <ele>86.18</ele>
        <time>2011-03-20T08:10:54Z</time>
      </trkpt>
      <trkpt lat="47.34552" lon="0.03589">
        <ele>86.66</ele>
        <time>2011-03-20T08:10:59Z</time>
      </trkpt>
      <trkpt lat="47.34544" lon="0.03616">
        <ele>86.18</ele>
        <time>2011-03-20T08:11:06Z</time>
      </trkpt>
      <trkpt lat="47.34537" lon="0.03629">
        <ele>86.18</ele>
        <time>2011-03-20T08:11:09Z</time>
      </trkpt>
      <trkpt lat="47.34529" lon="0.03653">
        <ele>86.66</ele>
        <time>2011-03-20T08:11:14Z</time>
      </trkpt>
      <trkpt lat="47.34519" lon="0.03691">
        <ele>86.66</ele>
        <time>2011-03-20T08:11:19Z</time>
      </trkpt>
      <trkpt lat="47.34514" lon="0.03717">
        <ele>86.18</ele>
        <time>2011-03-20T08:11:23Z</time>
      </trkpt>
      <trkpt lat="47.34514" lon="0.03759">
        <ele>85.69</ele>
        <time>2011-03-20T08:11:30Z</time>
      </trkpt>
      <trkpt lat="47.34521" lon="0.03782">
        <ele>85.69</ele>
        <time>2011-03-20T08:11:35Z</time>
      </trkpt>
      <trkpt lat="47.34529" lon="0.03812">
        <ele>85.21</ele>
        <time>2011-03-20T08:11:41Z</time>
      </trkpt>
      <trkpt lat="47.34536" lon="0.03825">
        <ele>84.73</ele>
        <time>2011-03-20T08:11:44Z</time>
      </trkpt>
      <trkpt lat="47.3454" lon="0.03849">
        <ele>83.77</ele>
        <time>2011-03-20T08:11:49Z</time>
      </trkpt>
      <trkpt lat="47.34536" lon="0.03877">
        <ele>82.81</ele>
        <time>2011-03-20T08:11:55Z</time>
      </trkpt>
      <trkpt lat="47.34533" lon="0.03905">
        <ele>82.33</ele>
        <time>2011-03-20T08:12:00Z</time>
      </trkpt>
      <trkpt lat="47.34531" lon="0.03919">
        <ele>81.85</ele>
        <time>2011-03-20T08:12:02Z</time>
      </trkpt>
      <trkpt lat="47.34525" lon="0.03951">
        <ele>80.41</ele>
        <time>2011-03-20T08:12:06Z</time>
      </trkpt>
      <trkpt lat="47.34524" lon="0.03961">
        <ele>79.93</ele>
        <time>2011-03-20T08:12:07Z</time>
      </trkpt>
      <trkpt lat="47.34522" lon="0.03969">
        <ele>79.45</ele>
        <time>2011-03-20T08:12:08Z</time>
      </trkpt>
      <trkpt lat="47.34519" lon="0.03977">
        <ele>78.97</ele>
        <time>2011-03-20T08:12:09Z</time>
      </trkpt>
      <trkpt lat="47.34516" lon="0.03984">
        <ele>79.45</ele>
        <time>2011-03-20T08:12:10Z</time>
      </trkpt>
      <trkpt lat="47.34512" lon="0.0399">
        <ele>78.48</ele>
        <time>2011-03-20T08:12:11Z</time>
      </trkpt>
      <trkpt lat="47.34508" lon="0.03996">
        <ele>78</ele>
        <time>2011-03-20T08:12:12Z</time>
      </trkpt>
      <trkpt lat="47.34503" lon="0.04006">
        <ele>77.04</ele>
        <time>2011-03-20T08:12:13Z</time>
      </trkpt>
      <trkpt lat="47.34497" lon="0.04015">
        <ele>76.56</ele>
        <time>2011-03-20T08:12:14Z</time>
      </trkpt>
      <trkpt lat="47.34492" lon="0.04018">
        <ele>75.6</ele>
        <time>2011-03-20T08:12:15Z</time>
      </trkpt>
      <trkpt lat="47.34486" lon="0.04019">
        <ele>75.12</ele>
        <time>2011-03-20T08:12:16Z</time>
      </trkpt>
      <trkpt lat="47.34479" lon="0.04023">
        <ele>75.12</ele>
        <time>2011-03-20T08:12:17Z</time>
      </trkpt>
      <trkpt lat="47.34471" lon="0.04028">
        <ele>74.16</ele>
        <time>2011-03-20T08:12:18Z</time>
      </trkpt>
      <trkpt lat="47.34464" lon="0.0403">
        <ele>73.2</ele>
        <time>2011-03-20T08:12:19Z</time>
      </trkpt>
      <trkpt lat="47.34456" lon="0.04031">
        <ele>71.76</ele>
        <time>2011-03-20T08:12:20Z</time>
      </trkpt>
      <trkpt lat="47.34432" lon="0.04035">
        <ele>69.35</ele>
        <time>2011-03-20T08:12:23Z</time>
      </trkpt>
      <trkpt lat="47.3441" lon="0.04039">
        <ele>65.51</ele>
        <time>2011-03-20T08:12:26Z</time>
      </trkpt>
      <trkpt lat="47.34403" lon="0.04039">
        <ele>65.51</ele>
        <time>2011-03-20T08:12:27Z</time>
      </trkpt>
      <trkpt lat="47.34372" lon="0.04042">
        <ele>61.66</ele>
        <time>2011-03-20T08:12:31Z</time>
      </trkpt>
      <trkpt lat="47.34365" lon="0.04043">
        <ele>59.74</ele>
        <time>2011-03-20T08:12:32Z</time>
      </trkpt>
      <trkpt lat="47.34356" lon="0.04045">
        <ele>59.74</ele>
        <time>2011-03-20T08:12:33Z</time>
      </trkpt>
      <trkpt lat="47.34349" lon="0.0405">
        <ele>58.78</ele>
        <time>2011-03-20T08:12:34Z</time>
      </trkpt>
      <trkpt lat="47.34342" lon="0.04056">
        <ele>58.3</ele>
        <time>2011-03-20T08:12:35Z</time>
      </trkpt>
      <trkpt lat="47.34336" lon="0.04061">
        <ele>57.82</ele>
        <time>2011-03-20T08:12:36Z</time>
      </trkpt>
      <trkpt lat="47.34305" lon="0.04082">
        <ele>54.45</ele>
        <time>2011-03-20T08:12:40Z</time>
      </trkpt>
      <trkpt lat="47.34298" lon="0.04088">
        <ele>53.97</ele>
        <time>2011-03-20T08:12:41Z</time>
      </trkpt>
      <trkpt lat="47.34293" lon="0.04095">
        <ele>53.01</ele>
        <time>2011-03-20T08:12:42Z</time>
      </trkpt>
      <trkpt lat="47.34288" lon="0.04102">
        <ele>52.05</ele>
        <time>2011-03-20T08:12:43Z</time>
      </trkpt>
      <trkpt lat="47.34259" lon="0.04135">
        <ele>49.65</ele>
        <time>2011-03-20T08:12:47Z</time>
      </trkpt>
      <trkpt lat="47.34251" lon="0.04144">
        <ele>49.16</ele>
        <time>2011-03-20T08:12:48Z</time>
      </trkpt>
      <trkpt lat="47.34243" lon="0.04152">
        <ele>47.24</ele>
        <time>2011-03-20T08:12:49Z</time>
      </trkpt>
      <trkpt lat="47.34235" lon="0.04157">
        <ele>46.28</ele>
        <time>2011-03-20T08:12:50Z</time>
      </trkpt>
      <trkpt lat="47.34226" lon="0.0416">
        <ele>45.8</ele>
        <time>2011-03-20T08:12:51Z</time>
      </trkpt>
      <trkpt lat="47.34218" lon="0.04158">
        <ele>44.84</ele>
        <time>2011-03-20T08:12:52Z</time>
      </trkpt>
      <trkpt lat="47.3421" lon="0.04153">
        <ele>44.84</ele>
        <time>2011-03-20T08:12:53Z</time>
      </trkpt>
      <trkpt lat="47.34204" lon="0.04149">
        <ele>44.36</ele>
        <time>2011-03-20T08:12:54Z</time>
      </trkpt>
      <trkpt lat="47.34197" lon="0.04143">
        <ele>43.88</ele>
        <time>2011-03-20T08:12:55Z</time>
      </trkpt>
      <trkpt lat="47.34184" lon="0.04131">
        <ele>42.92</ele>
        <time>2011-03-20T08:12:57Z</time>
      </trkpt>
      <trkpt lat="47.3417" lon="0.04121">
        <ele>40.99</ele>
        <time>2011-03-20T08:12:59Z</time>
      </trkpt>
      <trkpt lat="47.34163" lon="0.04116">
        <ele>40.99</ele>
        <time>2011-03-20T08:13:00Z</time>
      </trkpt>
      <trkpt lat="47.34156" lon="0.04113">
        <ele>41.47</ele>
        <time>2011-03-20T08:13:01Z</time>
      </trkpt>
      <trkpt lat="47.34142" lon="0.04109">
        <ele>39.07</ele>
        <time>2011-03-20T08:13:03Z</time>
      </trkpt>
      <trkpt lat="47.34135" lon="0.04105">
        <ele>39.07</ele>
        <time>2011-03-20T08:13:04Z</time>
      </trkpt>
      <trkpt lat="47.3413" lon="0.04099">
        <ele>38.59</ele>
        <time>2011-03-20T08:13:05Z</time>
      </trkpt>
      <trkpt lat="47.34125" lon="0.04093">
        <ele>38.59</ele>
        <time>2011-03-20T08:13:06Z</time>
      </trkpt>
      <trkpt lat="47.34121" lon="0.04086">
        <ele>38.11</ele>
        <time>2011-03-20T08:13:07Z</time>
      </trkpt>
      <trkpt lat="47.34117" lon="0.04078">
        <ele>37.15</ele>
        <time>2011-03-20T08:13:08Z</time>
      </trkpt>
      <trkpt lat="47.34111" lon="0.04071">
        <ele>37.63</ele>
        <time>2011-03-20T08:13:09Z</time>
      </trkpt>
      <trkpt lat="47.34104" lon="0.04064">
        <ele>37.15</ele>
        <time>2011-03-20T08:13:10Z</time>
      </trkpt>
      <trkpt lat="47.34097" lon="0.04058">
        <ele>36.67</ele>
        <time>2011-03-20T08:13:11Z</time>
      </trkpt>
      <trkpt lat="47.3409" lon="0.04053">
        <ele>35.71</ele>
        <time>2011-03-20T08:13:12Z</time>
      </trkpt>
      <trkpt lat="47.34083" lon="0.04048">
        <ele>35.71</ele>
        <time>2011-03-20T08:13:13Z</time>
      </trkpt>
      <trkpt lat="47.34046" lon="0.04028">
        <ele>34.26</ele>
        <time>2011-03-20T08:13:18Z</time>
      </trkpt>
      <trkpt lat="47.34014" lon="0.0399">
        <ele>31.38</ele>
        <time>2011-03-20T08:13:23Z</time>
      </trkpt>
      <trkpt lat="47.33993" lon="0.03953">
        <ele>30.9</ele>
        <time>2011-03-20T08:13:27Z</time>
      </trkpt>
      <trkpt lat="47.33988" lon="0.03944">
        <ele>29.94</ele>
        <time>2011-03-20T08:13:28Z</time>
      </trkpt>
      <trkpt lat="47.33951" lon="0.03866">
        <ele>29.46</ele>
        <time>2011-03-20T08:13:36Z</time>
      </trkpt>
      <trkpt lat="47.33932" lon="0.03821">
        <ele>28.98</ele>
        <time>2011-03-20T08:13:42Z</time>
      </trkpt>
      <trkpt lat="47.33927" lon="0.03812">
        <ele>28.5</ele>
        <time>2011-03-20T08:13:45Z</time>
      </trkpt>
      <trkpt lat="47.33927" lon="0.03809">
        <ele>29.46</ele>
        <time>2011-03-20T08:13:46Z</time>
      </trkpt>
      <trkpt lat="47.33926" lon="0.03807">
        <ele>28.5</ele>
        <time>2011-03-20T08:13:47Z</time>
      </trkpt>
      <trkpt lat="47.33925" lon="0.03804">
        <ele>28.5</ele>
        <time>2011-03-20T08:13:48Z</time>
      </trkpt>
      <trkpt lat="47.33925" lon="0.03802">
        <ele>28.98</ele>
        <time>2011-03-20T08:13:49Z</time>
      </trkpt>
      <trkpt lat="47.33925" lon="0.03799">
        <ele>29.46</ele>
        <time>2011-03-20T08:13:50Z</time>
      </trkpt>
      <trkpt lat="47.3392" lon="0.0378">
        <ele>28.98</ele>
        <time>2011-03-20T08:13:58Z</time>
      </trkpt>
      <trkpt lat="47.33913" lon="0.0376">
        <ele>29.94</ele>
        <time>2011-03-20T08:14:03Z</time>
      </trkpt>
      <trkpt lat="47.33907" lon="0.03744">
        <ele>29.46</ele>
        <time>2011-03-20T08:14:06Z</time>
      </trkpt>
      <trkpt lat="47.33905" lon="0.03738">
        <ele>29.46</ele>
        <time>2011-03-20T08:14:07Z</time>
      </trkpt>
      <trkpt lat="47.3388" lon="0.03677">
        <ele>30.42</ele>
        <time>2011-03-20T08:14:18Z</time>
      </trkpt>
      <trkpt lat="47.33848" lon="0.0362">
        <ele>30.9</ele>
        <time>2011-03-20T08:14:28Z</time>
      </trkpt>
      <trkpt lat="47.33814" lon="0.03565">
        <ele>30.42</ele>
        <time>2011-03-20T08:14:37Z</time>
      </trkpt>
      <trkpt lat="47.33792" lon="0.03531">
        <ele>29.94</ele>
        <time>2011-03-20T08:14:43Z</time>
      </trkpt>
      <trkpt lat="47.33788" lon="0.03529">
        <ele>29.46</ele>
        <time>2011-03-20T08:14:44Z</time>
      </trkpt>
      <trkpt lat="47.33784" lon="0.03529">
        <ele>29.46</ele>
        <time>2011-03-20T08:14:45Z</time>
      </trkpt>
      <trkpt lat="47.3378" lon="0.03532">
        <ele>29.46</ele>
        <time>2011-03-20T08:14:46Z</time>
      </trkpt>
      <trkpt lat="47.33776" lon="0.03536">
        <ele>28.98</ele>
        <time>2011-03-20T08:14:47Z</time>
      </trkpt>
      <trkpt lat="47.33773" lon="0.03541">
        <ele>28.98</ele>
        <time>2011-03-20T08:14:48Z</time>
      </trkpt>
      <trkpt lat="47.3374" lon="0.0358">
        <ele>27.53</ele>
        <time>2011-03-20T08:14:56Z</time>
      </trkpt>
      <trkpt lat="47.33704" lon="0.03628">
        <ele>27.53</ele>
        <time>2011-03-20T08:15:04Z</time>
      </trkpt>
      <trkpt lat="47.33681" lon="0.03658">
        <ele>28.02</ele>
        <time>2011-03-20T08:15:10Z</time>
      </trkpt>
      <trkpt lat="47.33674" lon="0.03667">
        <ele>28.98</ele>
        <time>2011-03-20T08:15:12Z</time>
      </trkpt>
      <trkpt lat="47.33671" lon="0.0367">
        <ele>28.5</ele>
        <time>2011-03-20T08:15:13Z</time>
      </trkpt>
      <trkpt lat="47.33652" lon="0.03694">
        <ele>30.9</ele>
        <time>2011-03-20T08:15:20Z</time>
      </trkpt>
      <trkpt lat="47.33635" lon="0.03717">
        <ele>33.78</ele>
        <time>2011-03-20T08:15:27Z</time>
      </trkpt>
      <trkpt lat="47.33618" lon="0.0374">
        <ele>35.23</ele>
        <time>2011-03-20T08:15:34Z</time>
      </trkpt>
      <trkpt lat="47.33601" lon="0.03761">
        <ele>37.15</ele>
        <time>2011-03-20T08:15:41Z</time>
      </trkpt>
      <trkpt lat="47.3359" lon="0.03771">
        <ele>37.63</ele>
        <time>2011-03-20T08:15:46Z</time>
      </trkpt>
      <trkpt lat="47.33582" lon="0.03771">
        <ele>38.11</ele>
        <time>2011-03-20T08:15:49Z</time>
      </trkpt>
      <trkpt lat="47.3358" lon="0.03768">
        <ele>38.59</ele>
        <time>2011-03-20T08:15:50Z</time>
      </trkpt>
      <trkpt lat="47.33579" lon="0.03764">
        <ele>38.59</ele>
        <time>2011-03-20T08:15:51Z</time>
      </trkpt>
      <trkpt lat="47.33577" lon="0.03733">
        <ele>38.11</ele>
        <time>2011-03-20T08:15:57Z</time>
      </trkpt>
      <trkpt lat="47.33574" lon="0.03689">
        <ele>37.63</ele>
        <time>2011-03-20T08:16:04Z</time>
      </trkpt>
      <trkpt lat="47.33572" lon="0.03676">
        <ele>36.19</ele>
        <time>2011-03-20T08:16:06Z</time>
      </trkpt>
      <trkpt lat="47.3357" lon="0.0367">
        <ele>36.19</ele>
        <time>2011-03-20T08:16:07Z</time>
      </trkpt>
      <trkpt lat="47.33567" lon="0.03664">
        <ele>35.71</ele>
        <time>2011-03-20T08:16:08Z</time>
      </trkpt>
      <trkpt lat="47.33564" lon="0.03658">
        <ele>36.19</ele>
        <time>2011-03-20T08:16:09Z</time>
      </trkpt>
      <trkpt lat="47.33561" lon="0.03653">
        <ele>35.23</ele>
        <time>2011-03-20T08:16:10Z</time>
      </trkpt>
      <trkpt lat="47.33558" lon="0.03647">
        <ele>35.23</ele>
        <time>2011-03-20T08:16:11Z</time>
      </trkpt>
      <trkpt lat="47.33544" lon="0.03605">
        <ele>35.71</ele>
        <time>2011-03-20T08:16:18Z</time>
      </trkpt>
      <trkpt lat="47.3354" lon="0.03598">
        <ele>35.71</ele>
        <time>2011-03-20T08:16:19Z</time>
      </trkpt>
      <trkpt lat="47.33532" lon="0.0358">
        <ele>35.71</ele>
        <time>2011-03-20T08:16:22Z</time>
      </trkpt>
      <trkpt lat="47.33529" lon="0.03574">
        <ele>35.71</ele>
        <time>2011-03-20T08:16:23Z</time>
      </trkpt>
      <trkpt lat="47.33503" lon="0.03528">
        <ele>35.71</ele>
        <time>2011-03-20T08:16:31Z</time>
      </trkpt>
      <trkpt lat="47.33472" lon="0.03476">
        <ele>34.74</ele>
        <time>2011-03-20T08:16:40Z</time>
      </trkpt>
      <trkpt lat="47.33461" lon="0.03459">
        <ele>35.23</ele>
        <time>2011-03-20T08:16:43Z</time>
      </trkpt>
      <trkpt lat="47.33437" lon="0.03415">
        <ele>34.26</ele>
        <time>2011-03-20T08:16:50Z</time>
      </trkpt>
      <trkpt lat="47.33409" lon="0.03365">
        <ele>33.3</ele>
        <time>2011-03-20T08:16:58Z</time>
      </trkpt>
      <trkpt lat="47.33381" lon="0.0332">
        <ele>33.78</ele>
        <time>2011-03-20T08:17:06Z</time>
      </trkpt>
      <trkpt lat="47.33351" lon="0.03273">
        <ele>33.3</ele>
        <time>2011-03-20T08:17:14Z</time>
      </trkpt>
      <trkpt lat="47.33316" lon="0.03221">
        <ele>33.3</ele>
        <time>2011-03-20T08:17:24Z</time>
      </trkpt>
      <trkpt lat="47.33301" lon="0.03198">
        <ele>32.82</ele>
        <time>2011-03-20T08:17:29Z</time>
      </trkpt>
      <trkpt lat="47.33298" lon="0.03197">
        <ele>33.3</ele>
        <time>2011-03-20T08:17:30Z</time>
      </trkpt>
      <trkpt lat="47.33295" lon="0.03199">
        <ele>33.3</ele>
        <time>2011-03-20T08:17:31Z</time>
      </trkpt>
      <trkpt lat="47.33293" lon="0.03201">
        <ele>33.3</ele>
        <time>2011-03-20T08:17:32Z</time>
      </trkpt>
      <trkpt lat="47.33292" lon="0.03204">
        <ele>33.78</ele>
        <time>2011-03-20T08:17:33Z</time>
      </trkpt>
      <trkpt lat="47.33291" lon="0.03207">
        <ele>33.78</ele>
        <time>2011-03-20T08:17:34Z</time>
      </trkpt>
      <trkpt lat="47.3329" lon="0.03211">
        <ele>33.3</ele>
        <time>2011-03-20T08:17:35Z</time>
      </trkpt>
      <trkpt lat="47.33277" lon="0.03228">
        <ele>34.26</ele>
        <time>2011-03-20T08:17:40Z</time>
      </trkpt>
      <trkpt lat="47.33268" lon="0.0324">
        <ele>34.26</ele>
        <time>2011-03-20T08:17:43Z</time>
      </trkpt>
      <trkpt lat="47.33243" lon="0.03275">
        <ele>35.23</ele>
        <time>2011-03-20T08:17:51Z</time>
      </trkpt>
      <trkpt lat="47.33218" lon="0.03313">
        <ele>35.71</ele>
        <time>2011-03-20T08:17:59Z</time>
      </trkpt>
      <trkpt lat="47.33186" lon="0.0336">
        <ele>35.23</ele>
        <time>2011-03-20T08:18:09Z</time>
      </trkpt>
      <trkpt lat="47.33152" lon="0.03414">
        <ele>37.15</ele>
        <time>2011-03-20T08:18:20Z</time>
      </trkpt>
      <trkpt lat="47.33123" lon="0.03462">
        <ele>37.63</ele>
        <time>2011-03-20T08:18:30Z</time>
      </trkpt>
      <trkpt lat="47.33106" lon="0.035">
        <ele>39.55</ele>
        <time>2011-03-20T08:18:38Z</time>
      </trkpt>
      <trkpt lat="47.33098" lon="0.03524">
        <ele>40.51</ele>
        <time>2011-03-20T08:18:44Z</time>
      </trkpt>
      <trkpt lat="47.33088" lon="0.03549">
        <ele>42.44</ele>
        <time>2011-03-20T08:18:52Z</time>
      </trkpt>
      <trkpt lat="47.33082" lon="0.03559">
        <ele>42.92</ele>
        <time>2011-03-20T08:18:58Z</time>
      </trkpt>
      <trkpt lat="47.33083" lon="0.03563">
        <ele>43.88</ele>
        <time>2011-03-20T08:19:04Z</time>
      </trkpt>
      <trkpt lat="47.33081" lon="0.03568">
        <ele>44.36</ele>
        <time>2011-03-20T08:19:08Z</time>
      </trkpt>
      <trkpt lat="47.3308" lon="0.03572">
        <ele>44.36</ele>
        <time>2011-03-20T08:19:10Z</time>
      </trkpt>
      <trkpt lat="47.33079" lon="0.03574">
        <ele>44.36</ele>
        <time>2011-03-20T08:19:11Z</time>
      </trkpt>
      <trkpt lat="47.33078" lon="0.03576">
        <ele>44.84</ele>
        <time>2011-03-20T08:19:12Z</time>
      </trkpt>
      <trkpt lat="47.33075" lon="0.0359">
        <ele>45.32</ele>
        <time>2011-03-20T08:19:18Z</time>
      </trkpt>
      <trkpt lat="47.33075" lon="0.03594">
        <ele>45.32</ele>
        <time>2011-03-20T08:19:20Z</time>
      </trkpt>
      <trkpt lat="47.33073" lon="0.03603">
        <ele>46.76</ele>
        <time>2011-03-20T08:19:25Z</time>
      </trkpt>
      <trkpt lat="47.33071" lon="0.03616">
        <ele>48.2</ele>
        <time>2011-03-20T08:19:31Z</time>
      </trkpt>
      <trkpt lat="47.3307" lon="0.0362">
        <ele>48.68</ele>
        <time>2011-03-20T08:19:32Z</time>
      </trkpt>
      <trkpt lat="47.33069" lon="0.03622">
        <ele>49.16</ele>
        <time>2011-03-20T08:19:33Z</time>
      </trkpt>
      <trkpt lat="47.33069" lon="0.03625">
        <ele>49.65</ele>
        <time>2011-03-20T08:19:34Z</time>
      </trkpt>
      <trkpt lat="47.33066" lon="0.03635">
        <ele>50.61</ele>
        <time>2011-03-20T08:19:39Z</time>
      </trkpt>
      <trkpt lat="47.33065" lon="0.03642">
        <ele>52.53</ele>
        <time>2011-03-20T08:19:43Z</time>
      </trkpt>
      <trkpt lat="47.33065" lon="0.03644">
        <ele>52.05</ele>
        <time>2011-03-20T08:19:44Z</time>
      </trkpt>
      <trkpt lat="47.33064" lon="0.03652">
        <ele>53.49</ele>
        <time>2011-03-20T08:19:50Z</time>
      </trkpt>
      <trkpt lat="47.33064" lon="0.03654">
        <ele>54.45</ele>
        <time>2011-03-20T08:19:52Z</time>
      </trkpt>
      <trkpt lat="47.33063" lon="0.03659">
        <ele>54.93</ele>
        <time>2011-03-20T08:19:58Z</time>
      </trkpt>
      <trkpt lat="47.33062" lon="0.03662">
        <ele>55.89</ele>
        <time>2011-03-20T08:20:00Z</time>
      </trkpt>
      <trkpt lat="47.33062" lon="0.03664">
        <ele>56.37</ele>
        <time>2011-03-20T08:20:01Z</time>
      </trkpt>
      <trkpt lat="47.33062" lon="0.03667">
        <ele>56.37</ele>
        <time>2011-03-20T08:20:02Z</time>
      </trkpt>
      <trkpt lat="47.3306" lon="0.03674">
        <ele>56.86</ele>
        <time>2011-03-20T08:20:05Z</time>
      </trkpt>
      <trkpt lat="47.33059" lon="0.03678">
        <ele>57.34</ele>
        <time>2011-03-20T08:20:06Z</time>
      </trkpt>
      <trkpt lat="47.33056" lon="0.03689">
        <ele>59.26</ele>
        <time>2011-03-20T08:20:12Z</time>
      </trkpt>
      <trkpt lat="47.33055" lon="0.03699">
        <ele>59.74</ele>
        <time>2011-03-20T08:20:17Z</time>
      </trkpt>
      <trkpt lat="47.33055" lon="0.03701">
        <ele>60.22</ele>
        <time>2011-03-20T08:20:18Z</time>
      </trkpt>
      <trkpt lat="47.33055" lon="0.03703">
        <ele>59.26</ele>
        <time>2011-03-20T08:20:19Z</time>
      </trkpt>
      <trkpt lat="47.33054" lon="0.03706">
        <ele>59.26</ele>
        <time>2011-03-20T08:20:20Z</time>
      </trkpt>
      <trkpt lat="47.33054" lon="0.03708">
        <ele>60.22</ele>
        <time>2011-03-20T08:20:21Z</time>
      </trkpt>
      <trkpt lat="47.33054" lon="0.03711">
        <ele>60.7</ele>
        <time>2011-03-20T08:20:23Z</time>
      </trkpt>
      <trkpt lat="47.33051" lon="0.03718">
        <ele>61.66</ele>
        <time>2011-03-20T08:20:28Z</time>
      </trkpt>
      <trkpt lat="47.3305" lon="0.03731">
        <ele>63.1</ele>
        <time>2011-03-20T08:20:35Z</time>
      </trkpt>
      <trkpt lat="47.3305" lon="0.03739">
        <ele>64.07</ele>
        <time>2011-03-20T08:20:40Z</time>
      </trkpt>
      <trkpt lat="47.3305" lon="0.03752">
        <ele>65.51</ele>
        <time>2011-03-20T08:20:46Z</time>
      </trkpt>
      <trkpt lat="47.33048" lon="0.03757">
        <ele>66.47</ele>
        <time>2011-03-20T08:20:50Z</time>
      </trkpt>
      <trkpt lat="47.33048" lon="0.03759">
        <ele>66.95</ele>
        <time>2011-03-20T08:20:51Z</time>
      </trkpt>
      <trkpt lat="47.33047" lon="0.0376">
        <ele>66.95</ele>
        <time>2011-03-20T08:20:52Z</time>
      </trkpt>
      <trkpt lat="47.33046" lon="0.03761">
        <ele>67.43</ele>
        <time>2011-03-20T08:20:53Z</time>
      </trkpt>
      <trkpt lat="47.33046" lon="0.03773">
        <ele>68.39</ele>
        <time>2011-03-20T08:20:59Z</time>
      </trkpt>
      <trkpt lat="47.33043" lon="0.03792">
        <ele>69.83</ele>
        <time>2011-03-20T08:21:07Z</time>
      </trkpt>
      <trkpt lat="47.33039" lon="0.03801">
        <ele>69.83</ele>
        <time>2011-03-20T08:21:12Z</time>
      </trkpt>
      <trkpt lat="47.33037" lon="0.03802">
        <ele>70.31</ele>
        <time>2011-03-20T08:21:13Z</time>
      </trkpt>
      <trkpt lat="47.33033" lon="0.03803">
        <ele>70.79</ele>
        <time>2011-03-20T08:21:19Z</time>
      </trkpt>
      <trkpt lat="47.33032" lon="0.03803">
        <ele>70.79</ele>
        <time>2011-03-20T08:21:43Z</time>
      </trkpt>
      <trkpt lat="47.3303" lon="0.03802">
        <ele>70.31</ele>
        <time>2011-03-20T08:21:44Z</time>
      </trkpt>
      <trkpt lat="47.33029" lon="0.03801">
        <ele>70.79</ele>
        <time>2011-03-20T08:21:45Z</time>
      </trkpt>
      <trkpt lat="47.33027" lon="0.03801">
        <ele>71.27</ele>
        <time>2011-03-20T08:21:46Z</time>
      </trkpt>
      <trkpt lat="47.33026" lon="0.038">
        <ele>70.79</ele>
        <time>2011-03-20T08:21:47Z</time>
      </trkpt>
      <trkpt lat="47.33024" lon="0.038">
        <ele>70.79</ele>
        <time>2011-03-20T08:21:48Z</time>
      </trkpt>
      <trkpt lat="47.33021" lon="0.03799">
        <ele>70.79</ele>
        <time>2011-03-20T08:21:51Z</time>
      </trkpt>
      <trkpt lat="47.33019" lon="0.03798">
        <ele>70.79</ele>
        <time>2011-03-20T08:21:52Z</time>
      </trkpt>
      <trkpt lat="47.33005" lon="0.03793">
        <ele>70.79</ele>
        <time>2011-03-20T08:21:59Z</time>
      </trkpt>
      <trkpt lat="47.32987" lon="0.03785">
        <ele>70.79</ele>
        <time>2011-03-20T08:22:06Z</time>
      </trkpt>
      <trkpt lat="47.3297" lon="0.0378">
        <ele>69.35</ele>
        <time>2011-03-20T08:22:11Z</time>
      </trkpt>
      <trkpt lat="47.32965" lon="0.03779">
        <ele>68.87</ele>
        <time>2011-03-20T08:22:12Z</time>
      </trkpt>
      <trkpt lat="47.3296" lon="0.0378">
        <ele>67.91</ele>
        <time>2011-03-20T08:22:13Z</time>
      </trkpt>
      <trkpt lat="47.32954" lon="0.03781">
        <ele>67.43</ele>
        <time>2011-03-20T08:22:14Z</time>
      </trkpt>
      <trkpt lat="47.32949" lon="0.03781">
        <ele>67.43</ele>
        <time>2011-03-20T08:22:15Z</time>
      </trkpt>
      <trkpt lat="47.32943" lon="0.03779">
        <ele>66.95</ele>
        <time>2011-03-20T08:22:16Z</time>
      </trkpt>
      <trkpt lat="47.32937" lon="0.03777">
        <ele>66.95</ele>
        <time>2011-03-20T08:22:17Z</time>
      </trkpt>
      <trkpt lat="47.3293" lon="0.03775">
        <ele>65.99</ele>
        <time>2011-03-20T08:22:18Z</time>
      </trkpt>
      <trkpt lat="47.32922" lon="0.03773">
        <ele>65.03</ele>
        <time>2011-03-20T08:22:19Z</time>
      </trkpt>
      <trkpt lat="47.32915" lon="0.03771">
        <ele>64.07</ele>
        <time>2011-03-20T08:22:20Z</time>
      </trkpt>
      <trkpt lat="47.32892" lon="0.03764">
        <ele>62.14</ele>
        <time>2011-03-20T08:22:23Z</time>
      </trkpt>
      <trkpt lat="47.32864" lon="0.03753">
        <ele>58.3</ele>
        <time>2011-03-20T08:22:27Z</time>
      </trkpt>
      <trkpt lat="47.32853" lon="0.03747">
        <ele>56.86</ele>
        <time>2011-03-20T08:22:29Z</time>
      </trkpt>
      <trkpt lat="47.32849" lon="0.03747">
        <ele>56.37</ele>
        <time>2011-03-20T08:22:30Z</time>
      </trkpt>
      <trkpt lat="47.32845" lon="0.03747">
        <ele>55.89</ele>
        <time>2011-03-20T08:22:31Z</time>
      </trkpt>
      <trkpt lat="47.32842" lon="0.03748">
        <ele>56.37</ele>
        <time>2011-03-20T08:22:32Z</time>
      </trkpt>
      <trkpt lat="47.32838" lon="0.03746">
        <ele>55.41</ele>
        <time>2011-03-20T08:22:33Z</time>
      </trkpt>
      <trkpt lat="47.32835" lon="0.03744">
        <ele>54.93</ele>
        <time>2011-03-20T08:22:34Z</time>
      </trkpt>
      <trkpt lat="47.32832" lon="0.03743">
        <ele>54.93</ele>
        <time>2011-03-20T08:22:35Z</time>
      </trkpt>
      <trkpt lat="47.3283" lon="0.03744">
        <ele>54.45</ele>
        <time>2011-03-20T08:22:36Z</time>
      </trkpt>
      <trkpt lat="47.32827" lon="0.03747">
        <ele>54.93</ele>
        <time>2011-03-20T08:22:37Z</time>
      </trkpt>
      <trkpt lat="47.32826" lon="0.03751">
        <ele>54.45</ele>
        <time>2011-03-20T08:22:38Z</time>
      </trkpt>
      <trkpt lat="47.32825" lon="0.03754">
        <ele>54.45</ele>
        <time>2011-03-20T08:22:39Z</time>
      </trkpt>
      <trkpt lat="47.32824" lon="0.03757">
        <ele>54.93</ele>
        <time>2011-03-20T08:22:40Z</time>
      </trkpt>
      <trkpt lat="47.32823" lon="0.0376">
        <ele>54.93</ele>
        <time>2011-03-20T08:22:41Z</time>
      </trkpt>
      <trkpt lat="47.32822" lon="0.03763">
        <ele>54.93</ele>
        <time>2011-03-20T08:22:42Z</time>
      </trkpt>
      <trkpt lat="47.32819" lon="0.0377">
        <ele>55.41</ele>
        <time>2011-03-20T08:22:44Z</time>
      </trkpt>
      <trkpt lat="47.32817" lon="0.03773">
        <ele>55.41</ele>
        <time>2011-03-20T08:22:45Z</time>
      </trkpt>
      <trkpt lat="47.32815" lon="0.03776">
        <ele>55.41</ele>
        <time>2011-03-20T08:22:46Z</time>
      </trkpt>
      <trkpt lat="47.32804" lon="0.03796">
        <ele>56.86</ele>
        <time>2011-03-20T08:22:52Z</time>
      </trkpt>
      <trkpt lat="47.32792" lon="0.03818">
        <ele>57.34</ele>
        <time>2011-03-20T08:22:58Z</time>
      </trkpt>
      <trkpt lat="47.32779" lon="0.03841">
        <ele>59.26</ele>
        <time>2011-03-20T08:23:05Z</time>
      </trkpt>
      <trkpt lat="47.32759" lon="0.03863">
        <ele>59.74</ele>
        <time>2011-03-20T08:23:13Z</time>
      </trkpt>
      <trkpt lat="47.32741" lon="0.03884">
        <ele>59.74</ele>
        <time>2011-03-20T08:23:19Z</time>
      </trkpt>
      <trkpt lat="47.32727" lon="0.03896">
        <ele>60.22</ele>
        <time>2011-03-20T08:23:23Z</time>
      </trkpt>
      <trkpt lat="47.32718" lon="0.03899">
        <ele>59.26</ele>
        <time>2011-03-20T08:23:25Z</time>
      </trkpt>
      <trkpt lat="47.32714" lon="0.03899">
        <ele>59.74</ele>
        <time>2011-03-20T08:23:26Z</time>
      </trkpt>
      <trkpt lat="47.32709" lon="0.03898">
        <ele>59.26</ele>
        <time>2011-03-20T08:23:27Z</time>
      </trkpt>
      <trkpt lat="47.32677" lon="0.03881">
        <ele>57.34</ele>
        <time>2011-03-20T08:23:33Z</time>
      </trkpt>
      <trkpt lat="47.32642" lon="0.03858">
        <ele>55.89</ele>
        <time>2011-03-20T08:23:39Z</time>
      </trkpt>
      <trkpt lat="47.32623" lon="0.03846">
        <ele>54.45</ele>
        <time>2011-03-20T08:23:42Z</time>
      </trkpt>
      <trkpt lat="47.32586" lon="0.03819">
        <ele>52.53</ele>
        <time>2011-03-20T08:23:48Z</time>
      </trkpt>
      <trkpt lat="47.32543" lon="0.03786">
        <ele>50.61</ele>
        <time>2011-03-20T08:23:55Z</time>
      </trkpt>
      <trkpt lat="47.32511" lon="0.0376">
        <ele>49.16</ele>
        <time>2011-03-20T08:24:01Z</time>
      </trkpt>
      <trkpt lat="47.32507" lon="0.03758">
        <ele>48.2</ele>
        <time>2011-03-20T08:24:02Z</time>
      </trkpt>
      <trkpt lat="47.32503" lon="0.0376">
        <ele>48.68</ele>
        <time>2011-03-20T08:24:03Z</time>
      </trkpt>
      <trkpt lat="47.32501" lon="0.03764">
        <ele>48.2</ele>
        <time>2011-03-20T08:24:04Z</time>
      </trkpt>
      <trkpt lat="47.32499" lon="0.03769">
        <ele>48.2</ele>
        <time>2011-03-20T08:24:05Z</time>
      </trkpt>
      <trkpt lat="47.32497" lon="0.03774">
        <ele>48.2</ele>
        <time>2011-03-20T08:24:06Z</time>
      </trkpt>
      <trkpt lat="47.32491" lon="0.03797">
        <ele>49.16</ele>
        <time>2011-03-20T08:24:11Z</time>
      </trkpt>
      <trkpt lat="47.32486" lon="0.03816">
        <ele>49.65</ele>
        <time>2011-03-20T08:24:16Z</time>
      </trkpt>
      <trkpt lat="47.32482" lon="0.03838">
        <ele>50.61</ele>
        <time>2011-03-20T08:24:21Z</time>
      </trkpt>
      <trkpt lat="47.3248" lon="0.03862">
        <ele>52.05</ele>
        <time>2011-03-20T08:24:27Z</time>
      </trkpt>
      <trkpt lat="47.32479" lon="0.03884">
        <ele>53.01</ele>
        <time>2011-03-20T08:24:32Z</time>
      </trkpt>
      <trkpt lat="47.32477" lon="0.0392">
        <ele>53.49</ele>
        <time>2011-03-20T08:24:39Z</time>
      </trkpt>
      <trkpt lat="47.32473" lon="0.03948">
        <ele>55.41</ele>
        <time>2011-03-20T08:24:45Z</time>
      </trkpt>
      <trkpt lat="47.32469" lon="0.03977">
        <ele>56.37</ele>
        <time>2011-03-20T08:24:51Z</time>
      </trkpt>
      <trkpt lat="47.32465" lon="0.03992">
        <ele>55.89</ele>
        <time>2011-03-20T08:24:55Z</time>
      </trkpt>
      <trkpt lat="47.32464" lon="0.03996">
        <ele>57.34</ele>
        <time>2011-03-20T08:24:56Z</time>
      </trkpt>
      <trkpt lat="47.32463" lon="0.04001">
        <ele>56.86</ele>
        <time>2011-03-20T08:24:57Z</time>
      </trkpt>
      <trkpt lat="47.32462" lon="0.04005">
        <ele>56.86</ele>
        <time>2011-03-20T08:24:58Z</time>
      </trkpt>
      <trkpt lat="47.32461" lon="0.04008">
        <ele>57.34</ele>
        <time>2011-03-20T08:24:59Z</time>
      </trkpt>
      <trkpt lat="47.3246" lon="0.04013">
        <ele>57.82</ele>
        <time>2011-03-20T08:25:00Z</time>
      </trkpt>
      <trkpt lat="47.32459" lon="0.04018">
        <ele>57.34</ele>
        <time>2011-03-20T08:25:01Z</time>
      </trkpt>
      <trkpt lat="47.32458" lon="0.04022">
        <ele>58.3</ele>
        <time>2011-03-20T08:25:02Z</time>
      </trkpt>
      <trkpt lat="47.32455" lon="0.04025">
        <ele>57.82</ele>
        <time>2011-03-20T08:25:03Z</time>
      </trkpt>
      <trkpt lat="47.32442" lon="0.04056">
        <ele>58.3</ele>
        <time>2011-03-20T08:25:09Z</time>
      </trkpt>
      <trkpt lat="47.32439" lon="0.04062">
        <ele>59.26</ele>
        <time>2011-03-20T08:25:10Z</time>
      </trkpt>
      <trkpt lat="47.32426" lon="0.041">
        <ele>60.22</ele>
        <time>2011-03-20T08:25:17Z</time>
      </trkpt>
      <trkpt lat="47.32421" lon="0.04109">
        <ele>59.74</ele>
        <time>2011-03-20T08:25:19Z</time>
      </trkpt>
      <trkpt lat="47.32406" lon="0.04154">
        <ele>60.22</ele>
        <time>2011-03-20T08:25:24Z</time>
      </trkpt>
      <trkpt lat="47.32397" lon="0.04181">
        <ele>60.7</ele>
        <time>2011-03-20T08:25:29Z</time>
      </trkpt>
      <trkpt lat="47.32396" lon="0.04185">
        <ele>60.7</ele>
        <time>2011-03-20T08:25:30Z</time>
      </trkpt>
      <trkpt lat="47.32395" lon="0.04189">
        <ele>61.18</ele>
        <time>2011-03-20T08:25:31Z</time>
      </trkpt>
      <trkpt lat="47.32394" lon="0.04195">
        <ele>61.18</ele>
        <time>2011-03-20T08:25:32Z</time>
      </trkpt>
      <trkpt lat="47.32392" lon="0.042">
        <ele>61.18</ele>
        <time>2011-03-20T08:25:33Z</time>
      </trkpt>
      <trkpt lat="47.32391" lon="0.04207">
        <ele>61.18</ele>
        <time>2011-03-20T08:25:34Z</time>
      </trkpt>
      <trkpt lat="47.32391" lon="0.04214">
        <ele>61.66</ele>
        <time>2011-03-20T08:25:35Z</time>
      </trkpt>
      <trkpt lat="47.3239" lon="0.0422">
        <ele>62.14</ele>
        <time>2011-03-20T08:25:36Z</time>
      </trkpt>
      <trkpt lat="47.32389" lon="0.04226">
        <ele>61.66</ele>
        <time>2011-03-20T08:25:37Z</time>
      </trkpt>
      <trkpt lat="47.32388" lon="0.04232">
        <ele>61.18</ele>
        <time>2011-03-20T08:25:38Z</time>
      </trkpt>
      <trkpt lat="47.32387" lon="0.04238">
        <ele>61.66</ele>
        <time>2011-03-20T08:25:39Z</time>
      </trkpt>
      <trkpt lat="47.32383" lon="0.04272">
        <ele>62.14</ele>
        <time>2011-03-20T08:25:44Z</time>
      </trkpt>
      <trkpt lat="47.32377" lon="0.04305">
        <ele>62.14</ele>
        <time>2011-03-20T08:25:49Z</time>
      </trkpt>
      <trkpt lat="47.32371" lon="0.04343">
        <ele>61.18</ele>
        <time>2011-03-20T08:25:54Z</time>
      </trkpt>
      <trkpt lat="47.3237" lon="0.0435">
        <ele>61.18</ele>
        <time>2011-03-20T08:25:55Z</time>
      </trkpt>
      <trkpt lat="47.32369" lon="0.04356">
        <ele>60.22</ele>
        <time>2011-03-20T08:25:56Z</time>
      </trkpt>
      <trkpt lat="47.32363" lon="0.04402">
        <ele>60.22</ele>
        <time>2011-03-20T08:26:02Z</time>
      </trkpt>
      <trkpt lat="47.32356" lon="0.04438">
        <ele>59.26</ele>
        <time>2011-03-20T08:26:08Z</time>
      </trkpt>
      <trkpt lat="47.32352" lon="0.04456">
        <ele>59.74</ele>
        <time>2011-03-20T08:26:12Z</time>
      </trkpt>
      <trkpt lat="47.32347" lon="0.04486">
        <ele>58.78</ele>
        <time>2011-03-20T08:26:17Z</time>
      </trkpt>
      <trkpt lat="47.32346" lon="0.04493">
        <ele>59.74</ele>
        <time>2011-03-20T08:26:18Z</time>
      </trkpt>
      <trkpt lat="47.32344" lon="0.045">
        <ele>59.26</ele>
        <time>2011-03-20T08:26:19Z</time>
      </trkpt>
      <trkpt lat="47.32342" lon="0.04507">
        <ele>59.74</ele>
        <time>2011-03-20T08:26:20Z</time>
      </trkpt>
      <trkpt lat="47.3234" lon="0.04514">
        <ele>59.74</ele>
        <time>2011-03-20T08:26:21Z</time>
      </trkpt>
      <trkpt lat="47.32338" lon="0.04521">
        <ele>60.22</ele>
        <time>2011-03-20T08:26:22Z</time>
      </trkpt>
      <trkpt lat="47.32334" lon="0.04534">
        <ele>60.7</ele>
        <time>2011-03-20T08:26:24Z</time>
      </trkpt>
      <trkpt lat="47.32332" lon="0.0454">
        <ele>59.74</ele>
        <time>2011-03-20T08:26:25Z</time>
      </trkpt>
      <trkpt lat="47.3233" lon="0.04546">
        <ele>60.7</ele>
        <time>2011-03-20T08:26:26Z</time>
      </trkpt>
      <trkpt lat="47.32329" lon="0.04552">
        <ele>60.22</ele>
        <time>2011-03-20T08:26:27Z</time>
      </trkpt>
      <trkpt lat="47.32328" lon="0.0456">
        <ele>60.7</ele>
        <time>2011-03-20T08:26:28Z</time>
      </trkpt>
      <trkpt lat="47.32326" lon="0.04568">
        <ele>60.7</ele>
        <time>2011-03-20T08:26:29Z</time>
      </trkpt>
      <trkpt lat="47.32325" lon="0.04575">
        <ele>60.7</ele>
        <time>2011-03-20T08:26:30Z</time>
      </trkpt>
      <trkpt lat="47.32324" lon="0.04582">
        <ele>60.22</ele>
        <time>2011-03-20T08:26:31Z</time>
      </trkpt>
      <trkpt lat="47.32322" lon="0.0459">
        <ele>60.22</ele>
        <time>2011-03-20T08:26:32Z</time>
      </trkpt>
      <trkpt lat="47.32317" lon="0.04625">
        <ele>60.7</ele>
        <time>2011-03-20T08:26:37Z</time>
      </trkpt>
      <trkpt lat="47.32316" lon="0.04642">
        <ele>59.74</ele>
        <time>2011-03-20T08:26:40Z</time>
      </trkpt>
      <trkpt lat="47.32314" lon="0.04677">
        <ele>61.66</ele>
        <time>2011-03-20T08:26:46Z</time>
      </trkpt>
      <trkpt lat="47.32313" lon="0.04697">
        <ele>61.18</ele>
        <time>2011-03-20T08:26:49Z</time>
      </trkpt>
      <trkpt lat="47.32308" lon="0.04732">
        <ele>61.18</ele>
        <time>2011-03-20T08:26:54Z</time>
      </trkpt>
      <trkpt lat="47.32301" lon="0.04765">
        <ele>61.18</ele>
        <time>2011-03-20T08:26:59Z</time>
      </trkpt>
      <trkpt lat="47.32296" lon="0.04786">
        <ele>61.66</ele>
        <time>2011-03-20T08:27:03Z</time>
      </trkpt>
      <trkpt lat="47.32295" lon="0.04793">
        <ele>61.66</ele>
        <time>2011-03-20T08:27:04Z</time>
      </trkpt>
      <trkpt lat="47.32283" lon="0.0484">
        <ele>62.14</ele>
        <time>2011-03-20T08:27:10Z</time>
      </trkpt>
      <trkpt lat="47.32274" lon="0.04879">
        <ele>62.62</ele>
        <time>2011-03-20T08:27:14Z</time>
      </trkpt>
      <trkpt lat="47.32267" lon="0.04906">
        <ele>62.14</ele>
        <time>2011-03-20T08:27:18Z</time>
      </trkpt>
      <trkpt lat="47.32256" lon="0.0494">
        <ele>62.62</ele>
        <time>2011-03-20T08:27:23Z</time>
      </trkpt>
      <trkpt lat="47.32253" lon="0.04945">
        <ele>63.1</ele>
        <time>2011-03-20T08:27:24Z</time>
      </trkpt>
      <trkpt lat="47.3225" lon="0.04951">
        <ele>62.62</ele>
        <time>2011-03-20T08:27:25Z</time>
      </trkpt>
      <trkpt lat="47.32247" lon="0.04956">
        <ele>63.1</ele>
        <time>2011-03-20T08:27:26Z</time>
      </trkpt>
      <trkpt lat="47.32245" lon="0.04961">
        <ele>62.62</ele>
        <time>2011-03-20T08:27:27Z</time>
      </trkpt>
      <trkpt lat="47.32237" lon="0.04978">
        <ele>63.1</ele>
        <time>2011-03-20T08:27:30Z</time>
      </trkpt>
      <trkpt lat="47.32234" lon="0.04982">
        <ele>63.1</ele>
        <time>2011-03-20T08:27:31Z</time>
      </trkpt>
      <trkpt lat="47.32231" lon="0.04988">
        <ele>62.14</ele>
        <time>2011-03-20T08:27:32Z</time>
      </trkpt>
      <trkpt lat="47.32228" lon="0.04994">
        <ele>62.14</ele>
        <time>2011-03-20T08:27:33Z</time>
      </trkpt>
      <trkpt lat="47.32225" lon="0.05001">
        <ele>63.1</ele>
        <time>2011-03-20T08:27:34Z</time>
      </trkpt>
      <trkpt lat="47.32222" lon="0.05007">
        <ele>63.1</ele>
        <time>2011-03-20T08:27:35Z</time>
      </trkpt>
      <trkpt lat="47.3222" lon="0.05014">
        <ele>63.1</ele>
        <time>2011-03-20T08:27:36Z</time>
      </trkpt>
      <trkpt lat="47.32217" lon="0.0502">
        <ele>63.1</ele>
        <time>2011-03-20T08:27:37Z</time>
      </trkpt>
      <trkpt lat="47.32214" lon="0.05027">
        <ele>63.1</ele>
        <time>2011-03-20T08:27:38Z</time>
      </trkpt>
      <trkpt lat="47.32193" lon="0.05081">
        <ele>63.1</ele>
        <time>2011-03-20T08:27:46Z</time>
      </trkpt>
      <trkpt lat="47.3219" lon="0.05088">
        <ele>62.62</ele>
        <time>2011-03-20T08:27:47Z</time>
      </trkpt>
      <trkpt lat="47.32182" lon="0.05108">
        <ele>62.62</ele>
        <time>2011-03-20T08:27:50Z</time>
      </trkpt>
      <trkpt lat="47.32169" lon="0.05142">
        <ele>61.18</ele>
        <time>2011-03-20T08:27:55Z</time>
      </trkpt>
      <trkpt lat="47.32166" lon="0.0515">
        <ele>61.66</ele>
        <time>2011-03-20T08:27:56Z</time>
      </trkpt>
      <trkpt lat="47.32156" lon="0.0518">
        <ele>61.66</ele>
        <time>2011-03-20T08:28:00Z</time>
      </trkpt>
      <trkpt lat="47.32154" lon="0.05187">
        <ele>61.18</ele>
        <time>2011-03-20T08:28:01Z</time>
      </trkpt>
      <trkpt lat="47.32143" lon="0.05222">
        <ele>61.66</ele>
        <time>2011-03-20T08:28:06Z</time>
      </trkpt>
      <trkpt lat="47.32125" lon="0.05276">
        <ele>61.18</ele>
        <time>2011-03-20T08:28:13Z</time>
      </trkpt>
      <trkpt lat="47.3212" lon="0.05299">
        <ele>61.18</ele>
        <time>2011-03-20T08:28:16Z</time>
      </trkpt>
      <trkpt lat="47.32119" lon="0.05307">
        <ele>61.66</ele>
        <time>2011-03-20T08:28:17Z</time>
      </trkpt>
      <trkpt lat="47.32116" lon="0.05353">
        <ele>61.66</ele>
        <time>2011-03-20T08:28:23Z</time>
      </trkpt>
      <trkpt lat="47.32116" lon="0.05361">
        <ele>61.66</ele>
        <time>2011-03-20T08:28:24Z</time>
      </trkpt>
      <trkpt lat="47.32117" lon="0.05368">
        <ele>61.66</ele>
        <time>2011-03-20T08:28:25Z</time>
      </trkpt>
      <trkpt lat="47.32118" lon="0.05375">
        <ele>61.66</ele>
        <time>2011-03-20T08:28:26Z</time>
      </trkpt>
      <trkpt lat="47.32119" lon="0.05383">
        <ele>62.14</ele>
        <time>2011-03-20T08:28:27Z</time>
      </trkpt>
      <trkpt lat="47.32121" lon="0.0539">
        <ele>61.66</ele>
        <time>2011-03-20T08:28:28Z</time>
      </trkpt>
      <trkpt lat="47.32128" lon="0.05423">
        <ele>62.62</ele>
        <time>2011-03-20T08:28:33Z</time>
      </trkpt>
      <trkpt lat="47.32128" lon="0.0543">
        <ele>63.1</ele>
        <time>2011-03-20T08:28:34Z</time>
      </trkpt>
      <trkpt lat="47.32126" lon="0.05436">
        <ele>63.1</ele>
        <time>2011-03-20T08:28:35Z</time>
      </trkpt>
      <trkpt lat="47.32125" lon="0.05441">
        <ele>62.62</ele>
        <time>2011-03-20T08:28:36Z</time>
      </trkpt>
      <trkpt lat="47.32123" lon="0.05444">
        <ele>62.62</ele>
        <time>2011-03-20T08:28:37Z</time>
      </trkpt>
      <trkpt lat="47.32114" lon="0.05468">
        <ele>63.1</ele>
        <time>2011-03-20T08:28:43Z</time>
      </trkpt>
      <trkpt lat="47.32106" lon="0.05487">
        <ele>64.55</ele>
        <time>2011-03-20T08:28:47Z</time>
      </trkpt>
      <trkpt lat="47.32097" lon="0.05508">
        <ele>65.51</ele>
        <time>2011-03-20T08:28:52Z</time>
      </trkpt>
      <trkpt lat="47.32093" lon="0.05516">
        <ele>65.99</ele>
        <time>2011-03-20T08:28:54Z</time>
      </trkpt>
      <trkpt lat="47.32084" lon="0.05538">
        <ele>66.47</ele>
        <time>2011-03-20T08:29:00Z</time>
      </trkpt>
      <trkpt lat="47.3208" lon="0.05543">
        <ele>66.95</ele>
        <time>2011-03-20T08:29:07Z</time>
      </trkpt>
      <trkpt lat="47.32081" lon="0.05545">
        <ele>66.95</ele>
        <time>2011-03-20T08:29:45Z</time>
      </trkpt>
      <trkpt lat="47.32081" lon="0.05546">
        <ele>66.95</ele>
        <time>2011-03-20T08:30:29Z</time>
      </trkpt>
      <trkpt lat="47.3208" lon="0.05547">
        <ele>66.47</ele>
        <time>2011-03-20T08:30:30Z</time>
      </trkpt>
      <trkpt lat="47.32079" lon="0.05548">
        <ele>66.95</ele>
        <time>2011-03-20T08:30:31Z</time>
      </trkpt>
      <trkpt lat="47.32077" lon="0.05548">
        <ele>66.95</ele>
        <time>2011-03-20T08:30:32Z</time>
      </trkpt>
      <trkpt lat="47.32075" lon="0.05546">
        <ele>66.47</ele>
        <time>2011-03-20T08:30:33Z</time>
      </trkpt>
      <trkpt lat="47.32073" lon="0.05545">
        <ele>66.95</ele>
        <time>2011-03-20T08:30:34Z</time>
      </trkpt>
      <trkpt lat="47.32056" lon="0.05534">
        <ele>65.99</ele>
        <time>2011-03-20T08:30:40Z</time>
      </trkpt>
      <trkpt lat="47.32036" lon="0.05528">
        <ele>65.99</ele>
        <time>2011-03-20T08:30:46Z</time>
      </trkpt>
      <trkpt lat="47.3201" lon="0.05507">
        <ele>65.99</ele>
        <time>2011-03-20T08:30:53Z</time>
      </trkpt>
      <trkpt lat="47.31984" lon="0.05486">
        <ele>66.47</ele>
        <time>2011-03-20T08:31:00Z</time>
      </trkpt>
      <trkpt lat="47.3196" lon="0.05467">
        <ele>67.43</ele>
        <time>2011-03-20T08:31:07Z</time>
      </trkpt>
      <trkpt lat="47.31936" lon="0.05448">
        <ele>69.83</ele>
        <time>2011-03-20T08:31:14Z</time>
      </trkpt>
      <trkpt lat="47.31915" lon="0.05432">
        <ele>70.31</ele>
        <time>2011-03-20T08:31:20Z</time>
      </trkpt>
      <trkpt lat="47.31902" lon="0.05423">
        <ele>70.31</ele>
        <time>2011-03-20T08:31:24Z</time>
      </trkpt>
      <trkpt lat="47.31883" lon="0.05413">
        <ele>70.31</ele>
        <time>2011-03-20T08:31:29Z</time>
      </trkpt>
      <trkpt lat="47.31855" lon="0.05405">
        <ele>70.79</ele>
        <time>2011-03-20T08:31:35Z</time>
      </trkpt>
      <trkpt lat="47.31833" lon="0.05397">
        <ele>72.24</ele>
        <time>2011-03-20T08:31:41Z</time>
      </trkpt>
      <trkpt lat="47.31816" lon="0.05384">
        <ele>73.68</ele>
        <time>2011-03-20T08:31:46Z</time>
      </trkpt>
      <trkpt lat="47.31799" lon="0.05363">
        <ele>74.16</ele>
        <time>2011-03-20T08:31:52Z</time>
      </trkpt>
      <trkpt lat="47.31786" lon="0.05334">
        <ele>74.16</ele>
        <time>2011-03-20T08:31:58Z</time>
      </trkpt>
      <trkpt lat="47.3177" lon="0.053">
        <ele>75.6</ele>
        <time>2011-03-20T08:32:05Z</time>
      </trkpt>
      <trkpt lat="47.31751" lon="0.05268">
        <ele>76.08</ele>
        <time>2011-03-20T08:32:12Z</time>
      </trkpt>
      <trkpt lat="47.31746" lon="0.05258">
        <ele>76.56</ele>
        <time>2011-03-20T08:32:14Z</time>
      </trkpt>
      <trkpt lat="47.31744" lon="0.05252">
        <ele>76.56</ele>
        <time>2011-03-20T08:32:15Z</time>
      </trkpt>
      <trkpt lat="47.31723" lon="0.05212">
        <ele>76.56</ele>
        <time>2011-03-20T08:32:23Z</time>
      </trkpt>
      <trkpt lat="47.31702" lon="0.05171">
        <ele>77.04</ele>
        <time>2011-03-20T08:32:31Z</time>
      </trkpt>
      <trkpt lat="47.31693" lon="0.05158">
        <ele>76.56</ele>
        <time>2011-03-20T08:32:34Z</time>
      </trkpt>
      <trkpt lat="47.31691" lon="0.05153">
        <ele>76.56</ele>
        <time>2011-03-20T08:32:35Z</time>
      </trkpt>
      <trkpt lat="47.31678" lon="0.05124">
        <ele>77.04</ele>
        <time>2011-03-20T08:32:42Z</time>
      </trkpt>
      <trkpt lat="47.31662" lon="0.05105">
        <ele>77.52</ele>
        <time>2011-03-20T08:32:48Z</time>
      </trkpt>
      <trkpt lat="47.3165" lon="0.05087">
        <ele>78</ele>
        <time>2011-03-20T08:32:53Z</time>
      </trkpt>
      <trkpt lat="47.3164" lon="0.05063">
        <ele>78.97</ele>
        <time>2011-03-20T08:32:59Z</time>
      </trkpt>
      <trkpt lat="47.3163" lon="0.05046">
        <ele>80.41</ele>
        <time>2011-03-20T08:33:04Z</time>
      </trkpt>
      <trkpt lat="47.31619" lon="0.05028">
        <ele>81.37</ele>
        <time>2011-03-20T08:33:09Z</time>
      </trkpt>
      <trkpt lat="47.316" lon="0.04991">
        <ele>82.81</ele>
        <time>2011-03-20T08:33:18Z</time>
      </trkpt>
      <trkpt lat="47.31587" lon="0.04966">
        <ele>83.77</ele>
        <time>2011-03-20T08:33:25Z</time>
      </trkpt>
      <trkpt lat="47.31578" lon="0.0495">
        <ele>84.25</ele>
        <time>2011-03-20T08:33:31Z</time>
      </trkpt>
      <trkpt lat="47.31563" lon="0.04922">
        <ele>84.25</ele>
        <time>2011-03-20T08:33:39Z</time>
      </trkpt>
      <trkpt lat="47.31561" lon="0.04919">
        <ele>84.73</ele>
        <time>2011-03-20T08:33:40Z</time>
      </trkpt>
      <trkpt lat="47.31558" lon="0.04916">
        <ele>85.21</ele>
        <time>2011-03-20T08:33:41Z</time>
      </trkpt>
      <trkpt lat="47.31543" lon="0.04888">
        <ele>85.21</ele>
        <time>2011-03-20T08:33:48Z</time>
      </trkpt>
      <trkpt lat="47.31528" lon="0.04862">
        <ele>84.73</ele>
        <time>2011-03-20T08:33:53Z</time>
      </trkpt>
      <trkpt lat="47.3151" lon="0.04836">
        <ele>82.33</ele>
        <time>2011-03-20T08:33:57Z</time>
      </trkpt>
      <trkpt lat="47.31505" lon="0.04829">
        <ele>81.37</ele>
        <time>2011-03-20T08:33:58Z</time>
      </trkpt>
      <trkpt lat="47.31499" lon="0.04821">
        <ele>81.85</ele>
        <time>2011-03-20T08:33:59Z</time>
      </trkpt>
      <trkpt lat="47.31493" lon="0.04813">
        <ele>80.41</ele>
        <time>2011-03-20T08:34:00Z</time>
      </trkpt>
      <trkpt lat="47.31486" lon="0.04805">
        <ele>80.41</ele>
        <time>2011-03-20T08:34:01Z</time>
      </trkpt>
      <trkpt lat="47.31472" lon="0.04788">
        <ele>77.52</ele>
        <time>2011-03-20T08:34:03Z</time>
      </trkpt>
      <trkpt lat="47.31464" lon="0.0478">
        <ele>77.52</ele>
        <time>2011-03-20T08:34:04Z</time>
      </trkpt>
      <trkpt lat="47.31439" lon="0.04756">
        <ele>74.16</ele>
        <time>2011-03-20T08:34:07Z</time>
      </trkpt>
      <trkpt lat="47.31395" lon="0.04716">
        <ele>69.83</ele>
        <time>2011-03-20T08:34:12Z</time>
      </trkpt>
      <trkpt lat="47.31366" lon="0.04683">
        <ele>67.91</ele>
        <time>2011-03-20T08:34:16Z</time>
      </trkpt>
      <trkpt lat="47.31332" lon="0.0463">
        <ele>65.99</ele>
        <time>2011-03-20T08:34:22Z</time>
      </trkpt>
      <trkpt lat="47.31313" lon="0.04593">
        <ele>65.03</ele>
        <time>2011-03-20T08:34:26Z</time>
      </trkpt>
      <trkpt lat="47.31309" lon="0.04584">
        <ele>64.07</ele>
        <time>2011-03-20T08:34:27Z</time>
      </trkpt>
      <trkpt lat="47.31295" lon="0.0456">
        <ele>64.07</ele>
        <time>2011-03-20T08:34:30Z</time>
      </trkpt>
      <trkpt lat="47.31289" lon="0.04554">
        <ele>64.07</ele>
        <time>2011-03-20T08:34:31Z</time>
      </trkpt>
      <trkpt lat="47.31284" lon="0.04549">
        <ele>64.55</ele>
        <time>2011-03-20T08:34:32Z</time>
      </trkpt>
      <trkpt lat="47.31265" lon="0.04528">
        <ele>64.55</ele>
        <time>2011-03-20T08:34:36Z</time>
      </trkpt>
      <trkpt lat="47.31259" lon="0.04524">
        <ele>65.03</ele>
        <time>2011-03-20T08:34:37Z</time>
      </trkpt>
      <trkpt lat="47.31245" lon="0.04509">
        <ele>64.07</ele>
        <time>2011-03-20T08:34:40Z</time>
      </trkpt>
      <trkpt lat="47.3124" lon="0.04503">
        <ele>64.55</ele>
        <time>2011-03-20T08:34:41Z</time>
      </trkpt>
      <trkpt lat="47.31236" lon="0.04496">
        <ele>64.07</ele>
        <time>2011-03-20T08:34:42Z</time>
      </trkpt>
      <trkpt lat="47.31229" lon="0.04481">
        <ele>64.07</ele>
        <time>2011-03-20T08:34:44Z</time>
      </trkpt>
      <trkpt lat="47.31226" lon="0.04473">
        <ele>64.55</ele>
        <time>2011-03-20T08:34:45Z</time>
      </trkpt>
      <trkpt lat="47.31208" lon="0.04427">
        <ele>63.58</ele>
        <time>2011-03-20T08:34:51Z</time>
      </trkpt>
      <trkpt lat="47.31205" lon="0.04419">
        <ele>64.07</ele>
        <time>2011-03-20T08:34:52Z</time>
      </trkpt>
      <trkpt lat="47.31203" lon="0.04411">
        <ele>64.07</ele>
        <time>2011-03-20T08:34:53Z</time>
      </trkpt>
      <trkpt lat="47.31193" lon="0.04358">
        <ele>62.62</ele>
        <time>2011-03-20T08:35:00Z</time>
      </trkpt>
      <trkpt lat="47.3119" lon="0.04351">
        <ele>63.1</ele>
        <time>2011-03-20T08:35:01Z</time>
      </trkpt>
      <trkpt lat="47.31187" lon="0.04343">
        <ele>62.62</ele>
        <time>2011-03-20T08:35:02Z</time>
      </trkpt>
      <trkpt lat="47.31173" lon="0.04311">
        <ele>61.18</ele>
        <time>2011-03-20T08:35:07Z</time>
      </trkpt>
      <trkpt lat="47.31152" lon="0.04265">
        <ele>59.26</ele>
        <time>2011-03-20T08:35:13Z</time>
      </trkpt>
      <trkpt lat="47.31135" lon="0.04223">
        <ele>57.82</ele>
        <time>2011-03-20T08:35:19Z</time>
      </trkpt>
      <trkpt lat="47.31131" lon="0.04219">
        <ele>57.34</ele>
        <time>2011-03-20T08:35:21Z</time>
      </trkpt>
      <trkpt lat="47.31128" lon="0.04219">
        <ele>56.86</ele>
        <time>2011-03-20T08:35:22Z</time>
      </trkpt>
      <trkpt lat="47.31125" lon="0.04221">
        <ele>56.86</ele>
        <time>2011-03-20T08:35:23Z</time>
      </trkpt>
      <trkpt lat="47.31122" lon="0.04224">
        <ele>56.37</ele>
        <time>2011-03-20T08:35:24Z</time>
      </trkpt>
      <trkpt lat="47.31119" lon="0.04227">
        <ele>57.34</ele>
        <time>2011-03-20T08:35:25Z</time>
      </trkpt>
      <trkpt lat="47.31116" lon="0.04231">
        <ele>57.34</ele>
        <time>2011-03-20T08:35:26Z</time>
      </trkpt>
      <trkpt lat="47.31113" lon="0.04235">
        <ele>55.89</ele>
        <time>2011-03-20T08:35:27Z</time>
      </trkpt>
      <trkpt lat="47.3111" lon="0.04238">
        <ele>55.41</ele>
        <time>2011-03-20T08:35:28Z</time>
      </trkpt>
      <trkpt lat="47.31106" lon="0.04242">
        <ele>55.89</ele>
        <time>2011-03-20T08:35:29Z</time>
      </trkpt>
      <trkpt lat="47.31102" lon="0.04245">
        <ele>56.37</ele>
        <time>2011-03-20T08:35:30Z</time>
      </trkpt>
      <trkpt lat="47.31097" lon="0.04247">
        <ele>56.37</ele>
        <time>2011-03-20T08:35:31Z</time>
      </trkpt>
      <trkpt lat="47.31093" lon="0.04249">
        <ele>55.41</ele>
        <time>2011-03-20T08:35:32Z</time>
      </trkpt>
      <trkpt lat="47.31089" lon="0.04254">
        <ele>54.93</ele>
        <time>2011-03-20T08:35:33Z</time>
      </trkpt>
      <trkpt lat="47.31087" lon="0.04259">
        <ele>53.97</ele>
        <time>2011-03-20T08:35:34Z</time>
      </trkpt>
      <trkpt lat="47.31084" lon="0.04263">
        <ele>54.45</ele>
        <time>2011-03-20T08:35:35Z</time>
      </trkpt>
      <trkpt lat="47.31081" lon="0.04267">
        <ele>54.45</ele>
        <time>2011-03-20T08:35:36Z</time>
      </trkpt>
      <trkpt lat="47.3107" lon="0.04284">
        <ele>53.49</ele>
        <time>2011-03-20T08:35:40Z</time>
      </trkpt>
      <trkpt lat="47.31066" lon="0.04289">
        <ele>54.45</ele>
        <time>2011-03-20T08:35:41Z</time>
      </trkpt>
      <trkpt lat="47.31062" lon="0.04292">
        <ele>53.49</ele>
        <time>2011-03-20T08:35:42Z</time>
      </trkpt>
      <trkpt lat="47.31049" lon="0.04308">
        <ele>53.01</ele>
        <time>2011-03-20T08:35:47Z</time>
      </trkpt>
      <trkpt lat="47.31042" lon="0.04325">
        <ele>52.53</ele>
        <time>2011-03-20T08:35:50Z</time>
      </trkpt>
      <trkpt lat="47.31041" lon="0.04332">
        <ele>53.01</ele>
        <time>2011-03-20T08:35:51Z</time>
      </trkpt>
      <trkpt lat="47.3104" lon="0.04339">
        <ele>52.05</ele>
        <time>2011-03-20T08:35:52Z</time>
      </trkpt>
      <trkpt lat="47.31038" lon="0.04352">
        <ele>52.53</ele>
        <time>2011-03-20T08:35:54Z</time>
      </trkpt>
      <trkpt lat="47.31038" lon="0.04359">
        <ele>53.01</ele>
        <time>2011-03-20T08:35:55Z</time>
      </trkpt>
      <trkpt lat="47.31035" lon="0.044">
        <ele>52.53</ele>
        <time>2011-03-20T08:36:01Z</time>
      </trkpt>
      <trkpt lat="47.31034" lon="0.04426">
        <ele>52.05</ele>
        <time>2011-03-20T08:36:05Z</time>
      </trkpt>
      <trkpt lat="47.31032" lon="0.04463">
        <ele>52.05</ele>
        <time>2011-03-20T08:36:11Z</time>
      </trkpt>
      <trkpt lat="47.31032" lon="0.0447">
        <ele>52.05</ele>
        <time>2011-03-20T08:36:12Z</time>
      </trkpt>
      <trkpt lat="47.31031" lon="0.04476">
        <ele>52.05</ele>
        <time>2011-03-20T08:36:13Z</time>
      </trkpt>
      <trkpt lat="47.31031" lon="0.04482">
        <ele>52.53</ele>
        <time>2011-03-20T08:36:14Z</time>
      </trkpt>
      <trkpt lat="47.31031" lon="0.04488">
        <ele>52.05</ele>
        <time>2011-03-20T08:36:15Z</time>
      </trkpt>
      <trkpt lat="47.31031" lon="0.04493">
        <ele>52.53</ele>
        <time>2011-03-20T08:36:16Z</time>
      </trkpt>
      <trkpt lat="47.31031" lon="0.04498">
        <ele>52.05</ele>
        <time>2011-03-20T08:36:17Z</time>
      </trkpt>
      <trkpt lat="47.31032" lon="0.04501">
        <ele>52.05</ele>
        <time>2011-03-20T08:36:18Z</time>
      </trkpt>
      <trkpt lat="47.31034" lon="0.04502">
        <ele>52.53</ele>
        <time>2011-03-20T08:36:19Z</time>
      </trkpt>
      <trkpt lat="47.31037" lon="0.04503">
        <ele>52.05</ele>
        <time>2011-03-20T08:36:20Z</time>
      </trkpt>
      <trkpt lat="47.31039" lon="0.04502">
        <ele>51.57</ele>
        <time>2011-03-20T08:36:21Z</time>
      </trkpt>
      <trkpt lat="47.31042" lon="0.04502">
        <ele>52.53</ele>
        <time>2011-03-20T08:36:22Z</time>
      </trkpt>
      <trkpt lat="47.31044" lon="0.04501">
        <ele>52.05</ele>
        <time>2011-03-20T08:36:23Z</time>
      </trkpt>
      <trkpt lat="47.31047" lon="0.045">
        <ele>52.53</ele>
        <time>2011-03-20T08:36:24Z</time>
      </trkpt>
      <trkpt lat="47.31049" lon="0.04499">
        <ele>53.01</ele>
        <time>2011-03-20T08:36:25Z</time>
      </trkpt>
      <trkpt lat="47.31052" lon="0.04498">
        <ele>53.49</ele>
        <time>2011-03-20T08:36:26Z</time>
      </trkpt>
      <trkpt lat="47.31071" lon="0.04501">
        <ele>54.45</ele>
        <time>2011-03-20T08:36:33Z</time>
      </trkpt>
      <trkpt lat="47.31084" lon="0.04512">
        <ele>55.41</ele>
        <time>2011-03-20T08:36:38Z</time>
      </trkpt>
      <trkpt lat="47.31086" lon="0.04515">
        <ele>55.41</ele>
        <time>2011-03-20T08:36:39Z</time>
      </trkpt>
      <trkpt lat="47.31088" lon="0.04518">
        <ele>54.93</ele>
        <time>2011-03-20T08:36:40Z</time>
      </trkpt>
      <trkpt lat="47.3109" lon="0.04522">
        <ele>54.93</ele>
        <time>2011-03-20T08:36:41Z</time>
      </trkpt>
      <trkpt lat="47.31092" lon="0.04526">
        <ele>55.41</ele>
        <time>2011-03-20T08:36:42Z</time>
      </trkpt>
      <trkpt lat="47.31106" lon="0.04551">
        <ele>55.41</ele>
        <time>2011-03-20T08:36:49Z</time>
      </trkpt>
      <trkpt lat="47.3112" lon="0.04578">
        <ele>55.89</ele>
        <time>2011-03-20T08:36:57Z</time>
      </trkpt>
      <trkpt lat="47.3113" lon="0.04595">
        <ele>55.89</ele>
        <time>2011-03-20T08:37:02Z</time>
      </trkpt>
      <trkpt lat="47.31143" lon="0.04625">
        <ele>55.89</ele>
        <time>2011-03-20T08:37:08Z</time>
      </trkpt>
      <trkpt lat="47.31152" lon="0.04649">
        <ele>54.93</ele>
        <time>2011-03-20T08:37:13Z</time>
      </trkpt>
      <trkpt lat="47.31168" lon="0.04669">
        <ele>55.41</ele>
        <time>2011-03-20T08:37:19Z</time>
      </trkpt>
      <trkpt lat="47.31172" lon="0.04681">
        <ele>54.93</ele>
        <time>2011-03-20T08:37:22Z</time>
      </trkpt>
      <trkpt lat="47.31175" lon="0.04685">
        <ele>54.93</ele>
        <time>2011-03-20T08:37:23Z</time>
      </trkpt>
      <trkpt lat="47.31194" lon="0.04711">
        <ele>55.89</ele>
        <time>2011-03-20T08:37:29Z</time>
      </trkpt>
      <trkpt lat="47.31207" lon="0.04728">
        <ele>56.86</ele>
        <time>2011-03-20T08:37:35Z</time>
      </trkpt>
      <trkpt lat="47.31217" lon="0.04749">
        <ele>57.82</ele>
        <time>2011-03-20T08:37:41Z</time>
      </trkpt>
      <trkpt lat="47.31223" lon="0.04767">
        <ele>59.26</ele>
        <time>2011-03-20T08:37:47Z</time>
      </trkpt>
      <trkpt lat="47.31235" lon="0.04792">
        <ele>60.22</ele>
        <time>2011-03-20T08:37:55Z</time>
      </trkpt>
      <trkpt lat="47.3124" lon="0.04801">
        <ele>61.66</ele>
        <time>2011-03-20T08:37:59Z</time>
      </trkpt>
      <trkpt lat="47.31249" lon="0.04814">
        <ele>63.58</ele>
        <time>2011-03-20T08:38:05Z</time>
      </trkpt>
      <trkpt lat="47.31256" lon="0.04827">
        <ele>65.51</ele>
        <time>2011-03-20T08:38:12Z</time>
      </trkpt>
      <trkpt lat="47.31265" lon="0.04843">
        <ele>67.43</ele>
        <time>2011-03-20T08:38:20Z</time>
      </trkpt>
      <trkpt lat="47.31266" lon="0.04844">
        <ele>67.91</ele>
        <time>2011-03-20T08:38:21Z</time>
      </trkpt>
      <trkpt lat="47.31267" lon="0.04846">
        <ele>68.39</ele>
        <time>2011-03-20T08:38:22Z</time>
      </trkpt>
      <trkpt lat="47.31268" lon="0.04847">
        <ele>68.39</ele>
        <time>2011-03-20T08:38:23Z</time>
      </trkpt>
      <trkpt lat="47.31268" lon="0.0485">
        <ele>69.35</ele>
        <time>2011-03-20T08:38:24Z</time>
      </trkpt>
      <trkpt lat="47.3127" lon="0.04852">
        <ele>68.87</ele>
        <time>2011-03-20T08:38:25Z</time>
      </trkpt>
      <trkpt lat="47.31277" lon="0.04862">
        <ele>70.79</ele>
        <time>2011-03-20T08:38:31Z</time>
      </trkpt>
      <trkpt lat="47.31286" lon="0.04876">
        <ele>72.24</ele>
        <time>2011-03-20T08:38:38Z</time>
      </trkpt>
      <trkpt lat="47.3129" lon="0.04883">
        <ele>73.68</ele>
        <time>2011-03-20T08:38:41Z</time>
      </trkpt>
      <trkpt lat="47.31298" lon="0.04899">
        <ele>75.12</ele>
        <time>2011-03-20T08:38:49Z</time>
      </trkpt>
      <trkpt lat="47.31304" lon="0.04913">
        <ele>77.04</ele>
        <time>2011-03-20T08:38:57Z</time>
      </trkpt>
      <trkpt lat="47.3131" lon="0.04924">
        <ele>78.97</ele>
        <time>2011-03-20T08:39:04Z</time>
      </trkpt>
      <trkpt lat="47.31311" lon="0.04926">
        <ele>78.97</ele>
        <time>2011-03-20T08:39:05Z</time>
      </trkpt>
      <trkpt lat="47.31312" lon="0.04929">
        <ele>78.48</ele>
        <time>2011-03-20T08:39:06Z</time>
      </trkpt>
      <trkpt lat="47.31313" lon="0.04931">
        <ele>78.97</ele>
        <time>2011-03-20T08:39:07Z</time>
      </trkpt>
      <trkpt lat="47.31314" lon="0.04933">
        <ele>78.97</ele>
        <time>2011-03-20T08:39:08Z</time>
      </trkpt>
      <trkpt lat="47.31315" lon="0.04934">
        <ele>79.45</ele>
        <time>2011-03-20T08:39:09Z</time>
      </trkpt>
      <trkpt lat="47.31317" lon="0.04936">
        <ele>79.93</ele>
        <time>2011-03-20T08:39:10Z</time>
      </trkpt>
      <trkpt lat="47.3132" lon="0.04941">
        <ele>79.93</ele>
        <time>2011-03-20T08:39:13Z</time>
      </trkpt>
      <trkpt lat="47.31321" lon="0.04943">
        <ele>79.93</ele>
        <time>2011-03-20T08:39:14Z</time>
      </trkpt>
      <trkpt lat="47.31322" lon="0.04944">
        <ele>80.41</ele>
        <time>2011-03-20T08:39:15Z</time>
      </trkpt>
      <trkpt lat="47.31324" lon="0.04947">
        <ele>79.93</ele>
        <time>2011-03-20T08:39:17Z</time>
      </trkpt>
      <trkpt lat="47.31328" lon="0.04954">
        <ele>81.37</ele>
        <time>2011-03-20T08:39:22Z</time>
      </trkpt>
      <trkpt lat="47.31329" lon="0.04955">
        <ele>81.85</ele>
        <time>2011-03-20T08:39:23Z</time>
      </trkpt>
      <trkpt lat="47.31333" lon="0.0496">
        <ele>82.33</ele>
        <time>2011-03-20T08:39:26Z</time>
      </trkpt>
      <trkpt lat="47.31338" lon="0.04965">
        <ele>83.77</ele>
        <time>2011-03-20T08:39:32Z</time>
      </trkpt>
      <trkpt lat="47.31338" lon="0.04967">
        <ele>84.25</ele>
        <time>2011-03-20T08:39:33Z</time>
      </trkpt>
      <trkpt lat="47.31339" lon="0.04969">
        <ele>84.25</ele>
        <time>2011-03-20T08:39:34Z</time>
      </trkpt>
      <trkpt lat="47.31341" lon="0.04971">
        <ele>84.73</ele>
        <time>2011-03-20T08:39:36Z</time>
      </trkpt>
      <trkpt lat="47.31341" lon="0.04973">
        <ele>85.21</ele>
        <time>2011-03-20T08:39:37Z</time>
      </trkpt>
      <trkpt lat="47.31349" lon="0.04987">
        <ele>87.14</ele>
        <time>2011-03-20T08:39:46Z</time>
      </trkpt>
      <trkpt lat="47.31351" lon="0.04988">
        <ele>87.14</ele>
        <time>2011-03-20T08:39:47Z</time>
      </trkpt>
      <trkpt lat="47.31354" lon="0.04993">
        <ele>87.62</ele>
        <time>2011-03-20T08:39:54Z</time>
      </trkpt>
      <trkpt lat="47.31354" lon="0.04993">
        <ele>87.14</ele>
        <time>2011-03-20T08:40:20Z</time>
      </trkpt>
      <trkpt lat="47.31354" lon="0.04993">
        <ele>87.62</ele>
        <time>2011-03-20T08:41:16Z</time>
      </trkpt>
      <trkpt lat="47.31354" lon="0.04994">
        <ele>88.58</ele>
        <time>2011-03-20T08:42:47Z</time>
      </trkpt>
      <trkpt lat="47.31355" lon="0.04995">
        <ele>88.58</ele>
        <time>2011-03-20T08:42:48Z</time>
      </trkpt>
      <trkpt lat="47.31356" lon="0.04997">
        <ele>89.06</ele>
        <time>2011-03-20T08:42:49Z</time>
      </trkpt>
      <trkpt lat="47.31357" lon="0.04998">
        <ele>88.58</ele>
        <time>2011-03-20T08:42:50Z</time>
      </trkpt>
      <trkpt lat="47.31357" lon="0.05">
        <ele>88.58</ele>
        <time>2011-03-20T08:42:51Z</time>
      </trkpt>
      <trkpt lat="47.31358" lon="0.05001">
        <ele>89.06</ele>
        <time>2011-03-20T08:42:52Z</time>
      </trkpt>
      <trkpt lat="47.3136" lon="0.05002">
        <ele>89.06</ele>
        <time>2011-03-20T08:42:53Z</time>
      </trkpt>
      <trkpt lat="47.31361" lon="0.05004">
        <ele>89.54</ele>
        <time>2011-03-20T08:42:54Z</time>
      </trkpt>
      <trkpt lat="47.31361" lon="0.05007">
        <ele>89.54</ele>
        <time>2011-03-20T08:42:55Z</time>
      </trkpt>
      <trkpt lat="47.31362" lon="0.05009">
        <ele>89.54</ele>
        <time>2011-03-20T08:42:56Z</time>
      </trkpt>
      <trkpt lat="47.31363" lon="0.05011">
        <ele>89.06</ele>
        <time>2011-03-20T08:42:57Z</time>
      </trkpt>
      <trkpt lat="47.31364" lon="0.05013">
        <ele>89.54</ele>
        <time>2011-03-20T08:42:58Z</time>
      </trkpt>
      <trkpt lat="47.31366" lon="0.05015">
        <ele>89.54</ele>
        <time>2011-03-20T08:42:59Z</time>
      </trkpt>
      <trkpt lat="47.31367" lon="0.05017">
        <ele>89.54</ele>
        <time>2011-03-20T08:43:00Z</time>
      </trkpt>
      <trkpt lat="47.31368" lon="0.0502">
        <ele>90.02</ele>
        <time>2011-03-20T08:43:01Z</time>
      </trkpt>
      <trkpt lat="47.3137" lon="0.05022">
        <ele>90.02</ele>
        <time>2011-03-20T08:43:02Z</time>
      </trkpt>
      <trkpt lat="47.31378" lon="0.05035">
        <ele>90.98</ele>
        <time>2011-03-20T08:43:08Z</time>
      </trkpt>
      <trkpt lat="47.31389" lon="0.05054">
        <ele>91.46</ele>
        <time>2011-03-20T08:43:16Z</time>
      </trkpt>
      <trkpt lat="47.31399" lon="0.05069">
        <ele>91.94</ele>
        <time>2011-03-20T08:43:22Z</time>
      </trkpt>
      <trkpt lat="47.31413" lon="0.05094">
        <ele>92.42</ele>
        <time>2011-03-20T08:43:31Z</time>
      </trkpt>
      <trkpt lat="47.31433" lon="0.05126">
        <ele>91.46</ele>
        <time>2011-03-20T08:43:41Z</time>
      </trkpt>
      <trkpt lat="47.31453" lon="0.05157">
        <ele>89.06</ele>
        <time>2011-03-20T08:43:49Z</time>
      </trkpt>
      <trkpt lat="47.31467" lon="0.05178">
        <ele>88.1</ele>
        <time>2011-03-20T08:43:54Z</time>
      </trkpt>
      <trkpt lat="47.31477" lon="0.05192">
        <ele>86.66</ele>
        <time>2011-03-20T08:43:57Z</time>
      </trkpt>
      <trkpt lat="47.31506" lon="0.0523">
        <ele>84.25</ele>
        <time>2011-03-20T08:44:05Z</time>
      </trkpt>
      <trkpt lat="47.31509" lon="0.05237">
        <ele>83.29</ele>
        <time>2011-03-20T08:44:06Z</time>
      </trkpt>
      <trkpt lat="47.31511" lon="0.05244">
        <ele>82.33</ele>
        <time>2011-03-20T08:44:07Z</time>
      </trkpt>
      <trkpt lat="47.31511" lon="0.05252">
        <ele>81.85</ele>
        <time>2011-03-20T08:44:08Z</time>
      </trkpt>
      <trkpt lat="47.31509" lon="0.0526">
        <ele>80.89</ele>
        <time>2011-03-20T08:44:09Z</time>
      </trkpt>
      <trkpt lat="47.31506" lon="0.05267">
        <ele>80.41</ele>
        <time>2011-03-20T08:44:10Z</time>
      </trkpt>
      <trkpt lat="47.31496" lon="0.05292">
        <ele>78</ele>
        <time>2011-03-20T08:44:13Z</time>
      </trkpt>
      <trkpt lat="47.31491" lon="0.05312">
        <ele>76.56</ele>
        <time>2011-03-20T08:44:15Z</time>
      </trkpt>
      <trkpt lat="47.31484" lon="0.05348">
        <ele>74.16</ele>
        <time>2011-03-20T08:44:18Z</time>
      </trkpt>
      <trkpt lat="47.31469" lon="0.05415">
        <ele>71.27</ele>
        <time>2011-03-20T08:44:24Z</time>
      </trkpt>
      <trkpt lat="47.31464" lon="0.05435">
        <ele>68.87</ele>
        <time>2011-03-20T08:44:26Z</time>
      </trkpt>
      <trkpt lat="47.3146" lon="0.05445">
        <ele>68.39</ele>
        <time>2011-03-20T08:44:27Z</time>
      </trkpt>
      <trkpt lat="47.31443" lon="0.0548">
        <ele>67.43</ele>
        <time>2011-03-20T08:44:31Z</time>
      </trkpt>
      <trkpt lat="47.31438" lon="0.05487">
        <ele>66.95</ele>
        <time>2011-03-20T08:44:32Z</time>
      </trkpt>
      <trkpt lat="47.31429" lon="0.05498">
        <ele>66.47</ele>
        <time>2011-03-20T08:44:34Z</time>
      </trkpt>
      <trkpt lat="47.31425" lon="0.05504">
        <ele>65.99</ele>
        <time>2011-03-20T08:44:35Z</time>
      </trkpt>
      <trkpt lat="47.31412" lon="0.05523">
        <ele>64.07</ele>
        <time>2011-03-20T08:44:38Z</time>
      </trkpt>
      <trkpt lat="47.31409" lon="0.05527">
        <ele>64.07</ele>
        <time>2011-03-20T08:44:39Z</time>
      </trkpt>
      <trkpt lat="47.31406" lon="0.05529">
        <ele>63.58</ele>
        <time>2011-03-20T08:44:40Z</time>
      </trkpt>
      <trkpt lat="47.31404" lon="0.05532">
        <ele>63.1</ele>
        <time>2011-03-20T08:44:41Z</time>
      </trkpt>
      <trkpt lat="47.31403" lon="0.05536">
        <ele>62.62</ele>
        <time>2011-03-20T08:44:42Z</time>
      </trkpt>
      <trkpt lat="47.31403" lon="0.05538">
        <ele>63.1</ele>
        <time>2011-03-20T08:44:43Z</time>
      </trkpt>
      <trkpt lat="47.31404" lon="0.0554">
        <ele>63.1</ele>
        <time>2011-03-20T08:44:44Z</time>
      </trkpt>
      <trkpt lat="47.31405" lon="0.05543">
        <ele>62.62</ele>
        <time>2011-03-20T08:44:45Z</time>
      </trkpt>
      <trkpt lat="47.31409" lon="0.05551">
        <ele>62.62</ele>
        <time>2011-03-20T08:44:48Z</time>
      </trkpt>
      <trkpt lat="47.3141" lon="0.05553">
        <ele>63.1</ele>
        <time>2011-03-20T08:44:49Z</time>
      </trkpt>
      <trkpt lat="47.31411" lon="0.05554">
        <ele>63.58</ele>
        <time>2011-03-20T08:44:50Z</time>
      </trkpt>
      <trkpt lat="47.31412" lon="0.05556">
        <ele>63.58</ele>
        <time>2011-03-20T08:44:51Z</time>
      </trkpt>
      <trkpt lat="47.31413" lon="0.05558">
        <ele>64.07</ele>
        <time>2011-03-20T08:44:52Z</time>
      </trkpt>
      <trkpt lat="47.31414" lon="0.05559">
        <ele>64.07</ele>
        <time>2011-03-20T08:44:53Z</time>
      </trkpt>
      <trkpt lat="47.31415" lon="0.05561">
        <ele>64.55</ele>
        <time>2011-03-20T08:44:54Z</time>
      </trkpt>
      <trkpt lat="47.31416" lon="0.05562">
        <ele>64.07</ele>
        <time>2011-03-20T08:44:55Z</time>
      </trkpt>
      <trkpt lat="47.31417" lon="0.05564">
        <ele>65.03</ele>
        <time>2011-03-20T08:44:56Z</time>
      </trkpt>
      <trkpt lat="47.31427" lon="0.05572">
        <ele>65.99</ele>
        <time>2011-03-20T08:45:03Z</time>
      </trkpt>
      <trkpt lat="47.31428" lon="0.05572">
        <ele>66.95</ele>
        <time>2011-03-20T08:45:04Z</time>
      </trkpt>
      <trkpt lat="47.3143" lon="0.05572">
        <ele>66.95</ele>
        <time>2011-03-20T08:45:05Z</time>
      </trkpt>
      <trkpt lat="47.31439" lon="0.05576">
        <ele>68.39</ele>
        <time>2011-03-20T08:45:11Z</time>
      </trkpt>
      <trkpt lat="47.3145" lon="0.0558">
        <ele>70.31</ele>
        <time>2011-03-20T08:45:18Z</time>
      </trkpt>
      <trkpt lat="47.31458" lon="0.05581">
        <ele>71.76</ele>
        <time>2011-03-20T08:45:24Z</time>
      </trkpt>
      <trkpt lat="47.31461" lon="0.0558">
        <ele>73.2</ele>
        <time>2011-03-20T08:45:28Z</time>
      </trkpt>
      <trkpt lat="47.31469" lon="0.05583">
        <ele>74.64</ele>
        <time>2011-03-20T08:45:35Z</time>
      </trkpt>
      <trkpt lat="47.3147" lon="0.05584">
        <ele>76.08</ele>
        <time>2011-03-20T08:45:37Z</time>
      </trkpt>
      <trkpt lat="47.31471" lon="0.05585">
        <ele>76.08</ele>
        <time>2011-03-20T08:45:38Z</time>
      </trkpt>
      <trkpt lat="47.31472" lon="0.05586">
        <ele>76.08</ele>
        <time>2011-03-20T08:45:39Z</time>
      </trkpt>
      <trkpt lat="47.31475" lon="0.05588">
        <ele>77.04</ele>
        <time>2011-03-20T08:45:42Z</time>
      </trkpt>
      <trkpt lat="47.31477" lon="0.05589">
        <ele>77.04</ele>
        <time>2011-03-20T08:45:43Z</time>
      </trkpt>
      <trkpt lat="47.3148" lon="0.0559">
        <ele>77.52</ele>
        <time>2011-03-20T08:45:45Z</time>
      </trkpt>
      <trkpt lat="47.31487" lon="0.05592">
        <ele>78.48</ele>
        <time>2011-03-20T08:45:50Z</time>
      </trkpt>
      <trkpt lat="47.31488" lon="0.05593">
        <ele>78.48</ele>
        <time>2011-03-20T08:45:51Z</time>
      </trkpt>
      <trkpt lat="47.3149" lon="0.05594">
        <ele>78.97</ele>
        <time>2011-03-20T08:45:52Z</time>
      </trkpt>
      <trkpt lat="47.31491" lon="0.05595">
        <ele>79.45</ele>
        <time>2011-03-20T08:45:53Z</time>
      </trkpt>
      <trkpt lat="47.31492" lon="0.05595">
        <ele>78.97</ele>
        <time>2011-03-20T08:45:54Z</time>
      </trkpt>
      <trkpt lat="47.31494" lon="0.05595">
        <ele>79.45</ele>
        <time>2011-03-20T08:45:55Z</time>
      </trkpt>
      <trkpt lat="47.31499" lon="0.05598">
        <ele>80.41</ele>
        <time>2011-03-20T08:45:59Z</time>
      </trkpt>
      <trkpt lat="47.31499" lon="0.056">
        <ele>80.89</ele>
        <time>2011-03-20T08:46:00Z</time>
      </trkpt>
      <trkpt lat="47.315" lon="0.05601">
        <ele>80.89</ele>
        <time>2011-03-20T08:46:01Z</time>
      </trkpt>
      <trkpt lat="47.31502" lon="0.05602">
        <ele>80.89</ele>
        <time>2011-03-20T08:46:02Z</time>
      </trkpt>
      <trkpt lat="47.31503" lon="0.05603">
        <ele>80.89</ele>
        <time>2011-03-20T08:46:03Z</time>
      </trkpt>
      <trkpt lat="47.31504" lon="0.05605">
        <ele>80.89</ele>
        <time>2011-03-20T08:46:04Z</time>
      </trkpt>
      <trkpt lat="47.31505" lon="0.05606">
        <ele>81.37</ele>
        <time>2011-03-20T08:46:05Z</time>
      </trkpt>
      <trkpt lat="47.31506" lon="0.05607">
        <ele>81.37</ele>
        <time>2011-03-20T08:46:06Z</time>
      </trkpt>
      <trkpt lat="47.31507" lon="0.05607">
        <ele>81.37</ele>
        <time>2011-03-20T08:46:07Z</time>
      </trkpt>
      <trkpt lat="47.31509" lon="0.05608">
        <ele>81.37</ele>
        <time>2011-03-20T08:46:08Z</time>
      </trkpt>
      <trkpt lat="47.3151" lon="0.0561">
        <ele>81.37</ele>
        <time>2011-03-20T08:46:09Z</time>
      </trkpt>
      <trkpt lat="47.31519" lon="0.05616">
        <ele>82.33</ele>
        <time>2011-03-20T08:46:17Z</time>
      </trkpt>
      <trkpt lat="47.31528" lon="0.05621">
        <ele>83.77</ele>
        <time>2011-03-20T08:46:24Z</time>
      </trkpt>
      <trkpt lat="47.3153" lon="0.05622">
        <ele>83.77</ele>
        <time>2011-03-20T08:46:25Z</time>
      </trkpt>
      <trkpt lat="47.31531" lon="0.05623">
        <ele>83.77</ele>
        <time>2011-03-20T08:46:26Z</time>
      </trkpt>
      <trkpt lat="47.31532" lon="0.05624">
        <ele>82.81</ele>
        <time>2011-03-20T08:46:27Z</time>
      </trkpt>
      <trkpt lat="47.31534" lon="0.05624">
        <ele>83.77</ele>
        <time>2011-03-20T08:46:28Z</time>
      </trkpt>
      <trkpt lat="47.31535" lon="0.05625">
        <ele>84.25</ele>
        <time>2011-03-20T08:46:29Z</time>
      </trkpt>
      <trkpt lat="47.31544" lon="0.05625">
        <ele>85.21</ele>
        <time>2011-03-20T08:46:36Z</time>
      </trkpt>
      <trkpt lat="47.31548" lon="0.05626">
        <ele>85.69</ele>
        <time>2011-03-20T08:46:39Z</time>
      </trkpt>
      <trkpt lat="47.31555" lon="0.05629">
        <ele>86.18</ele>
        <time>2011-03-20T08:46:45Z</time>
      </trkpt>
      <trkpt lat="47.31563" lon="0.05632">
        <ele>86.66</ele>
        <time>2011-03-20T08:46:51Z</time>
      </trkpt>
      <trkpt lat="47.31579" lon="0.0564">
        <ele>87.62</ele>
        <time>2011-03-20T08:46:59Z</time>
      </trkpt>
      <trkpt lat="47.31583" lon="0.05642">
        <ele>88.58</ele>
        <time>2011-03-20T08:47:01Z</time>
      </trkpt>
      <trkpt lat="47.31585" lon="0.05642">
        <ele>88.58</ele>
        <time>2011-03-20T08:47:02Z</time>
      </trkpt>
      <trkpt lat="47.31587" lon="0.05643">
        <ele>88.58</ele>
        <time>2011-03-20T08:47:03Z</time>
      </trkpt>
      <trkpt lat="47.31589" lon="0.05643">
        <ele>88.58</ele>
        <time>2011-03-20T08:47:04Z</time>
      </trkpt>
      <trkpt lat="47.31591" lon="0.05644">
        <ele>89.06</ele>
        <time>2011-03-20T08:47:05Z</time>
      </trkpt>
      <trkpt lat="47.31592" lon="0.05645">
        <ele>89.06</ele>
        <time>2011-03-20T08:47:06Z</time>
      </trkpt>
      <trkpt lat="47.31594" lon="0.05647">
        <ele>89.06</ele>
        <time>2011-03-20T08:47:07Z</time>
      </trkpt>
      <trkpt lat="47.31605" lon="0.05651">
        <ele>89.54</ele>
        <time>2011-03-20T08:47:13Z</time>
      </trkpt>
      <trkpt lat="47.31615" lon="0.05657">
        <ele>90.5</ele>
        <time>2011-03-20T08:47:18Z</time>
      </trkpt>
      <trkpt lat="47.3162" lon="0.05659">
        <ele>90.5</ele>
        <time>2011-03-20T08:47:20Z</time>
      </trkpt>
      <trkpt lat="47.31622" lon="0.05659">
        <ele>90.98</ele>
        <time>2011-03-20T08:47:21Z</time>
      </trkpt>
      <trkpt lat="47.31625" lon="0.0566">
        <ele>90.5</ele>
        <time>2011-03-20T08:47:22Z</time>
      </trkpt>
      <trkpt lat="47.31626" lon="0.05661">
        <ele>90.5</ele>
        <time>2011-03-20T08:47:23Z</time>
      </trkpt>
      <trkpt lat="47.31628" lon="0.05662">
        <ele>90.5</ele>
        <time>2011-03-20T08:47:24Z</time>
      </trkpt>
      <trkpt lat="47.3163" lon="0.05664">
        <ele>90.5</ele>
        <time>2011-03-20T08:47:25Z</time>
      </trkpt>
      <trkpt lat="47.31643" lon="0.0567">
        <ele>91.46</ele>
        <time>2011-03-20T08:47:31Z</time>
      </trkpt>
      <trkpt lat="47.31654" lon="0.05672">
        <ele>91.46</ele>
        <time>2011-03-20T08:47:36Z</time>
      </trkpt>
      <trkpt lat="47.31656" lon="0.05672">
        <ele>91.94</ele>
        <time>2011-03-20T08:47:37Z</time>
      </trkpt>
      <trkpt lat="47.31659" lon="0.05672">
        <ele>91.94</ele>
        <time>2011-03-20T08:47:38Z</time>
      </trkpt>
      <trkpt lat="47.31661" lon="0.05672">
        <ele>91.94</ele>
        <time>2011-03-20T08:47:39Z</time>
      </trkpt>
      <trkpt lat="47.31663" lon="0.05673">
        <ele>91.46</ele>
        <time>2011-03-20T08:47:40Z</time>
      </trkpt>
      <trkpt lat="47.31665" lon="0.05674">
        <ele>92.42</ele>
        <time>2011-03-20T08:47:41Z</time>
      </trkpt>
      <trkpt lat="47.31671" lon="0.05679">
        <ele>91.94</ele>
        <time>2011-03-20T08:47:44Z</time>
      </trkpt>
      <trkpt lat="47.31672" lon="0.05682">
        <ele>91.46</ele>
        <time>2011-03-20T08:47:45Z</time>
      </trkpt>
      <trkpt lat="47.31673" lon="0.05684">
        <ele>91.94</ele>
        <time>2011-03-20T08:47:46Z</time>
      </trkpt>
      <trkpt lat="47.31673" lon="0.05688">
        <ele>91.46</ele>
        <time>2011-03-20T08:47:47Z</time>
      </trkpt>
      <trkpt lat="47.31673" lon="0.05691">
        <ele>90.5</ele>
        <time>2011-03-20T08:47:48Z</time>
      </trkpt>
      <trkpt lat="47.31675" lon="0.0571">
        <ele>91.94</ele>
        <time>2011-03-20T08:47:53Z</time>
      </trkpt>
      <trkpt lat="47.31682" lon="0.05724">
        <ele>91.46</ele>
        <time>2011-03-20T08:47:58Z</time>
      </trkpt>
      <trkpt lat="47.31684" lon="0.05725">
        <ele>90.98</ele>
        <time>2011-03-20T08:47:59Z</time>
      </trkpt>
      <trkpt lat="47.31685" lon="0.05728">
        <ele>91.46</ele>
        <time>2011-03-20T08:48:00Z</time>
      </trkpt>
      <trkpt lat="47.31687" lon="0.05732">
        <ele>91.94</ele>
        <time>2011-03-20T08:48:01Z</time>
      </trkpt>
      <trkpt lat="47.31689" lon="0.05735">
        <ele>90.98</ele>
        <time>2011-03-20T08:48:02Z</time>
      </trkpt>
      <trkpt lat="47.3169" lon="0.05738">
        <ele>91.46</ele>
        <time>2011-03-20T08:48:03Z</time>
      </trkpt>
      <trkpt lat="47.31692" lon="0.05742">
        <ele>91.46</ele>
        <time>2011-03-20T08:48:04Z</time>
      </trkpt>
      <trkpt lat="47.31694" lon="0.05746">
        <ele>91.46</ele>
        <time>2011-03-20T08:48:05Z</time>
      </trkpt>
      <trkpt lat="47.31696" lon="0.0575">
        <ele>91.94</ele>
        <time>2011-03-20T08:48:06Z</time>
      </trkpt>
      <trkpt lat="47.31698" lon="0.05754">
        <ele>91.46</ele>
        <time>2011-03-20T08:48:07Z</time>
      </trkpt>
      <trkpt lat="47.31701" lon="0.05758">
        <ele>91.46</ele>
        <time>2011-03-20T08:48:08Z</time>
      </trkpt>
      <trkpt lat="47.31702" lon="0.05762">
        <ele>91.46</ele>
        <time>2011-03-20T08:48:09Z</time>
      </trkpt>
      <trkpt lat="47.31704" lon="0.05766">
        <ele>91.46</ele>
        <time>2011-03-20T08:48:10Z</time>
      </trkpt>
      <trkpt lat="47.31706" lon="0.05771">
        <ele>91.94</ele>
        <time>2011-03-20T08:48:11Z</time>
      </trkpt>
      <trkpt lat="47.31708" lon="0.05775">
        <ele>91.94</ele>
        <time>2011-03-20T08:48:12Z</time>
      </trkpt>
      <trkpt lat="47.3171" lon="0.05779">
        <ele>91.94</ele>
        <time>2011-03-20T08:48:13Z</time>
      </trkpt>
      <trkpt lat="47.31712" lon="0.05783">
        <ele>91.94</ele>
        <time>2011-03-20T08:48:14Z</time>
      </trkpt>
      <trkpt lat="47.31724" lon="0.05807">
        <ele>92.42</ele>
        <time>2011-03-20T08:48:20Z</time>
      </trkpt>
      <trkpt lat="47.31736" lon="0.05837">
        <ele>92.9</ele>
        <time>2011-03-20T08:48:27Z</time>
      </trkpt>
      <trkpt lat="47.31747" lon="0.05869">
        <ele>92.42</ele>
        <time>2011-03-20T08:48:34Z</time>
      </trkpt>
      <trkpt lat="47.31757" lon="0.059">
        <ele>92.9</ele>
        <time>2011-03-20T08:48:41Z</time>
      </trkpt>
      <trkpt lat="47.31769" lon="0.05923">
        <ele>93.87</ele>
        <time>2011-03-20T08:48:47Z</time>
      </trkpt>
      <trkpt lat="47.31778" lon="0.05944">
        <ele>94.35</ele>
        <time>2011-03-20T08:48:52Z</time>
      </trkpt>
      <trkpt lat="47.31785" lon="0.0596">
        <ele>94.35</ele>
        <time>2011-03-20T08:48:57Z</time>
      </trkpt>
      <trkpt lat="47.31788" lon="0.05966">
        <ele>93.87</ele>
        <time>2011-03-20T08:48:59Z</time>
      </trkpt>
      <trkpt lat="47.31791" lon="0.05969">
        <ele>93.87</ele>
        <time>2011-03-20T08:49:01Z</time>
      </trkpt>
      <trkpt lat="47.31791" lon="0.05973">
        <ele>94.83</ele>
        <time>2011-03-20T08:49:02Z</time>
      </trkpt>
      <trkpt lat="47.31795" lon="0.05987">
        <ele>94.35</ele>
        <time>2011-03-20T08:49:06Z</time>
      </trkpt>
      <trkpt lat="47.31796" lon="0.05989">
        <ele>94.35</ele>
        <time>2011-03-20T08:49:07Z</time>
      </trkpt>
      <trkpt lat="47.31798" lon="0.05991">
        <ele>94.83</ele>
        <time>2011-03-20T08:49:08Z</time>
      </trkpt>
      <trkpt lat="47.318" lon="0.05993">
        <ele>94.35</ele>
        <time>2011-03-20T08:49:09Z</time>
      </trkpt>
      <trkpt lat="47.31802" lon="0.05996">
        <ele>94.35</ele>
        <time>2011-03-20T08:49:10Z</time>
      </trkpt>
      <trkpt lat="47.31804" lon="0.05999">
        <ele>94.83</ele>
        <time>2011-03-20T08:49:11Z</time>
      </trkpt>
      <trkpt lat="47.31822" lon="0.06015">
        <ele>93.39</ele>
        <time>2011-03-20T08:49:17Z</time>
      </trkpt>
      <trkpt lat="47.31848" lon="0.06036">
        <ele>95.31</ele>
        <time>2011-03-20T08:49:25Z</time>
      </trkpt>
      <trkpt lat="47.3187" lon="0.0605">
        <ele>93.87</ele>
        <time>2011-03-20T08:49:31Z</time>
      </trkpt>
      <trkpt lat="47.31896" lon="0.06066">
        <ele>94.35</ele>
        <time>2011-03-20T08:49:37Z</time>
      </trkpt>
      <trkpt lat="47.31917" lon="0.06078">
        <ele>94.83</ele>
        <time>2011-03-20T08:49:42Z</time>
      </trkpt>
      <trkpt lat="47.31946" lon="0.06094">
        <ele>95.31</ele>
        <time>2011-03-20T08:49:49Z</time>
      </trkpt>
      <trkpt lat="47.31979" lon="0.0611">
        <ele>96.27</ele>
        <time>2011-03-20T08:49:57Z</time>
      </trkpt>
      <trkpt lat="47.32013" lon="0.06128">
        <ele>97.23</ele>
        <time>2011-03-20T08:50:05Z</time>
      </trkpt>
      <trkpt lat="47.32042" lon="0.06141">
        <ele>97.71</ele>
        <time>2011-03-20T08:50:12Z</time>
      </trkpt>
      <trkpt lat="47.32063" lon="0.06151">
        <ele>98.19</ele>
        <time>2011-03-20T08:50:17Z</time>
      </trkpt>
      <trkpt lat="47.32067" lon="0.06153">
        <ele>98.19</ele>
        <time>2011-03-20T08:50:18Z</time>
      </trkpt>
      <trkpt lat="47.32075" lon="0.06157">
        <ele>98.67</ele>
        <time>2011-03-20T08:50:20Z</time>
      </trkpt>
      <trkpt lat="47.32114" lon="0.06179">
        <ele>99.63</ele>
        <time>2011-03-20T08:50:29Z</time>
      </trkpt>
      <trkpt lat="47.32154" lon="0.06199">
        <ele>99.15</ele>
        <time>2011-03-20T08:50:38Z</time>
      </trkpt>
      <trkpt lat="47.32194" lon="0.06215">
        <ele>97.71</ele>
        <time>2011-03-20T08:50:46Z</time>
      </trkpt>
      <trkpt lat="47.32244" lon="0.0623">
        <ele>96.75</ele>
        <time>2011-03-20T08:50:55Z</time>
      </trkpt>
      <trkpt lat="47.32275" lon="0.06239">
        <ele>95.79</ele>
        <time>2011-03-20T08:51:01Z</time>
      </trkpt>
      <trkpt lat="47.32306" lon="0.06245">
        <ele>95.31</ele>
        <time>2011-03-20T08:51:07Z</time>
      </trkpt>
      <trkpt lat="47.3233" lon="0.06249">
        <ele>96.27</ele>
        <time>2011-03-20T08:51:12Z</time>
      </trkpt>
      <trkpt lat="47.3235" lon="0.06251">
        <ele>94.83</ele>
        <time>2011-03-20T08:51:16Z</time>
      </trkpt>
      <trkpt lat="47.32355" lon="0.06252">
        <ele>94.83</ele>
        <time>2011-03-20T08:51:17Z</time>
      </trkpt>
      <trkpt lat="47.32359" lon="0.06253">
        <ele>94.83</ele>
        <time>2011-03-20T08:51:18Z</time>
      </trkpt>
      <trkpt lat="47.32362" lon="0.06255">
        <ele>95.31</ele>
        <time>2011-03-20T08:51:19Z</time>
      </trkpt>
      <trkpt lat="47.32364" lon="0.0626">
        <ele>94.83</ele>
        <time>2011-03-20T08:51:20Z</time>
      </trkpt>
      <trkpt lat="47.32364" lon="0.06265">
        <ele>95.31</ele>
        <time>2011-03-20T08:51:21Z</time>
      </trkpt>
      <trkpt lat="47.32362" lon="0.0627">
        <ele>94.35</ele>
        <time>2011-03-20T08:51:22Z</time>
      </trkpt>
      <trkpt lat="47.32359" lon="0.06274">
        <ele>94.35</ele>
        <time>2011-03-20T08:51:23Z</time>
      </trkpt>
      <trkpt lat="47.32356" lon="0.06278">
        <ele>94.35</ele>
        <time>2011-03-20T08:51:24Z</time>
      </trkpt>
      <trkpt lat="47.3235" lon="0.06288">
        <ele>94.83</ele>
        <time>2011-03-20T08:51:26Z</time>
      </trkpt>
      <trkpt lat="47.32347" lon="0.06292">
        <ele>94.35</ele>
        <time>2011-03-20T08:51:27Z</time>
      </trkpt>
      <trkpt lat="47.32343" lon="0.06297">
        <ele>94.83</ele>
        <time>2011-03-20T08:51:28Z</time>
      </trkpt>
      <trkpt lat="47.32318" lon="0.06331">
        <ele>93.87</ele>
        <time>2011-03-20T08:51:34Z</time>
      </trkpt>
      <trkpt lat="47.32286" lon="0.06371">
        <ele>92.42</ele>
        <time>2011-03-20T08:51:41Z</time>
      </trkpt>
      <trkpt lat="47.32278" lon="0.06382">
        <ele>92.42</ele>
        <time>2011-03-20T08:51:43Z</time>
      </trkpt>
      <trkpt lat="47.32274" lon="0.06388">
        <ele>91.94</ele>
        <time>2011-03-20T08:51:44Z</time>
      </trkpt>
      <trkpt lat="47.3227" lon="0.06393">
        <ele>92.42</ele>
        <time>2011-03-20T08:51:45Z</time>
      </trkpt>
      <trkpt lat="47.32258" lon="0.0641">
        <ele>92.9</ele>
        <time>2011-03-20T08:51:48Z</time>
      </trkpt>
      <trkpt lat="47.32241" lon="0.06439">
        <ele>92.9</ele>
        <time>2011-03-20T08:51:53Z</time>
      </trkpt>
      <trkpt lat="47.32234" lon="0.06453">
        <ele>92.9</ele>
        <time>2011-03-20T08:51:55Z</time>
      </trkpt>
      <trkpt lat="47.32231" lon="0.0646">
        <ele>92.42</ele>
        <time>2011-03-20T08:51:56Z</time>
      </trkpt>
      <trkpt lat="47.32228" lon="0.06467">
        <ele>92.9</ele>
        <time>2011-03-20T08:51:57Z</time>
      </trkpt>
      <trkpt lat="47.32225" lon="0.06474">
        <ele>93.87</ele>
        <time>2011-03-20T08:51:58Z</time>
      </trkpt>
      <trkpt lat="47.32221" lon="0.0648">
        <ele>93.87</ele>
        <time>2011-03-20T08:51:59Z</time>
      </trkpt>
      <trkpt lat="47.32218" lon="0.06487">
        <ele>93.39</ele>
        <time>2011-03-20T08:52:00Z</time>
      </trkpt>
      <trkpt lat="47.32209" lon="0.06506">
        <ele>92.9</ele>
        <time>2011-03-20T08:52:03Z</time>
      </trkpt>
      <trkpt lat="47.32205" lon="0.0652">
        <ele>92.42</ele>
        <time>2011-03-20T08:52:05Z</time>
      </trkpt>
      <trkpt lat="47.32202" lon="0.06527">
        <ele>93.39</ele>
        <time>2011-03-20T08:52:06Z</time>
      </trkpt>
      <trkpt lat="47.322" lon="0.06533">
        <ele>92.9</ele>
        <time>2011-03-20T08:52:07Z</time>
      </trkpt>
      <trkpt lat="47.32199" lon="0.06539">
        <ele>93.39</ele>
        <time>2011-03-20T08:52:08Z</time>
      </trkpt>
      <trkpt lat="47.32197" lon="0.06545">
        <ele>93.39</ele>
        <time>2011-03-20T08:52:09Z</time>
      </trkpt>
      <trkpt lat="47.32195" lon="0.06551">
        <ele>93.39</ele>
        <time>2011-03-20T08:52:10Z</time>
      </trkpt>
      <trkpt lat="47.3219" lon="0.06562">
        <ele>93.87</ele>
        <time>2011-03-20T08:52:12Z</time>
      </trkpt>
      <trkpt lat="47.32187" lon="0.06568">
        <ele>93.87</ele>
        <time>2011-03-20T08:52:13Z</time>
      </trkpt>
      <trkpt lat="47.32184" lon="0.06575">
        <ele>94.35</ele>
        <time>2011-03-20T08:52:14Z</time>
      </trkpt>
      <trkpt lat="47.32174" lon="0.06607">
        <ele>95.31</ele>
        <time>2011-03-20T08:52:19Z</time>
      </trkpt>
      <trkpt lat="47.32168" lon="0.06624">
        <ele>95.79</ele>
        <time>2011-03-20T08:52:22Z</time>
      </trkpt>
      <trkpt lat="47.32164" lon="0.06643">
        <ele>95.79</ele>
        <time>2011-03-20T08:52:25Z</time>
      </trkpt>
      <trkpt lat="47.32159" lon="0.0666">
        <ele>96.27</ele>
        <time>2011-03-20T08:52:27Z</time>
      </trkpt>
      <trkpt lat="47.32149" lon="0.06694">
        <ele>96.75</ele>
        <time>2011-03-20T08:52:31Z</time>
      </trkpt>
      <trkpt lat="47.32147" lon="0.06702">
        <ele>96.27</ele>
        <time>2011-03-20T08:52:32Z</time>
      </trkpt>
      <trkpt lat="47.32141" lon="0.06725">
        <ele>96.75</ele>
        <time>2011-03-20T08:52:35Z</time>
      </trkpt>
      <trkpt lat="47.32132" lon="0.06779">
        <ele>96.27</ele>
        <time>2011-03-20T08:52:42Z</time>
      </trkpt>
      <trkpt lat="47.32126" lon="0.06832">
        <ele>94.83</ele>
        <time>2011-03-20T08:52:49Z</time>
      </trkpt>
      <trkpt lat="47.32125" lon="0.06858">
        <ele>93.87</ele>
        <time>2011-03-20T08:52:52Z</time>
      </trkpt>
      <trkpt lat="47.32129" lon="0.06937">
        <ele>92.42</ele>
        <time>2011-03-20T08:52:59Z</time>
      </trkpt>
      <trkpt lat="47.32132" lon="0.06969">
        <ele>90.5</ele>
        <time>2011-03-20T08:53:02Z</time>
      </trkpt>
      <trkpt lat="47.32131" lon="0.0698">
        <ele>89.54</ele>
        <time>2011-03-20T08:53:03Z</time>
      </trkpt>
      <trkpt lat="47.32129" lon="0.0699">
        <ele>89.06</ele>
        <time>2011-03-20T08:53:04Z</time>
      </trkpt>
      <trkpt lat="47.32122" lon="0.07024">
        <ele>87.14</ele>
        <time>2011-03-20T08:53:07Z</time>
      </trkpt>
      <trkpt lat="47.32118" lon="0.07049">
        <ele>85.21</ele>
        <time>2011-03-20T08:53:09Z</time>
      </trkpt>
      <trkpt lat="47.32114" lon="0.07062">
        <ele>84.73</ele>
        <time>2011-03-20T08:53:10Z</time>
      </trkpt>
      <trkpt lat="47.32102" lon="0.07103">
        <ele>81.37</ele>
        <time>2011-03-20T08:53:13Z</time>
      </trkpt>
      <trkpt lat="47.32095" lon="0.07132">
        <ele>79.93</ele>
        <time>2011-03-20T08:53:15Z</time>
      </trkpt>
      <trkpt lat="47.32085" lon="0.07177">
        <ele>76.08</ele>
        <time>2011-03-20T08:53:18Z</time>
      </trkpt>
      <trkpt lat="47.3207" lon="0.07258">
        <ele>72.72</ele>
        <time>2011-03-20T08:53:24Z</time>
      </trkpt>
      <trkpt lat="47.32067" lon="0.0727">
        <ele>72.24</ele>
        <time>2011-03-20T08:53:25Z</time>
      </trkpt>
      <trkpt lat="47.32057" lon="0.07302">
        <ele>69.83</ele>
        <time>2011-03-20T08:53:28Z</time>
      </trkpt>
      <trkpt lat="47.32054" lon="0.07312">
        <ele>69.35</ele>
        <time>2011-03-20T08:53:29Z</time>
      </trkpt>
      <trkpt lat="47.32045" lon="0.07339">
        <ele>69.35</ele>
        <time>2011-03-20T08:53:32Z</time>
      </trkpt>
      <trkpt lat="47.32038" lon="0.07395">
        <ele>69.83</ele>
        <time>2011-03-20T08:53:39Z</time>
      </trkpt>
      <trkpt lat="47.32032" lon="0.0742">
        <ele>67.91</ele>
        <time>2011-03-20T08:53:42Z</time>
      </trkpt>
      <trkpt lat="47.32028" lon="0.07428">
        <ele>68.87</ele>
        <time>2011-03-20T08:53:43Z</time>
      </trkpt>
      <trkpt lat="47.32017" lon="0.07462">
        <ele>66.95</ele>
        <time>2011-03-20T08:53:47Z</time>
      </trkpt>
      <trkpt lat="47.31999" lon="0.07509">
        <ele>64.07</ele>
        <time>2011-03-20T08:53:52Z</time>
      </trkpt>
      <trkpt lat="47.3198" lon="0.07558">
        <ele>61.18</ele>
        <time>2011-03-20T08:53:57Z</time>
      </trkpt>
      <trkpt lat="47.3197" lon="0.07575">
        <ele>61.18</ele>
        <time>2011-03-20T08:53:59Z</time>
      </trkpt>
      <trkpt lat="47.31962" lon="0.0759">
        <ele>59.74</ele>
        <time>2011-03-20T08:54:01Z</time>
      </trkpt>
      <trkpt lat="47.31959" lon="0.07598">
        <ele>58.3</ele>
        <time>2011-03-20T08:54:03Z</time>
      </trkpt>
      <trkpt lat="47.31959" lon="0.07601">
        <ele>58.3</ele>
        <time>2011-03-20T08:54:04Z</time>
      </trkpt>
      <trkpt lat="47.31959" lon="0.07602">
        <ele>58.3</ele>
        <time>2011-03-20T08:54:05Z</time>
      </trkpt>
      <trkpt lat="47.31965" lon="0.07607">
        <ele>57.82</ele>
        <time>2011-03-20T08:54:08Z</time>
      </trkpt>
      <trkpt lat="47.3198" lon="0.07615">
        <ele>58.3</ele>
        <time>2011-03-20T08:54:15Z</time>
      </trkpt>
      <trkpt lat="47.31988" lon="0.0762">
        <ele>59.26</ele>
        <time>2011-03-20T08:54:18Z</time>
      </trkpt>
      <trkpt lat="47.32002" lon="0.07631">
        <ele>59.74</ele>
        <time>2011-03-20T08:54:24Z</time>
      </trkpt>
      <trkpt lat="47.3201" lon="0.07648">
        <ele>58.78</ele>
        <time>2011-03-20T08:54:29Z</time>
      </trkpt>
      <trkpt lat="47.32011" lon="0.07672">
        <ele>57.82</ele>
        <time>2011-03-20T08:54:34Z</time>
      </trkpt>
      <trkpt lat="47.32013" lon="0.07698">
        <ele>57.82</ele>
        <time>2011-03-20T08:54:40Z</time>
      </trkpt>
      <trkpt lat="47.32015" lon="0.07729">
        <ele>56.37</ele>
        <time>2011-03-20T08:54:46Z</time>
      </trkpt>
      <trkpt lat="47.32017" lon="0.07748">
        <ele>55.41</ele>
        <time>2011-03-20T08:54:50Z</time>
      </trkpt>
      <trkpt lat="47.32019" lon="0.07752">
        <ele>55.41</ele>
        <time>2011-03-20T08:54:52Z</time>
      </trkpt>
      <trkpt lat="47.32022" lon="0.07761">
        <ele>54.45</ele>
        <time>2011-03-20T08:54:59Z</time>
      </trkpt>
      <trkpt lat="47.32026" lon="0.07774">
        <ele>54.45</ele>
        <time>2011-03-20T08:55:06Z</time>
      </trkpt>
      <trkpt lat="47.32026" lon="0.0778">
        <ele>54.45</ele>
        <time>2011-03-20T08:55:13Z</time>
      </trkpt>
      <trkpt lat="47.32026" lon="0.07782">
        <ele>54.93</ele>
        <time>2011-03-20T08:55:15Z</time>
      </trkpt>
      <trkpt lat="47.32023" lon="0.07791">
        <ele>53.97</ele>
        <time>2011-03-20T08:55:19Z</time>
      </trkpt>
      <trkpt lat="47.32017" lon="0.07814">
        <ele>53.01</ele>
        <time>2011-03-20T08:55:25Z</time>
      </trkpt>
      <trkpt lat="47.32016" lon="0.07821">
        <ele>53.49</ele>
        <time>2011-03-20T08:55:26Z</time>
      </trkpt>
      <trkpt lat="47.32015" lon="0.07828">
        <ele>53.01</ele>
        <time>2011-03-20T08:55:27Z</time>
      </trkpt>
      <trkpt lat="47.32014" lon="0.07834">
        <ele>53.01</ele>
        <time>2011-03-20T08:55:28Z</time>
      </trkpt>
      <trkpt lat="47.32012" lon="0.07841">
        <ele>52.53</ele>
        <time>2011-03-20T08:55:29Z</time>
      </trkpt>
      <trkpt lat="47.32011" lon="0.07848">
        <ele>52.53</ele>
        <time>2011-03-20T08:55:30Z</time>
      </trkpt>
      <trkpt lat="47.32009" lon="0.07854">
        <ele>53.01</ele>
        <time>2011-03-20T08:55:31Z</time>
      </trkpt>
      <trkpt lat="47.32008" lon="0.07859">
        <ele>52.05</ele>
        <time>2011-03-20T08:55:32Z</time>
      </trkpt>
      <trkpt lat="47.32007" lon="0.07864">
        <ele>52.05</ele>
        <time>2011-03-20T08:55:33Z</time>
      </trkpt>
      <trkpt lat="47.32005" lon="0.0787">
        <ele>52.53</ele>
        <time>2011-03-20T08:55:34Z</time>
      </trkpt>
      <trkpt lat="47.32004" lon="0.07877">
        <ele>52.05</ele>
        <time>2011-03-20T08:55:35Z</time>
      </trkpt>
      <trkpt lat="47.31998" lon="0.07904">
        <ele>51.57</ele>
        <time>2011-03-20T08:55:39Z</time>
      </trkpt>
      <trkpt lat="47.31997" lon="0.07911">
        <ele>51.57</ele>
        <time>2011-03-20T08:55:40Z</time>
      </trkpt>
      <trkpt lat="47.31996" lon="0.07917">
        <ele>51.09</ele>
        <time>2011-03-20T08:55:41Z</time>
      </trkpt>
      <trkpt lat="47.31988" lon="0.07944">
        <ele>51.09</ele>
        <time>2011-03-20T08:55:46Z</time>
      </trkpt>
      <trkpt lat="47.31984" lon="0.07961">
        <ele>49.65</ele>
        <time>2011-03-20T08:55:49Z</time>
      </trkpt>
      <trkpt lat="47.31982" lon="0.07967">
        <ele>50.13</ele>
        <time>2011-03-20T08:55:50Z</time>
      </trkpt>
      <trkpt lat="47.3198" lon="0.07973">
        <ele>49.65</ele>
        <time>2011-03-20T08:55:51Z</time>
      </trkpt>
      <trkpt lat="47.31978" lon="0.07978">
        <ele>50.13</ele>
        <time>2011-03-20T08:55:52Z</time>
      </trkpt>
      <trkpt lat="47.31976" lon="0.07984">
        <ele>49.65</ele>
        <time>2011-03-20T08:55:53Z</time>
      </trkpt>
      <trkpt lat="47.31975" lon="0.07989">
        <ele>49.16</ele>
        <time>2011-03-20T08:55:54Z</time>
      </trkpt>
      <trkpt lat="47.31973" lon="0.07995">
        <ele>49.16</ele>
        <time>2011-03-20T08:55:55Z</time>
      </trkpt>
      <trkpt lat="47.3197" lon="0.08008">
        <ele>49.65</ele>
        <time>2011-03-20T08:55:57Z</time>
      </trkpt>
      <trkpt lat="47.31969" lon="0.08015">
        <ele>49.16</ele>
        <time>2011-03-20T08:55:58Z</time>
      </trkpt>
      <trkpt lat="47.31961" lon="0.08065">
        <ele>47.72</ele>
        <time>2011-03-20T08:56:05Z</time>
      </trkpt>
      <trkpt lat="47.31958" lon="0.08078">
        <ele>47.72</ele>
        <time>2011-03-20T08:56:07Z</time>
      </trkpt>
      <trkpt lat="47.31957" lon="0.08084">
        <ele>47.72</ele>
        <time>2011-03-20T08:56:08Z</time>
      </trkpt>
      <trkpt lat="47.31952" lon="0.08116">
        <ele>47.24</ele>
        <time>2011-03-20T08:56:14Z</time>
      </trkpt>
      <trkpt lat="47.31949" lon="0.0812">
        <ele>47.24</ele>
        <time>2011-03-20T08:56:15Z</time>
      </trkpt>
      <trkpt lat="47.31945" lon="0.08125">
        <ele>46.76</ele>
        <time>2011-03-20T08:56:17Z</time>
      </trkpt>
      <trkpt lat="47.31925" lon="0.08143">
        <ele>47.24</ele>
        <time>2011-03-20T08:56:24Z</time>
      </trkpt>
      <trkpt lat="47.3192" lon="0.08149">
        <ele>47.24</ele>
        <time>2011-03-20T08:56:26Z</time>
      </trkpt>
      <trkpt lat="47.31918" lon="0.08152">
        <ele>47.72</ele>
        <time>2011-03-20T08:56:27Z</time>
      </trkpt>
      <trkpt lat="47.31916" lon="0.08157">
        <ele>48.2</ele>
        <time>2011-03-20T08:56:28Z</time>
      </trkpt>
      <trkpt lat="47.31913" lon="0.08161">
        <ele>48.2</ele>
        <time>2011-03-20T08:56:29Z</time>
      </trkpt>
      <trkpt lat="47.31911" lon="0.08165">
        <ele>48.2</ele>
        <time>2011-03-20T08:56:30Z</time>
      </trkpt>
      <trkpt lat="47.31908" lon="0.0817">
        <ele>48.2</ele>
        <time>2011-03-20T08:56:31Z</time>
      </trkpt>
      <trkpt lat="47.31905" lon="0.08174">
        <ele>48.2</ele>
        <time>2011-03-20T08:56:32Z</time>
      </trkpt>
      <trkpt lat="47.31902" lon="0.08179">
        <ele>48.2</ele>
        <time>2011-03-20T08:56:33Z</time>
      </trkpt>
      <trkpt lat="47.319" lon="0.08185">
        <ele>48.68</ele>
        <time>2011-03-20T08:56:34Z</time>
      </trkpt>
      <trkpt lat="47.31898" lon="0.0819">
        <ele>48.2</ele>
        <time>2011-03-20T08:56:35Z</time>
      </trkpt>
      <trkpt lat="47.31896" lon="0.08195">
        <ele>48.68</ele>
        <time>2011-03-20T08:56:36Z</time>
      </trkpt>
      <trkpt lat="47.31894" lon="0.082">
        <ele>49.16</ele>
        <time>2011-03-20T08:56:37Z</time>
      </trkpt>
      <trkpt lat="47.31885" lon="0.08223">
        <ele>49.65</ele>
        <time>2011-03-20T08:56:42Z</time>
      </trkpt>
      <trkpt lat="47.31876" lon="0.08248">
        <ele>51.09</ele>
        <time>2011-03-20T08:56:48Z</time>
      </trkpt>
      <trkpt lat="47.31871" lon="0.08259">
        <ele>51.57</ele>
        <time>2011-03-20T08:56:51Z</time>
      </trkpt>
      <trkpt lat="47.31869" lon="0.08263">
        <ele>51.09</ele>
        <time>2011-03-20T08:56:52Z</time>
      </trkpt>
      <trkpt lat="47.31867" lon="0.08268">
        <ele>51.57</ele>
        <time>2011-03-20T08:56:53Z</time>
      </trkpt>
      <trkpt lat="47.31865" lon="0.08272">
        <ele>52.05</ele>
        <time>2011-03-20T08:56:54Z</time>
      </trkpt>
      <trkpt lat="47.31864" lon="0.08276">
        <ele>51.57</ele>
        <time>2011-03-20T08:56:55Z</time>
      </trkpt>
      <trkpt lat="47.31862" lon="0.0828">
        <ele>52.05</ele>
        <time>2011-03-20T08:56:56Z</time>
      </trkpt>
      <trkpt lat="47.31861" lon="0.08285">
        <ele>52.05</ele>
        <time>2011-03-20T08:56:57Z</time>
      </trkpt>
      <trkpt lat="47.31859" lon="0.0829">
        <ele>51.57</ele>
        <time>2011-03-20T08:56:58Z</time>
      </trkpt>
      <trkpt lat="47.31847" lon="0.08313">
        <ele>53.49</ele>
        <time>2011-03-20T08:57:03Z</time>
      </trkpt>
      <trkpt lat="47.31834" lon="0.08333">
        <ele>54.45</ele>
        <time>2011-03-20T08:57:08Z</time>
      </trkpt>
      <trkpt lat="47.31819" lon="0.08351">
        <ele>55.89</ele>
        <time>2011-03-20T08:57:13Z</time>
      </trkpt>
      <trkpt lat="47.31814" lon="0.08355">
        <ele>55.41</ele>
        <time>2011-03-20T08:57:14Z</time>
      </trkpt>
      <trkpt lat="47.31811" lon="0.08358">
        <ele>55.41</ele>
        <time>2011-03-20T08:57:15Z</time>
      </trkpt>
      <trkpt lat="47.31807" lon="0.0836">
        <ele>55.89</ele>
        <time>2011-03-20T08:57:16Z</time>
      </trkpt>
      <trkpt lat="47.31804" lon="0.08361">
        <ele>56.37</ele>
        <time>2011-03-20T08:57:17Z</time>
      </trkpt>
      <trkpt lat="47.318" lon="0.08363">
        <ele>55.89</ele>
        <time>2011-03-20T08:57:18Z</time>
      </trkpt>
      <trkpt lat="47.31773" lon="0.08373">
        <ele>58.3</ele>
        <time>2011-03-20T08:57:25Z</time>
      </trkpt>
      <trkpt lat="47.31757" lon="0.08379">
        <ele>58.78</ele>
        <time>2011-03-20T08:57:30Z</time>
      </trkpt>
      <trkpt lat="47.31738" lon="0.08391">
        <ele>60.22</ele>
        <time>2011-03-20T08:57:36Z</time>
      </trkpt>
      <trkpt lat="47.31717" lon="0.08405">
        <ele>59.74</ele>
        <time>2011-03-20T08:57:43Z</time>
      </trkpt>
      <trkpt lat="47.31693" lon="0.08416">
        <ele>61.66</ele>
        <time>2011-03-20T08:57:50Z</time>
      </trkpt>
      <trkpt lat="47.31673" lon="0.08424">
        <ele>62.14</ele>
        <time>2011-03-20T08:57:57Z</time>
      </trkpt>
      <trkpt lat="47.31647" lon="0.08429">
        <ele>63.1</ele>
        <time>2011-03-20T08:58:03Z</time>
      </trkpt>
      <trkpt lat="47.3162" lon="0.08436">
        <ele>63.58</ele>
        <time>2011-03-20T08:58:09Z</time>
      </trkpt>
      <trkpt lat="47.31589" lon="0.08439">
        <ele>64.07</ele>
        <time>2011-03-20T08:58:16Z</time>
      </trkpt>
      <trkpt lat="47.31565" lon="0.08441">
        <ele>64.55</ele>
        <time>2011-03-20T08:58:22Z</time>
      </trkpt>
      <trkpt lat="47.31543" lon="0.08448">
        <ele>65.99</ele>
        <time>2011-03-20T08:58:28Z</time>
      </trkpt>
      <trkpt lat="47.31515" lon="0.08457">
        <ele>66.47</ele>
        <time>2011-03-20T08:58:35Z</time>
      </trkpt>
      <trkpt lat="47.315" lon="0.08464">
        <ele>66.95</ele>
        <time>2011-03-20T08:58:39Z</time>
      </trkpt>
      <trkpt lat="47.31471" lon="0.0847">
        <ele>67.91</ele>
        <time>2011-03-20T08:58:45Z</time>
      </trkpt>
      <trkpt lat="47.31458" lon="0.08476">
        <ele>68.87</ele>
        <time>2011-03-20T08:58:48Z</time>
      </trkpt>
      <trkpt lat="47.31453" lon="0.08477">
        <ele>68.39</ele>
        <time>2011-03-20T08:58:49Z</time>
      </trkpt>
      <trkpt lat="47.31449" lon="0.0848">
        <ele>68.87</ele>
        <time>2011-03-20T08:58:50Z</time>
      </trkpt>
      <trkpt lat="47.31446" lon="0.08481">
        <ele>69.35</ele>
        <time>2011-03-20T08:58:51Z</time>
      </trkpt>
      <trkpt lat="47.31442" lon="0.08483">
        <ele>69.35</ele>
        <time>2011-03-20T08:58:52Z</time>
      </trkpt>
      <trkpt lat="47.31438" lon="0.08485">
        <ele>69.35</ele>
        <time>2011-03-20T08:58:53Z</time>
      </trkpt>
      <trkpt lat="47.31434" lon="0.08488">
        <ele>68.87</ele>
        <time>2011-03-20T08:58:54Z</time>
      </trkpt>
      <trkpt lat="47.31418" lon="0.08498">
        <ele>68.87</ele>
        <time>2011-03-20T08:58:58Z</time>
      </trkpt>
      <trkpt lat="47.31397" lon="0.08513">
        <ele>68.87</ele>
        <time>2011-03-20T08:59:03Z</time>
      </trkpt>
      <trkpt lat="47.31387" lon="0.0852">
        <ele>68.87</ele>
        <time>2011-03-20T08:59:05Z</time>
      </trkpt>
      <trkpt lat="47.31358" lon="0.08542">
        <ele>67.91</ele>
        <time>2011-03-20T08:59:11Z</time>
      </trkpt>
      <trkpt lat="47.31354" lon="0.08545">
        <ele>67.91</ele>
        <time>2011-03-20T08:59:12Z</time>
      </trkpt>
      <trkpt lat="47.31339" lon="0.08558">
        <ele>66.47</ele>
        <time>2011-03-20T08:59:15Z</time>
      </trkpt>
      <trkpt lat="47.31334" lon="0.08562">
        <ele>66.95</ele>
        <time>2011-03-20T08:59:16Z</time>
      </trkpt>
      <trkpt lat="47.31329" lon="0.08567">
        <ele>67.43</ele>
        <time>2011-03-20T08:59:17Z</time>
      </trkpt>
      <trkpt lat="47.31311" lon="0.08583">
        <ele>68.39</ele>
        <time>2011-03-20T08:59:21Z</time>
      </trkpt>
      <trkpt lat="47.31306" lon="0.08587">
        <ele>67.91</ele>
        <time>2011-03-20T08:59:22Z</time>
      </trkpt>
      <trkpt lat="47.31297" lon="0.08595">
        <ele>68.39</ele>
        <time>2011-03-20T08:59:24Z</time>
      </trkpt>
      <trkpt lat="47.31281" lon="0.08614">
        <ele>69.35</ele>
        <time>2011-03-20T08:59:28Z</time>
      </trkpt>
      <trkpt lat="47.31277" lon="0.08619">
        <ele>67.91</ele>
        <time>2011-03-20T08:59:29Z</time>
      </trkpt>
      <trkpt lat="47.31251" lon="0.08653">
        <ele>69.35</ele>
        <time>2011-03-20T08:59:36Z</time>
      </trkpt>
      <trkpt lat="47.31235" lon="0.08672">
        <ele>69.35</ele>
        <time>2011-03-20T08:59:40Z</time>
      </trkpt>
      <trkpt lat="47.31231" lon="0.08678">
        <ele>68.87</ele>
        <time>2011-03-20T08:59:41Z</time>
      </trkpt>
      <trkpt lat="47.31227" lon="0.08682">
        <ele>68.87</ele>
        <time>2011-03-20T08:59:42Z</time>
      </trkpt>
      <trkpt lat="47.31213" lon="0.08697">
        <ele>68.39</ele>
        <time>2011-03-20T08:59:45Z</time>
      </trkpt>
      <trkpt lat="47.31199" lon="0.08709">
        <ele>67.91</ele>
        <time>2011-03-20T08:59:48Z</time>
      </trkpt>
      <trkpt lat="47.31181" lon="0.0873">
        <ele>66.95</ele>
        <time>2011-03-20T08:59:52Z</time>
      </trkpt>
      <trkpt lat="47.31176" lon="0.08736">
        <ele>66.47</ele>
        <time>2011-03-20T08:59:53Z</time>
      </trkpt>
      <trkpt lat="47.31171" lon="0.08742">
        <ele>66.47</ele>
        <time>2011-03-20T08:59:54Z</time>
      </trkpt>
      <trkpt lat="47.31167" lon="0.08748">
        <ele>65.99</ele>
        <time>2011-03-20T08:59:55Z</time>
      </trkpt>
      <trkpt lat="47.31163" lon="0.08753">
        <ele>65.99</ele>
        <time>2011-03-20T08:59:56Z</time>
      </trkpt>
      <trkpt lat="47.3116" lon="0.08759">
        <ele>65.99</ele>
        <time>2011-03-20T08:59:57Z</time>
      </trkpt>
      <trkpt lat="47.31156" lon="0.08766">
        <ele>65.03</ele>
        <time>2011-03-20T08:59:58Z</time>
      </trkpt>
      <trkpt lat="47.31141" lon="0.0879">
        <ele>63.58</ele>
        <time>2011-03-20T09:00:02Z</time>
      </trkpt>
      <trkpt lat="47.31137" lon="0.08795">
        <ele>63.1</ele>
        <time>2011-03-20T09:00:03Z</time>
      </trkpt>
      <trkpt lat="47.31128" lon="0.08806">
        <ele>63.1</ele>
        <time>2011-03-20T09:00:05Z</time>
      </trkpt>
      <trkpt lat="47.31112" lon="0.08831">
        <ele>62.14</ele>
        <time>2011-03-20T09:00:09Z</time>
      </trkpt>
      <trkpt lat="47.31109" lon="0.08837">
        <ele>62.62</ele>
        <time>2011-03-20T09:00:10Z</time>
      </trkpt>
      <trkpt lat="47.31084" lon="0.08875">
        <ele>60.7</ele>
        <time>2011-03-20T09:00:17Z</time>
      </trkpt>
      <trkpt lat="47.31078" lon="0.08885">
        <ele>60.7</ele>
        <time>2011-03-20T09:00:19Z</time>
      </trkpt>
      <trkpt lat="47.31075" lon="0.08891">
        <ele>60.7</ele>
        <time>2011-03-20T09:00:20Z</time>
      </trkpt>
      <trkpt lat="47.31073" lon="0.08899">
        <ele>60.7</ele>
        <time>2011-03-20T09:00:21Z</time>
      </trkpt>
      <trkpt lat="47.3107" lon="0.08908">
        <ele>60.7</ele>
        <time>2011-03-20T09:00:22Z</time>
      </trkpt>
      <trkpt lat="47.31067" lon="0.08917">
        <ele>59.74</ele>
        <time>2011-03-20T09:00:23Z</time>
      </trkpt>
      <trkpt lat="47.31064" lon="0.08927">
        <ele>59.74</ele>
        <time>2011-03-20T09:00:24Z</time>
      </trkpt>
      <trkpt lat="47.31061" lon="0.08935">
        <ele>59.74</ele>
        <time>2011-03-20T09:00:25Z</time>
      </trkpt>
      <trkpt lat="47.31058" lon="0.08942">
        <ele>59.26</ele>
        <time>2011-03-20T09:00:26Z</time>
      </trkpt>
      <trkpt lat="47.31055" lon="0.08949">
        <ele>58.78</ele>
        <time>2011-03-20T09:00:27Z</time>
      </trkpt>
      <trkpt lat="47.3105" lon="0.08954">
        <ele>58.78</ele>
        <time>2011-03-20T09:00:28Z</time>
      </trkpt>
      <trkpt lat="47.31046" lon="0.0896">
        <ele>58.3</ele>
        <time>2011-03-20T09:00:29Z</time>
      </trkpt>
      <trkpt lat="47.3104" lon="0.08965">
        <ele>58.3</ele>
        <time>2011-03-20T09:00:30Z</time>
      </trkpt>
      <trkpt lat="47.31035" lon="0.08969">
        <ele>57.34</ele>
        <time>2011-03-20T09:00:31Z</time>
      </trkpt>
      <trkpt lat="47.31029" lon="0.08973">
        <ele>57.82</ele>
        <time>2011-03-20T09:00:32Z</time>
      </trkpt>
      <trkpt lat="47.31024" lon="0.08977">
        <ele>57.34</ele>
        <time>2011-03-20T09:00:33Z</time>
      </trkpt>
      <trkpt lat="47.31018" lon="0.08981">
        <ele>56.37</ele>
        <time>2011-03-20T09:00:34Z</time>
      </trkpt>
      <trkpt lat="47.31012" lon="0.08986">
        <ele>56.37</ele>
        <time>2011-03-20T09:00:35Z</time>
      </trkpt>
      <trkpt lat="47.30994" lon="0.08999">
        <ele>55.89</ele>
        <time>2011-03-20T09:00:38Z</time>
      </trkpt>
      <trkpt lat="47.30977" lon="0.09013">
        <ele>54.45</ele>
        <time>2011-03-20T09:00:41Z</time>
      </trkpt>
      <trkpt lat="47.3093" lon="0.09044">
        <ele>51.09</ele>
        <time>2011-03-20T09:00:48Z</time>
      </trkpt>
      <trkpt lat="47.30917" lon="0.09054">
        <ele>50.61</ele>
        <time>2011-03-20T09:00:50Z</time>
      </trkpt>
      <trkpt lat="47.30873" lon="0.09087">
        <ele>47.24</ele>
        <time>2011-03-20T09:00:56Z</time>
      </trkpt>
      <trkpt lat="47.30843" lon="0.09107">
        <ele>43.88</ele>
        <time>2011-03-20T09:01:00Z</time>
      </trkpt>
      <trkpt lat="47.3083" lon="0.09121">
        <ele>41.47</ele>
        <time>2011-03-20T09:01:04Z</time>
      </trkpt>
      <trkpt lat="47.3083" lon="0.09126">
        <ele>41.95</ele>
        <time>2011-03-20T09:01:05Z</time>
      </trkpt>
      <trkpt lat="47.30832" lon="0.09131">
        <ele>42.44</ele>
        <time>2011-03-20T09:01:06Z</time>
      </trkpt>
      <trkpt lat="47.30833" lon="0.09136">
        <ele>42.44</ele>
        <time>2011-03-20T09:01:07Z</time>
      </trkpt>
      <trkpt lat="47.30834" lon="0.09141">
        <ele>41.47</ele>
        <time>2011-03-20T09:01:08Z</time>
      </trkpt>
      <trkpt lat="47.30835" lon="0.09147">
        <ele>42.44</ele>
        <time>2011-03-20T09:01:09Z</time>
      </trkpt>
      <trkpt lat="47.30836" lon="0.09153">
        <ele>41.95</ele>
        <time>2011-03-20T09:01:10Z</time>
      </trkpt>
      <trkpt lat="47.30837" lon="0.09159">
        <ele>42.44</ele>
        <time>2011-03-20T09:01:11Z</time>
      </trkpt>
      <trkpt lat="47.30839" lon="0.09164">
        <ele>41.47</ele>
        <time>2011-03-20T09:01:12Z</time>
      </trkpt>
      <trkpt lat="47.30839" lon="0.09171">
        <ele>40.99</ele>
        <time>2011-03-20T09:01:13Z</time>
      </trkpt>
      <trkpt lat="47.3084" lon="0.09177">
        <ele>41.47</ele>
        <time>2011-03-20T09:01:14Z</time>
      </trkpt>
      <trkpt lat="47.30842" lon="0.09184">
        <ele>41.95</ele>
        <time>2011-03-20T09:01:15Z</time>
      </trkpt>
      <trkpt lat="47.3085" lon="0.09239">
        <ele>41.47</ele>
        <time>2011-03-20T09:01:23Z</time>
      </trkpt>
      <trkpt lat="47.30855" lon="0.09281">
        <ele>40.03</ele>
        <time>2011-03-20T09:01:29Z</time>
      </trkpt>
      <trkpt lat="47.30856" lon="0.09288">
        <ele>40.03</ele>
        <time>2011-03-20T09:01:30Z</time>
      </trkpt>
      <trkpt lat="47.30857" lon="0.09295">
        <ele>39.55</ele>
        <time>2011-03-20T09:01:31Z</time>
      </trkpt>
      <trkpt lat="47.3086" lon="0.09315">
        <ele>40.03</ele>
        <time>2011-03-20T09:01:34Z</time>
      </trkpt>
      <trkpt lat="47.30873" lon="0.09378">
        <ele>39.55</ele>
        <time>2011-03-20T09:01:43Z</time>
      </trkpt>
      <trkpt lat="47.30888" lon="0.09453">
        <ele>39.07</ele>
        <time>2011-03-20T09:01:53Z</time>
      </trkpt>
      <trkpt lat="47.30894" lon="0.09479">
        <ele>38.59</ele>
        <time>2011-03-20T09:01:57Z</time>
      </trkpt>
      <trkpt lat="47.30896" lon="0.09484">
        <ele>38.11</ele>
        <time>2011-03-20T09:01:58Z</time>
      </trkpt>
      <trkpt lat="47.30899" lon="0.09489">
        <ele>38.11</ele>
        <time>2011-03-20T09:01:59Z</time>
      </trkpt>
      <trkpt lat="47.30902" lon="0.09492">
        <ele>38.11</ele>
        <time>2011-03-20T09:02:00Z</time>
      </trkpt>
      <trkpt lat="47.30906" lon="0.09493">
        <ele>37.63</ele>
        <time>2011-03-20T09:02:01Z</time>
      </trkpt>
      <trkpt lat="47.30909" lon="0.09492">
        <ele>38.11</ele>
        <time>2011-03-20T09:02:02Z</time>
      </trkpt>
      <trkpt lat="47.30913" lon="0.09488">
        <ele>38.11</ele>
        <time>2011-03-20T09:02:03Z</time>
      </trkpt>
      <trkpt lat="47.30916" lon="0.09485">
        <ele>38.59</ele>
        <time>2011-03-20T09:02:04Z</time>
      </trkpt>
      <trkpt lat="47.30924" lon="0.09479">
        <ele>38.59</ele>
        <time>2011-03-20T09:02:07Z</time>
      </trkpt>
      <trkpt lat="47.30926" lon="0.09481">
        <ele>39.07</ele>
        <time>2011-03-20T09:02:08Z</time>
      </trkpt>
      <trkpt lat="47.30928" lon="0.09484">
        <ele>38.59</ele>
        <time>2011-03-20T09:02:09Z</time>
      </trkpt>
      <trkpt lat="47.3093" lon="0.09488">
        <ele>38.59</ele>
        <time>2011-03-20T09:02:10Z</time>
      </trkpt>
      <trkpt lat="47.30932" lon="0.09491">
        <ele>39.07</ele>
        <time>2011-03-20T09:02:11Z</time>
      </trkpt>
      <trkpt lat="47.30941" lon="0.09508">
        <ele>40.51</ele>
        <time>2011-03-20T09:02:15Z</time>
      </trkpt>
      <trkpt lat="47.3096" lon="0.09535">
        <ele>40.51</ele>
        <time>2011-03-20T09:02:21Z</time>
      </trkpt>
      <trkpt lat="47.30972" lon="0.09553">
        <ele>40.03</ele>
        <time>2011-03-20T09:02:25Z</time>
      </trkpt>
      <trkpt lat="47.30975" lon="0.09558">
        <ele>39.55</ele>
        <time>2011-03-20T09:02:26Z</time>
      </trkpt>
      <trkpt lat="47.30978" lon="0.09562">
        <ele>40.03</ele>
        <time>2011-03-20T09:02:27Z</time>
      </trkpt>
      <trkpt lat="47.31006" lon="0.09601">
        <ele>40.51</ele>
        <time>2011-03-20T09:02:36Z</time>
      </trkpt>
      <trkpt lat="47.31024" lon="0.09627">
        <ele>40.03</ele>
        <time>2011-03-20T09:02:42Z</time>
      </trkpt>
      <trkpt lat="47.3105" lon="0.09664">
        <ele>41.47</ele>
        <time>2011-03-20T09:02:51Z</time>
      </trkpt>
      <trkpt lat="47.3107" lon="0.09693">
        <ele>41.95</ele>
        <time>2011-03-20T09:02:58Z</time>
      </trkpt>
      <trkpt lat="47.31091" lon="0.09726">
        <ele>41.47</ele>
        <time>2011-03-20T09:03:06Z</time>
      </trkpt>
      <trkpt lat="47.31117" lon="0.09767">
        <ele>42.44</ele>
        <time>2011-03-20T09:03:16Z</time>
      </trkpt>
      <trkpt lat="47.31141" lon="0.09801">
        <ele>43.4</ele>
        <time>2011-03-20T09:03:25Z</time>
      </trkpt>
      <trkpt lat="47.31163" lon="0.09815">
        <ele>44.36</ele>
        <time>2011-03-20T09:03:32Z</time>
      </trkpt>
      <trkpt lat="47.31191" lon="0.09832">
        <ele>45.8</ele>
        <time>2011-03-20T09:03:41Z</time>
      </trkpt>
      <trkpt lat="47.31217" lon="0.09846">
        <ele>45.8</ele>
        <time>2011-03-20T09:03:49Z</time>
      </trkpt>
      <trkpt lat="47.31242" lon="0.09862">
        <ele>46.76</ele>
        <time>2011-03-20T09:03:57Z</time>
      </trkpt>
      <trkpt lat="47.31262" lon="0.09878">
        <ele>47.72</ele>
        <time>2011-03-20T09:04:04Z</time>
      </trkpt>
      <trkpt lat="47.31279" lon="0.09896">
        <ele>49.16</ele>
        <time>2011-03-20T09:04:11Z</time>
      </trkpt>
      <trkpt lat="47.31295" lon="0.09907">
        <ele>50.61</ele>
        <time>2011-03-20T09:04:17Z</time>
      </trkpt>
      <trkpt lat="47.31319" lon="0.09919">
        <ele>51.57</ele>
        <time>2011-03-20T09:04:25Z</time>
      </trkpt>
      <trkpt lat="47.31341" lon="0.0993">
        <ele>53.01</ele>
        <time>2011-03-20T09:04:32Z</time>
      </trkpt>
      <trkpt lat="47.31357" lon="0.09938">
        <ele>54.45</ele>
        <time>2011-03-20T09:04:38Z</time>
      </trkpt>
      <trkpt lat="47.31376" lon="0.09949">
        <ele>53.01</ele>
        <time>2011-03-20T09:04:44Z</time>
      </trkpt>
      <trkpt lat="47.314" lon="0.09966">
        <ele>53.01</ele>
        <time>2011-03-20T09:04:51Z</time>
      </trkpt>
      <trkpt lat="47.3142" lon="0.0998">
        <ele>53.97</ele>
        <time>2011-03-20T09:04:57Z</time>
      </trkpt>
      <trkpt lat="47.3144" lon="0.10004">
        <ele>55.89</ele>
        <time>2011-03-20T09:05:04Z</time>
      </trkpt>
      <trkpt lat="47.31457" lon="0.10025">
        <ele>56.86</ele>
        <time>2011-03-20T09:05:10Z</time>
      </trkpt>
      <trkpt lat="47.31474" lon="0.10048">
        <ele>57.82</ele>
        <time>2011-03-20T09:05:17Z</time>
      </trkpt>
      <trkpt lat="47.31487" lon="0.10063">
        <ele>58.3</ele>
        <time>2011-03-20T09:05:22Z</time>
      </trkpt>
      <trkpt lat="47.31491" lon="0.10068">
        <ele>57.82</ele>
        <time>2011-03-20T09:05:24Z</time>
      </trkpt>
      <trkpt lat="47.31492" lon="0.1007">
        <ele>57.82</ele>
        <time>2011-03-20T09:05:25Z</time>
      </trkpt>
      <trkpt lat="47.31494" lon="0.10072">
        <ele>57.82</ele>
        <time>2011-03-20T09:05:26Z</time>
      </trkpt>
      <trkpt lat="47.31496" lon="0.10074">
        <ele>57.82</ele>
        <time>2011-03-20T09:05:27Z</time>
      </trkpt>
      <trkpt lat="47.31499" lon="0.10077">
        <ele>58.78</ele>
        <time>2011-03-20T09:05:28Z</time>
      </trkpt>
      <trkpt lat="47.31501" lon="0.10079">
        <ele>58.3</ele>
        <time>2011-03-20T09:05:29Z</time>
      </trkpt>
      <trkpt lat="47.31503" lon="0.10083">
        <ele>57.82</ele>
        <time>2011-03-20T09:05:30Z</time>
      </trkpt>
      <trkpt lat="47.31521" lon="0.10108">
        <ele>58.78</ele>
        <time>2011-03-20T09:05:37Z</time>
      </trkpt>
      <trkpt lat="47.31534" lon="0.10129">
        <ele>59.74</ele>
        <time>2011-03-20T09:05:43Z</time>
      </trkpt>
      <trkpt lat="47.31546" lon="0.10156">
        <ele>59.74</ele>
        <time>2011-03-20T09:05:49Z</time>
      </trkpt>
      <trkpt lat="47.31562" lon="0.10186">
        <ele>59.74</ele>
        <time>2011-03-20T09:05:55Z</time>
      </trkpt>
      <trkpt lat="47.31564" lon="0.10191">
        <ele>60.22</ele>
        <time>2011-03-20T09:05:56Z</time>
      </trkpt>
      <trkpt lat="47.31584" lon="0.10229">
        <ele>60.22</ele>
        <time>2011-03-20T09:06:03Z</time>
      </trkpt>
      <trkpt lat="47.31607" lon="0.10263">
        <ele>60.22</ele>
        <time>2011-03-20T09:06:10Z</time>
      </trkpt>
      <trkpt lat="47.31628" lon="0.10294">
        <ele>60.22</ele>
        <time>2011-03-20T09:06:17Z</time>
      </trkpt>
      <trkpt lat="47.31632" lon="0.10297">
        <ele>60.22</ele>
        <time>2011-03-20T09:06:18Z</time>
      </trkpt>
      <trkpt lat="47.31635" lon="0.10298">
        <ele>59.74</ele>
        <time>2011-03-20T09:06:19Z</time>
      </trkpt>
      <trkpt lat="47.31638" lon="0.103">
        <ele>60.22</ele>
        <time>2011-03-20T09:06:20Z</time>
      </trkpt>
      <trkpt lat="47.31641" lon="0.10303">
        <ele>60.22</ele>
        <time>2011-03-20T09:06:21Z</time>
      </trkpt>
      <trkpt lat="47.31644" lon="0.10308">
        <ele>59.74</ele>
        <time>2011-03-20T09:06:22Z</time>
      </trkpt>
      <trkpt lat="47.31648" lon="0.10311">
        <ele>59.74</ele>
        <time>2011-03-20T09:06:23Z</time>
      </trkpt>
      <trkpt lat="47.31669" lon="0.10332">
        <ele>60.7</ele>
        <time>2011-03-20T09:06:29Z</time>
      </trkpt>
      <trkpt lat="47.31673" lon="0.10336">
        <ele>61.18</ele>
        <time>2011-03-20T09:06:30Z</time>
      </trkpt>
      <trkpt lat="47.31683" lon="0.10347">
        <ele>60.22</ele>
        <time>2011-03-20T09:06:33Z</time>
      </trkpt>
      <trkpt lat="47.31686" lon="0.10351">
        <ele>60.7</ele>
        <time>2011-03-20T09:06:34Z</time>
      </trkpt>
      <trkpt lat="47.3169" lon="0.10354">
        <ele>60.7</ele>
        <time>2011-03-20T09:06:35Z</time>
      </trkpt>
      <trkpt lat="47.31693" lon="0.10358">
        <ele>60.22</ele>
        <time>2011-03-20T09:06:36Z</time>
      </trkpt>
      <trkpt lat="47.31697" lon="0.10362">
        <ele>60.22</ele>
        <time>2011-03-20T09:06:37Z</time>
      </trkpt>
      <trkpt lat="47.317" lon="0.10365">
        <ele>60.22</ele>
        <time>2011-03-20T09:06:38Z</time>
      </trkpt>
      <trkpt lat="47.3171" lon="0.1038">
        <ele>61.18</ele>
        <time>2011-03-20T09:06:42Z</time>
      </trkpt>
      <trkpt lat="47.31715" lon="0.10388">
        <ele>61.18</ele>
        <time>2011-03-20T09:06:44Z</time>
      </trkpt>
      <trkpt lat="47.31718" lon="0.10393">
        <ele>60.7</ele>
        <time>2011-03-20T09:06:45Z</time>
      </trkpt>
      <trkpt lat="47.31721" lon="0.10398">
        <ele>61.18</ele>
        <time>2011-03-20T09:06:46Z</time>
      </trkpt>
      <trkpt lat="47.31744" lon="0.10433">
        <ele>61.18</ele>
        <time>2011-03-20T09:06:53Z</time>
      </trkpt>
      <trkpt lat="47.31765" lon="0.10462">
        <ele>61.18</ele>
        <time>2011-03-20T09:06:59Z</time>
      </trkpt>
      <trkpt lat="47.31793" lon="0.10497">
        <ele>61.66</ele>
        <time>2011-03-20T09:07:07Z</time>
      </trkpt>
      <trkpt lat="47.318" lon="0.10506">
        <ele>61.18</ele>
        <time>2011-03-20T09:07:09Z</time>
      </trkpt>
      <trkpt lat="47.31803" lon="0.1051">
        <ele>61.18</ele>
        <time>2011-03-20T09:07:10Z</time>
      </trkpt>
      <trkpt lat="47.31807" lon="0.10514">
        <ele>61.18</ele>
        <time>2011-03-20T09:07:11Z</time>
      </trkpt>
      <trkpt lat="47.3181" lon="0.10518">
        <ele>61.66</ele>
        <time>2011-03-20T09:07:12Z</time>
      </trkpt>
      <trkpt lat="47.31814" lon="0.10522">
        <ele>61.66</ele>
        <time>2011-03-20T09:07:13Z</time>
      </trkpt>
      <trkpt lat="47.3183" lon="0.10539">
        <ele>62.62</ele>
        <time>2011-03-20T09:07:18Z</time>
      </trkpt>
      <trkpt lat="47.31833" lon="0.10542">
        <ele>63.1</ele>
        <time>2011-03-20T09:07:19Z</time>
      </trkpt>
      <trkpt lat="47.31859" lon="0.10561">
        <ele>62.14</ele>
        <time>2011-03-20T09:07:26Z</time>
      </trkpt>
      <trkpt lat="47.31884" lon="0.10577">
        <ele>62.14</ele>
        <time>2011-03-20T09:07:32Z</time>
      </trkpt>
      <trkpt lat="47.31888" lon="0.10579">
        <ele>61.66</ele>
        <time>2011-03-20T09:07:33Z</time>
      </trkpt>
      <trkpt lat="47.31925" lon="0.10597">
        <ele>61.18</ele>
        <time>2011-03-20T09:07:41Z</time>
      </trkpt>
      <trkpt lat="47.31932" lon="0.10601">
        <ele>61.66</ele>
        <time>2011-03-20T09:07:43Z</time>
      </trkpt>
      <trkpt lat="47.3196" lon="0.10612">
        <ele>61.18</ele>
        <time>2011-03-20T09:07:49Z</time>
      </trkpt>
      <trkpt lat="47.31968" lon="0.10615">
        <ele>60.7</ele>
        <time>2011-03-20T09:07:51Z</time>
      </trkpt>
      <trkpt lat="47.31996" lon="0.10626">
        <ele>60.22</ele>
        <time>2011-03-20T09:07:57Z</time>
      </trkpt>
      <trkpt lat="47.32004" lon="0.10628">
        <ele>60.7</ele>
        <time>2011-03-20T09:07:59Z</time>
      </trkpt>
      <trkpt lat="47.32018" lon="0.10633">
        <ele>60.22</ele>
        <time>2011-03-20T09:08:02Z</time>
      </trkpt>
      <trkpt lat="47.32022" lon="0.10636">
        <ele>60.7</ele>
        <time>2011-03-20T09:08:03Z</time>
      </trkpt>
      <trkpt lat="47.32044" lon="0.10651">
        <ele>61.66</ele>
        <time>2011-03-20T09:08:09Z</time>
      </trkpt>
      <trkpt lat="47.32061" lon="0.10663">
        <ele>62.14</ele>
        <time>2011-03-20T09:08:14Z</time>
      </trkpt>
      <trkpt lat="47.32084" lon="0.10677">
        <ele>63.58</ele>
        <time>2011-03-20T09:08:20Z</time>
      </trkpt>
      <trkpt lat="47.32117" lon="0.10704">
        <ele>62.14</ele>
        <time>2011-03-20T09:08:27Z</time>
      </trkpt>
      <trkpt lat="47.32148" lon="0.1073">
        <ele>61.18</ele>
        <time>2011-03-20T09:08:34Z</time>
      </trkpt>
      <trkpt lat="47.32155" lon="0.10738">
        <ele>61.18</ele>
        <time>2011-03-20T09:08:36Z</time>
      </trkpt>
      <trkpt lat="47.32172" lon="0.10761">
        <ele>62.14</ele>
        <time>2011-03-20T09:08:41Z</time>
      </trkpt>
      <trkpt lat="47.32178" lon="0.10774">
        <ele>61.18</ele>
        <time>2011-03-20T09:08:43Z</time>
      </trkpt>
      <trkpt lat="47.3218" lon="0.10781">
        <ele>61.66</ele>
        <time>2011-03-20T09:08:44Z</time>
      </trkpt>
      <trkpt lat="47.32189" lon="0.10818">
        <ele>61.66</ele>
        <time>2011-03-20T09:08:49Z</time>
      </trkpt>
      <trkpt lat="47.32191" lon="0.10824">
        <ele>61.66</ele>
        <time>2011-03-20T09:08:50Z</time>
      </trkpt>
      <trkpt lat="47.32193" lon="0.10831">
        <ele>62.14</ele>
        <time>2011-03-20T09:08:51Z</time>
      </trkpt>
      <trkpt lat="47.32195" lon="0.10838">
        <ele>61.18</ele>
        <time>2011-03-20T09:08:52Z</time>
      </trkpt>
      <trkpt lat="47.32198" lon="0.10845">
        <ele>61.66</ele>
        <time>2011-03-20T09:08:53Z</time>
      </trkpt>
      <trkpt lat="47.322" lon="0.10853">
        <ele>61.66</ele>
        <time>2011-03-20T09:08:54Z</time>
      </trkpt>
      <trkpt lat="47.32205" lon="0.10866">
        <ele>60.7</ele>
        <time>2011-03-20T09:08:56Z</time>
      </trkpt>
      <trkpt lat="47.32206" lon="0.10873">
        <ele>61.66</ele>
        <time>2011-03-20T09:08:57Z</time>
      </trkpt>
      <trkpt lat="47.32216" lon="0.10901">
        <ele>61.66</ele>
        <time>2011-03-20T09:09:01Z</time>
      </trkpt>
      <trkpt lat="47.32217" lon="0.10907">
        <ele>61.66</ele>
        <time>2011-03-20T09:09:02Z</time>
      </trkpt>
      <trkpt lat="47.32218" lon="0.10913">
        <ele>61.18</ele>
        <time>2011-03-20T09:09:03Z</time>
      </trkpt>
      <trkpt lat="47.32228" lon="0.10941">
        <ele>62.14</ele>
        <time>2011-03-20T09:09:08Z</time>
      </trkpt>
      <trkpt lat="47.3224" lon="0.10965">
        <ele>62.62</ele>
        <time>2011-03-20T09:09:13Z</time>
      </trkpt>
      <trkpt lat="47.32251" lon="0.10986">
        <ele>62.14</ele>
        <time>2011-03-20T09:09:18Z</time>
      </trkpt>
      <trkpt lat="47.32265" lon="0.11">
        <ele>61.66</ele>
        <time>2011-03-20T09:09:23Z</time>
      </trkpt>
      <trkpt lat="47.32267" lon="0.11">
        <ele>61.66</ele>
        <time>2011-03-20T09:09:24Z</time>
      </trkpt>
      <trkpt lat="47.3228" lon="0.10993">
        <ele>62.62</ele>
        <time>2011-03-20T09:09:29Z</time>
      </trkpt>
      <trkpt lat="47.32289" lon="0.10995">
        <ele>62.62</ele>
        <time>2011-03-20T09:09:33Z</time>
      </trkpt>
      <trkpt lat="47.32291" lon="0.10996">
        <ele>62.62</ele>
        <time>2011-03-20T09:09:39Z</time>
      </trkpt>
      <trkpt lat="47.32292" lon="0.10998">
        <ele>63.1</ele>
        <time>2011-03-20T09:11:49Z</time>
      </trkpt>
      <trkpt lat="47.32293" lon="0.11012">
        <ele>62.14</ele>
        <time>2011-03-20T09:11:54Z</time>
      </trkpt>
      <trkpt lat="47.323" lon="0.11041">
        <ele>62.62</ele>
        <time>2011-03-20T09:12:00Z</time>
      </trkpt>
      <trkpt lat="47.32312" lon="0.1107">
        <ele>62.14</ele>
        <time>2011-03-20T09:12:06Z</time>
      </trkpt>
      <trkpt lat="47.32318" lon="0.1108">
        <ele>62.62</ele>
        <time>2011-03-20T09:12:08Z</time>
      </trkpt>
      <trkpt lat="47.32321" lon="0.11084">
        <ele>62.14</ele>
        <time>2011-03-20T09:12:09Z</time>
      </trkpt>
      <trkpt lat="47.32324" lon="0.11089">
        <ele>62.14</ele>
        <time>2011-03-20T09:12:10Z</time>
      </trkpt>
      <trkpt lat="47.3233" lon="0.11099">
        <ele>62.14</ele>
        <time>2011-03-20T09:12:12Z</time>
      </trkpt>
      <trkpt lat="47.32334" lon="0.11104">
        <ele>63.1</ele>
        <time>2011-03-20T09:12:13Z</time>
      </trkpt>
      <trkpt lat="47.32337" lon="0.11108">
        <ele>62.62</ele>
        <time>2011-03-20T09:12:14Z</time>
      </trkpt>
      <trkpt lat="47.3234" lon="0.11112">
        <ele>62.62</ele>
        <time>2011-03-20T09:12:15Z</time>
      </trkpt>
      <trkpt lat="47.32344" lon="0.11115">
        <ele>62.62</ele>
        <time>2011-03-20T09:12:16Z</time>
      </trkpt>
      <trkpt lat="47.32348" lon="0.11118">
        <ele>62.62</ele>
        <time>2011-03-20T09:12:17Z</time>
      </trkpt>
      <trkpt lat="47.32352" lon="0.11122">
        <ele>62.62</ele>
        <time>2011-03-20T09:12:18Z</time>
      </trkpt>
      <trkpt lat="47.32356" lon="0.11126">
        <ele>63.1</ele>
        <time>2011-03-20T09:12:19Z</time>
      </trkpt>
      <trkpt lat="47.32359" lon="0.11129">
        <ele>63.1</ele>
        <time>2011-03-20T09:12:20Z</time>
      </trkpt>
      <trkpt lat="47.32374" lon="0.11144">
        <ele>63.58</ele>
        <time>2011-03-20T09:12:25Z</time>
      </trkpt>
      <trkpt lat="47.32378" lon="0.11147">
        <ele>64.07</ele>
        <time>2011-03-20T09:12:26Z</time>
      </trkpt>
      <trkpt lat="47.32382" lon="0.1115">
        <ele>64.07</ele>
        <time>2011-03-20T09:12:27Z</time>
      </trkpt>
      <trkpt lat="47.32386" lon="0.11153">
        <ele>64.07</ele>
        <time>2011-03-20T09:12:28Z</time>
      </trkpt>
      <trkpt lat="47.32393" lon="0.11158">
        <ele>64.07</ele>
        <time>2011-03-20T09:12:30Z</time>
      </trkpt>
      <trkpt lat="47.32395" lon="0.11161">
        <ele>64.07</ele>
        <time>2011-03-20T09:12:31Z</time>
      </trkpt>
      <trkpt lat="47.32398" lon="0.11164">
        <ele>64.55</ele>
        <time>2011-03-20T09:12:32Z</time>
      </trkpt>
      <trkpt lat="47.32401" lon="0.11168">
        <ele>64.55</ele>
        <time>2011-03-20T09:12:33Z</time>
      </trkpt>
      <trkpt lat="47.32404" lon="0.11173">
        <ele>64.07</ele>
        <time>2011-03-20T09:12:34Z</time>
      </trkpt>
      <trkpt lat="47.32408" lon="0.11179">
        <ele>64.55</ele>
        <time>2011-03-20T09:12:35Z</time>
      </trkpt>
      <trkpt lat="47.32411" lon="0.11184">
        <ele>64.07</ele>
        <time>2011-03-20T09:12:36Z</time>
      </trkpt>
      <trkpt lat="47.32414" lon="0.11188">
        <ele>64.55</ele>
        <time>2011-03-20T09:12:37Z</time>
      </trkpt>
      <trkpt lat="47.32435" lon="0.1121">
        <ele>64.55</ele>
        <time>2011-03-20T09:12:42Z</time>
      </trkpt>
      <trkpt lat="47.32466" lon="0.11238">
        <ele>64.07</ele>
        <time>2011-03-20T09:12:49Z</time>
      </trkpt>
      <trkpt lat="47.32489" lon="0.11255">
        <ele>64.55</ele>
        <time>2011-03-20T09:12:55Z</time>
      </trkpt>
      <trkpt lat="47.32493" lon="0.11258">
        <ele>65.51</ele>
        <time>2011-03-20T09:12:56Z</time>
      </trkpt>
      <trkpt lat="47.32513" lon="0.11279">
        <ele>65.03</ele>
        <time>2011-03-20T09:13:01Z</time>
      </trkpt>
      <trkpt lat="47.32518" lon="0.11283">
        <ele>64.55</ele>
        <time>2011-03-20T09:13:02Z</time>
      </trkpt>
      <trkpt lat="47.32523" lon="0.11286">
        <ele>64.55</ele>
        <time>2011-03-20T09:13:03Z</time>
      </trkpt>
      <trkpt lat="47.32527" lon="0.11288">
        <ele>65.03</ele>
        <time>2011-03-20T09:13:04Z</time>
      </trkpt>
      <trkpt lat="47.32531" lon="0.11291">
        <ele>65.03</ele>
        <time>2011-03-20T09:13:05Z</time>
      </trkpt>
      <trkpt lat="47.32535" lon="0.11293">
        <ele>64.55</ele>
        <time>2011-03-20T09:13:06Z</time>
      </trkpt>
      <trkpt lat="47.32544" lon="0.11297">
        <ele>65.03</ele>
        <time>2011-03-20T09:13:08Z</time>
      </trkpt>
      <trkpt lat="47.32549" lon="0.11299">
        <ele>65.03</ele>
        <time>2011-03-20T09:13:09Z</time>
      </trkpt>
      <trkpt lat="47.32574" lon="0.11309">
        <ele>64.07</ele>
        <time>2011-03-20T09:13:14Z</time>
      </trkpt>
      <trkpt lat="47.32579" lon="0.11311">
        <ele>63.58</ele>
        <time>2011-03-20T09:13:15Z</time>
      </trkpt>
      <trkpt lat="47.32583" lon="0.11315">
        <ele>63.58</ele>
        <time>2011-03-20T09:13:16Z</time>
      </trkpt>
      <trkpt lat="47.32588" lon="0.1132">
        <ele>63.1</ele>
        <time>2011-03-20T09:13:17Z</time>
      </trkpt>
      <trkpt lat="47.32596" lon="0.11331">
        <ele>63.58</ele>
        <time>2011-03-20T09:13:19Z</time>
      </trkpt>
      <trkpt lat="47.32618" lon="0.11365">
        <ele>63.58</ele>
        <time>2011-03-20T09:13:25Z</time>
      </trkpt>
      <trkpt lat="47.32623" lon="0.11369">
        <ele>64.55</ele>
        <time>2011-03-20T09:13:26Z</time>
      </trkpt>
      <trkpt lat="47.3265" lon="0.11392">
        <ele>64.07</ele>
        <time>2011-03-20T09:13:33Z</time>
      </trkpt>
      <trkpt lat="47.32672" lon="0.1141">
        <ele>64.07</ele>
        <time>2011-03-20T09:13:38Z</time>
      </trkpt>
      <trkpt lat="47.32677" lon="0.11414">
        <ele>63.1</ele>
        <time>2011-03-20T09:13:39Z</time>
      </trkpt>
      <trkpt lat="47.32682" lon="0.11417">
        <ele>63.58</ele>
        <time>2011-03-20T09:13:40Z</time>
      </trkpt>
      <trkpt lat="47.32687" lon="0.11421">
        <ele>63.58</ele>
        <time>2011-03-20T09:13:41Z</time>
      </trkpt>
      <trkpt lat="47.32691" lon="0.11426">
        <ele>63.58</ele>
        <time>2011-03-20T09:13:42Z</time>
      </trkpt>
      <trkpt lat="47.32695" lon="0.11431">
        <ele>63.1</ele>
        <time>2011-03-20T09:13:43Z</time>
      </trkpt>
      <trkpt lat="47.32705" lon="0.1144">
        <ele>63.58</ele>
        <time>2011-03-20T09:13:45Z</time>
      </trkpt>
      <trkpt lat="47.32744" lon="0.11468">
        <ele>63.58</ele>
        <time>2011-03-20T09:13:53Z</time>
      </trkpt>
      <trkpt lat="47.3277" lon="0.11488">
        <ele>64.55</ele>
        <time>2011-03-20T09:14:00Z</time>
      </trkpt>
      <trkpt lat="47.32789" lon="0.11501">
        <ele>64.55</ele>
        <time>2011-03-20T09:14:05Z</time>
      </trkpt>
      <trkpt lat="47.32793" lon="0.11503">
        <ele>64.07</ele>
        <time>2011-03-20T09:14:06Z</time>
      </trkpt>
      <trkpt lat="47.32797" lon="0.11506">
        <ele>64.07</ele>
        <time>2011-03-20T09:14:07Z</time>
      </trkpt>
      <trkpt lat="47.32809" lon="0.11516">
        <ele>63.58</ele>
        <time>2011-03-20T09:14:10Z</time>
      </trkpt>
      <trkpt lat="47.32818" lon="0.11521">
        <ele>64.07</ele>
        <time>2011-03-20T09:14:12Z</time>
      </trkpt>
      <trkpt lat="47.32836" lon="0.11532">
        <ele>62.62</ele>
        <time>2011-03-20T09:14:16Z</time>
      </trkpt>
      <trkpt lat="47.32841" lon="0.11535">
        <ele>63.58</ele>
        <time>2011-03-20T09:14:17Z</time>
      </trkpt>
      <trkpt lat="47.32845" lon="0.11537">
        <ele>63.58</ele>
        <time>2011-03-20T09:14:18Z</time>
      </trkpt>
      <trkpt lat="47.32858" lon="0.11545">
        <ele>63.58</ele>
        <time>2011-03-20T09:14:21Z</time>
      </trkpt>
      <trkpt lat="47.32875" lon="0.11557">
        <ele>64.07</ele>
        <time>2011-03-20T09:14:25Z</time>
      </trkpt>
      <trkpt lat="47.3288" lon="0.11559">
        <ele>63.58</ele>
        <time>2011-03-20T09:14:26Z</time>
      </trkpt>
      <trkpt lat="47.32885" lon="0.11561">
        <ele>64.07</ele>
        <time>2011-03-20T09:14:27Z</time>
      </trkpt>
      <trkpt lat="47.32889" lon="0.11564">
        <ele>63.58</ele>
        <time>2011-03-20T09:14:28Z</time>
      </trkpt>
      <trkpt lat="47.32894" lon="0.11567">
        <ele>64.55</ele>
        <time>2011-03-20T09:14:29Z</time>
      </trkpt>
      <trkpt lat="47.32898" lon="0.11569">
        <ele>64.55</ele>
        <time>2011-03-20T09:14:30Z</time>
      </trkpt>
      <trkpt lat="47.32902" lon="0.11571">
        <ele>64.07</ele>
        <time>2011-03-20T09:14:31Z</time>
      </trkpt>
      <trkpt lat="47.32912" lon="0.11575">
        <ele>64.55</ele>
        <time>2011-03-20T09:14:33Z</time>
      </trkpt>
      <trkpt lat="47.32921" lon="0.11577">
        <ele>65.03</ele>
        <time>2011-03-20T09:14:35Z</time>
      </trkpt>
      <trkpt lat="47.32959" lon="0.11582">
        <ele>65.03</ele>
        <time>2011-03-20T09:14:43Z</time>
      </trkpt>
      <trkpt lat="47.32968" lon="0.11585">
        <ele>64.55</ele>
        <time>2011-03-20T09:14:45Z</time>
      </trkpt>
      <trkpt lat="47.32973" lon="0.11586">
        <ele>64.55</ele>
        <time>2011-03-20T09:14:46Z</time>
      </trkpt>
      <trkpt lat="47.32977" lon="0.11587">
        <ele>65.03</ele>
        <time>2011-03-20T09:14:47Z</time>
      </trkpt>
      <trkpt lat="47.32982" lon="0.11586">
        <ele>65.03</ele>
        <time>2011-03-20T09:14:48Z</time>
      </trkpt>
      <trkpt lat="47.32987" lon="0.11585">
        <ele>65.03</ele>
        <time>2011-03-20T09:14:49Z</time>
      </trkpt>
      <trkpt lat="47.33" lon="0.11582">
        <ele>65.03</ele>
        <time>2011-03-20T09:14:52Z</time>
      </trkpt>
      <trkpt lat="47.33006" lon="0.11582">
        <ele>65.03</ele>
        <time>2011-03-20T09:14:53Z</time>
      </trkpt>
      <trkpt lat="47.33025" lon="0.11583">
        <ele>64.55</ele>
        <time>2011-03-20T09:14:57Z</time>
      </trkpt>
      <trkpt lat="47.33029" lon="0.11582">
        <ele>65.03</ele>
        <time>2011-03-20T09:14:58Z</time>
      </trkpt>
      <trkpt lat="47.33039" lon="0.1158">
        <ele>65.03</ele>
        <time>2011-03-20T09:15:00Z</time>
      </trkpt>
      <trkpt lat="47.33052" lon="0.11575">
        <ele>65.51</ele>
        <time>2011-03-20T09:15:03Z</time>
      </trkpt>
      <trkpt lat="47.33057" lon="0.11573">
        <ele>65.03</ele>
        <time>2011-03-20T09:15:04Z</time>
      </trkpt>
      <trkpt lat="47.33061" lon="0.11571">
        <ele>64.07</ele>
        <time>2011-03-20T09:15:05Z</time>
      </trkpt>
      <trkpt lat="47.3307" lon="0.11567">
        <ele>64.55</ele>
        <time>2011-03-20T09:15:07Z</time>
      </trkpt>
      <trkpt lat="47.33101" lon="0.11548">
        <ele>65.03</ele>
        <time>2011-03-20T09:15:14Z</time>
      </trkpt>
      <trkpt lat="47.33122" lon="0.11526">
        <ele>65.03</ele>
        <time>2011-03-20T09:15:20Z</time>
      </trkpt>
      <trkpt lat="47.33136" lon="0.11513">
        <ele>65.03</ele>
        <time>2011-03-20T09:15:24Z</time>
      </trkpt>
      <trkpt lat="47.33166" lon="0.11495">
        <ele>65.51</ele>
        <time>2011-03-20T09:15:32Z</time>
      </trkpt>
      <trkpt lat="47.33193" lon="0.11472">
        <ele>64.55</ele>
        <time>2011-03-20T09:15:40Z</time>
      </trkpt>
      <trkpt lat="47.33197" lon="0.1147">
        <ele>64.55</ele>
        <time>2011-03-20T09:15:41Z</time>
      </trkpt>
      <trkpt lat="47.33201" lon="0.11469">
        <ele>65.03</ele>
        <time>2011-03-20T09:15:42Z</time>
      </trkpt>
      <trkpt lat="47.33225" lon="0.11469">
        <ele>64.55</ele>
        <time>2011-03-20T09:15:48Z</time>
      </trkpt>
      <trkpt lat="47.33229" lon="0.11471">
        <ele>64.07</ele>
        <time>2011-03-20T09:15:49Z</time>
      </trkpt>
      <trkpt lat="47.33234" lon="0.11473">
        <ele>64.07</ele>
        <time>2011-03-20T09:15:50Z</time>
      </trkpt>
      <trkpt lat="47.33238" lon="0.11476">
        <ele>64.07</ele>
        <time>2011-03-20T09:15:51Z</time>
      </trkpt>
      <trkpt lat="47.33242" lon="0.11479">
        <ele>64.07</ele>
        <time>2011-03-20T09:15:52Z</time>
      </trkpt>
      <trkpt lat="47.33246" lon="0.11482">
        <ele>63.58</ele>
        <time>2011-03-20T09:15:53Z</time>
      </trkpt>
      <trkpt lat="47.33255" lon="0.11487">
        <ele>63.1</ele>
        <time>2011-03-20T09:15:55Z</time>
      </trkpt>
      <trkpt lat="47.33259" lon="0.11488">
        <ele>63.58</ele>
        <time>2011-03-20T09:15:56Z</time>
      </trkpt>
      <trkpt lat="47.33272" lon="0.11492">
        <ele>63.58</ele>
        <time>2011-03-20T09:15:59Z</time>
      </trkpt>
      <trkpt lat="47.33277" lon="0.11492">
        <ele>63.58</ele>
        <time>2011-03-20T09:16:00Z</time>
      </trkpt>
      <trkpt lat="47.33293" lon="0.11489">
        <ele>63.58</ele>
        <time>2011-03-20T09:16:04Z</time>
      </trkpt>
      <trkpt lat="47.33297" lon="0.11488">
        <ele>63.1</ele>
        <time>2011-03-20T09:16:05Z</time>
      </trkpt>
      <trkpt lat="47.33301" lon="0.11487">
        <ele>63.58</ele>
        <time>2011-03-20T09:16:06Z</time>
      </trkpt>
      <trkpt lat="47.33328" lon="0.11479">
        <ele>63.1</ele>
        <time>2011-03-20T09:16:13Z</time>
      </trkpt>
      <trkpt lat="47.33361" lon="0.11474">
        <ele>62.62</ele>
        <time>2011-03-20T09:16:21Z</time>
      </trkpt>
      <trkpt lat="47.33401" lon="0.11463">
        <ele>64.07</ele>
        <time>2011-03-20T09:16:30Z</time>
      </trkpt>
      <trkpt lat="47.33417" lon="0.11454">
        <ele>63.1</ele>
        <time>2011-03-20T09:16:34Z</time>
      </trkpt>
      <trkpt lat="47.3342" lon="0.1145">
        <ele>62.62</ele>
        <time>2011-03-20T09:16:35Z</time>
      </trkpt>
      <trkpt lat="47.33423" lon="0.11447">
        <ele>62.62</ele>
        <time>2011-03-20T09:16:36Z</time>
      </trkpt>
      <trkpt lat="47.33429" lon="0.11432">
        <ele>63.58</ele>
        <time>2011-03-20T09:16:40Z</time>
      </trkpt>
      <trkpt lat="47.3343" lon="0.11428">
        <ele>63.58</ele>
        <time>2011-03-20T09:16:41Z</time>
      </trkpt>
      <trkpt lat="47.3343" lon="0.11425">
        <ele>63.58</ele>
        <time>2011-03-20T09:16:42Z</time>
      </trkpt>
      <trkpt lat="47.33431" lon="0.11421">
        <ele>63.1</ele>
        <time>2011-03-20T09:16:43Z</time>
      </trkpt>
      <trkpt lat="47.33432" lon="0.11417">
        <ele>63.58</ele>
        <time>2011-03-20T09:16:44Z</time>
      </trkpt>
      <trkpt lat="47.33433" lon="0.11413">
        <ele>64.55</ele>
        <time>2011-03-20T09:16:45Z</time>
      </trkpt>
      <trkpt lat="47.33434" lon="0.11409">
        <ele>63.58</ele>
        <time>2011-03-20T09:16:46Z</time>
      </trkpt>
      <trkpt lat="47.33435" lon="0.11405">
        <ele>65.03</ele>
        <time>2011-03-20T09:16:47Z</time>
      </trkpt>
      <trkpt lat="47.33436" lon="0.11402">
        <ele>65.03</ele>
        <time>2011-03-20T09:16:48Z</time>
      </trkpt>
      <trkpt lat="47.33438" lon="0.11398">
        <ele>64.55</ele>
        <time>2011-03-20T09:16:49Z</time>
      </trkpt>
      <trkpt lat="47.33438" lon="0.11394">
        <ele>64.55</ele>
        <time>2011-03-20T09:16:50Z</time>
      </trkpt>
      <trkpt lat="47.33438" lon="0.11389">
        <ele>64.55</ele>
        <time>2011-03-20T09:16:51Z</time>
      </trkpt>
      <trkpt lat="47.33438" lon="0.11385">
        <ele>64.07</ele>
        <time>2011-03-20T09:16:52Z</time>
      </trkpt>
      <trkpt lat="47.33439" lon="0.11381">
        <ele>64.55</ele>
        <time>2011-03-20T09:16:53Z</time>
      </trkpt>
      <trkpt lat="47.33443" lon="0.11357">
        <ele>64.55</ele>
        <time>2011-03-20T09:16:58Z</time>
      </trkpt>
      <trkpt lat="47.33445" lon="0.11317">
        <ele>64.55</ele>
        <time>2011-03-20T09:17:06Z</time>
      </trkpt>
      <trkpt lat="47.33446" lon="0.11282">
        <ele>64.55</ele>
        <time>2011-03-20T09:17:13Z</time>
      </trkpt>
      <trkpt lat="47.33446" lon="0.11278">
        <ele>64.07</ele>
        <time>2011-03-20T09:17:14Z</time>
      </trkpt>
      <trkpt lat="47.33458" lon="0.11253">
        <ele>65.99</ele>
        <time>2011-03-20T09:17:21Z</time>
      </trkpt>
      <trkpt lat="47.3347" lon="0.11246">
        <ele>65.99</ele>
        <time>2011-03-20T09:17:25Z</time>
      </trkpt>
      <trkpt lat="47.33491" lon="0.1125">
        <ele>66.47</ele>
        <time>2011-03-20T09:17:31Z</time>
      </trkpt>
      <trkpt lat="47.33495" lon="0.1125">
        <ele>65.99</ele>
        <time>2011-03-20T09:17:32Z</time>
      </trkpt>
      <trkpt lat="47.33499" lon="0.11249">
        <ele>65.99</ele>
        <time>2011-03-20T09:17:33Z</time>
      </trkpt>
      <trkpt lat="47.33514" lon="0.11243">
        <ele>66.47</ele>
        <time>2011-03-20T09:17:36Z</time>
      </trkpt>
      <trkpt lat="47.33518" lon="0.1124">
        <ele>66.47</ele>
        <time>2011-03-20T09:17:37Z</time>
      </trkpt>
      <trkpt lat="47.33542" lon="0.11221">
        <ele>65.51</ele>
        <time>2011-03-20T09:17:43Z</time>
      </trkpt>
      <trkpt lat="47.33549" lon="0.11214">
        <ele>65.51</ele>
        <time>2011-03-20T09:17:45Z</time>
      </trkpt>
      <trkpt lat="47.33568" lon="0.11195">
        <ele>65.03</ele>
        <time>2011-03-20T09:17:50Z</time>
      </trkpt>
      <trkpt lat="47.33571" lon="0.11191">
        <ele>65.03</ele>
        <time>2011-03-20T09:17:51Z</time>
      </trkpt>
      <trkpt lat="47.33601" lon="0.11164">
        <ele>65.03</ele>
        <time>2011-03-20T09:17:58Z</time>
      </trkpt>
      <trkpt lat="47.33634" lon="0.1115">
        <ele>65.03</ele>
        <time>2011-03-20T09:18:05Z</time>
      </trkpt>
      <trkpt lat="47.33643" lon="0.1115">
        <ele>65.51</ele>
        <time>2011-03-20T09:18:07Z</time>
      </trkpt>
      <trkpt lat="47.33656" lon="0.11153">
        <ele>65.51</ele>
        <time>2011-03-20T09:18:10Z</time>
      </trkpt>
      <trkpt lat="47.3366" lon="0.11156">
        <ele>65.99</ele>
        <time>2011-03-20T09:18:11Z</time>
      </trkpt>
      <trkpt lat="47.33665" lon="0.11159">
        <ele>65.03</ele>
        <time>2011-03-20T09:18:12Z</time>
      </trkpt>
      <trkpt lat="47.33677" lon="0.11168">
        <ele>65.51</ele>
        <time>2011-03-20T09:18:15Z</time>
      </trkpt>
      <trkpt lat="47.33693" lon="0.11184">
        <ele>65.51</ele>
        <time>2011-03-20T09:18:19Z</time>
      </trkpt>
      <trkpt lat="47.337" lon="0.11193">
        <ele>66.47</ele>
        <time>2011-03-20T09:18:21Z</time>
      </trkpt>
      <trkpt lat="47.33712" lon="0.11214">
        <ele>66.47</ele>
        <time>2011-03-20T09:18:25Z</time>
      </trkpt>
      <trkpt lat="47.33716" lon="0.11218">
        <ele>65.99</ele>
        <time>2011-03-20T09:18:26Z</time>
      </trkpt>
      <trkpt lat="47.33719" lon="0.11222">
        <ele>65.99</ele>
        <time>2011-03-20T09:18:27Z</time>
      </trkpt>
      <trkpt lat="47.33723" lon="0.11226">
        <ele>65.51</ele>
        <time>2011-03-20T09:18:28Z</time>
      </trkpt>
      <trkpt lat="47.33727" lon="0.11228">
        <ele>65.99</ele>
        <time>2011-03-20T09:18:29Z</time>
      </trkpt>
      <trkpt lat="47.3373" lon="0.11231">
        <ele>65.51</ele>
        <time>2011-03-20T09:18:30Z</time>
      </trkpt>
      <trkpt lat="47.33734" lon="0.11232">
        <ele>65.51</ele>
        <time>2011-03-20T09:18:31Z</time>
      </trkpt>
      <trkpt lat="47.33737" lon="0.11233">
        <ele>65.99</ele>
        <time>2011-03-20T09:18:32Z</time>
      </trkpt>
      <trkpt lat="47.33741" lon="0.11233">
        <ele>65.99</ele>
        <time>2011-03-20T09:18:33Z</time>
      </trkpt>
      <trkpt lat="47.33743" lon="0.11233">
        <ele>65.99</ele>
        <time>2011-03-20T09:18:34Z</time>
      </trkpt>
      <trkpt lat="47.33746" lon="0.1123">
        <ele>66.47</ele>
        <time>2011-03-20T09:18:35Z</time>
      </trkpt>
      <trkpt lat="47.33747" lon="0.11227">
        <ele>66.47</ele>
        <time>2011-03-20T09:18:36Z</time>
      </trkpt>
      <trkpt lat="47.3375" lon="0.11212">
        <ele>66.47</ele>
        <time>2011-03-20T09:18:40Z</time>
      </trkpt>
      <trkpt lat="47.33752" lon="0.11208">
        <ele>66.95</ele>
        <time>2011-03-20T09:18:41Z</time>
      </trkpt>
      <trkpt lat="47.33753" lon="0.11204">
        <ele>66.47</ele>
        <time>2011-03-20T09:18:42Z</time>
      </trkpt>
      <trkpt lat="47.33755" lon="0.11199">
        <ele>66.47</ele>
        <time>2011-03-20T09:18:43Z</time>
      </trkpt>
      <trkpt lat="47.33756" lon="0.11196">
        <ele>67.43</ele>
        <time>2011-03-20T09:18:44Z</time>
      </trkpt>
      <trkpt lat="47.33757" lon="0.11191">
        <ele>67.91</ele>
        <time>2011-03-20T09:18:45Z</time>
      </trkpt>
      <trkpt lat="47.33758" lon="0.11188">
        <ele>67.91</ele>
        <time>2011-03-20T09:18:46Z</time>
      </trkpt>
      <trkpt lat="47.33758" lon="0.11182">
        <ele>67.91</ele>
        <time>2011-03-20T09:18:47Z</time>
      </trkpt>
      <trkpt lat="47.33759" lon="0.11177">
        <ele>68.39</ele>
        <time>2011-03-20T09:18:48Z</time>
      </trkpt>
      <trkpt lat="47.33764" lon="0.11163">
        <ele>68.39</ele>
        <time>2011-03-20T09:18:51Z</time>
      </trkpt>
      <trkpt lat="47.33764" lon="0.11158">
        <ele>68.87</ele>
        <time>2011-03-20T09:18:52Z</time>
      </trkpt>
      <trkpt lat="47.33765" lon="0.11154">
        <ele>69.35</ele>
        <time>2011-03-20T09:18:53Z</time>
      </trkpt>
      <trkpt lat="47.33765" lon="0.1115">
        <ele>69.83</ele>
        <time>2011-03-20T09:18:54Z</time>
      </trkpt>
      <trkpt lat="47.33766" lon="0.11145">
        <ele>69.83</ele>
        <time>2011-03-20T09:18:55Z</time>
      </trkpt>
      <trkpt lat="47.33766" lon="0.1114">
        <ele>70.31</ele>
        <time>2011-03-20T09:18:56Z</time>
      </trkpt>
      <trkpt lat="47.33765" lon="0.11136">
        <ele>70.79</ele>
        <time>2011-03-20T09:18:57Z</time>
      </trkpt>
      <trkpt lat="47.33757" lon="0.11109">
        <ele>70.79</ele>
        <time>2011-03-20T09:19:02Z</time>
      </trkpt>
      <trkpt lat="47.33749" lon="0.11077">
        <ele>71.76</ele>
        <time>2011-03-20T09:19:08Z</time>
      </trkpt>
      <trkpt lat="47.33739" lon="0.11041">
        <ele>70.79</ele>
        <time>2011-03-20T09:19:14Z</time>
      </trkpt>
      <trkpt lat="47.33728" lon="0.11012">
        <ele>70.31</ele>
        <time>2011-03-20T09:19:19Z</time>
      </trkpt>
      <trkpt lat="47.33723" lon="0.10999">
        <ele>69.83</ele>
        <time>2011-03-20T09:19:21Z</time>
      </trkpt>
      <trkpt lat="47.33721" lon="0.10993">
        <ele>69.83</ele>
        <time>2011-03-20T09:19:22Z</time>
      </trkpt>
      <trkpt lat="47.3371" lon="0.10968">
        <ele>69.83</ele>
        <time>2011-03-20T09:19:26Z</time>
      </trkpt>
      <trkpt lat="47.33706" lon="0.10962">
        <ele>68.87</ele>
        <time>2011-03-20T09:19:27Z</time>
      </trkpt>
      <trkpt lat="47.33702" lon="0.10955">
        <ele>68.87</ele>
        <time>2011-03-20T09:19:28Z</time>
      </trkpt>
      <trkpt lat="47.33698" lon="0.10948">
        <ele>68.87</ele>
        <time>2011-03-20T09:19:29Z</time>
      </trkpt>
      <trkpt lat="47.33695" lon="0.1094">
        <ele>68.87</ele>
        <time>2011-03-20T09:19:30Z</time>
      </trkpt>
      <trkpt lat="47.33692" lon="0.10932">
        <ele>69.35</ele>
        <time>2011-03-20T09:19:31Z</time>
      </trkpt>
      <trkpt lat="47.3369" lon="0.10925">
        <ele>68.87</ele>
        <time>2011-03-20T09:19:32Z</time>
      </trkpt>
      <trkpt lat="47.33688" lon="0.10919">
        <ele>68.87</ele>
        <time>2011-03-20T09:19:33Z</time>
      </trkpt>
      <trkpt lat="47.33672" lon="0.10855">
        <ele>67.91</ele>
        <time>2011-03-20T09:19:40Z</time>
      </trkpt>
      <trkpt lat="47.33664" lon="0.10784">
        <ele>67.43</ele>
        <time>2011-03-20T09:19:48Z</time>
      </trkpt>
      <trkpt lat="47.33665" lon="0.10728">
        <ele>67.91</ele>
        <time>2011-03-20T09:19:55Z</time>
      </trkpt>
      <trkpt lat="47.33665" lon="0.1072">
        <ele>67.91</ele>
        <time>2011-03-20T09:19:56Z</time>
      </trkpt>
      <trkpt lat="47.33665" lon="0.10713">
        <ele>66.95</ele>
        <time>2011-03-20T09:19:57Z</time>
      </trkpt>
      <trkpt lat="47.33666" lon="0.10689">
        <ele>67.43</ele>
        <time>2011-03-20T09:20:00Z</time>
      </trkpt>
      <trkpt lat="47.33667" lon="0.10674">
        <ele>66.95</ele>
        <time>2011-03-20T09:20:02Z</time>
      </trkpt>
      <trkpt lat="47.33668" lon="0.10658">
        <ele>66.47</ele>
        <time>2011-03-20T09:20:04Z</time>
      </trkpt>
      <trkpt lat="47.33673" lon="0.10614">
        <ele>67.91</ele>
        <time>2011-03-20T09:20:10Z</time>
      </trkpt>
      <trkpt lat="47.33675" lon="0.10592">
        <ele>68.39</ele>
        <time>2011-03-20T09:20:13Z</time>
      </trkpt>
      <trkpt lat="47.33678" lon="0.1058">
        <ele>68.39</ele>
        <time>2011-03-20T09:20:15Z</time>
      </trkpt>
      <trkpt lat="47.33683" lon="0.10545">
        <ele>67.91</ele>
        <time>2011-03-20T09:20:20Z</time>
      </trkpt>
      <trkpt lat="47.33685" lon="0.10539">
        <ele>67.91</ele>
        <time>2011-03-20T09:20:21Z</time>
      </trkpt>
      <trkpt lat="47.33687" lon="0.10533">
        <ele>67.43</ele>
        <time>2011-03-20T09:20:22Z</time>
      </trkpt>
      <trkpt lat="47.33692" lon="0.10513">
        <ele>68.39</ele>
        <time>2011-03-20T09:20:25Z</time>
      </trkpt>
      <trkpt lat="47.33696" lon="0.10493">
        <ele>67.91</ele>
        <time>2011-03-20T09:20:28Z</time>
      </trkpt>
      <trkpt lat="47.33698" lon="0.1048">
        <ele>67.91</ele>
        <time>2011-03-20T09:20:30Z</time>
      </trkpt>
      <trkpt lat="47.33699" lon="0.10474">
        <ele>68.39</ele>
        <time>2011-03-20T09:20:31Z</time>
      </trkpt>
      <trkpt lat="47.33702" lon="0.10468">
        <ele>68.87</ele>
        <time>2011-03-20T09:20:32Z</time>
      </trkpt>
      <trkpt lat="47.33704" lon="0.10462">
        <ele>68.39</ele>
        <time>2011-03-20T09:20:33Z</time>
      </trkpt>
      <trkpt lat="47.33707" lon="0.10456">
        <ele>68.87</ele>
        <time>2011-03-20T09:20:34Z</time>
      </trkpt>
      <trkpt lat="47.33711" lon="0.10443">
        <ele>68.87</ele>
        <time>2011-03-20T09:20:36Z</time>
      </trkpt>
      <trkpt lat="47.33714" lon="0.10437">
        <ele>68.87</ele>
        <time>2011-03-20T09:20:37Z</time>
      </trkpt>
      <trkpt lat="47.33715" lon="0.10431">
        <ele>68.39</ele>
        <time>2011-03-20T09:20:38Z</time>
      </trkpt>
      <trkpt lat="47.33721" lon="0.10412">
        <ele>69.35</ele>
        <time>2011-03-20T09:20:41Z</time>
      </trkpt>
      <trkpt lat="47.33738" lon="0.10377">
        <ele>69.35</ele>
        <time>2011-03-20T09:20:47Z</time>
      </trkpt>
      <trkpt lat="47.33755" lon="0.10351">
        <ele>69.83</ele>
        <time>2011-03-20T09:20:52Z</time>
      </trkpt>
      <trkpt lat="47.33758" lon="0.10346">
        <ele>69.35</ele>
        <time>2011-03-20T09:20:53Z</time>
      </trkpt>
      <trkpt lat="47.33761" lon="0.10341">
        <ele>69.83</ele>
        <time>2011-03-20T09:20:54Z</time>
      </trkpt>
      <trkpt lat="47.33765" lon="0.10336">
        <ele>69.35</ele>
        <time>2011-03-20T09:20:55Z</time>
      </trkpt>
      <trkpt lat="47.33768" lon="0.1033">
        <ele>69.83</ele>
        <time>2011-03-20T09:20:56Z</time>
      </trkpt>
      <trkpt lat="47.33787" lon="0.10301">
        <ele>70.31</ele>
        <time>2011-03-20T09:21:02Z</time>
      </trkpt>
      <trkpt lat="47.33806" lon="0.10283">
        <ele>70.79</ele>
        <time>2011-03-20T09:21:07Z</time>
      </trkpt>
      <trkpt lat="47.33808" lon="0.10279">
        <ele>70.79</ele>
        <time>2011-03-20T09:21:08Z</time>
      </trkpt>
      <trkpt lat="47.3381" lon="0.10275">
        <ele>70.79</ele>
        <time>2011-03-20T09:21:09Z</time>
      </trkpt>
      <trkpt lat="47.33814" lon="0.10271">
        <ele>70.79</ele>
        <time>2011-03-20T09:21:10Z</time>
      </trkpt>
      <trkpt lat="47.33818" lon="0.10266">
        <ele>70.79</ele>
        <time>2011-03-20T09:21:11Z</time>
      </trkpt>
      <trkpt lat="47.3384" lon="0.10241">
        <ele>71.76</ele>
        <time>2011-03-20T09:21:17Z</time>
      </trkpt>
      <trkpt lat="47.33844" lon="0.10237">
        <ele>71.76</ele>
        <time>2011-03-20T09:21:18Z</time>
      </trkpt>
      <trkpt lat="47.33852" lon="0.10229">
        <ele>71.76</ele>
        <time>2011-03-20T09:21:20Z</time>
      </trkpt>
      <trkpt lat="47.33867" lon="0.10211">
        <ele>70.79</ele>
        <time>2011-03-20T09:21:24Z</time>
      </trkpt>
      <trkpt lat="47.33875" lon="0.10201">
        <ele>71.76</ele>
        <time>2011-03-20T09:21:26Z</time>
      </trkpt>
      <trkpt lat="47.33878" lon="0.10196">
        <ele>72.24</ele>
        <time>2011-03-20T09:21:27Z</time>
      </trkpt>
      <trkpt lat="47.33882" lon="0.10191">
        <ele>71.76</ele>
        <time>2011-03-20T09:21:28Z</time>
      </trkpt>
      <trkpt lat="47.33886" lon="0.10187">
        <ele>71.76</ele>
        <time>2011-03-20T09:21:29Z</time>
      </trkpt>
      <trkpt lat="47.33889" lon="0.10182">
        <ele>71.76</ele>
        <time>2011-03-20T09:21:30Z</time>
      </trkpt>
      <trkpt lat="47.33891" lon="0.10176">
        <ele>71.76</ele>
        <time>2011-03-20T09:21:31Z</time>
      </trkpt>
      <trkpt lat="47.33893" lon="0.10171">
        <ele>72.24</ele>
        <time>2011-03-20T09:21:32Z</time>
      </trkpt>
      <trkpt lat="47.33895" lon="0.10165">
        <ele>72.24</ele>
        <time>2011-03-20T09:21:33Z</time>
      </trkpt>
      <trkpt lat="47.33897" lon="0.10159">
        <ele>72.24</ele>
        <time>2011-03-20T09:21:34Z</time>
      </trkpt>
      <trkpt lat="47.33897" lon="0.10153">
        <ele>71.76</ele>
        <time>2011-03-20T09:21:35Z</time>
      </trkpt>
      <trkpt lat="47.33898" lon="0.10147">
        <ele>72.24</ele>
        <time>2011-03-20T09:21:36Z</time>
      </trkpt>
      <trkpt lat="47.33898" lon="0.10142">
        <ele>72.24</ele>
        <time>2011-03-20T09:21:37Z</time>
      </trkpt>
      <trkpt lat="47.33898" lon="0.10136">
        <ele>71.76</ele>
        <time>2011-03-20T09:21:38Z</time>
      </trkpt>
      <trkpt lat="47.33898" lon="0.10131">
        <ele>71.76</ele>
        <time>2011-03-20T09:21:39Z</time>
      </trkpt>
      <trkpt lat="47.33892" lon="0.101">
        <ele>72.72</ele>
        <time>2011-03-20T09:21:46Z</time>
      </trkpt>
      <trkpt lat="47.33881" lon="0.10064">
        <ele>74.16</ele>
        <time>2011-03-20T09:21:53Z</time>
      </trkpt>
      <trkpt lat="47.33869" lon="0.10027">
        <ele>75.6</ele>
        <time>2011-03-20T09:22:01Z</time>
      </trkpt>
      <trkpt lat="47.33864" lon="0.09995">
        <ele>76.08</ele>
        <time>2011-03-20T09:22:08Z</time>
      </trkpt>
      <trkpt lat="47.33861" lon="0.0997">
        <ele>77.52</ele>
        <time>2011-03-20T09:22:14Z</time>
      </trkpt>
      <trkpt lat="47.33853" lon="0.09945">
        <ele>79.45</ele>
        <time>2011-03-20T09:22:21Z</time>
      </trkpt>
      <trkpt lat="47.33849" lon="0.09922">
        <ele>80.41</ele>
        <time>2011-03-20T09:22:27Z</time>
      </trkpt>
      <trkpt lat="47.33849" lon="0.09919">
        <ele>80.89</ele>
        <time>2011-03-20T09:22:28Z</time>
      </trkpt>
      <trkpt lat="47.33849" lon="0.09917">
        <ele>80.89</ele>
        <time>2011-03-20T09:22:29Z</time>
      </trkpt>
      <trkpt lat="47.33847" lon="0.09914">
        <ele>80.89</ele>
        <time>2011-03-20T09:22:30Z</time>
      </trkpt>
      <trkpt lat="47.33846" lon="0.0991">
        <ele>81.37</ele>
        <time>2011-03-20T09:22:31Z</time>
      </trkpt>
      <trkpt lat="47.33844" lon="0.09901">
        <ele>82.81</ele>
        <time>2011-03-20T09:22:34Z</time>
      </trkpt>
      <trkpt lat="47.33842" lon="0.09897">
        <ele>82.33</ele>
        <time>2011-03-20T09:22:35Z</time>
      </trkpt>
      <trkpt lat="47.33837" lon="0.09879">
        <ele>83.29</ele>
        <time>2011-03-20T09:22:41Z</time>
      </trkpt>
      <trkpt lat="47.3383" lon="0.09858">
        <ele>84.73</ele>
        <time>2011-03-20T09:22:47Z</time>
      </trkpt>
      <trkpt lat="47.33825" lon="0.09837">
        <ele>86.18</ele>
        <time>2011-03-20T09:22:53Z</time>
      </trkpt>
      <trkpt lat="47.33811" lon="0.0981">
        <ele>86.66</ele>
        <time>2011-03-20T09:23:00Z</time>
      </trkpt>
      <trkpt lat="47.33791" lon="0.0978">
        <ele>87.62</ele>
        <time>2011-03-20T09:23:08Z</time>
      </trkpt>
      <trkpt lat="47.33774" lon="0.09752">
        <ele>87.62</ele>
        <time>2011-03-20T09:23:15Z</time>
      </trkpt>
      <trkpt lat="47.33755" lon="0.09721">
        <ele>88.58</ele>
        <time>2011-03-20T09:23:22Z</time>
      </trkpt>
      <trkpt lat="47.33738" lon="0.09691">
        <ele>89.06</ele>
        <time>2011-03-20T09:23:29Z</time>
      </trkpt>
      <trkpt lat="47.33729" lon="0.09669">
        <ele>89.06</ele>
        <time>2011-03-20T09:23:34Z</time>
      </trkpt>
      <trkpt lat="47.33718" lon="0.09651">
        <ele>89.06</ele>
        <time>2011-03-20T09:23:39Z</time>
      </trkpt>
      <trkpt lat="47.33703" lon="0.09632">
        <ele>89.06</ele>
        <time>2011-03-20T09:23:44Z</time>
      </trkpt>
      <trkpt lat="47.33683" lon="0.09607">
        <ele>90.02</ele>
        <time>2011-03-20T09:23:50Z</time>
      </trkpt>
      <trkpt lat="47.33679" lon="0.09604">
        <ele>89.54</ele>
        <time>2011-03-20T09:23:51Z</time>
      </trkpt>
      <trkpt lat="47.33676" lon="0.09601">
        <ele>89.54</ele>
        <time>2011-03-20T09:23:52Z</time>
      </trkpt>
      <trkpt lat="47.33658" lon="0.09578">
        <ele>89.54</ele>
        <time>2011-03-20T09:23:58Z</time>
      </trkpt>
      <trkpt lat="47.33642" lon="0.09553">
        <ele>88.58</ele>
        <time>2011-03-20T09:24:03Z</time>
      </trkpt>
      <trkpt lat="47.33634" lon="0.09545">
        <ele>89.06</ele>
        <time>2011-03-20T09:24:05Z</time>
      </trkpt>
      <trkpt lat="47.33616" lon="0.09527">
        <ele>88.58</ele>
        <time>2011-03-20T09:24:10Z</time>
      </trkpt>
      <trkpt lat="47.33597" lon="0.09505">
        <ele>90.5</ele>
        <time>2011-03-20T09:24:16Z</time>
      </trkpt>
      <trkpt lat="47.33586" lon="0.09485">
        <ele>90.5</ele>
        <time>2011-03-20T09:24:21Z</time>
      </trkpt>
      <trkpt lat="47.33574" lon="0.09463">
        <ele>90.98</ele>
        <time>2011-03-20T09:24:27Z</time>
      </trkpt>
      <trkpt lat="47.33561" lon="0.09442">
        <ele>90.98</ele>
        <time>2011-03-20T09:24:32Z</time>
      </trkpt>
      <trkpt lat="47.33546" lon="0.09418">
        <ele>92.9</ele>
        <time>2011-03-20T09:24:38Z</time>
      </trkpt>
      <trkpt lat="47.3354" lon="0.09406">
        <ele>92.9</ele>
        <time>2011-03-20T09:24:41Z</time>
      </trkpt>
      <trkpt lat="47.33537" lon="0.09402">
        <ele>92.9</ele>
        <time>2011-03-20T09:24:42Z</time>
      </trkpt>
      <trkpt lat="47.33534" lon="0.09397">
        <ele>92.9</ele>
        <time>2011-03-20T09:24:43Z</time>
      </trkpt>
      <trkpt lat="47.33531" lon="0.09394">
        <ele>93.39</ele>
        <time>2011-03-20T09:24:44Z</time>
      </trkpt>
      <trkpt lat="47.33523" lon="0.09382">
        <ele>93.87</ele>
        <time>2011-03-20T09:24:48Z</time>
      </trkpt>
      <trkpt lat="47.33507" lon="0.09358">
        <ele>94.83</ele>
        <time>2011-03-20T09:24:54Z</time>
      </trkpt>
      <trkpt lat="47.33494" lon="0.09337">
        <ele>95.31</ele>
        <time>2011-03-20T09:25:00Z</time>
      </trkpt>
      <trkpt lat="47.33477" lon="0.09315">
        <ele>96.27</ele>
        <time>2011-03-20T09:25:07Z</time>
      </trkpt>
      <trkpt lat="47.33464" lon="0.09295">
        <ele>97.23</ele>
        <time>2011-03-20T09:25:12Z</time>
      </trkpt>
      <trkpt lat="47.33448" lon="0.09273">
        <ele>97.23</ele>
        <time>2011-03-20T09:25:18Z</time>
      </trkpt>
      <trkpt lat="47.33442" lon="0.09265">
        <ele>97.23</ele>
        <time>2011-03-20T09:25:20Z</time>
      </trkpt>
      <trkpt lat="47.33442" lon="0.09261">
        <ele>97.23</ele>
        <time>2011-03-20T09:25:21Z</time>
      </trkpt>
      <trkpt lat="47.33441" lon="0.09257">
        <ele>97.23</ele>
        <time>2011-03-20T09:25:22Z</time>
      </trkpt>
      <trkpt lat="47.33442" lon="0.09252">
        <ele>96.75</ele>
        <time>2011-03-20T09:25:23Z</time>
      </trkpt>
      <trkpt lat="47.33443" lon="0.09247">
        <ele>97.23</ele>
        <time>2011-03-20T09:25:24Z</time>
      </trkpt>
      <trkpt lat="47.3345" lon="0.09198">
        <ele>97.71</ele>
        <time>2011-03-20T09:25:32Z</time>
      </trkpt>
      <trkpt lat="47.33458" lon="0.09139">
        <ele>97.71</ele>
        <time>2011-03-20T09:25:41Z</time>
      </trkpt>
      <trkpt lat="47.33467" lon="0.09098">
        <ele>97.23</ele>
        <time>2011-03-20T09:25:47Z</time>
      </trkpt>
      <trkpt lat="47.33468" lon="0.09091">
        <ele>97.71</ele>
        <time>2011-03-20T09:25:48Z</time>
      </trkpt>
      <trkpt lat="47.33479" lon="0.09043">
        <ele>96.75</ele>
        <time>2011-03-20T09:25:55Z</time>
      </trkpt>
      <trkpt lat="47.33498" lon="0.08982">
        <ele>96.75</ele>
        <time>2011-03-20T09:26:04Z</time>
      </trkpt>
      <trkpt lat="47.33515" lon="0.08924">
        <ele>96.27</ele>
        <time>2011-03-20T09:26:12Z</time>
      </trkpt>
      <trkpt lat="47.33524" lon="0.08893">
        <ele>95.79</ele>
        <time>2011-03-20T09:26:16Z</time>
      </trkpt>
      <trkpt lat="47.3353" lon="0.08878">
        <ele>95.79</ele>
        <time>2011-03-20T09:26:18Z</time>
      </trkpt>
      <trkpt lat="47.33532" lon="0.0887">
        <ele>95.79</ele>
        <time>2011-03-20T09:26:19Z</time>
      </trkpt>
      <trkpt lat="47.33557" lon="0.08805">
        <ele>95.79</ele>
        <time>2011-03-20T09:26:28Z</time>
      </trkpt>
      <trkpt lat="47.33559" lon="0.08798">
        <ele>96.75</ele>
        <time>2011-03-20T09:26:29Z</time>
      </trkpt>
      <trkpt lat="47.33562" lon="0.08791">
        <ele>95.79</ele>
        <time>2011-03-20T09:26:30Z</time>
      </trkpt>
      <trkpt lat="47.33564" lon="0.08783">
        <ele>95.79</ele>
        <time>2011-03-20T09:26:31Z</time>
      </trkpt>
      <trkpt lat="47.33566" lon="0.08776">
        <ele>95.31</ele>
        <time>2011-03-20T09:26:32Z</time>
      </trkpt>
      <trkpt lat="47.33583" lon="0.08727">
        <ele>96.27</ele>
        <time>2011-03-20T09:26:39Z</time>
      </trkpt>
      <trkpt lat="47.33585" lon="0.0872">
        <ele>96.27</ele>
        <time>2011-03-20T09:26:40Z</time>
      </trkpt>
      <trkpt lat="47.3359" lon="0.08705">
        <ele>96.27</ele>
        <time>2011-03-20T09:26:42Z</time>
      </trkpt>
      <trkpt lat="47.33593" lon="0.08699">
        <ele>97.23</ele>
        <time>2011-03-20T09:26:43Z</time>
      </trkpt>
      <trkpt lat="47.33606" lon="0.08656">
        <ele>97.71</ele>
        <time>2011-03-20T09:26:49Z</time>
      </trkpt>
      <trkpt lat="47.33608" lon="0.08649">
        <ele>97.71</ele>
        <time>2011-03-20T09:26:50Z</time>
      </trkpt>
      <trkpt lat="47.3361" lon="0.08642">
        <ele>97.23</ele>
        <time>2011-03-20T09:26:51Z</time>
      </trkpt>
      <trkpt lat="47.33628" lon="0.08573">
        <ele>98.19</ele>
        <time>2011-03-20T09:27:01Z</time>
      </trkpt>
      <trkpt lat="47.33629" lon="0.08566">
        <ele>98.67</ele>
        <time>2011-03-20T09:27:02Z</time>
      </trkpt>
      <trkpt lat="47.33631" lon="0.08559">
        <ele>98.67</ele>
        <time>2011-03-20T09:27:03Z</time>
      </trkpt>
      <trkpt lat="47.33632" lon="0.08552">
        <ele>99.63</ele>
        <time>2011-03-20T09:27:04Z</time>
      </trkpt>
      <trkpt lat="47.33633" lon="0.08545">
        <ele>98.67</ele>
        <time>2011-03-20T09:27:05Z</time>
      </trkpt>
      <trkpt lat="47.33635" lon="0.08538">
        <ele>98.67</ele>
        <time>2011-03-20T09:27:06Z</time>
      </trkpt>
      <trkpt lat="47.33647" lon="0.08482">
        <ele>98.67</ele>
        <time>2011-03-20T09:27:14Z</time>
      </trkpt>
      <trkpt lat="47.33648" lon="0.08475">
        <ele>99.63</ele>
        <time>2011-03-20T09:27:15Z</time>
      </trkpt>
      <trkpt lat="47.33649" lon="0.08467">
        <ele>99.15</ele>
        <time>2011-03-20T09:27:16Z</time>
      </trkpt>
      <trkpt lat="47.33655" lon="0.08438">
        <ele>99.15</ele>
        <time>2011-03-20T09:27:20Z</time>
      </trkpt>
      <trkpt lat="47.33656" lon="0.08431">
        <ele>99.63</ele>
        <time>2011-03-20T09:27:21Z</time>
      </trkpt>
      <trkpt lat="47.33658" lon="0.08424">
        <ele>99.15</ele>
        <time>2011-03-20T09:27:22Z</time>
      </trkpt>
      <trkpt lat="47.3366" lon="0.08417">
        <ele>99.15</ele>
        <time>2011-03-20T09:27:23Z</time>
      </trkpt>
      <trkpt lat="47.33663" lon="0.0841">
        <ele>99.63</ele>
        <time>2011-03-20T09:27:24Z</time>
      </trkpt>
      <trkpt lat="47.33665" lon="0.08403">
        <ele>99.63</ele>
        <time>2011-03-20T09:27:25Z</time>
      </trkpt>
      <trkpt lat="47.33685" lon="0.08346">
        <ele>99.63</ele>
        <time>2011-03-20T09:27:33Z</time>
      </trkpt>
      <trkpt lat="47.33688" lon="0.08339">
        <ele>100.11</ele>
        <time>2011-03-20T09:27:34Z</time>
      </trkpt>
      <trkpt lat="47.3369" lon="0.08332">
        <ele>99.63</ele>
        <time>2011-03-20T09:27:35Z</time>
      </trkpt>
      <trkpt lat="47.33694" lon="0.08326">
        <ele>99.63</ele>
        <time>2011-03-20T09:27:36Z</time>
      </trkpt>
      <trkpt lat="47.33697" lon="0.0832">
        <ele>99.63</ele>
        <time>2011-03-20T09:27:37Z</time>
      </trkpt>
      <trkpt lat="47.337" lon="0.08314">
        <ele>101.08</ele>
        <time>2011-03-20T09:27:38Z</time>
      </trkpt>
      <trkpt lat="47.33702" lon="0.08308">
        <ele>100.11</ele>
        <time>2011-03-20T09:27:39Z</time>
      </trkpt>
      <trkpt lat="47.33725" lon="0.08254">
        <ele>100.11</ele>
        <time>2011-03-20T09:27:47Z</time>
      </trkpt>
      <trkpt lat="47.33749" lon="0.082">
        <ele>100.11</ele>
        <time>2011-03-20T09:27:55Z</time>
      </trkpt>
      <trkpt lat="47.33752" lon="0.08193">
        <ele>100.6</ele>
        <time>2011-03-20T09:27:56Z</time>
      </trkpt>
      <trkpt lat="47.33758" lon="0.0818">
        <ele>100.11</ele>
        <time>2011-03-20T09:27:58Z</time>
      </trkpt>
      <trkpt lat="47.33761" lon="0.08174">
        <ele>100.11</ele>
        <time>2011-03-20T09:27:59Z</time>
      </trkpt>
      <trkpt lat="47.33764" lon="0.08168">
        <ele>101.08</ele>
        <time>2011-03-20T09:28:00Z</time>
      </trkpt>
      <trkpt lat="47.3379" lon="0.08107">
        <ele>100.11</ele>
        <time>2011-03-20T09:28:09Z</time>
      </trkpt>
      <trkpt lat="47.33815" lon="0.08052">
        <ele>100.11</ele>
        <time>2011-03-20T09:28:17Z</time>
      </trkpt>
      <trkpt lat="47.33841" lon="0.08014">
        <ele>101.08</ele>
        <time>2011-03-20T09:28:24Z</time>
      </trkpt>
      <trkpt lat="47.3388" lon="0.07972">
        <ele>101.56</ele>
        <time>2011-03-20T09:28:33Z</time>
      </trkpt>
      <trkpt lat="47.33897" lon="0.07955">
        <ele>100.6</ele>
        <time>2011-03-20T09:28:37Z</time>
      </trkpt>
      <trkpt lat="47.33902" lon="0.0795">
        <ele>100.6</ele>
        <time>2011-03-20T09:28:38Z</time>
      </trkpt>
      <trkpt lat="47.33915" lon="0.07937">
        <ele>100.6</ele>
        <time>2011-03-20T09:28:41Z</time>
      </trkpt>
      <trkpt lat="47.33919" lon="0.07932">
        <ele>100.6</ele>
        <time>2011-03-20T09:28:42Z</time>
      </trkpt>
      <trkpt lat="47.33923" lon="0.07928">
        <ele>101.08</ele>
        <time>2011-03-20T09:28:43Z</time>
      </trkpt>
      <trkpt lat="47.33927" lon="0.07924">
        <ele>100.6</ele>
        <time>2011-03-20T09:28:44Z</time>
      </trkpt>
      <trkpt lat="47.33931" lon="0.0792">
        <ele>101.08</ele>
        <time>2011-03-20T09:28:45Z</time>
      </trkpt>
      <trkpt lat="47.33965" lon="0.07884">
        <ele>101.08</ele>
        <time>2011-03-20T09:28:53Z</time>
      </trkpt>
      <trkpt lat="47.34002" lon="0.0784">
        <ele>101.08</ele>
        <time>2011-03-20T09:29:02Z</time>
      </trkpt>
      <trkpt lat="47.34014" lon="0.07827">
        <ele>100.6</ele>
        <time>2011-03-20T09:29:05Z</time>
      </trkpt>
      <trkpt lat="47.34027" lon="0.07808">
        <ele>100.6</ele>
        <time>2011-03-20T09:29:09Z</time>
      </trkpt>
      <trkpt lat="47.34031" lon="0.07804">
        <ele>100.11</ele>
        <time>2011-03-20T09:29:10Z</time>
      </trkpt>
      <trkpt lat="47.34035" lon="0.07798">
        <ele>99.63</ele>
        <time>2011-03-20T09:29:11Z</time>
      </trkpt>
      <trkpt lat="47.34038" lon="0.07793">
        <ele>99.63</ele>
        <time>2011-03-20T09:29:12Z</time>
      </trkpt>
      <trkpt lat="47.34042" lon="0.07788">
        <ele>99.63</ele>
        <time>2011-03-20T09:29:13Z</time>
      </trkpt>
      <trkpt lat="47.34045" lon="0.07783">
        <ele>100.11</ele>
        <time>2011-03-20T09:29:14Z</time>
      </trkpt>
      <trkpt lat="47.34067" lon="0.0775">
        <ele>98.67</ele>
        <time>2011-03-20T09:29:21Z</time>
      </trkpt>
      <trkpt lat="47.34067" lon="0.07727">
        <ele>98.19</ele>
        <time>2011-03-20T09:29:27Z</time>
      </trkpt>
      <trkpt lat="47.34058" lon="0.07695">
        <ele>98.67</ele>
        <time>2011-03-20T09:29:33Z</time>
      </trkpt>
      <trkpt lat="47.34057" lon="0.0769">
        <ele>97.71</ele>
        <time>2011-03-20T09:29:34Z</time>
      </trkpt>
      <trkpt lat="47.34058" lon="0.07684">
        <ele>98.19</ele>
        <time>2011-03-20T09:29:35Z</time>
      </trkpt>
      <trkpt lat="47.3406" lon="0.07679">
        <ele>98.19</ele>
        <time>2011-03-20T09:29:36Z</time>
      </trkpt>
      <trkpt lat="47.34063" lon="0.07674">
        <ele>97.71</ele>
        <time>2011-03-20T09:29:37Z</time>
      </trkpt>
      <trkpt lat="47.34066" lon="0.07669">
        <ele>97.23</ele>
        <time>2011-03-20T09:29:38Z</time>
      </trkpt>
      <trkpt lat="47.34103" lon="0.07618">
        <ele>95.79</ele>
        <time>2011-03-20T09:29:48Z</time>
      </trkpt>
      <trkpt lat="47.34136" lon="0.07574">
        <ele>96.27</ele>
        <time>2011-03-20T09:29:57Z</time>
      </trkpt>
      <trkpt lat="47.34153" lon="0.07549">
        <ele>97.23</ele>
        <time>2011-03-20T09:30:02Z</time>
      </trkpt>
      <trkpt lat="47.34186" lon="0.07506">
        <ele>97.23</ele>
        <time>2011-03-20T09:30:11Z</time>
      </trkpt>
      <trkpt lat="47.34202" lon="0.07492">
        <ele>96.75</ele>
        <time>2011-03-20T09:30:15Z</time>
      </trkpt>
      <trkpt lat="47.34206" lon="0.07489">
        <ele>97.23</ele>
        <time>2011-03-20T09:30:16Z</time>
      </trkpt>
      <trkpt lat="47.34211" lon="0.07488">
        <ele>97.71</ele>
        <time>2011-03-20T09:30:17Z</time>
      </trkpt>
      <trkpt lat="47.34216" lon="0.07485">
        <ele>98.19</ele>
        <time>2011-03-20T09:30:18Z</time>
      </trkpt>
      <trkpt lat="47.3422" lon="0.07483">
        <ele>97.71</ele>
        <time>2011-03-20T09:30:19Z</time>
      </trkpt>
      <trkpt lat="47.34243" lon="0.07475">
        <ele>97.23</ele>
        <time>2011-03-20T09:30:24Z</time>
      </trkpt>
      <trkpt lat="47.34246" lon="0.07473">
        <ele>97.71</ele>
        <time>2011-03-20T09:30:25Z</time>
      </trkpt>
      <trkpt lat="47.34249" lon="0.07469">
        <ele>97.71</ele>
        <time>2011-03-20T09:30:26Z</time>
      </trkpt>
      <trkpt lat="47.3425" lon="0.07463">
        <ele>98.19</ele>
        <time>2011-03-20T09:30:27Z</time>
      </trkpt>
      <trkpt lat="47.34249" lon="0.07458">
        <ele>97.71</ele>
        <time>2011-03-20T09:30:28Z</time>
      </trkpt>
      <trkpt lat="47.34247" lon="0.07452">
        <ele>97.23</ele>
        <time>2011-03-20T09:30:29Z</time>
      </trkpt>
      <trkpt lat="47.34246" lon="0.07446">
        <ele>97.23</ele>
        <time>2011-03-20T09:30:30Z</time>
      </trkpt>
      <trkpt lat="47.34245" lon="0.0744">
        <ele>97.71</ele>
        <time>2011-03-20T09:30:31Z</time>
      </trkpt>
      <trkpt lat="47.34245" lon="0.07433">
        <ele>96.75</ele>
        <time>2011-03-20T09:30:32Z</time>
      </trkpt>
      <trkpt lat="47.34245" lon="0.07426">
        <ele>96.27</ele>
        <time>2011-03-20T09:30:33Z</time>
      </trkpt>
      <trkpt lat="47.34247" lon="0.07419">
        <ele>96.75</ele>
        <time>2011-03-20T09:30:34Z</time>
      </trkpt>
      <trkpt lat="47.34251" lon="0.07413">
        <ele>97.23</ele>
        <time>2011-03-20T09:30:35Z</time>
      </trkpt>
      <trkpt lat="47.34254" lon="0.07407">
        <ele>96.75</ele>
        <time>2011-03-20T09:30:36Z</time>
      </trkpt>
      <trkpt lat="47.34258" lon="0.07402">
        <ele>97.23</ele>
        <time>2011-03-20T09:30:37Z</time>
      </trkpt>
      <trkpt lat="47.34262" lon="0.07397">
        <ele>97.71</ele>
        <time>2011-03-20T09:30:38Z</time>
      </trkpt>
      <trkpt lat="47.34266" lon="0.07392">
        <ele>97.23</ele>
        <time>2011-03-20T09:30:39Z</time>
      </trkpt>
      <trkpt lat="47.3427" lon="0.07387">
        <ele>97.71</ele>
        <time>2011-03-20T09:30:40Z</time>
      </trkpt>
      <trkpt lat="47.34274" lon="0.07382">
        <ele>97.71</ele>
        <time>2011-03-20T09:30:41Z</time>
      </trkpt>
      <trkpt lat="47.34278" lon="0.07377">
        <ele>97.71</ele>
        <time>2011-03-20T09:30:42Z</time>
      </trkpt>
      <trkpt lat="47.34318" lon="0.07325">
        <ele>97.23</ele>
        <time>2011-03-20T09:30:52Z</time>
      </trkpt>
      <trkpt lat="47.34349" lon="0.07283">
        <ele>97.71</ele>
        <time>2011-03-20T09:31:00Z</time>
      </trkpt>
      <trkpt lat="47.3437" lon="0.07254">
        <ele>97.71</ele>
        <time>2011-03-20T09:31:06Z</time>
      </trkpt>
      <trkpt lat="47.3438" lon="0.0724">
        <ele>97.23</ele>
        <time>2011-03-20T09:31:09Z</time>
      </trkpt>
      <trkpt lat="47.34387" lon="0.07233">
        <ele>97.71</ele>
        <time>2011-03-20T09:31:11Z</time>
      </trkpt>
      <trkpt lat="47.34391" lon="0.07232">
        <ele>96.75</ele>
        <time>2011-03-20T09:31:12Z</time>
      </trkpt>
      <trkpt lat="47.34396" lon="0.07232">
        <ele>97.23</ele>
        <time>2011-03-20T09:31:13Z</time>
      </trkpt>
      <trkpt lat="47.34401" lon="0.07233">
        <ele>97.23</ele>
        <time>2011-03-20T09:31:14Z</time>
      </trkpt>
      <trkpt lat="47.34406" lon="0.07234">
        <ele>97.71</ele>
        <time>2011-03-20T09:31:15Z</time>
      </trkpt>
      <trkpt lat="47.34442" lon="0.07241">
        <ele>97.23</ele>
        <time>2011-03-20T09:31:22Z</time>
      </trkpt>
      <trkpt lat="47.34447" lon="0.07242">
        <ele>96.27</ele>
        <time>2011-03-20T09:31:23Z</time>
      </trkpt>
      <trkpt lat="47.34452" lon="0.07243">
        <ele>96.75</ele>
        <time>2011-03-20T09:31:24Z</time>
      </trkpt>
      <trkpt lat="47.34489" lon="0.07244">
        <ele>96.27</ele>
        <time>2011-03-20T09:31:31Z</time>
      </trkpt>
      <trkpt lat="47.34516" lon="0.07244">
        <ele>96.27</ele>
        <time>2011-03-20T09:31:37Z</time>
      </trkpt>
      <trkpt lat="47.3454" lon="0.07248">
        <ele>96.27</ele>
        <time>2011-03-20T09:31:42Z</time>
      </trkpt>
      <trkpt lat="47.34545" lon="0.0725">
        <ele>96.75</ele>
        <time>2011-03-20T09:31:43Z</time>
      </trkpt>
      <trkpt lat="47.34557" lon="0.07253">
        <ele>97.23</ele>
        <time>2011-03-20T09:31:46Z</time>
      </trkpt>
      <trkpt lat="47.34562" lon="0.07255">
        <ele>96.75</ele>
        <time>2011-03-20T09:31:47Z</time>
      </trkpt>
      <trkpt lat="47.34572" lon="0.07258">
        <ele>96.75</ele>
        <time>2011-03-20T09:31:49Z</time>
      </trkpt>
      <trkpt lat="47.34577" lon="0.07259">
        <ele>97.23</ele>
        <time>2011-03-20T09:31:50Z</time>
      </trkpt>
      <trkpt lat="47.34614" lon="0.07273">
        <ele>98.19</ele>
        <time>2011-03-20T09:31:58Z</time>
      </trkpt>
      <trkpt lat="47.34635" lon="0.07277">
        <ele>98.67</ele>
        <time>2011-03-20T09:32:03Z</time>
      </trkpt>
      <trkpt lat="47.34653" lon="0.07278">
        <ele>99.15</ele>
        <time>2011-03-20T09:32:07Z</time>
      </trkpt>
      <trkpt lat="47.34677" lon="0.07284">
        <ele>98.67</ele>
        <time>2011-03-20T09:32:13Z</time>
      </trkpt>
      <trkpt lat="47.347" lon="0.07286">
        <ele>97.71</ele>
        <time>2011-03-20T09:32:19Z</time>
      </trkpt>
      <trkpt lat="47.34709" lon="0.07288">
        <ele>99.15</ele>
        <time>2011-03-20T09:32:23Z</time>
      </trkpt>
      <trkpt lat="47.34709" lon="0.07289">
        <ele>98.67</ele>
        <time>2011-03-20T09:32:41Z</time>
      </trkpt>
      <trkpt lat="47.34715" lon="0.07289">
        <ele>98.19</ele>
        <time>2011-03-20T09:33:06Z</time>
      </trkpt>
      <trkpt lat="47.34722" lon="0.07288">
        <ele>98.19</ele>
        <time>2011-03-20T09:33:09Z</time>
      </trkpt>
      <trkpt lat="47.34723" lon="0.07286">
        <ele>98.67</ele>
        <time>2011-03-20T09:33:10Z</time>
      </trkpt>
      <trkpt lat="47.34732" lon="0.07274">
        <ele>98.67</ele>
        <time>2011-03-20T09:33:14Z</time>
      </trkpt>
      <trkpt lat="47.34734" lon="0.0727">
        <ele>98.19</ele>
        <time>2011-03-20T09:33:15Z</time>
      </trkpt>
      <trkpt lat="47.34735" lon="0.07265">
        <ele>98.67</ele>
        <time>2011-03-20T09:33:16Z</time>
      </trkpt>
      <trkpt lat="47.34735" lon="0.0726">
        <ele>98.19</ele>
        <time>2011-03-20T09:33:17Z</time>
      </trkpt>
      <trkpt lat="47.34738" lon="0.07255">
        <ele>98.19</ele>
        <time>2011-03-20T09:33:18Z</time>
      </trkpt>
      <trkpt lat="47.34747" lon="0.07244">
        <ele>99.15</ele>
        <time>2011-03-20T09:33:20Z</time>
      </trkpt>
      <trkpt lat="47.34751" lon="0.07239">
        <ele>98.19</ele>
        <time>2011-03-20T09:33:21Z</time>
      </trkpt>
      <trkpt lat="47.34756" lon="0.07234">
        <ele>97.71</ele>
        <time>2011-03-20T09:33:22Z</time>
      </trkpt>
      <trkpt lat="47.3476" lon="0.0723">
        <ele>97.71</ele>
        <time>2011-03-20T09:33:23Z</time>
      </trkpt>
      <trkpt lat="47.34764" lon="0.07225">
        <ele>97.71</ele>
        <time>2011-03-20T09:33:24Z</time>
      </trkpt>
      <trkpt lat="47.34768" lon="0.07221">
        <ele>98.19</ele>
        <time>2011-03-20T09:33:25Z</time>
      </trkpt>
      <trkpt lat="47.34779" lon="0.0721">
        <ele>97.71</ele>
        <time>2011-03-20T09:33:28Z</time>
      </trkpt>
      <trkpt lat="47.34783" lon="0.07206">
        <ele>97.23</ele>
        <time>2011-03-20T09:33:29Z</time>
      </trkpt>
      <trkpt lat="47.34786" lon="0.07203">
        <ele>96.75</ele>
        <time>2011-03-20T09:33:30Z</time>
      </trkpt>
      <trkpt lat="47.34796" lon="0.0719">
        <ele>96.27</ele>
        <time>2011-03-20T09:33:33Z</time>
      </trkpt>
      <trkpt lat="47.34799" lon="0.07184">
        <ele>96.75</ele>
        <time>2011-03-20T09:33:34Z</time>
      </trkpt>
      <trkpt lat="47.34807" lon="0.07165">
        <ele>96.75</ele>
        <time>2011-03-20T09:33:37Z</time>
      </trkpt>
      <trkpt lat="47.34818" lon="0.07119">
        <ele>96.27</ele>
        <time>2011-03-20T09:33:44Z</time>
      </trkpt>
      <trkpt lat="47.34821" lon="0.07069">
        <ele>94.83</ele>
        <time>2011-03-20T09:33:51Z</time>
      </trkpt>
      <trkpt lat="47.34824" lon="0.07048">
        <ele>94.35</ele>
        <time>2011-03-20T09:33:54Z</time>
      </trkpt>
      <trkpt lat="47.34839" lon="0.06998">
        <ele>93.87</ele>
        <time>2011-03-20T09:34:01Z</time>
      </trkpt>
      <trkpt lat="47.34849" lon="0.06967">
        <ele>92.42</ele>
        <time>2011-03-20T09:34:05Z</time>
      </trkpt>
      <trkpt lat="47.34855" lon="0.06953">
        <ele>91.94</ele>
        <time>2011-03-20T09:34:07Z</time>
      </trkpt>
      <trkpt lat="47.34858" lon="0.06946">
        <ele>91.94</ele>
        <time>2011-03-20T09:34:08Z</time>
      </trkpt>
      <trkpt lat="47.34888" lon="0.069">
        <ele>90.5</ele>
        <time>2011-03-20T09:34:14Z</time>
      </trkpt>
      <trkpt lat="47.34893" lon="0.06892">
        <ele>90.02</ele>
        <time>2011-03-20T09:34:15Z</time>
      </trkpt>
      <trkpt lat="47.349" lon="0.06885">
        <ele>89.06</ele>
        <time>2011-03-20T09:34:16Z</time>
      </trkpt>
      <trkpt lat="47.34907" lon="0.06878">
        <ele>88.58</ele>
        <time>2011-03-20T09:34:17Z</time>
      </trkpt>
      <trkpt lat="47.34929" lon="0.06853">
        <ele>88.1</ele>
        <time>2011-03-20T09:34:21Z</time>
      </trkpt>
      <trkpt lat="47.34935" lon="0.06845">
        <ele>87.14</ele>
        <time>2011-03-20T09:34:22Z</time>
      </trkpt>
      <trkpt lat="47.3494" lon="0.06836">
        <ele>86.66</ele>
        <time>2011-03-20T09:34:23Z</time>
      </trkpt>
      <trkpt lat="47.34946" lon="0.06827">
        <ele>85.69</ele>
        <time>2011-03-20T09:34:24Z</time>
      </trkpt>
      <trkpt lat="47.34952" lon="0.06819">
        <ele>85.69</ele>
        <time>2011-03-20T09:34:25Z</time>
      </trkpt>
      <trkpt lat="47.34959" lon="0.06811">
        <ele>85.21</ele>
        <time>2011-03-20T09:34:26Z</time>
      </trkpt>
      <trkpt lat="47.34967" lon="0.06804">
        <ele>83.77</ele>
        <time>2011-03-20T09:34:27Z</time>
      </trkpt>
      <trkpt lat="47.34973" lon="0.06796">
        <ele>83.29</ele>
        <time>2011-03-20T09:34:28Z</time>
      </trkpt>
      <trkpt lat="47.34979" lon="0.06787">
        <ele>82.81</ele>
        <time>2011-03-20T09:34:29Z</time>
      </trkpt>
      <trkpt lat="47.34984" lon="0.06777">
        <ele>82.81</ele>
        <time>2011-03-20T09:34:30Z</time>
      </trkpt>
      <trkpt lat="47.34988" lon="0.06767">
        <ele>81.85</ele>
        <time>2011-03-20T09:34:31Z</time>
      </trkpt>
      <trkpt lat="47.34993" lon="0.06757">
        <ele>81.37</ele>
        <time>2011-03-20T09:34:32Z</time>
      </trkpt>
      <trkpt lat="47.35011" lon="0.06728">
        <ele>80.41</ele>
        <time>2011-03-20T09:34:35Z</time>
      </trkpt>
      <trkpt lat="47.35021" lon="0.06708">
        <ele>79.45</ele>
        <time>2011-03-20T09:34:37Z</time>
      </trkpt>
      <trkpt lat="47.35036" lon="0.06662">
        <ele>77.04</ele>
        <time>2011-03-20T09:34:41Z</time>
      </trkpt>
      <trkpt lat="47.35043" lon="0.06637">
        <ele>74.64</ele>
        <time>2011-03-20T09:34:43Z</time>
      </trkpt>
      <trkpt lat="47.35046" lon="0.06623">
        <ele>74.16</ele>
        <time>2011-03-20T09:34:44Z</time>
      </trkpt>
      <trkpt lat="47.35048" lon="0.06608">
        <ele>72.24</ele>
        <time>2011-03-20T09:34:45Z</time>
      </trkpt>
      <trkpt lat="47.35048" lon="0.06592">
        <ele>72.24</ele>
        <time>2011-03-20T09:34:46Z</time>
      </trkpt>
      <trkpt lat="47.35046" lon="0.06576">
        <ele>69.83</ele>
        <time>2011-03-20T09:34:47Z</time>
      </trkpt>
      <trkpt lat="47.35044" lon="0.06545">
        <ele>67.43</ele>
        <time>2011-03-20T09:34:49Z</time>
      </trkpt>
      <trkpt lat="47.35045" lon="0.06531">
        <ele>67.43</ele>
        <time>2011-03-20T09:34:50Z</time>
      </trkpt>
      <trkpt lat="47.35048" lon="0.06519">
        <ele>66.95</ele>
        <time>2011-03-20T09:34:51Z</time>
      </trkpt>
      <trkpt lat="47.35052" lon="0.06496">
        <ele>65.99</ele>
        <time>2011-03-20T09:34:53Z</time>
      </trkpt>
      <trkpt lat="47.35056" lon="0.06462">
        <ele>65.51</ele>
        <time>2011-03-20T09:34:56Z</time>
      </trkpt>
      <trkpt lat="47.35058" lon="0.06452">
        <ele>65.03</ele>
        <time>2011-03-20T09:34:57Z</time>
      </trkpt>
      <trkpt lat="47.35064" lon="0.06421">
        <ele>64.55</ele>
        <time>2011-03-20T09:35:00Z</time>
      </trkpt>
      <trkpt lat="47.35066" lon="0.06412">
        <ele>63.58</ele>
        <time>2011-03-20T09:35:01Z</time>
      </trkpt>
      <trkpt lat="47.35068" lon="0.06404">
        <ele>63.58</ele>
        <time>2011-03-20T09:35:02Z</time>
      </trkpt>
      <trkpt lat="47.35074" lon="0.06367">
        <ele>60.7</ele>
        <time>2011-03-20T09:35:08Z</time>
      </trkpt>
      <trkpt lat="47.35073" lon="0.06363">
        <ele>61.18</ele>
        <time>2011-03-20T09:35:09Z</time>
      </trkpt>
      <trkpt lat="47.35071" lon="0.0636">
        <ele>60.7</ele>
        <time>2011-03-20T09:35:10Z</time>
      </trkpt>
      <trkpt lat="47.35055" lon="0.0633">
        <ele>61.18</ele>
        <time>2011-03-20T09:35:17Z</time>
      </trkpt>
      <trkpt lat="47.35045" lon="0.06306">
        <ele>60.22</ele>
        <time>2011-03-20T09:35:21Z</time>
      </trkpt>
      <trkpt lat="47.35034" lon="0.06263">
        <ele>59.74</ele>
        <time>2011-03-20T09:35:27Z</time>
      </trkpt>
      <trkpt lat="47.35012" lon="0.06198">
        <ele>60.22</ele>
        <time>2011-03-20T09:35:35Z</time>
      </trkpt>
      <trkpt lat="47.35009" lon="0.06189">
        <ele>59.74</ele>
        <time>2011-03-20T09:35:36Z</time>
      </trkpt>
      <trkpt lat="47.35006" lon="0.06181">
        <ele>59.74</ele>
        <time>2011-03-20T09:35:37Z</time>
      </trkpt>
      <trkpt lat="47.34993" lon="0.06138">
        <ele>59.26</ele>
        <time>2011-03-20T09:35:42Z</time>
      </trkpt>
      <trkpt lat="47.34987" lon="0.06095">
        <ele>59.26</ele>
        <time>2011-03-20T09:35:47Z</time>
      </trkpt>
      <trkpt lat="47.34986" lon="0.06086">
        <ele>59.26</ele>
        <time>2011-03-20T09:35:48Z</time>
      </trkpt>
      <trkpt lat="47.34985" lon="0.06078">
        <ele>60.22</ele>
        <time>2011-03-20T09:35:49Z</time>
      </trkpt>
      <trkpt lat="47.34969" lon="0.06008">
        <ele>59.74</ele>
        <time>2011-03-20T09:35:58Z</time>
      </trkpt>
      <trkpt lat="47.34954" lon="0.05944">
        <ele>58.78</ele>
        <time>2011-03-20T09:36:06Z</time>
      </trkpt>
      <trkpt lat="47.34938" lon="0.05898">
        <ele>59.26</ele>
        <time>2011-03-20T09:36:12Z</time>
      </trkpt>
      <trkpt lat="47.34935" lon="0.0589">
        <ele>58.78</ele>
        <time>2011-03-20T09:36:13Z</time>
      </trkpt>
      <trkpt lat="47.34929" lon="0.05874">
        <ele>57.34</ele>
        <time>2011-03-20T09:36:15Z</time>
      </trkpt>
      <trkpt lat="47.34895" lon="0.05813">
        <ele>56.86</ele>
        <time>2011-03-20T09:36:23Z</time>
      </trkpt>
      <trkpt lat="47.34885" lon="0.05799">
        <ele>56.37</ele>
        <time>2011-03-20T09:36:25Z</time>
      </trkpt>
      <trkpt lat="47.34879" lon="0.05793">
        <ele>56.86</ele>
        <time>2011-03-20T09:36:26Z</time>
      </trkpt>
      <trkpt lat="47.34841" lon="0.05758">
        <ele>56.37</ele>
        <time>2011-03-20T09:36:33Z</time>
      </trkpt>
      <trkpt lat="47.34802" lon="0.0573">
        <ele>56.37</ele>
        <time>2011-03-20T09:36:40Z</time>
      </trkpt>
      <trkpt lat="47.34771" lon="0.05707">
        <ele>56.37</ele>
        <time>2011-03-20T09:36:46Z</time>
      </trkpt>
      <trkpt lat="47.34747" lon="0.05689">
        <ele>56.86</ele>
        <time>2011-03-20T09:36:51Z</time>
      </trkpt>
      <trkpt lat="47.34738" lon="0.05681">
        <ele>56.86</ele>
        <time>2011-03-20T09:36:53Z</time>
      </trkpt>
      <trkpt lat="47.34729" lon="0.05676">
        <ele>55.89</ele>
        <time>2011-03-20T09:36:55Z</time>
      </trkpt>
      <trkpt lat="47.34725" lon="0.05673">
        <ele>55.89</ele>
        <time>2011-03-20T09:36:56Z</time>
      </trkpt>
      <trkpt lat="47.34705" lon="0.05654">
        <ele>56.37</ele>
        <time>2011-03-20T09:37:01Z</time>
      </trkpt>
      <trkpt lat="47.34684" lon="0.05628">
        <ele>56.37</ele>
        <time>2011-03-20T09:37:07Z</time>
      </trkpt>
      <trkpt lat="47.34667" lon="0.05614">
        <ele>56.37</ele>
        <time>2011-03-20T09:37:11Z</time>
      </trkpt>
      <trkpt lat="47.34663" lon="0.0561">
        <ele>57.34</ele>
        <time>2011-03-20T09:37:12Z</time>
      </trkpt>
      <trkpt lat="47.34658" lon="0.05606">
        <ele>56.37</ele>
        <time>2011-03-20T09:37:13Z</time>
      </trkpt>
      <trkpt lat="47.34654" lon="0.05603">
        <ele>56.86</ele>
        <time>2011-03-20T09:37:14Z</time>
      </trkpt>
      <trkpt lat="47.3465" lon="0.056">
        <ele>56.86</ele>
        <time>2011-03-20T09:37:15Z</time>
      </trkpt>
      <trkpt lat="47.34645" lon="0.05597">
        <ele>57.34</ele>
        <time>2011-03-20T09:37:16Z</time>
      </trkpt>
      <trkpt lat="47.34641" lon="0.05594">
        <ele>57.34</ele>
        <time>2011-03-20T09:37:17Z</time>
      </trkpt>
      <trkpt lat="47.34633" lon="0.05588">
        <ele>57.34</ele>
        <time>2011-03-20T09:37:19Z</time>
      </trkpt>
      <trkpt lat="47.34628" lon="0.05585">
        <ele>57.34</ele>
        <time>2011-03-20T09:37:20Z</time>
      </trkpt>
      <trkpt lat="47.34624" lon="0.05582">
        <ele>57.34</ele>
        <time>2011-03-20T09:37:21Z</time>
      </trkpt>
      <trkpt lat="47.34613" lon="0.05571">
        <ele>56.86</ele>
        <time>2011-03-20T09:37:24Z</time>
      </trkpt>
      <trkpt lat="47.34612" lon="0.05565">
        <ele>57.34</ele>
        <time>2011-03-20T09:37:25Z</time>
      </trkpt>
      <trkpt lat="47.34613" lon="0.05552">
        <ele>57.82</ele>
        <time>2011-03-20T09:37:27Z</time>
      </trkpt>
      <trkpt lat="47.34614" lon="0.05539">
        <ele>56.37</ele>
        <time>2011-03-20T09:37:29Z</time>
      </trkpt>
      <trkpt lat="47.34616" lon="0.05525">
        <ele>56.86</ele>
        <time>2011-03-20T09:37:31Z</time>
      </trkpt>
      <trkpt lat="47.34616" lon="0.05517">
        <ele>56.37</ele>
        <time>2011-03-20T09:37:32Z</time>
      </trkpt>
      <trkpt lat="47.34616" lon="0.05508">
        <ele>56.37</ele>
        <time>2011-03-20T09:37:33Z</time>
      </trkpt>
      <trkpt lat="47.34623" lon="0.05465">
        <ele>55.41</ele>
        <time>2011-03-20T09:37:38Z</time>
      </trkpt>
      <trkpt lat="47.34625" lon="0.05415">
        <ele>53.97</ele>
        <time>2011-03-20T09:37:44Z</time>
      </trkpt>
      <trkpt lat="47.34615" lon="0.05396">
        <ele>53.97</ele>
        <time>2011-03-20T09:37:49Z</time>
      </trkpt>
      <trkpt lat="47.34605" lon="0.05392">
        <ele>53.01</ele>
        <time>2011-03-20T09:37:54Z</time>
      </trkpt>
      <trkpt lat="47.34588" lon="0.05394">
        <ele>54.45</ele>
        <time>2011-03-20T09:38:01Z</time>
      </trkpt>
      <trkpt lat="47.34571" lon="0.05397">
        <ele>54.45</ele>
        <time>2011-03-20T09:38:06Z</time>
      </trkpt>
      <trkpt lat="47.34554" lon="0.054">
        <ele>54.93</ele>
        <time>2011-03-20T09:38:11Z</time>
      </trkpt>
      <trkpt lat="47.34528" lon="0.05411">
        <ele>56.86</ele>
        <time>2011-03-20T09:38:18Z</time>
      </trkpt>
      <trkpt lat="47.3451" lon="0.05426">
        <ele>56.86</ele>
        <time>2011-03-20T09:38:23Z</time>
      </trkpt>
      <trkpt lat="47.34493" lon="0.05451">
        <ele>56.86</ele>
        <time>2011-03-20T09:38:29Z</time>
      </trkpt>
      <trkpt lat="47.34483" lon="0.05461">
        <ele>57.34</ele>
        <time>2011-03-20T09:38:32Z</time>
      </trkpt>
      <trkpt lat="47.34469" lon="0.05457">
        <ele>56.37</ele>
        <time>2011-03-20T09:38:36Z</time>
      </trkpt>
      <trkpt lat="47.34446" lon="0.05435">
        <ele>56.86</ele>
        <time>2011-03-20T09:38:42Z</time>
      </trkpt>
      <trkpt lat="47.3442" lon="0.05411">
        <ele>55.89</ele>
        <time>2011-03-20T09:38:48Z</time>
      </trkpt>
      <trkpt lat="47.34412" lon="0.05401">
        <ele>55.89</ele>
        <time>2011-03-20T09:38:50Z</time>
      </trkpt>
      <trkpt lat="47.34408" lon="0.05396">
        <ele>55.41</ele>
        <time>2011-03-20T09:38:51Z</time>
      </trkpt>
      <trkpt lat="47.34383" lon="0.05358">
        <ele>56.37</ele>
        <time>2011-03-20T09:38:58Z</time>
      </trkpt>
      <trkpt lat="47.34377" lon="0.05345">
        <ele>56.86</ele>
        <time>2011-03-20T09:39:00Z</time>
      </trkpt>
      <trkpt lat="47.34359" lon="0.05308">
        <ele>55.41</ele>
        <time>2011-03-20T09:39:06Z</time>
      </trkpt>
      <trkpt lat="47.34339" lon="0.05263">
        <ele>55.89</ele>
        <time>2011-03-20T09:39:13Z</time>
      </trkpt>
      <trkpt lat="47.34337" lon="0.05256">
        <ele>56.37</ele>
        <time>2011-03-20T09:39:14Z</time>
      </trkpt>
      <trkpt lat="47.34321" lon="0.05217">
        <ele>57.34</ele>
        <time>2011-03-20T09:39:20Z</time>
      </trkpt>
      <trkpt lat="47.34318" lon="0.05211">
        <ele>57.34</ele>
        <time>2011-03-20T09:39:21Z</time>
      </trkpt>
      <trkpt lat="47.34315" lon="0.05205">
        <ele>57.34</ele>
        <time>2011-03-20T09:39:22Z</time>
      </trkpt>
      <trkpt lat="47.3429" lon="0.05163">
        <ele>58.78</ele>
        <time>2011-03-20T09:39:30Z</time>
      </trkpt>
      <trkpt lat="47.34266" lon="0.05126">
        <ele>59.74</ele>
        <time>2011-03-20T09:39:37Z</time>
      </trkpt>
      <trkpt lat="47.34258" lon="0.05113">
        <ele>58.3</ele>
        <time>2011-03-20T09:39:39Z</time>
      </trkpt>
      <trkpt lat="47.34239" lon="0.0509">
        <ele>57.34</ele>
        <time>2011-03-20T09:39:43Z</time>
      </trkpt>
      <trkpt lat="47.34221" lon="0.05064">
        <ele>57.34</ele>
        <time>2011-03-20T09:39:47Z</time>
      </trkpt>
      <trkpt lat="47.3421" lon="0.05042">
        <ele>56.86</ele>
        <time>2011-03-20T09:39:50Z</time>
      </trkpt>
      <trkpt lat="47.34191" lon="0.04984">
        <ele>56.86</ele>
        <time>2011-03-20T09:39:57Z</time>
      </trkpt>
      <trkpt lat="47.34171" lon="0.04939">
        <ele>56.86</ele>
        <time>2011-03-20T09:40:03Z</time>
      </trkpt>
      <trkpt lat="47.34144" lon="0.04893">
        <ele>57.34</ele>
        <time>2011-03-20T09:40:10Z</time>
      </trkpt>
      <trkpt lat="47.34114" lon="0.04845">
        <ele>56.86</ele>
        <time>2011-03-20T09:40:18Z</time>
      </trkpt>
      <trkpt lat="47.34098" lon="0.04819">
        <ele>55.41</ele>
        <time>2011-03-20T09:40:22Z</time>
      </trkpt>
      <trkpt lat="47.34085" lon="0.04801">
        <ele>55.89</ele>
        <time>2011-03-20T09:40:25Z</time>
      </trkpt>
      <trkpt lat="47.34053" lon="0.04762">
        <ele>54.45</ele>
        <time>2011-03-20T09:40:32Z</time>
      </trkpt>
      <trkpt lat="47.34048" lon="0.04757">
        <ele>53.97</ele>
        <time>2011-03-20T09:40:33Z</time>
      </trkpt>
      <trkpt lat="47.34043" lon="0.04752">
        <ele>53.97</ele>
        <time>2011-03-20T09:40:34Z</time>
      </trkpt>
      <trkpt lat="47.34014" lon="0.04724">
        <ele>53.49</ele>
        <time>2011-03-20T09:40:40Z</time>
      </trkpt>
      <trkpt lat="47.33996" lon="0.04707">
        <ele>54.45</ele>
        <time>2011-03-20T09:40:44Z</time>
      </trkpt>
      <trkpt lat="47.33992" lon="0.04704">
        <ele>53.97</ele>
        <time>2011-03-20T09:40:45Z</time>
      </trkpt>
      <trkpt lat="47.33979" lon="0.0469">
        <ele>54.45</ele>
        <time>2011-03-20T09:40:48Z</time>
      </trkpt>
      <trkpt lat="47.33974" lon="0.04686">
        <ele>54.93</ele>
        <time>2011-03-20T09:40:49Z</time>
      </trkpt>
      <trkpt lat="47.33948" lon="0.04656">
        <ele>55.41</ele>
        <time>2011-03-20T09:40:55Z</time>
      </trkpt>
      <trkpt lat="47.33935" lon="0.04642">
        <ele>55.41</ele>
        <time>2011-03-20T09:40:58Z</time>
      </trkpt>
      <trkpt lat="47.3393" lon="0.04637">
        <ele>54.93</ele>
        <time>2011-03-20T09:40:59Z</time>
      </trkpt>
      <trkpt lat="47.33906" lon="0.04609">
        <ele>54.93</ele>
        <time>2011-03-20T09:41:04Z</time>
      </trkpt>
      <trkpt lat="47.33902" lon="0.04604">
        <ele>54.93</ele>
        <time>2011-03-20T09:41:05Z</time>
      </trkpt>
      <trkpt lat="47.33866" lon="0.0456">
        <ele>53.01</ele>
        <time>2011-03-20T09:41:13Z</time>
      </trkpt>
      <trkpt lat="47.33862" lon="0.04555">
        <ele>53.97</ele>
        <time>2011-03-20T09:41:14Z</time>
      </trkpt>
      <trkpt lat="47.33858" lon="0.04548">
        <ele>53.01</ele>
        <time>2011-03-20T09:41:15Z</time>
      </trkpt>
      <trkpt lat="47.33854" lon="0.04541">
        <ele>53.49</ele>
        <time>2011-03-20T09:41:16Z</time>
      </trkpt>
      <trkpt lat="47.33846" lon="0.04526">
        <ele>53.01</ele>
        <time>2011-03-20T09:41:18Z</time>
      </trkpt>
      <trkpt lat="47.33826" lon="0.04493">
        <ele>52.53</ele>
        <time>2011-03-20T09:41:23Z</time>
      </trkpt>
      <trkpt lat="47.33813" lon="0.04474">
        <ele>52.53</ele>
        <time>2011-03-20T09:41:26Z</time>
      </trkpt>
      <trkpt lat="47.33784" lon="0.04434">
        <ele>52.53</ele>
        <time>2011-03-20T09:41:33Z</time>
      </trkpt>
      <trkpt lat="47.3375" lon="0.04385">
        <ele>52.05</ele>
        <time>2011-03-20T09:41:41Z</time>
      </trkpt>
      <trkpt lat="47.33724" lon="0.04348">
        <ele>52.05</ele>
        <time>2011-03-20T09:41:48Z</time>
      </trkpt>
      <trkpt lat="47.33721" lon="0.04334">
        <ele>52.53</ele>
        <time>2011-03-20T09:41:51Z</time>
      </trkpt>
      <trkpt lat="47.33722" lon="0.04331">
        <ele>52.53</ele>
        <time>2011-03-20T09:41:52Z</time>
      </trkpt>
      <trkpt lat="47.3373" lon="0.04309">
        <ele>53.01</ele>
        <time>2011-03-20T09:41:58Z</time>
      </trkpt>
      <trkpt lat="47.3373" lon="0.04283">
        <ele>53.49</ele>
        <time>2011-03-20T09:42:03Z</time>
      </trkpt>
      <trkpt lat="47.33731" lon="0.04279">
        <ele>53.01</ele>
        <time>2011-03-20T09:42:04Z</time>
      </trkpt>
      <trkpt lat="47.33735" lon="0.04269">
        <ele>53.01</ele>
        <time>2011-03-20T09:42:07Z</time>
      </trkpt>
      <trkpt lat="47.33735" lon="0.04266">
        <ele>52.53</ele>
        <time>2011-03-20T09:42:08Z</time>
      </trkpt>
      <trkpt lat="47.33736" lon="0.04241">
        <ele>52.53</ele>
        <time>2011-03-20T09:42:14Z</time>
      </trkpt>
      <trkpt lat="47.33735" lon="0.04237">
        <ele>51.57</ele>
        <time>2011-03-20T09:42:15Z</time>
      </trkpt>
      <trkpt lat="47.33733" lon="0.04234">
        <ele>51.57</ele>
        <time>2011-03-20T09:42:16Z</time>
      </trkpt>
      <trkpt lat="47.33731" lon="0.04231">
        <ele>51.57</ele>
        <time>2011-03-20T09:42:17Z</time>
      </trkpt>
      <trkpt lat="47.3371" lon="0.0419">
        <ele>52.05</ele>
        <time>2011-03-20T09:42:25Z</time>
      </trkpt>
      <trkpt lat="47.33697" lon="0.0416">
        <ele>53.49</ele>
        <time>2011-03-20T09:42:31Z</time>
      </trkpt>
      <trkpt lat="47.33684" lon="0.04131">
        <ele>53.49</ele>
        <time>2011-03-20T09:42:37Z</time>
      </trkpt>
      <trkpt lat="47.33672" lon="0.041">
        <ele>53.01</ele>
        <time>2011-03-20T09:42:43Z</time>
      </trkpt>
      <trkpt lat="47.33667" lon="0.04091">
        <ele>53.01</ele>
        <time>2011-03-20T09:42:45Z</time>
      </trkpt>
      <trkpt lat="47.33652" lon="0.04058">
        <ele>53.01</ele>
        <time>2011-03-20T09:42:51Z</time>
      </trkpt>
      <trkpt lat="47.33643" lon="0.04042">
        <ele>53.01</ele>
        <time>2011-03-20T09:42:54Z</time>
      </trkpt>
      <trkpt lat="47.33633" lon="0.0402">
        <ele>53.01</ele>
        <time>2011-03-20T09:42:58Z</time>
      </trkpt>
      <trkpt lat="47.3362" lon="0.03987">
        <ele>53.01</ele>
        <time>2011-03-20T09:43:04Z</time>
      </trkpt>
      <trkpt lat="47.33602" lon="0.03932">
        <ele>53.49</ele>
        <time>2011-03-20T09:43:12Z</time>
      </trkpt>
      <trkpt lat="47.33597" lon="0.03912">
        <ele>53.49</ele>
        <time>2011-03-20T09:43:15Z</time>
      </trkpt>
      <trkpt lat="47.3359" lon="0.03883">
        <ele>53.49</ele>
        <time>2011-03-20T09:43:19Z</time>
      </trkpt>
      <trkpt lat="47.33589" lon="0.03876">
        <ele>53.49</ele>
        <time>2011-03-20T09:43:20Z</time>
      </trkpt>
      <trkpt lat="47.33588" lon="0.03868">
        <ele>53.97</ele>
        <time>2011-03-20T09:43:21Z</time>
      </trkpt>
      <trkpt lat="47.33587" lon="0.03861">
        <ele>53.01</ele>
        <time>2011-03-20T09:43:22Z</time>
      </trkpt>
      <trkpt lat="47.33585" lon="0.03854">
        <ele>53.49</ele>
        <time>2011-03-20T09:43:23Z</time>
      </trkpt>
      <trkpt lat="47.33585" lon="0.03847">
        <ele>53.01</ele>
        <time>2011-03-20T09:43:24Z</time>
      </trkpt>
      <trkpt lat="47.33583" lon="0.0384">
        <ele>53.49</ele>
        <time>2011-03-20T09:43:25Z</time>
      </trkpt>
      <trkpt lat="47.33582" lon="0.03833">
        <ele>53.01</ele>
        <time>2011-03-20T09:43:26Z</time>
      </trkpt>
      <trkpt lat="47.33581" lon="0.03825">
        <ele>52.53</ele>
        <time>2011-03-20T09:43:27Z</time>
      </trkpt>
      <trkpt lat="47.3358" lon="0.03817">
        <ele>53.01</ele>
        <time>2011-03-20T09:43:28Z</time>
      </trkpt>
      <trkpt lat="47.33579" lon="0.0381">
        <ele>53.01</ele>
        <time>2011-03-20T09:43:29Z</time>
      </trkpt>
      <trkpt lat="47.33579" lon="0.03802">
        <ele>53.01</ele>
        <time>2011-03-20T09:43:30Z</time>
      </trkpt>
      <trkpt lat="47.33576" lon="0.03781">
        <ele>53.01</ele>
        <time>2011-03-20T09:43:33Z</time>
      </trkpt>
      <trkpt lat="47.33574" lon="0.03774">
        <ele>53.01</ele>
        <time>2011-03-20T09:43:34Z</time>
      </trkpt>
      <trkpt lat="47.33572" lon="0.0376">
        <ele>52.53</ele>
        <time>2011-03-20T09:43:36Z</time>
      </trkpt>
      <trkpt lat="47.33573" lon="0.03753">
        <ele>52.05</ele>
        <time>2011-03-20T09:43:37Z</time>
      </trkpt>
      <trkpt lat="47.33573" lon="0.03745">
        <ele>52.53</ele>
        <time>2011-03-20T09:43:38Z</time>
      </trkpt>
      <trkpt lat="47.33573" lon="0.03729">
        <ele>50.61</ele>
        <time>2011-03-20T09:43:40Z</time>
      </trkpt>
      <trkpt lat="47.33572" lon="0.03721">
        <ele>51.57</ele>
        <time>2011-03-20T09:43:41Z</time>
      </trkpt>
      <trkpt lat="47.3357" lon="0.03672">
        <ele>50.13</ele>
        <time>2011-03-20T09:43:47Z</time>
      </trkpt>
      <trkpt lat="47.33568" lon="0.03665">
        <ele>49.65</ele>
        <time>2011-03-20T09:43:48Z</time>
      </trkpt>
      <trkpt lat="47.33565" lon="0.03658">
        <ele>49.16</ele>
        <time>2011-03-20T09:43:49Z</time>
      </trkpt>
      <trkpt lat="47.33555" lon="0.0363">
        <ele>49.65</ele>
        <time>2011-03-20T09:43:53Z</time>
      </trkpt>
      <trkpt lat="47.33534" lon="0.03582">
        <ele>49.16</ele>
        <time>2011-03-20T09:44:00Z</time>
      </trkpt>
      <trkpt lat="47.33521" lon="0.03554">
        <ele>50.13</ele>
        <time>2011-03-20T09:44:04Z</time>
      </trkpt>
      <trkpt lat="47.3349" lon="0.03504">
        <ele>49.16</ele>
        <time>2011-03-20T09:44:12Z</time>
      </trkpt>
      <trkpt lat="47.33469" lon="0.0347">
        <ele>48.68</ele>
        <time>2011-03-20T09:44:17Z</time>
      </trkpt>
      <trkpt lat="47.33451" lon="0.03438">
        <ele>48.2</ele>
        <time>2011-03-20T09:44:22Z</time>
      </trkpt>
      <trkpt lat="47.33419" lon="0.03381">
        <ele>47.24</ele>
        <time>2011-03-20T09:44:30Z</time>
      </trkpt>
      <trkpt lat="47.33415" lon="0.03374">
        <ele>47.24</ele>
        <time>2011-03-20T09:44:31Z</time>
      </trkpt>
      <trkpt lat="47.33386" lon="0.03326">
        <ele>46.76</ele>
        <time>2011-03-20T09:44:38Z</time>
      </trkpt>
      <trkpt lat="47.33354" lon="0.03278">
        <ele>47.24</ele>
        <time>2011-03-20T09:44:45Z</time>
      </trkpt>
      <trkpt lat="47.33308" lon="0.03208">
        <ele>45.8</ele>
        <time>2011-03-20T09:44:56Z</time>
      </trkpt>
      <trkpt lat="47.33283" lon="0.03169">
        <ele>45.8</ele>
        <time>2011-03-20T09:45:02Z</time>
      </trkpt>
      <trkpt lat="47.33251" lon="0.0312">
        <ele>44.84</ele>
        <time>2011-03-20T09:45:09Z</time>
      </trkpt>
      <trkpt lat="47.33211" lon="0.0305">
        <ele>43.88</ele>
        <time>2011-03-20T09:45:18Z</time>
      </trkpt>
      <trkpt lat="47.33179" lon="0.02989">
        <ele>44.84</ele>
        <time>2011-03-20T09:45:26Z</time>
      </trkpt>
      <trkpt lat="47.33165" lon="0.02963">
        <ele>44.36</ele>
        <time>2011-03-20T09:45:30Z</time>
      </trkpt>
      <trkpt lat="47.33165" lon="0.02957">
        <ele>43.88</ele>
        <time>2011-03-20T09:45:31Z</time>
      </trkpt>
      <trkpt lat="47.33166" lon="0.02952">
        <ele>44.36</ele>
        <time>2011-03-20T09:45:32Z</time>
      </trkpt>
      <trkpt lat="47.3317" lon="0.02947">
        <ele>44.36</ele>
        <time>2011-03-20T09:45:33Z</time>
      </trkpt>
      <trkpt lat="47.33173" lon="0.02943">
        <ele>45.32</ele>
        <time>2011-03-20T09:45:34Z</time>
      </trkpt>
      <trkpt lat="47.33176" lon="0.02937">
        <ele>44.84</ele>
        <time>2011-03-20T09:45:35Z</time>
      </trkpt>
      <trkpt lat="47.3318" lon="0.02932">
        <ele>44.84</ele>
        <time>2011-03-20T09:45:36Z</time>
      </trkpt>
      <trkpt lat="47.33208" lon="0.0289">
        <ele>44.36</ele>
        <time>2011-03-20T09:45:43Z</time>
      </trkpt>
      <trkpt lat="47.33229" lon="0.0286">
        <ele>43.88</ele>
        <time>2011-03-20T09:45:48Z</time>
      </trkpt>
      <trkpt lat="47.33233" lon="0.02856">
        <ele>43.88</ele>
        <time>2011-03-20T09:45:49Z</time>
      </trkpt>
      <trkpt lat="47.33238" lon="0.02855">
        <ele>43.88</ele>
        <time>2011-03-20T09:45:50Z</time>
      </trkpt>
      <trkpt lat="47.33243" lon="0.02858">
        <ele>44.84</ele>
        <time>2011-03-20T09:45:51Z</time>
      </trkpt>
      <trkpt lat="47.33246" lon="0.02862">
        <ele>44.36</ele>
        <time>2011-03-20T09:45:52Z</time>
      </trkpt>
      <trkpt lat="47.3325" lon="0.02866">
        <ele>43.88</ele>
        <time>2011-03-20T09:45:53Z</time>
      </trkpt>
      <trkpt lat="47.3327" lon="0.02891">
        <ele>43.4</ele>
        <time>2011-03-20T09:45:58Z</time>
      </trkpt>
      <trkpt lat="47.33284" lon="0.02912">
        <ele>42.92</ele>
        <time>2011-03-20T09:46:02Z</time>
      </trkpt>
      <trkpt lat="47.33288" lon="0.02914">
        <ele>42.92</ele>
        <time>2011-03-20T09:46:03Z</time>
      </trkpt>
      <trkpt lat="47.33293" lon="0.02913">
        <ele>42.92</ele>
        <time>2011-03-20T09:46:04Z</time>
      </trkpt>
      <trkpt lat="47.33297" lon="0.0291">
        <ele>42.44</ele>
        <time>2011-03-20T09:46:05Z</time>
      </trkpt>
      <trkpt lat="47.33301" lon="0.02905">
        <ele>41.95</ele>
        <time>2011-03-20T09:46:06Z</time>
      </trkpt>
      <trkpt lat="47.33305" lon="0.02898">
        <ele>41.95</ele>
        <time>2011-03-20T09:46:07Z</time>
      </trkpt>
      <trkpt lat="47.33308" lon="0.02892">
        <ele>42.44</ele>
        <time>2011-03-20T09:46:08Z</time>
      </trkpt>
      <trkpt lat="47.33343" lon="0.02832">
        <ele>39.55</ele>
        <time>2011-03-20T09:46:17Z</time>
      </trkpt>
      <trkpt lat="47.3338" lon="0.02773">
        <ele>38.59</ele>
        <time>2011-03-20T09:46:26Z</time>
      </trkpt>
      <trkpt lat="47.33384" lon="0.02768">
        <ele>38.11</ele>
        <time>2011-03-20T09:46:27Z</time>
      </trkpt>
      <trkpt lat="47.33397" lon="0.02756">
        <ele>37.63</ele>
        <time>2011-03-20T09:46:30Z</time>
      </trkpt>
      <trkpt lat="47.334" lon="0.02754">
        <ele>38.11</ele>
        <time>2011-03-20T09:46:31Z</time>
      </trkpt>
      <trkpt lat="47.33403" lon="0.02753">
        <ele>37.63</ele>
        <time>2011-03-20T09:46:32Z</time>
      </trkpt>
      <trkpt lat="47.33406" lon="0.02754">
        <ele>38.11</ele>
        <time>2011-03-20T09:46:33Z</time>
      </trkpt>
      <trkpt lat="47.33407" lon="0.02756">
        <ele>37.63</ele>
        <time>2011-03-20T09:46:34Z</time>
      </trkpt>
      <trkpt lat="47.33409" lon="0.0276">
        <ele>38.11</ele>
        <time>2011-03-20T09:46:35Z</time>
      </trkpt>
      <trkpt lat="47.33409" lon="0.02764">
        <ele>38.11</ele>
        <time>2011-03-20T09:46:36Z</time>
      </trkpt>
      <trkpt lat="47.3341" lon="0.02769">
        <ele>37.63</ele>
        <time>2011-03-20T09:46:37Z</time>
      </trkpt>
      <trkpt lat="47.33412" lon="0.02775">
        <ele>38.59</ele>
        <time>2011-03-20T09:46:38Z</time>
      </trkpt>
      <trkpt lat="47.33429" lon="0.02811">
        <ele>38.59</ele>
        <time>2011-03-20T09:46:44Z</time>
      </trkpt>
      <trkpt lat="47.3345" lon="0.02843">
        <ele>39.07</ele>
        <time>2011-03-20T09:46:50Z</time>
      </trkpt>
      <trkpt lat="47.3346" lon="0.02856">
        <ele>40.03</ele>
        <time>2011-03-20T09:46:53Z</time>
      </trkpt>
      <trkpt lat="47.33463" lon="0.02858">
        <ele>39.07</ele>
        <time>2011-03-20T09:46:54Z</time>
      </trkpt>
      <trkpt lat="47.33467" lon="0.02857">
        <ele>39.55</ele>
        <time>2011-03-20T09:46:55Z</time>
      </trkpt>
      <trkpt lat="47.33469" lon="0.02853">
        <ele>38.11</ele>
        <time>2011-03-20T09:46:56Z</time>
      </trkpt>
      <trkpt lat="47.33472" lon="0.02849">
        <ele>39.07</ele>
        <time>2011-03-20T09:46:57Z</time>
      </trkpt>
      <trkpt lat="47.33492" lon="0.02822">
        <ele>40.03</ele>
        <time>2011-03-20T09:47:04Z</time>
      </trkpt>
      <trkpt lat="47.33511" lon="0.02786">
        <ele>41.95</ele>
        <time>2011-03-20T09:47:12Z</time>
      </trkpt>
      <trkpt lat="47.33514" lon="0.02781">
        <ele>41.95</ele>
        <time>2011-03-20T09:47:13Z</time>
      </trkpt>
      <trkpt lat="47.33525" lon="0.02762">
        <ele>41.95</ele>
        <time>2011-03-20T09:47:17Z</time>
      </trkpt>
      <trkpt lat="47.33531" lon="0.02753">
        <ele>42.92</ele>
        <time>2011-03-20T09:47:19Z</time>
      </trkpt>
      <trkpt lat="47.33534" lon="0.02749">
        <ele>42.44</ele>
        <time>2011-03-20T09:47:20Z</time>
      </trkpt>
      <trkpt lat="47.33537" lon="0.02744">
        <ele>42.44</ele>
        <time>2011-03-20T09:47:21Z</time>
      </trkpt>
      <trkpt lat="47.33539" lon="0.02739">
        <ele>42.92</ele>
        <time>2011-03-20T09:47:22Z</time>
      </trkpt>
      <trkpt lat="47.33542" lon="0.02735">
        <ele>42.92</ele>
        <time>2011-03-20T09:47:23Z</time>
      </trkpt>
      <trkpt lat="47.33556" lon="0.02713">
        <ele>43.88</ele>
        <time>2011-03-20T09:47:28Z</time>
      </trkpt>
      <trkpt lat="47.33558" lon="0.02709">
        <ele>43.88</ele>
        <time>2011-03-20T09:47:29Z</time>
      </trkpt>
      <trkpt lat="47.33579" lon="0.02672">
        <ele>45.32</ele>
        <time>2011-03-20T09:47:37Z</time>
      </trkpt>
      <trkpt lat="47.33594" lon="0.02645">
        <ele>45.8</ele>
        <time>2011-03-20T09:47:43Z</time>
      </trkpt>
      <trkpt lat="47.33597" lon="0.02641">
        <ele>46.76</ele>
        <time>2011-03-20T09:47:44Z</time>
      </trkpt>
      <trkpt lat="47.33608" lon="0.02622">
        <ele>46.76</ele>
        <time>2011-03-20T09:47:48Z</time>
      </trkpt>
      <trkpt lat="47.3361" lon="0.02617">
        <ele>46.28</ele>
        <time>2011-03-20T09:47:49Z</time>
      </trkpt>
      <trkpt lat="47.33613" lon="0.02612">
        <ele>47.24</ele>
        <time>2011-03-20T09:47:50Z</time>
      </trkpt>
      <trkpt lat="47.33633" lon="0.02572">
        <ele>47.72</ele>
        <time>2011-03-20T09:47:58Z</time>
      </trkpt>
      <trkpt lat="47.33657" lon="0.0253">
        <ele>49.65</ele>
        <time>2011-03-20T09:48:07Z</time>
      </trkpt>
      <trkpt lat="47.33676" lon="0.02496">
        <ele>49.65</ele>
        <time>2011-03-20T09:48:14Z</time>
      </trkpt>
      <trkpt lat="47.33688" lon="0.0248">
        <ele>50.61</ele>
        <time>2011-03-20T09:48:18Z</time>
      </trkpt>
      <trkpt lat="47.33691" lon="0.02475">
        <ele>50.61</ele>
        <time>2011-03-20T09:48:19Z</time>
      </trkpt>
      <trkpt lat="47.33708" lon="0.02446">
        <ele>51.57</ele>
        <time>2011-03-20T09:48:26Z</time>
      </trkpt>
      <trkpt lat="47.33725" lon="0.02421">
        <ele>52.05</ele>
        <time>2011-03-20T09:48:33Z</time>
      </trkpt>
      <trkpt lat="47.33727" lon="0.02419">
        <ele>52.05</ele>
        <time>2011-03-20T09:48:34Z</time>
      </trkpt>
      <trkpt lat="47.3373" lon="0.02418">
        <ele>52.05</ele>
        <time>2011-03-20T09:48:35Z</time>
      </trkpt>
      <trkpt lat="47.33732" lon="0.0242">
        <ele>52.05</ele>
        <time>2011-03-20T09:48:36Z</time>
      </trkpt>
      <trkpt lat="47.3375" lon="0.0244">
        <ele>53.49</ele>
        <time>2011-03-20T09:48:43Z</time>
      </trkpt>
      <trkpt lat="47.33761" lon="0.02456">
        <ele>53.49</ele>
        <time>2011-03-20T09:48:47Z</time>
      </trkpt>
      <trkpt lat="47.33763" lon="0.02458">
        <ele>53.49</ele>
        <time>2011-03-20T09:48:48Z</time>
      </trkpt>
      <trkpt lat="47.33764" lon="0.02463">
        <ele>53.97</ele>
        <time>2011-03-20T09:48:49Z</time>
      </trkpt>
      <trkpt lat="47.33767" lon="0.02467">
        <ele>54.93</ele>
        <time>2011-03-20T09:48:50Z</time>
      </trkpt>
      <trkpt lat="47.33771" lon="0.02471">
        <ele>54.45</ele>
        <time>2011-03-20T09:48:51Z</time>
      </trkpt>
      <trkpt lat="47.33784" lon="0.0249">
        <ele>53.97</ele>
        <time>2011-03-20T09:48:56Z</time>
      </trkpt>
      <trkpt lat="47.33799" lon="0.02511">
        <ele>54.93</ele>
        <time>2011-03-20T09:49:01Z</time>
      </trkpt>
      <trkpt lat="47.33817" lon="0.02536">
        <ele>55.89</ele>
        <time>2011-03-20T09:49:07Z</time>
      </trkpt>
      <trkpt lat="47.3383" lon="0.02555">
        <ele>56.37</ele>
        <time>2011-03-20T09:49:12Z</time>
      </trkpt>
      <trkpt lat="47.33849" lon="0.02576">
        <ele>57.34</ele>
        <time>2011-03-20T09:49:18Z</time>
      </trkpt>
      <trkpt lat="47.33869" lon="0.0261">
        <ele>57.82</ele>
        <time>2011-03-20T09:49:25Z</time>
      </trkpt>
      <trkpt lat="47.33885" lon="0.02641">
        <ele>57.82</ele>
        <time>2011-03-20T09:49:31Z</time>
      </trkpt>
      <trkpt lat="47.33901" lon="0.02671">
        <ele>56.86</ele>
        <time>2011-03-20T09:49:37Z</time>
      </trkpt>
      <trkpt lat="47.33914" lon="0.0269">
        <ele>56.86</ele>
        <time>2011-03-20T09:49:42Z</time>
      </trkpt>
      <trkpt lat="47.33919" lon="0.02693">
        <ele>56.37</ele>
        <time>2011-03-20T09:49:44Z</time>
      </trkpt>
      <trkpt lat="47.33921" lon="0.02693">
        <ele>56.37</ele>
        <time>2011-03-20T09:49:45Z</time>
      </trkpt>
      <trkpt lat="47.33922" lon="0.02691">
        <ele>56.86</ele>
        <time>2011-03-20T09:49:46Z</time>
      </trkpt>
      <trkpt lat="47.33923" lon="0.0269">
        <ele>57.34</ele>
        <time>2011-03-20T09:49:47Z</time>
      </trkpt>
      <trkpt lat="47.33924" lon="0.02689">
        <ele>57.82</ele>
        <time>2011-03-20T09:49:48Z</time>
      </trkpt>
      <trkpt lat="47.33925" lon="0.02687">
        <ele>58.3</ele>
        <time>2011-03-20T09:49:49Z</time>
      </trkpt>
      <trkpt lat="47.33927" lon="0.02685">
        <ele>57.82</ele>
        <time>2011-03-20T09:49:50Z</time>
      </trkpt>
      <trkpt lat="47.33928" lon="0.02683">
        <ele>57.82</ele>
        <time>2011-03-20T09:49:51Z</time>
      </trkpt>
      <trkpt lat="47.33937" lon="0.02674">
        <ele>58.3</ele>
        <time>2011-03-20T09:49:56Z</time>
      </trkpt>
      <trkpt lat="47.33938" lon="0.02672">
        <ele>58.78</ele>
        <time>2011-03-20T09:49:57Z</time>
      </trkpt>
      <trkpt lat="47.33939" lon="0.0267">
        <ele>59.26</ele>
        <time>2011-03-20T09:49:58Z</time>
      </trkpt>
      <trkpt lat="47.33941" lon="0.02668">
        <ele>59.74</ele>
        <time>2011-03-20T09:49:59Z</time>
      </trkpt>
      <trkpt lat="47.33942" lon="0.02666">
        <ele>59.74</ele>
        <time>2011-03-20T09:50:00Z</time>
      </trkpt>
      <trkpt lat="47.33943" lon="0.02664">
        <ele>59.74</ele>
        <time>2011-03-20T09:50:01Z</time>
      </trkpt>
      <trkpt lat="47.33945" lon="0.02663">
        <ele>59.74</ele>
        <time>2011-03-20T09:50:02Z</time>
      </trkpt>
      <trkpt lat="47.33948" lon="0.02661">
        <ele>60.22</ele>
        <time>2011-03-20T09:50:03Z</time>
      </trkpt>
      <trkpt lat="47.33949" lon="0.02659">
        <ele>60.22</ele>
        <time>2011-03-20T09:50:04Z</time>
      </trkpt>
      <trkpt lat="47.33951" lon="0.02657">
        <ele>60.7</ele>
        <time>2011-03-20T09:50:05Z</time>
      </trkpt>
      <trkpt lat="47.33962" lon="0.02644">
        <ele>62.14</ele>
        <time>2011-03-20T09:50:11Z</time>
      </trkpt>
      <trkpt lat="47.3397" lon="0.02631">
        <ele>63.1</ele>
        <time>2011-03-20T09:50:17Z</time>
      </trkpt>
      <trkpt lat="47.33976" lon="0.02619">
        <ele>63.58</ele>
        <time>2011-03-20T09:50:22Z</time>
      </trkpt>
      <trkpt lat="47.33984" lon="0.02603">
        <ele>64.55</ele>
        <time>2011-03-20T09:50:28Z</time>
      </trkpt>
      <trkpt lat="47.33985" lon="0.026">
        <ele>65.03</ele>
        <time>2011-03-20T09:50:29Z</time>
      </trkpt>
      <trkpt lat="47.33986" lon="0.02597">
        <ele>65.03</ele>
        <time>2011-03-20T09:50:30Z</time>
      </trkpt>
      <trkpt lat="47.33987" lon="0.02594">
        <ele>65.03</ele>
        <time>2011-03-20T09:50:31Z</time>
      </trkpt>
      <trkpt lat="47.33989" lon="0.02591">
        <ele>65.03</ele>
        <time>2011-03-20T09:50:32Z</time>
      </trkpt>
      <trkpt lat="47.33993" lon="0.02578">
        <ele>65.99</ele>
        <time>2011-03-20T09:50:36Z</time>
      </trkpt>
      <trkpt lat="47.34001" lon="0.02562">
        <ele>66.95</ele>
        <time>2011-03-20T09:50:41Z</time>
      </trkpt>
      <trkpt lat="47.34002" lon="0.02559">
        <ele>65.99</ele>
        <time>2011-03-20T09:50:42Z</time>
      </trkpt>
      <trkpt lat="47.34008" lon="0.02548">
        <ele>66.47</ele>
        <time>2011-03-20T09:50:46Z</time>
      </trkpt>
      <trkpt lat="47.34014" lon="0.02535">
        <ele>67.91</ele>
        <time>2011-03-20T09:50:51Z</time>
      </trkpt>
      <trkpt lat="47.34024" lon="0.02519">
        <ele>69.35</ele>
        <time>2011-03-20T09:50:58Z</time>
      </trkpt>
      <trkpt lat="47.34031" lon="0.02505">
        <ele>70.31</ele>
        <time>2011-03-20T09:51:04Z</time>
      </trkpt>
      <trkpt lat="47.34044" lon="0.02496">
        <ele>70.79</ele>
        <time>2011-03-20T09:51:09Z</time>
      </trkpt>
      <trkpt lat="47.34047" lon="0.02495">
        <ele>71.27</ele>
        <time>2011-03-20T09:51:10Z</time>
      </trkpt>
      <trkpt lat="47.34064" lon="0.0248">
        <ele>73.2</ele>
        <time>2011-03-20T09:51:17Z</time>
      </trkpt>
      <trkpt lat="47.34076" lon="0.02464">
        <ele>74.64</ele>
        <time>2011-03-20T09:51:24Z</time>
      </trkpt>
      <trkpt lat="47.34081" lon="0.02457">
        <ele>75.12</ele>
        <time>2011-03-20T09:51:28Z</time>
      </trkpt>
      <trkpt lat="47.34089" lon="0.02441">
        <ele>77.04</ele>
        <time>2011-03-20T09:51:37Z</time>
      </trkpt>
      <trkpt lat="47.34093" lon="0.02431">
        <ele>78</ele>
        <time>2011-03-20T09:51:42Z</time>
      </trkpt>
      <trkpt lat="47.34094" lon="0.0243">
        <ele>78.48</ele>
        <time>2011-03-20T09:51:43Z</time>
      </trkpt>
      <trkpt lat="47.34098" lon="0.02424">
        <ele>78.97</ele>
        <time>2011-03-20T09:51:47Z</time>
      </trkpt>
      <trkpt lat="47.34106" lon="0.02421">
        <ele>80.41</ele>
        <time>2011-03-20T09:51:52Z</time>
      </trkpt>
      <trkpt lat="47.34108" lon="0.02421">
        <ele>79.93</ele>
        <time>2011-03-20T09:51:53Z</time>
      </trkpt>
      <trkpt lat="47.34117" lon="0.02427">
        <ele>81.37</ele>
        <time>2011-03-20T09:52:00Z</time>
      </trkpt>
      <trkpt lat="47.34125" lon="0.02431">
        <ele>82.33</ele>
        <time>2011-03-20T09:52:05Z</time>
      </trkpt>
      <trkpt lat="47.34127" lon="0.02431">
        <ele>82.33</ele>
        <time>2011-03-20T09:52:06Z</time>
      </trkpt>
      <trkpt lat="47.34136" lon="0.02441">
        <ele>83.29</ele>
        <time>2011-03-20T09:52:12Z</time>
      </trkpt>
      <trkpt lat="47.34138" lon="0.02444">
        <ele>83.29</ele>
        <time>2011-03-20T09:52:14Z</time>
      </trkpt>
      <trkpt lat="47.34145" lon="0.02454">
        <ele>84.25</ele>
        <time>2011-03-20T09:52:19Z</time>
      </trkpt>
      <trkpt lat="47.34151" lon="0.02463">
        <ele>85.21</ele>
        <time>2011-03-20T09:52:24Z</time>
      </trkpt>
      <trkpt lat="47.34159" lon="0.02473">
        <ele>87.14</ele>
        <time>2011-03-20T09:52:31Z</time>
      </trkpt>
      <trkpt lat="47.34168" lon="0.02482">
        <ele>88.1</ele>
        <time>2011-03-20T09:52:37Z</time>
      </trkpt>
      <trkpt lat="47.34171" lon="0.02486">
        <ele>88.1</ele>
        <time>2011-03-20T09:52:40Z</time>
      </trkpt>
      <trkpt lat="47.34175" lon="0.0249">
        <ele>88.58</ele>
        <time>2011-03-20T09:52:44Z</time>
      </trkpt>
      <trkpt lat="47.34178" lon="0.02492">
        <ele>90.02</ele>
        <time>2011-03-20T09:52:46Z</time>
      </trkpt>
      <trkpt lat="47.34179" lon="0.02493">
        <ele>90.02</ele>
        <time>2011-03-20T09:52:47Z</time>
      </trkpt>
      <trkpt lat="47.34182" lon="0.02494">
        <ele>90.02</ele>
        <time>2011-03-20T09:52:49Z</time>
      </trkpt>
      <trkpt lat="47.34193" lon="0.02506">
        <ele>91.94</ele>
        <time>2011-03-20T09:52:57Z</time>
      </trkpt>
      <trkpt lat="47.34199" lon="0.0251">
        <ele>93.39</ele>
        <time>2011-03-20T09:53:02Z</time>
      </trkpt>
      <trkpt lat="47.3421" lon="0.02511">
        <ele>94.35</ele>
        <time>2011-03-20T09:53:09Z</time>
      </trkpt>
      <trkpt lat="47.34213" lon="0.0251">
        <ele>93.87</ele>
        <time>2011-03-20T09:53:11Z</time>
      </trkpt>
      <trkpt lat="47.34222" lon="0.02501">
        <ele>95.31</ele>
        <time>2011-03-20T09:53:18Z</time>
      </trkpt>
      <trkpt lat="47.34227" lon="0.02495">
        <ele>96.27</ele>
        <time>2011-03-20T09:53:23Z</time>
      </trkpt>
      <trkpt lat="47.34233" lon="0.02487">
        <ele>97.23</ele>
        <time>2011-03-20T09:53:30Z</time>
      </trkpt>
      <trkpt lat="47.3424" lon="0.02479">
        <ele>97.71</ele>
        <time>2011-03-20T09:53:35Z</time>
      </trkpt>
      <trkpt lat="47.34242" lon="0.02475">
        <ele>98.19</ele>
        <time>2011-03-20T09:53:37Z</time>
      </trkpt>
      <trkpt lat="47.34255" lon="0.0246">
        <ele>100.11</ele>
        <time>2011-03-20T09:53:45Z</time>
      </trkpt>
      <trkpt lat="47.34256" lon="0.0246">
        <ele>100.11</ele>
        <time>2011-03-20T09:53:46Z</time>
      </trkpt>
      <trkpt lat="47.34262" lon="0.02453">
        <ele>99.63</ele>
        <time>2011-03-20T09:53:49Z</time>
      </trkpt>
      <trkpt lat="47.34271" lon="0.02441">
        <ele>100.11</ele>
        <time>2011-03-20T09:53:53Z</time>
      </trkpt>
      <trkpt lat="47.34283" lon="0.02426">
        <ele>101.08</ele>
        <time>2011-03-20T09:53:58Z</time>
      </trkpt>
      <trkpt lat="47.34299" lon="0.02404">
        <ele>102.04</ele>
        <time>2011-03-20T09:54:05Z</time>
      </trkpt>
      <trkpt lat="47.34317" lon="0.02383">
        <ele>102.52</ele>
        <time>2011-03-20T09:54:12Z</time>
      </trkpt>
      <trkpt lat="47.34328" lon="0.02365">
        <ele>102.52</ele>
        <time>2011-03-20T09:54:17Z</time>
      </trkpt>
      <trkpt lat="47.34335" lon="0.02355">
        <ele>103</ele>
        <time>2011-03-20T09:54:20Z</time>
      </trkpt>
      <trkpt lat="47.34349" lon="0.02362">
        <ele>102.52</ele>
        <time>2011-03-20T09:54:25Z</time>
      </trkpt>
      <trkpt lat="47.34367" lon="0.02379">
        <ele>101.56</ele>
        <time>2011-03-20T09:54:31Z</time>
      </trkpt>
      <trkpt lat="47.34378" lon="0.0239">
        <ele>101.56</ele>
        <time>2011-03-20T09:54:35Z</time>
      </trkpt>
      <trkpt lat="47.34404" lon="0.02417">
        <ele>101.56</ele>
        <time>2011-03-20T09:54:43Z</time>
      </trkpt>
      <trkpt lat="47.34422" lon="0.02434">
        <ele>101.08</ele>
        <time>2011-03-20T09:54:49Z</time>
      </trkpt>
      <trkpt lat="47.34441" lon="0.02453">
        <ele>100.6</ele>
        <time>2011-03-20T09:54:56Z</time>
      </trkpt>
      <trkpt lat="47.34442" lon="0.02454">
        <ele>101.08</ele>
        <time>2011-03-20T09:55:01Z</time>
      </trkpt>
      <trkpt lat="47.34444" lon="0.02456">
        <ele>101.08</ele>
        <time>2011-03-20T09:55:07Z</time>
      </trkpt>
      <trkpt lat="47.34447" lon="0.02462">
        <ele>99.63</ele>
        <time>2011-03-20T09:55:13Z</time>
      </trkpt>
      <trkpt lat="47.34449" lon="0.02463">
        <ele>100.6</ele>
        <time>2011-03-20T09:55:47Z</time>
      </trkpt>
      <trkpt lat="47.3446" lon="0.0247">
        <ele>100.6</ele>
        <time>2011-03-20T09:55:53Z</time>
      </trkpt>
      <trkpt lat="47.34462" lon="0.02472">
        <ele>100.11</ele>
        <time>2011-03-20T09:55:54Z</time>
      </trkpt>
      <trkpt lat="47.34484" lon="0.02491">
        <ele>99.63</ele>
        <time>2011-03-20T09:56:02Z</time>
      </trkpt>
      <trkpt lat="47.34501" lon="0.02506">
        <ele>99.63</ele>
        <time>2011-03-20T09:56:07Z</time>
      </trkpt>
      <trkpt lat="47.34522" lon="0.02519">
        <ele>100.11</ele>
        <time>2011-03-20T09:56:13Z</time>
      </trkpt>
      <trkpt lat="47.3453" lon="0.02523">
        <ele>99.15</ele>
        <time>2011-03-20T09:56:17Z</time>
      </trkpt>
      <trkpt lat="47.34543" lon="0.02534">
        <ele>99.63</ele>
        <time>2011-03-20T09:56:25Z</time>
      </trkpt>
      <trkpt lat="47.34555" lon="0.02548">
        <ele>99.63</ele>
        <time>2011-03-20T09:56:30Z</time>
      </trkpt>
      <trkpt lat="47.34559" lon="0.02552">
        <ele>99.15</ele>
        <time>2011-03-20T09:56:32Z</time>
      </trkpt>
      <trkpt lat="47.34565" lon="0.0255">
        <ele>99.15</ele>
        <time>2011-03-20T09:56:35Z</time>
      </trkpt>
      <trkpt lat="47.34564" lon="0.02528">
        <ele>100.6</ele>
        <time>2011-03-20T09:56:40Z</time>
      </trkpt>
      <trkpt lat="47.34564" lon="0.02516">
        <ele>99.63</ele>
        <time>2011-03-20T09:56:42Z</time>
      </trkpt>
      <trkpt lat="47.3456" lon="0.02464">
        <ele>99.15</ele>
        <time>2011-03-20T09:56:50Z</time>
      </trkpt>
      <trkpt lat="47.3456" lon="0.02458">
        <ele>99.15</ele>
        <time>2011-03-20T09:56:51Z</time>
      </trkpt>
      <trkpt lat="47.34558" lon="0.02438">
        <ele>99.15</ele>
        <time>2011-03-20T09:56:54Z</time>
      </trkpt>
      <trkpt lat="47.3456" lon="0.02407">
        <ele>98.67</ele>
        <time>2011-03-20T09:56:59Z</time>
      </trkpt>
      <trkpt lat="47.34562" lon="0.02401">
        <ele>98.67</ele>
        <time>2011-03-20T09:57:00Z</time>
      </trkpt>
      <trkpt lat="47.34569" lon="0.02381">
        <ele>98.19</ele>
        <time>2011-03-20T09:57:03Z</time>
      </trkpt>
      <trkpt lat="47.34585" lon="0.02345">
        <ele>96.27</ele>
        <time>2011-03-20T09:57:08Z</time>
      </trkpt>
      <trkpt lat="47.34588" lon="0.02337">
        <ele>96.27</ele>
        <time>2011-03-20T09:57:09Z</time>
      </trkpt>
      <trkpt lat="47.34594" lon="0.02319">
        <ele>95.31</ele>
        <time>2011-03-20T09:57:11Z</time>
      </trkpt>
      <trkpt lat="47.34601" lon="0.0229">
        <ele>93.87</ele>
        <time>2011-03-20T09:57:14Z</time>
      </trkpt>
      <trkpt lat="47.34614" lon="0.02253">
        <ele>91.94</ele>
        <time>2011-03-20T09:57:18Z</time>
      </trkpt>
      <trkpt lat="47.34621" lon="0.02235">
        <ele>91.46</ele>
        <time>2011-03-20T09:57:20Z</time>
      </trkpt>
      <trkpt lat="47.3463" lon="0.02198">
        <ele>90.02</ele>
        <time>2011-03-20T09:57:24Z</time>
      </trkpt>
      <trkpt lat="47.34642" lon="0.02164">
        <ele>88.58</ele>
        <time>2011-03-20T09:57:28Z</time>
      </trkpt>
      <trkpt lat="47.34646" lon="0.02159">
        <ele>88.58</ele>
        <time>2011-03-20T09:57:29Z</time>
      </trkpt>
      <trkpt lat="47.3465" lon="0.02155">
        <ele>88.58</ele>
        <time>2011-03-20T09:57:30Z</time>
      </trkpt>
      <trkpt lat="47.34656" lon="0.02152">
        <ele>87.62</ele>
        <time>2011-03-20T09:57:31Z</time>
      </trkpt>
      <trkpt lat="47.34662" lon="0.0215">
        <ele>88.1</ele>
        <time>2011-03-20T09:57:32Z</time>
      </trkpt>
      <trkpt lat="47.34668" lon="0.02148">
        <ele>86.66</ele>
        <time>2011-03-20T09:57:33Z</time>
      </trkpt>
      <trkpt lat="47.34674" lon="0.02145">
        <ele>87.62</ele>
        <time>2011-03-20T09:57:34Z</time>
      </trkpt>
      <trkpt lat="47.34699" lon="0.02128">
        <ele>85.69</ele>
        <time>2011-03-20T09:57:38Z</time>
      </trkpt>
      <trkpt lat="47.34735" lon="0.02099">
        <ele>83.29</ele>
        <time>2011-03-20T09:57:44Z</time>
      </trkpt>
      <trkpt lat="47.34759" lon="0.02081">
        <ele>81.85</ele>
        <time>2011-03-20T09:57:48Z</time>
      </trkpt>
      <trkpt lat="47.34766" lon="0.02078">
        <ele>81.37</ele>
        <time>2011-03-20T09:57:49Z</time>
      </trkpt>
      <trkpt lat="47.34805" lon="0.02056">
        <ele>80.89</ele>
        <time>2011-03-20T09:57:55Z</time>
      </trkpt>
      <trkpt lat="47.34837" lon="0.02037">
        <ele>78.48</ele>
        <time>2011-03-20T09:58:00Z</time>
      </trkpt>
      <trkpt lat="47.34844" lon="0.02033">
        <ele>78.97</ele>
        <time>2011-03-20T09:58:01Z</time>
      </trkpt>
      <trkpt lat="47.3488" lon="0.02007">
        <ele>78.97</ele>
        <time>2011-03-20T09:58:07Z</time>
      </trkpt>
      <trkpt lat="47.34923" lon="0.0198">
        <ele>77.04</ele>
        <time>2011-03-20T09:58:14Z</time>
      </trkpt>
      <trkpt lat="47.34929" lon="0.01975">
        <ele>77.04</ele>
        <time>2011-03-20T09:58:15Z</time>
      </trkpt>
      <trkpt lat="47.34974" lon="0.01931">
        <ele>76.08</ele>
        <time>2011-03-20T09:58:23Z</time>
      </trkpt>
      <trkpt lat="47.3499" lon="0.01915">
        <ele>75.12</ele>
        <time>2011-03-20T09:58:26Z</time>
      </trkpt>
      <trkpt lat="47.34995" lon="0.0191">
        <ele>75.12</ele>
        <time>2011-03-20T09:58:27Z</time>
      </trkpt>
      <trkpt lat="47.35" lon="0.01904">
        <ele>74.64</ele>
        <time>2011-03-20T09:58:28Z</time>
      </trkpt>
      <trkpt lat="47.35034" lon="0.01858">
        <ele>72.72</ele>
        <time>2011-03-20T09:58:35Z</time>
      </trkpt>
      <trkpt lat="47.35043" lon="0.01844">
        <ele>72.72</ele>
        <time>2011-03-20T09:58:37Z</time>
      </trkpt>
      <trkpt lat="47.35053" lon="0.01831">
        <ele>73.2</ele>
        <time>2011-03-20T09:58:39Z</time>
      </trkpt>
      <trkpt lat="47.35057" lon="0.01825">
        <ele>72.72</ele>
        <time>2011-03-20T09:58:40Z</time>
      </trkpt>
      <trkpt lat="47.35087" lon="0.01784">
        <ele>71.76</ele>
        <time>2011-03-20T09:58:47Z</time>
      </trkpt>
      <trkpt lat="47.35109" lon="0.01745">
        <ele>71.27</ele>
        <time>2011-03-20T09:58:54Z</time>
      </trkpt>
      <trkpt lat="47.35113" lon="0.01741">
        <ele>70.79</ele>
        <time>2011-03-20T09:58:55Z</time>
      </trkpt>
      <trkpt lat="47.35126" lon="0.01722">
        <ele>70.31</ele>
        <time>2011-03-20T09:59:00Z</time>
      </trkpt>
      <trkpt lat="47.35126" lon="0.01718">
        <ele>70.31</ele>
        <time>2011-03-20T09:59:01Z</time>
      </trkpt>
      <trkpt lat="47.35124" lon="0.01714">
        <ele>70.31</ele>
        <time>2011-03-20T09:59:02Z</time>
      </trkpt>
      <trkpt lat="47.35123" lon="0.01709">
        <ele>71.27</ele>
        <time>2011-03-20T09:59:03Z</time>
      </trkpt>
      <trkpt lat="47.35121" lon="0.01705">
        <ele>71.27</ele>
        <time>2011-03-20T09:59:04Z</time>
      </trkpt>
      <trkpt lat="47.35119" lon="0.01701">
        <ele>71.27</ele>
        <time>2011-03-20T09:59:05Z</time>
      </trkpt>
      <trkpt lat="47.35116" lon="0.01697">
        <ele>70.79</ele>
        <time>2011-03-20T09:59:06Z</time>
      </trkpt>
      <trkpt lat="47.35113" lon="0.01693">
        <ele>71.27</ele>
        <time>2011-03-20T09:59:07Z</time>
      </trkpt>
      <trkpt lat="47.35083" lon="0.0165">
        <ele>72.24</ele>
        <time>2011-03-20T09:59:16Z</time>
      </trkpt>
      <trkpt lat="47.35051" lon="0.01607">
        <ele>74.64</ele>
        <time>2011-03-20T09:59:25Z</time>
      </trkpt>
      <trkpt lat="47.35023" lon="0.01569">
        <ele>76.56</ele>
        <time>2011-03-20T09:59:33Z</time>
      </trkpt>
      <trkpt lat="47.35012" lon="0.01554">
        <ele>76.56</ele>
        <time>2011-03-20T09:59:36Z</time>
      </trkpt>
      <trkpt lat="47.34979" lon="0.01512">
        <ele>78.48</ele>
        <time>2011-03-20T09:59:45Z</time>
      </trkpt>
      <trkpt lat="47.34946" lon="0.01467">
        <ele>80.89</ele>
        <time>2011-03-20T09:59:54Z</time>
      </trkpt>
      <trkpt lat="47.34913" lon="0.0142">
        <ele>82.33</ele>
        <time>2011-03-20T10:00:03Z</time>
      </trkpt>
      <trkpt lat="47.34896" lon="0.01394">
        <ele>83.77</ele>
        <time>2011-03-20T10:00:08Z</time>
      </trkpt>
      <trkpt lat="47.34892" lon="0.01389">
        <ele>83.77</ele>
        <time>2011-03-20T10:00:09Z</time>
      </trkpt>
      <trkpt lat="47.34863" lon="0.01349">
        <ele>85.69</ele>
        <time>2011-03-20T10:00:17Z</time>
      </trkpt>
      <trkpt lat="47.34848" lon="0.0133">
        <ele>85.69</ele>
        <time>2011-03-20T10:00:21Z</time>
      </trkpt>
      <trkpt lat="47.3482" lon="0.01284">
        <ele>87.14</ele>
        <time>2011-03-20T10:00:29Z</time>
      </trkpt>
      <trkpt lat="47.34789" lon="0.01224">
        <ele>87.62</ele>
        <time>2011-03-20T10:00:39Z</time>
      </trkpt>
      <trkpt lat="47.34779" lon="0.01197">
        <ele>88.1</ele>
        <time>2011-03-20T10:00:44Z</time>
      </trkpt>
      <trkpt lat="47.34781" lon="0.01192">
        <ele>87.62</ele>
        <time>2011-03-20T10:00:45Z</time>
      </trkpt>
      <trkpt lat="47.34783" lon="0.01188">
        <ele>87.62</ele>
        <time>2011-03-20T10:00:46Z</time>
      </trkpt>
      <trkpt lat="47.34786" lon="0.01185">
        <ele>88.1</ele>
        <time>2011-03-20T10:00:47Z</time>
      </trkpt>
      <trkpt lat="47.34788" lon="0.01182">
        <ele>88.1</ele>
        <time>2011-03-20T10:00:48Z</time>
      </trkpt>
      <trkpt lat="47.3479" lon="0.0118">
        <ele>88.58</ele>
        <time>2011-03-20T10:00:49Z</time>
      </trkpt>
      <trkpt lat="47.34792" lon="0.01178">
        <ele>88.58</ele>
        <time>2011-03-20T10:00:50Z</time>
      </trkpt>
      <trkpt lat="47.34794" lon="0.01176">
        <ele>88.58</ele>
        <time>2011-03-20T10:00:51Z</time>
      </trkpt>
      <trkpt lat="47.34808" lon="0.01157">
        <ele>88.58</ele>
        <time>2011-03-20T10:00:57Z</time>
      </trkpt>
      <trkpt lat="47.34819" lon="0.0114">
        <ele>89.54</ele>
        <time>2011-03-20T10:01:02Z</time>
      </trkpt>
      <trkpt lat="47.34821" lon="0.01136">
        <ele>89.54</ele>
        <time>2011-03-20T10:01:03Z</time>
      </trkpt>
      <trkpt lat="47.34823" lon="0.01134">
        <ele>89.54</ele>
        <time>2011-03-20T10:01:04Z</time>
      </trkpt>
      <trkpt lat="47.34825" lon="0.01133">
        <ele>89.06</ele>
        <time>2011-03-20T10:01:05Z</time>
      </trkpt>
      <trkpt lat="47.34827" lon="0.01133">
        <ele>90.02</ele>
        <time>2011-03-20T10:01:06Z</time>
      </trkpt>
      <trkpt lat="47.34846" lon="0.01137">
        <ele>90.5</ele>
        <time>2011-03-20T10:01:13Z</time>
      </trkpt>
      <trkpt lat="47.34856" lon="0.01138">
        <ele>90.98</ele>
        <time>2011-03-20T10:01:17Z</time>
      </trkpt>
      <trkpt lat="47.34871" lon="0.01153">
        <ele>90.5</ele>
        <time>2011-03-20T10:01:24Z</time>
      </trkpt>
      <trkpt lat="47.34876" lon="0.01158">
        <ele>91.46</ele>
        <time>2011-03-20T10:01:26Z</time>
      </trkpt>
      <trkpt lat="47.34891" lon="0.01174">
        <ele>91.46</ele>
        <time>2011-03-20T10:01:32Z</time>
      </trkpt>
      <trkpt lat="47.34904" lon="0.01191">
        <ele>90.98</ele>
        <time>2011-03-20T10:01:38Z</time>
      </trkpt>
      <trkpt lat="47.34907" lon="0.01196">
        <ele>90.5</ele>
        <time>2011-03-20T10:01:39Z</time>
      </trkpt>
      <trkpt lat="47.3492" lon="0.01206">
        <ele>90.02</ele>
        <time>2011-03-20T10:01:43Z</time>
      </trkpt>
      <trkpt lat="47.34928" lon="0.01202">
        <ele>90.98</ele>
        <time>2011-03-20T10:01:46Z</time>
      </trkpt>
      <trkpt lat="47.34942" lon="0.01189">
        <ele>91.46</ele>
        <time>2011-03-20T10:01:52Z</time>
      </trkpt>
      <trkpt lat="47.34963" lon="0.01163">
        <ele>91.94</ele>
        <time>2011-03-20T10:02:00Z</time>
      </trkpt>
      <trkpt lat="47.34971" lon="0.01149">
        <ele>91.46</ele>
        <time>2011-03-20T10:02:05Z</time>
      </trkpt>
      <trkpt lat="47.35" lon="0.01122">
        <ele>89.54</ele>
        <time>2011-03-20T10:02:12Z</time>
      </trkpt>
      <trkpt lat="47.3501" lon="0.01103">
        <ele>89.06</ele>
        <time>2011-03-20T10:02:16Z</time>
      </trkpt>
      <trkpt lat="47.35024" lon="0.01082">
        <ele>88.1</ele>
        <time>2011-03-20T10:02:19Z</time>
      </trkpt>
      <trkpt lat="47.3503" lon="0.01069">
        <ele>87.62</ele>
        <time>2011-03-20T10:02:21Z</time>
      </trkpt>
      <trkpt lat="47.3504" lon="0.01044">
        <ele>86.66</ele>
        <time>2011-03-20T10:02:25Z</time>
      </trkpt>
      <trkpt lat="47.35046" lon="0.01035">
        <ele>86.18</ele>
        <time>2011-03-20T10:02:27Z</time>
      </trkpt>
      <trkpt lat="47.35055" lon="0.01019">
        <ele>84.73</ele>
        <time>2011-03-20T10:02:30Z</time>
      </trkpt>
      <trkpt lat="47.35084" lon="0.00989">
        <ele>83.77</ele>
        <time>2011-03-20T10:02:36Z</time>
      </trkpt>
      <trkpt lat="47.35087" lon="0.00984">
        <ele>83.77</ele>
        <time>2011-03-20T10:02:37Z</time>
      </trkpt>
      <trkpt lat="47.35104" lon="0.00956">
        <ele>79.93</ele>
        <time>2011-03-20T10:02:41Z</time>
      </trkpt>
      <trkpt lat="47.35118" lon="0.00941">
        <ele>78</ele>
        <time>2011-03-20T10:02:43Z</time>
      </trkpt>
      <trkpt lat="47.3513" lon="0.00925">
        <ele>75.12</ele>
        <time>2011-03-20T10:02:45Z</time>
      </trkpt>
      <trkpt lat="47.35144" lon="0.009">
        <ele>73.2</ele>
        <time>2011-03-20T10:02:48Z</time>
      </trkpt>
      <trkpt lat="47.35153" lon="0.00887">
        <ele>71.76</ele>
        <time>2011-03-20T10:02:50Z</time>
      </trkpt>
      <trkpt lat="47.35169" lon="0.00866">
        <ele>70.31</ele>
        <time>2011-03-20T10:02:53Z</time>
      </trkpt>
      <trkpt lat="47.35176" lon="0.00861">
        <ele>70.31</ele>
        <time>2011-03-20T10:02:54Z</time>
      </trkpt>
      <trkpt lat="47.35182" lon="0.00854">
        <ele>68.87</ele>
        <time>2011-03-20T10:02:55Z</time>
      </trkpt>
      <trkpt lat="47.35187" lon="0.00846">
        <ele>67.43</ele>
        <time>2011-03-20T10:02:56Z</time>
      </trkpt>
      <trkpt lat="47.35189" lon="0.00837">
        <ele>67.91</ele>
        <time>2011-03-20T10:02:57Z</time>
      </trkpt>
      <trkpt lat="47.35191" lon="0.00827">
        <ele>67.91</ele>
        <time>2011-03-20T10:02:58Z</time>
      </trkpt>
      <trkpt lat="47.35191" lon="0.00818">
        <ele>67.91</ele>
        <time>2011-03-20T10:02:59Z</time>
      </trkpt>
      <trkpt lat="47.35191" lon="0.0081">
        <ele>66.95</ele>
        <time>2011-03-20T10:03:00Z</time>
      </trkpt>
      <trkpt lat="47.3519" lon="0.00802">
        <ele>66.47</ele>
        <time>2011-03-20T10:03:01Z</time>
      </trkpt>
      <trkpt lat="47.35192" lon="0.00761">
        <ele>65.51</ele>
        <time>2011-03-20T10:03:05Z</time>
      </trkpt>
      <trkpt lat="47.35192" lon="0.00751">
        <ele>65.51</ele>
        <time>2011-03-20T10:03:06Z</time>
      </trkpt>
      <trkpt lat="47.35192" lon="0.0074">
        <ele>65.99</ele>
        <time>2011-03-20T10:03:07Z</time>
      </trkpt>
      <trkpt lat="47.35192" lon="0.00707">
        <ele>64.55</ele>
        <time>2011-03-20T10:03:10Z</time>
      </trkpt>
      <trkpt lat="47.35192" lon="0.00697">
        <ele>64.07</ele>
        <time>2011-03-20T10:03:11Z</time>
      </trkpt>
      <trkpt lat="47.35192" lon="0.00676">
        <ele>64.07</ele>
        <time>2011-03-20T10:03:13Z</time>
      </trkpt>
      <trkpt lat="47.35189" lon="0.00645">
        <ele>64.07</ele>
        <time>2011-03-20T10:03:16Z</time>
      </trkpt>
      <trkpt lat="47.35187" lon="0.00636">
        <ele>63.58</ele>
        <time>2011-03-20T10:03:17Z</time>
      </trkpt>
      <trkpt lat="47.35186" lon="0.00626">
        <ele>62.62</ele>
        <time>2011-03-20T10:03:18Z</time>
      </trkpt>
      <trkpt lat="47.35176" lon="0.00567">
        <ele>61.18</ele>
        <time>2011-03-20T10:03:24Z</time>
      </trkpt>
      <trkpt lat="47.35175" lon="0.00557">
        <ele>61.18</ele>
        <time>2011-03-20T10:03:25Z</time>
      </trkpt>
      <trkpt lat="47.35161" lon="0.00487">
        <ele>59.74</ele>
        <time>2011-03-20T10:03:32Z</time>
      </trkpt>
      <trkpt lat="47.35151" lon="0.00405">
        <ele>56.86</ele>
        <time>2011-03-20T10:03:40Z</time>
      </trkpt>
      <trkpt lat="47.35146" lon="0.0034">
        <ele>56.86</ele>
        <time>2011-03-20T10:03:47Z</time>
      </trkpt>
      <trkpt lat="47.35138" lon="0.00262">
        <ele>55.89</ele>
        <time>2011-03-20T10:03:55Z</time>
      </trkpt>
      <trkpt lat="47.35129" lon="0.00183">
        <ele>55.41</ele>
        <time>2011-03-20T10:04:03Z</time>
      </trkpt>
      <trkpt lat="47.35123" lon="0.00084">
        <ele>55.41</ele>
        <time>2011-03-20T10:04:13Z</time>
      </trkpt>
      <trkpt lat="47.35111" lon="-0.00018">
        <ele>53.97</ele>
        <time>2011-03-20T10:04:23Z</time>
      </trkpt>
      <trkpt lat="47.35086" lon="-0.0012">
        <ele>52.53</ele>
        <time>2011-03-20T10:04:33Z</time>
      </trkpt>
      <trkpt lat="47.35064" lon="-0.00211">
        <ele>52.05</ele>
        <time>2011-03-20T10:04:42Z</time>
      </trkpt>
      <trkpt lat="47.35045" lon="-0.00314">
        <ele>52.05</ele>
        <time>2011-03-20T10:04:52Z</time>
      </trkpt>
      <trkpt lat="47.35028" lon="-0.00391">
        <ele>52.05</ele>
        <time>2011-03-20T10:05:00Z</time>
      </trkpt>
      <trkpt lat="47.35004" lon="-0.00474">
        <ele>51.57</ele>
        <time>2011-03-20T10:05:09Z</time>
      </trkpt>
      <trkpt lat="47.34985" lon="-0.00548">
        <ele>51.09</ele>
        <time>2011-03-20T10:05:17Z</time>
      </trkpt>
      <trkpt lat="47.34975" lon="-0.00595">
        <ele>52.05</ele>
        <time>2011-03-20T10:05:22Z</time>
      </trkpt>
      <trkpt lat="47.34966" lon="-0.00675">
        <ele>51.09</ele>
        <time>2011-03-20T10:05:30Z</time>
      </trkpt>
      <trkpt lat="47.34959" lon="-0.00746">
        <ele>51.09</ele>
        <time>2011-03-20T10:05:37Z</time>
      </trkpt>
      <trkpt lat="47.34941" lon="-0.0081">
        <ele>50.13</ele>
        <time>2011-03-20T10:05:44Z</time>
      </trkpt>
      <trkpt lat="47.34907" lon="-0.00886">
        <ele>49.65</ele>
        <time>2011-03-20T10:05:53Z</time>
      </trkpt>
      <trkpt lat="47.34874" lon="-0.0096">
        <ele>49.65</ele>
        <time>2011-03-20T10:06:02Z</time>
      </trkpt>
      <trkpt lat="47.34837" lon="-0.01027">
        <ele>50.13</ele>
        <time>2011-03-20T10:06:11Z</time>
      </trkpt>
      <trkpt lat="47.34796" lon="-0.01103">
        <ele>50.13</ele>
        <time>2011-03-20T10:06:21Z</time>
      </trkpt>
      <trkpt lat="47.3476" lon="-0.01176">
        <ele>48.68</ele>
        <time>2011-03-20T10:06:30Z</time>
      </trkpt>
      <trkpt lat="47.34721" lon="-0.01248">
        <ele>48.2</ele>
        <time>2011-03-20T10:06:40Z</time>
      </trkpt>
      <trkpt lat="47.34719" lon="-0.01255">
        <ele>47.24</ele>
        <time>2011-03-20T10:06:41Z</time>
      </trkpt>
      <trkpt lat="47.3472" lon="-0.01262">
        <ele>48.2</ele>
        <time>2011-03-20T10:06:42Z</time>
      </trkpt>
      <trkpt lat="47.34722" lon="-0.01267">
        <ele>47.72</ele>
        <time>2011-03-20T10:06:43Z</time>
      </trkpt>
      <trkpt lat="47.34725" lon="-0.01271">
        <ele>48.2</ele>
        <time>2011-03-20T10:06:44Z</time>
      </trkpt>
      <trkpt lat="47.34727" lon="-0.01273">
        <ele>48.68</ele>
        <time>2011-03-20T10:06:45Z</time>
      </trkpt>
      <trkpt lat="47.34729" lon="-0.01276">
        <ele>48.2</ele>
        <time>2011-03-20T10:06:46Z</time>
      </trkpt>
      <trkpt lat="47.34732" lon="-0.01281">
        <ele>49.16</ele>
        <time>2011-03-20T10:06:49Z</time>
      </trkpt>
      <trkpt lat="47.34733" lon="-0.01282">
        <ele>49.16</ele>
        <time>2011-03-20T10:06:50Z</time>
      </trkpt>
      <trkpt lat="47.34734" lon="-0.01282">
        <ele>48.68</ele>
        <time>2011-03-20T10:06:51Z</time>
      </trkpt>
      <trkpt lat="47.34736" lon="-0.01282">
        <ele>48.68</ele>
        <time>2011-03-20T10:06:55Z</time>
      </trkpt>
      <trkpt lat="47.34737" lon="-0.01283">
        <ele>49.16</ele>
        <time>2011-03-20T10:06:56Z</time>
      </trkpt>
      <trkpt lat="47.34739" lon="-0.01285">
        <ele>49.16</ele>
        <time>2011-03-20T10:06:58Z</time>
      </trkpt>
      <trkpt lat="47.3474" lon="-0.01288">
        <ele>49.16</ele>
        <time>2011-03-20T10:07:05Z</time>
      </trkpt>
      <trkpt lat="47.34741" lon="-0.01288">
        <ele>49.65</ele>
        <time>2011-03-20T10:07:06Z</time>
      </trkpt>
      <trkpt lat="47.34742" lon="-0.0129">
        <ele>49.65</ele>
        <time>2011-03-20T10:07:07Z</time>
      </trkpt>
      <trkpt lat="47.34743" lon="-0.01291">
        <ele>50.13</ele>
        <time>2011-03-20T10:07:08Z</time>
      </trkpt>
      <trkpt lat="47.34745" lon="-0.01292">
        <ele>50.13</ele>
        <time>2011-03-20T10:07:09Z</time>
      </trkpt>
      <trkpt lat="47.34746" lon="-0.01294">
        <ele>50.13</ele>
        <time>2011-03-20T10:07:10Z</time>
      </trkpt>
      <trkpt lat="47.34762" lon="-0.01309">
        <ele>52.05</ele>
        <time>2011-03-20T10:07:17Z</time>
      </trkpt>
      <trkpt lat="47.34775" lon="-0.01321">
        <ele>52.53</ele>
        <time>2011-03-20T10:07:23Z</time>
      </trkpt>
      <trkpt lat="47.34789" lon="-0.01332">
        <ele>52.53</ele>
        <time>2011-03-20T10:07:29Z</time>
      </trkpt>
      <trkpt lat="47.34797" lon="-0.01342">
        <ele>53.49</ele>
        <time>2011-03-20T10:07:33Z</time>
      </trkpt>
      <trkpt lat="47.34798" lon="-0.01345">
        <ele>53.97</ele>
        <time>2011-03-20T10:07:34Z</time>
      </trkpt>
      <trkpt lat="47.34798" lon="-0.01348">
        <ele>53.97</ele>
        <time>2011-03-20T10:07:35Z</time>
      </trkpt>
      <trkpt lat="47.34798" lon="-0.01352">
        <ele>53.49</ele>
        <time>2011-03-20T10:07:36Z</time>
      </trkpt>
      <trkpt lat="47.34798" lon="-0.01355">
        <ele>54.93</ele>
        <time>2011-03-20T10:07:37Z</time>
      </trkpt>
      <trkpt lat="47.34798" lon="-0.01359">
        <ele>53.97</ele>
        <time>2011-03-20T10:07:38Z</time>
      </trkpt>
      <trkpt lat="47.34798" lon="-0.01363">
        <ele>54.45</ele>
        <time>2011-03-20T10:07:39Z</time>
      </trkpt>
      <trkpt lat="47.34798" lon="-0.01368">
        <ele>54.93</ele>
        <time>2011-03-20T10:07:40Z</time>
      </trkpt>
      <trkpt lat="47.34798" lon="-0.01372">
        <ele>53.97</ele>
        <time>2011-03-20T10:07:41Z</time>
      </trkpt>
      <trkpt lat="47.34797" lon="-0.01377">
        <ele>54.45</ele>
        <time>2011-03-20T10:07:42Z</time>
      </trkpt>
      <trkpt lat="47.34796" lon="-0.01382">
        <ele>54.93</ele>
        <time>2011-03-20T10:07:43Z</time>
      </trkpt>
      <trkpt lat="47.34794" lon="-0.01389">
        <ele>54.93</ele>
        <time>2011-03-20T10:07:44Z</time>
      </trkpt>
      <trkpt lat="47.34792" lon="-0.01395">
        <ele>55.41</ele>
        <time>2011-03-20T10:07:45Z</time>
      </trkpt>
      <trkpt lat="47.34783" lon="-0.01443">
        <ele>55.41</ele>
        <time>2011-03-20T10:07:53Z</time>
      </trkpt>
      <trkpt lat="47.34776" lon="-0.01466">
        <ele>54.93</ele>
        <time>2011-03-20T10:07:57Z</time>
      </trkpt>
      <trkpt lat="47.34774" lon="-0.01472">
        <ele>54.93</ele>
        <time>2011-03-20T10:07:58Z</time>
      </trkpt>
      <trkpt lat="47.34772" lon="-0.01477">
        <ele>55.41</ele>
        <time>2011-03-20T10:07:59Z</time>
      </trkpt>
      <trkpt lat="47.3477" lon="-0.01482">
        <ele>55.41</ele>
        <time>2011-03-20T10:08:00Z</time>
      </trkpt>
      <trkpt lat="47.34768" lon="-0.01488">
        <ele>54.93</ele>
        <time>2011-03-20T10:08:01Z</time>
      </trkpt>
      <trkpt lat="47.3476" lon="-0.01511">
        <ele>55.89</ele>
        <time>2011-03-20T10:08:05Z</time>
      </trkpt>
      <trkpt lat="47.34749" lon="-0.01545">
        <ele>55.89</ele>
        <time>2011-03-20T10:08:11Z</time>
      </trkpt>
      <trkpt lat="47.34733" lon="-0.01596">
        <ele>55.41</ele>
        <time>2011-03-20T10:08:19Z</time>
      </trkpt>
      <trkpt lat="47.34714" lon="-0.01651">
        <ele>54.93</ele>
        <time>2011-03-20T10:08:27Z</time>
      </trkpt>
      <trkpt lat="47.34712" lon="-0.01657">
        <ele>54.93</ele>
        <time>2011-03-20T10:08:28Z</time>
      </trkpt>
      <trkpt lat="47.34709" lon="-0.01663">
        <ele>54.93</ele>
        <time>2011-03-20T10:08:29Z</time>
      </trkpt>
      <trkpt lat="47.34701" lon="-0.01683">
        <ele>54.93</ele>
        <time>2011-03-20T10:08:32Z</time>
      </trkpt>
      <trkpt lat="47.347" lon="-0.0169">
        <ele>54.45</ele>
        <time>2011-03-20T10:08:33Z</time>
      </trkpt>
      <trkpt lat="47.34694" lon="-0.01718">
        <ele>54.93</ele>
        <time>2011-03-20T10:08:37Z</time>
      </trkpt>
      <trkpt lat="47.34691" lon="-0.01731">
        <ele>55.41</ele>
        <time>2011-03-20T10:08:39Z</time>
      </trkpt>
      <trkpt lat="47.34686" lon="-0.01764">
        <ele>55.89</ele>
        <time>2011-03-20T10:08:44Z</time>
      </trkpt>
      <trkpt lat="47.34685" lon="-0.01777">
        <ele>56.37</ele>
        <time>2011-03-20T10:08:46Z</time>
      </trkpt>
      <trkpt lat="47.34675" lon="-0.0181">
        <ele>55.89</ele>
        <time>2011-03-20T10:08:52Z</time>
      </trkpt>
      <trkpt lat="47.34672" lon="-0.0183">
        <ele>56.37</ele>
        <time>2011-03-20T10:08:55Z</time>
      </trkpt>
      <trkpt lat="47.3467" lon="-0.01836">
        <ele>56.37</ele>
        <time>2011-03-20T10:08:56Z</time>
      </trkpt>
      <trkpt lat="47.34668" lon="-0.01843">
        <ele>56.37</ele>
        <time>2011-03-20T10:08:57Z</time>
      </trkpt>
      <trkpt lat="47.34665" lon="-0.01857">
        <ele>55.89</ele>
        <time>2011-03-20T10:08:59Z</time>
      </trkpt>
      <trkpt lat="47.34649" lon="-0.01906">
        <ele>55.89</ele>
        <time>2011-03-20T10:09:06Z</time>
      </trkpt>
      <trkpt lat="47.34629" lon="-0.01961">
        <ele>54.45</ele>
        <time>2011-03-20T10:09:13Z</time>
      </trkpt>
      <trkpt lat="47.34616" lon="-0.01995">
        <ele>53.49</ele>
        <time>2011-03-20T10:09:17Z</time>
      </trkpt>
      <trkpt lat="47.34604" lon="-0.0202">
        <ele>53.01</ele>
        <time>2011-03-20T10:09:20Z</time>
      </trkpt>
      <trkpt lat="47.3456" lon="-0.02103">
        <ele>51.09</ele>
        <time>2011-03-20T10:09:31Z</time>
      </trkpt>
      <trkpt lat="47.34557" lon="-0.02109">
        <ele>50.13</ele>
        <time>2011-03-20T10:09:32Z</time>
      </trkpt>
      <trkpt lat="47.34556" lon="-0.02116">
        <ele>49.65</ele>
        <time>2011-03-20T10:09:33Z</time>
      </trkpt>
      <trkpt lat="47.34557" lon="-0.02121">
        <ele>50.61</ele>
        <time>2011-03-20T10:09:34Z</time>
      </trkpt>
      <trkpt lat="47.34559" lon="-0.02126">
        <ele>50.13</ele>
        <time>2011-03-20T10:09:35Z</time>
      </trkpt>
      <trkpt lat="47.34562" lon="-0.0213">
        <ele>49.65</ele>
        <time>2011-03-20T10:09:36Z</time>
      </trkpt>
      <trkpt lat="47.34565" lon="-0.02134">
        <ele>50.13</ele>
        <time>2011-03-20T10:09:37Z</time>
      </trkpt>
      <trkpt lat="47.34587" lon="-0.02168">
        <ele>51.09</ele>
        <time>2011-03-20T10:09:44Z</time>
      </trkpt>
      <trkpt lat="47.34591" lon="-0.02173">
        <ele>51.57</ele>
        <time>2011-03-20T10:09:45Z</time>
      </trkpt>
      <trkpt lat="47.34601" lon="-0.02187">
        <ele>51.57</ele>
        <time>2011-03-20T10:09:48Z</time>
      </trkpt>
      <trkpt lat="47.34614" lon="-0.02206">
        <ele>53.01</ele>
        <time>2011-03-20T10:09:52Z</time>
      </trkpt>
      <trkpt lat="47.34618" lon="-0.02211">
        <ele>52.53</ele>
        <time>2011-03-20T10:09:53Z</time>
      </trkpt>
      <trkpt lat="47.3465" lon="-0.02259">
        <ele>54.45</ele>
        <time>2011-03-20T10:10:03Z</time>
      </trkpt>
      <trkpt lat="47.34673" lon="-0.02294">
        <ele>54.93</ele>
        <time>2011-03-20T10:10:10Z</time>
      </trkpt>
      <trkpt lat="47.34679" lon="-0.02303">
        <ele>55.41</ele>
        <time>2011-03-20T10:10:12Z</time>
      </trkpt>
      <trkpt lat="47.34682" lon="-0.02308">
        <ele>55.89</ele>
        <time>2011-03-20T10:10:13Z</time>
      </trkpt>
      <trkpt lat="47.34685" lon="-0.02312">
        <ele>55.41</ele>
        <time>2011-03-20T10:10:14Z</time>
      </trkpt>
      <trkpt lat="47.34706" lon="-0.0234">
        <ele>56.86</ele>
        <time>2011-03-20T10:10:21Z</time>
      </trkpt>
      <trkpt lat="47.34726" lon="-0.02365">
        <ele>58.78</ele>
        <time>2011-03-20T10:10:28Z</time>
      </trkpt>
      <trkpt lat="47.34747" lon="-0.02389">
        <ele>59.26</ele>
        <time>2011-03-20T10:10:35Z</time>
      </trkpt>
      <trkpt lat="47.34767" lon="-0.02408">
        <ele>60.22</ele>
        <time>2011-03-20T10:10:42Z</time>
      </trkpt>
      <trkpt lat="47.34785" lon="-0.02425">
        <ele>62.14</ele>
        <time>2011-03-20T10:10:49Z</time>
      </trkpt>
      <trkpt lat="47.34801" lon="-0.02439">
        <ele>63.1</ele>
        <time>2011-03-20T10:10:55Z</time>
      </trkpt>
      <trkpt lat="47.34806" lon="-0.02443">
        <ele>63.58</ele>
        <time>2011-03-20T10:10:57Z</time>
      </trkpt>
      <trkpt lat="47.34808" lon="-0.02446">
        <ele>64.07</ele>
        <time>2011-03-20T10:10:58Z</time>
      </trkpt>
      <trkpt lat="47.3481" lon="-0.02448">
        <ele>64.07</ele>
        <time>2011-03-20T10:10:59Z</time>
      </trkpt>
      <trkpt lat="47.34813" lon="-0.0245">
        <ele>64.55</ele>
        <time>2011-03-20T10:11:00Z</time>
      </trkpt>
      <trkpt lat="47.34815" lon="-0.0245">
        <ele>64.55</ele>
        <time>2011-03-20T10:11:01Z</time>
      </trkpt>
      <trkpt lat="47.34817" lon="-0.02451">
        <ele>64.55</ele>
        <time>2011-03-20T10:11:02Z</time>
      </trkpt>
      <trkpt lat="47.34819" lon="-0.02453">
        <ele>65.03</ele>
        <time>2011-03-20T10:11:03Z</time>
      </trkpt>
      <trkpt lat="47.34836" lon="-0.02461">
        <ele>66.47</ele>
        <time>2011-03-20T10:11:09Z</time>
      </trkpt>
      <trkpt lat="47.34855" lon="-0.0247">
        <ele>67.43</ele>
        <time>2011-03-20T10:11:15Z</time>
      </trkpt>
      <trkpt lat="47.34879" lon="-0.02482">
        <ele>69.35</ele>
        <time>2011-03-20T10:11:23Z</time>
      </trkpt>
      <trkpt lat="47.34908" lon="-0.02494">
        <ele>70.79</ele>
        <time>2011-03-20T10:11:33Z</time>
      </trkpt>
      <trkpt lat="47.34931" lon="-0.02505">
        <ele>72.24</ele>
        <time>2011-03-20T10:11:41Z</time>
      </trkpt>
      <trkpt lat="47.34953" lon="-0.02513">
        <ele>73.2</ele>
        <time>2011-03-20T10:11:48Z</time>
      </trkpt>
      <trkpt lat="47.34975" lon="-0.02524">
        <ele>73.68</ele>
        <time>2011-03-20T10:11:55Z</time>
      </trkpt>
      <trkpt lat="47.34997" lon="-0.02532">
        <ele>75.12</ele>
        <time>2011-03-20T10:12:02Z</time>
      </trkpt>
      <trkpt lat="47.35017" lon="-0.02538">
        <ele>76.08</ele>
        <time>2011-03-20T10:12:09Z</time>
      </trkpt>
      <trkpt lat="47.35036" lon="-0.02542">
        <ele>76.56</ele>
        <time>2011-03-20T10:12:16Z</time>
      </trkpt>
      <trkpt lat="47.35055" lon="-0.02546">
        <ele>77.52</ele>
        <time>2011-03-20T10:12:22Z</time>
      </trkpt>
      <trkpt lat="47.35074" lon="-0.02548">
        <ele>78.48</ele>
        <time>2011-03-20T10:12:28Z</time>
      </trkpt>
      <trkpt lat="47.35095" lon="-0.02548">
        <ele>79.93</ele>
        <time>2011-03-20T10:12:35Z</time>
      </trkpt>
      <trkpt lat="47.35115" lon="-0.02547">
        <ele>81.85</ele>
        <time>2011-03-20T10:12:42Z</time>
      </trkpt>
      <trkpt lat="47.35134" lon="-0.02547">
        <ele>82.81</ele>
        <time>2011-03-20T10:12:49Z</time>
      </trkpt>
      <trkpt lat="47.35151" lon="-0.02545">
        <ele>84.73</ele>
        <time>2011-03-20T10:12:56Z</time>
      </trkpt>
      <trkpt lat="47.35163" lon="-0.02542">
        <ele>84.73</ele>
        <time>2011-03-20T10:13:01Z</time>
      </trkpt>
      <trkpt lat="47.35181" lon="-0.02545">
        <ele>85.69</ele>
        <time>2011-03-20T10:13:08Z</time>
      </trkpt>
      <trkpt lat="47.35201" lon="-0.02559">
        <ele>87.62</ele>
        <time>2011-03-20T10:13:16Z</time>
      </trkpt>
      <trkpt lat="47.35208" lon="-0.02563">
        <ele>89.54</ele>
        <time>2011-03-20T10:13:19Z</time>
      </trkpt>
      <trkpt lat="47.35223" lon="-0.0257">
        <ele>89.54</ele>
        <time>2011-03-20T10:13:25Z</time>
      </trkpt>
      <trkpt lat="47.35244" lon="-0.02582">
        <ele>90.98</ele>
        <time>2011-03-20T10:13:32Z</time>
      </trkpt>
      <trkpt lat="47.35268" lon="-0.02595">
        <ele>91.46</ele>
        <time>2011-03-20T10:13:40Z</time>
      </trkpt>
      <trkpt lat="47.35294" lon="-0.02608">
        <ele>93.39</ele>
        <time>2011-03-20T10:13:49Z</time>
      </trkpt>
      <trkpt lat="47.3531" lon="-0.026">
        <ele>93.87</ele>
        <time>2011-03-20T10:13:55Z</time>
      </trkpt>
      <trkpt lat="47.35327" lon="-0.02579">
        <ele>95.31</ele>
        <time>2011-03-20T10:14:02Z</time>
      </trkpt>
      <trkpt lat="47.35345" lon="-0.02555">
        <ele>95.31</ele>
        <time>2011-03-20T10:14:10Z</time>
      </trkpt>
      <trkpt lat="47.35359" lon="-0.0253">
        <ele>96.27</ele>
        <time>2011-03-20T10:14:17Z</time>
      </trkpt>
      <trkpt lat="47.35376" lon="-0.025">
        <ele>97.23</ele>
        <time>2011-03-20T10:14:25Z</time>
      </trkpt>
      <trkpt lat="47.35392" lon="-0.02471">
        <ele>98.19</ele>
        <time>2011-03-20T10:14:32Z</time>
      </trkpt>
      <trkpt lat="47.35409" lon="-0.02439">
        <ele>98.19</ele>
        <time>2011-03-20T10:14:40Z</time>
      </trkpt>
      <trkpt lat="47.35422" lon="-0.02409">
        <ele>99.63</ele>
        <time>2011-03-20T10:14:47Z</time>
      </trkpt>
      <trkpt lat="47.35434" lon="-0.02384">
        <ele>99.63</ele>
        <time>2011-03-20T10:14:53Z</time>
      </trkpt>
      <trkpt lat="47.35444" lon="-0.02364">
        <ele>100.11</ele>
        <time>2011-03-20T10:14:58Z</time>
      </trkpt>
      <trkpt lat="47.3546" lon="-0.02336">
        <ele>100.6</ele>
        <time>2011-03-20T10:15:04Z</time>
      </trkpt>
      <trkpt lat="47.35472" lon="-0.02308">
        <ele>101.56</ele>
        <time>2011-03-20T10:15:10Z</time>
      </trkpt>
      <trkpt lat="47.35492" lon="-0.02279">
        <ele>102.04</ele>
        <time>2011-03-20T10:15:17Z</time>
      </trkpt>
      <trkpt lat="47.35508" lon="-0.02252">
        <ele>101.56</ele>
        <time>2011-03-20T10:15:23Z</time>
      </trkpt>
      <trkpt lat="47.3551" lon="-0.02247">
        <ele>102.04</ele>
        <time>2011-03-20T10:15:24Z</time>
      </trkpt>
      <trkpt lat="47.35513" lon="-0.02243">
        <ele>101.56</ele>
        <time>2011-03-20T10:15:25Z</time>
      </trkpt>
      <trkpt lat="47.3553" lon="-0.02217">
        <ele>103</ele>
        <time>2011-03-20T10:15:31Z</time>
      </trkpt>
      <trkpt lat="47.35553" lon="-0.02176">
        <ele>102.52</ele>
        <time>2011-03-20T10:15:39Z</time>
      </trkpt>
      <trkpt lat="47.35565" lon="-0.02159">
        <ele>102.52</ele>
        <time>2011-03-20T10:15:43Z</time>
      </trkpt>
      <trkpt lat="47.35572" lon="-0.02141">
        <ele>102.52</ele>
        <time>2011-03-20T10:15:46Z</time>
      </trkpt>
      <trkpt lat="47.35575" lon="-0.02136">
        <ele>102.04</ele>
        <time>2011-03-20T10:15:47Z</time>
      </trkpt>
      <trkpt lat="47.35578" lon="-0.02131">
        <ele>103</ele>
        <time>2011-03-20T10:15:48Z</time>
      </trkpt>
      <trkpt lat="47.3558" lon="-0.02126">
        <ele>103</ele>
        <time>2011-03-20T10:15:49Z</time>
      </trkpt>
      <trkpt lat="47.35582" lon="-0.0212">
        <ele>102.52</ele>
        <time>2011-03-20T10:15:50Z</time>
      </trkpt>
      <trkpt lat="47.35585" lon="-0.02115">
        <ele>103</ele>
        <time>2011-03-20T10:15:51Z</time>
      </trkpt>
      <trkpt lat="47.35586" lon="-0.02109">
        <ele>103</ele>
        <time>2011-03-20T10:15:52Z</time>
      </trkpt>
      <trkpt lat="47.35589" lon="-0.02104">
        <ele>102.04</ele>
        <time>2011-03-20T10:15:53Z</time>
      </trkpt>
      <trkpt lat="47.35591" lon="-0.02099">
        <ele>103</ele>
        <time>2011-03-20T10:15:54Z</time>
      </trkpt>
      <trkpt lat="47.35593" lon="-0.02094">
        <ele>102.52</ele>
        <time>2011-03-20T10:15:55Z</time>
      </trkpt>
      <trkpt lat="47.35596" lon="-0.02089">
        <ele>103</ele>
        <time>2011-03-20T10:15:56Z</time>
      </trkpt>
      <trkpt lat="47.35598" lon="-0.02084">
        <ele>103</ele>
        <time>2011-03-20T10:15:57Z</time>
      </trkpt>
      <trkpt lat="47.35601" lon="-0.02079">
        <ele>103</ele>
        <time>2011-03-20T10:15:58Z</time>
      </trkpt>
      <trkpt lat="47.35603" lon="-0.02075">
        <ele>103.48</ele>
        <time>2011-03-20T10:15:59Z</time>
      </trkpt>
      <trkpt lat="47.35606" lon="-0.02071">
        <ele>103.48</ele>
        <time>2011-03-20T10:16:00Z</time>
      </trkpt>
      <trkpt lat="47.35608" lon="-0.02066">
        <ele>103.48</ele>
        <time>2011-03-20T10:16:01Z</time>
      </trkpt>
      <trkpt lat="47.3561" lon="-0.02062">
        <ele>103.48</ele>
        <time>2011-03-20T10:16:02Z</time>
      </trkpt>
      <trkpt lat="47.35613" lon="-0.02059">
        <ele>103.96</ele>
        <time>2011-03-20T10:16:03Z</time>
      </trkpt>
      <trkpt lat="47.35615" lon="-0.02054">
        <ele>103.48</ele>
        <time>2011-03-20T10:16:04Z</time>
      </trkpt>
      <trkpt lat="47.35617" lon="-0.0205">
        <ele>103</ele>
        <time>2011-03-20T10:16:05Z</time>
      </trkpt>
      <trkpt lat="47.35619" lon="-0.02046">
        <ele>103</ele>
        <time>2011-03-20T10:16:06Z</time>
      </trkpt>
      <trkpt lat="47.35632" lon="-0.02019">
        <ele>103.48</ele>
        <time>2011-03-20T10:16:12Z</time>
      </trkpt>
      <trkpt lat="47.35636" lon="-0.02014">
        <ele>103.96</ele>
        <time>2011-03-20T10:16:14Z</time>
      </trkpt>
      <trkpt lat="47.35639" lon="-0.02014">
        <ele>103.96</ele>
        <time>2011-03-20T10:16:15Z</time>
      </trkpt>
      <trkpt lat="47.35641" lon="-0.02015">
        <ele>102.52</ele>
        <time>2011-03-20T10:16:16Z</time>
      </trkpt>
      <trkpt lat="47.35643" lon="-0.02017">
        <ele>102.52</ele>
        <time>2011-03-20T10:16:17Z</time>
      </trkpt>
      <trkpt lat="47.35644" lon="-0.0202">
        <ele>102.52</ele>
        <time>2011-03-20T10:16:18Z</time>
      </trkpt>
      <trkpt lat="47.35655" lon="-0.02058">
        <ele>103</ele>
        <time>2011-03-20T10:16:26Z</time>
      </trkpt>
      <trkpt lat="47.35666" lon="-0.021">
        <ele>103</ele>
        <time>2011-03-20T10:16:33Z</time>
      </trkpt>
      <trkpt lat="47.35678" lon="-0.02153">
        <ele>101.08</ele>
        <time>2011-03-20T10:16:41Z</time>
      </trkpt>
      <trkpt lat="47.35679" lon="-0.0216">
        <ele>101.56</ele>
        <time>2011-03-20T10:16:42Z</time>
      </trkpt>
      <trkpt lat="47.35691" lon="-0.02217">
        <ele>101.08</ele>
        <time>2011-03-20T10:16:50Z</time>
      </trkpt>
      <trkpt lat="47.35693" lon="-0.02225">
        <ele>100.6</ele>
        <time>2011-03-20T10:16:51Z</time>
      </trkpt>
      <trkpt lat="47.35693" lon="-0.02232">
        <ele>100.6</ele>
        <time>2011-03-20T10:16:52Z</time>
      </trkpt>
      <trkpt lat="47.35694" lon="-0.0224">
        <ele>100.6</ele>
        <time>2011-03-20T10:16:53Z</time>
      </trkpt>
      <trkpt lat="47.35697" lon="-0.02263">
        <ele>100.6</ele>
        <time>2011-03-20T10:16:56Z</time>
      </trkpt>
      <trkpt lat="47.35699" lon="-0.02333">
        <ele>99.15</ele>
        <time>2011-03-20T10:17:04Z</time>
      </trkpt>
      <trkpt lat="47.35703" lon="-0.02403">
        <ele>98.19</ele>
        <time>2011-03-20T10:17:12Z</time>
      </trkpt>
      <trkpt lat="47.35704" lon="-0.02429">
        <ele>98.19</ele>
        <time>2011-03-20T10:17:15Z</time>
      </trkpt>
      <trkpt lat="47.35705" lon="-0.02438">
        <ele>97.71</ele>
        <time>2011-03-20T10:17:16Z</time>
      </trkpt>
      <trkpt lat="47.3571" lon="-0.02521">
        <ele>95.79</ele>
        <time>2011-03-20T10:17:25Z</time>
      </trkpt>
      <trkpt lat="47.35712" lon="-0.02584">
        <ele>93.87</ele>
        <time>2011-03-20T10:17:31Z</time>
      </trkpt>
      <trkpt lat="47.35719" lon="-0.02659">
        <ele>92.42</ele>
        <time>2011-03-20T10:17:38Z</time>
      </trkpt>
      <trkpt lat="47.35728" lon="-0.02721">
        <ele>90.98</ele>
        <time>2011-03-20T10:17:44Z</time>
      </trkpt>
      <trkpt lat="47.35731" lon="-0.0273">
        <ele>90.98</ele>
        <time>2011-03-20T10:17:45Z</time>
      </trkpt>
      <trkpt lat="47.35734" lon="-0.02739">
        <ele>90.02</ele>
        <time>2011-03-20T10:17:46Z</time>
      </trkpt>
      <trkpt lat="47.35738" lon="-0.02746">
        <ele>90.02</ele>
        <time>2011-03-20T10:17:47Z</time>
      </trkpt>
      <trkpt lat="47.35743" lon="-0.02752">
        <ele>90.02</ele>
        <time>2011-03-20T10:17:48Z</time>
      </trkpt>
      <trkpt lat="47.35748" lon="-0.02758">
        <ele>89.54</ele>
        <time>2011-03-20T10:17:49Z</time>
      </trkpt>
      <trkpt lat="47.35785" lon="-0.02796">
        <ele>89.06</ele>
        <time>2011-03-20T10:17:56Z</time>
      </trkpt>
      <trkpt lat="47.35818" lon="-0.02825">
        <ele>89.06</ele>
        <time>2011-03-20T10:18:02Z</time>
      </trkpt>
      <trkpt lat="47.35867" lon="-0.02838">
        <ele>88.1</ele>
        <time>2011-03-20T10:18:10Z</time>
      </trkpt>
      <trkpt lat="47.35878" lon="-0.02841">
        <ele>88.58</ele>
        <time>2011-03-20T10:18:12Z</time>
      </trkpt>
      <trkpt lat="47.359" lon="-0.02853">
        <ele>88.58</ele>
        <time>2011-03-20T10:18:16Z</time>
      </trkpt>
      <trkpt lat="47.35938" lon="-0.02883">
        <ele>86.66</ele>
        <time>2011-03-20T10:18:23Z</time>
      </trkpt>
      <trkpt lat="47.35955" lon="-0.02897">
        <ele>85.21</ele>
        <time>2011-03-20T10:18:26Z</time>
      </trkpt>
      <trkpt lat="47.3599" lon="-0.02931">
        <ele>83.77</ele>
        <time>2011-03-20T10:18:32Z</time>
      </trkpt>
      <trkpt lat="47.36022" lon="-0.02969">
        <ele>81.85</ele>
        <time>2011-03-20T10:18:38Z</time>
      </trkpt>
      <trkpt lat="47.36045" lon="-0.03009">
        <ele>79.45</ele>
        <time>2011-03-20T10:18:43Z</time>
      </trkpt>
      <trkpt lat="47.3605" lon="-0.03018">
        <ele>78.48</ele>
        <time>2011-03-20T10:18:44Z</time>
      </trkpt>
      <trkpt lat="47.36055" lon="-0.03025">
        <ele>78.97</ele>
        <time>2011-03-20T10:18:45Z</time>
      </trkpt>
      <trkpt lat="47.36069" lon="-0.03051">
        <ele>77.52</ele>
        <time>2011-03-20T10:18:48Z</time>
      </trkpt>
      <trkpt lat="47.3608" lon="-0.03083">
        <ele>75.6</ele>
        <time>2011-03-20T10:18:51Z</time>
      </trkpt>
      <trkpt lat="47.36097" lon="-0.0315">
        <ele>73.2</ele>
        <time>2011-03-20T10:18:57Z</time>
      </trkpt>
      <trkpt lat="47.36099" lon="-0.03171">
        <ele>71.76</ele>
        <time>2011-03-20T10:18:59Z</time>
      </trkpt>
      <trkpt lat="47.36098" lon="-0.03182">
        <ele>71.76</ele>
        <time>2011-03-20T10:19:00Z</time>
      </trkpt>
      <trkpt lat="47.36082" lon="-0.03248">
        <ele>70.31</ele>
        <time>2011-03-20T10:19:06Z</time>
      </trkpt>
      <trkpt lat="47.36064" lon="-0.03339">
        <ele>69.83</ele>
        <time>2011-03-20T10:19:15Z</time>
      </trkpt>
      <trkpt lat="47.36062" lon="-0.03348">
        <ele>69.83</ele>
        <time>2011-03-20T10:19:16Z</time>
      </trkpt>
      <trkpt lat="47.36058" lon="-0.03364">
        <ele>69.35</ele>
        <time>2011-03-20T10:19:18Z</time>
      </trkpt>
      <trkpt lat="47.36057" lon="-0.03372">
        <ele>68.87</ele>
        <time>2011-03-20T10:19:19Z</time>
      </trkpt>
      <trkpt lat="47.36056" lon="-0.03389">
        <ele>69.83</ele>
        <time>2011-03-20T10:19:21Z</time>
      </trkpt>
      <trkpt lat="47.36055" lon="-0.03396">
        <ele>68.87</ele>
        <time>2011-03-20T10:19:22Z</time>
      </trkpt>
      <trkpt lat="47.36054" lon="-0.03404">
        <ele>69.35</ele>
        <time>2011-03-20T10:19:23Z</time>
      </trkpt>
      <trkpt lat="47.36056" lon="-0.03412">
        <ele>68.87</ele>
        <time>2011-03-20T10:19:24Z</time>
      </trkpt>
      <trkpt lat="47.36059" lon="-0.0342">
        <ele>68.39</ele>
        <time>2011-03-20T10:19:25Z</time>
      </trkpt>
      <trkpt lat="47.36065" lon="-0.03426">
        <ele>67.43</ele>
        <time>2011-03-20T10:19:26Z</time>
      </trkpt>
      <trkpt lat="47.36072" lon="-0.0343">
        <ele>66.95</ele>
        <time>2011-03-20T10:19:27Z</time>
      </trkpt>
      <trkpt lat="47.36079" lon="-0.03432">
        <ele>66.95</ele>
        <time>2011-03-20T10:19:28Z</time>
      </trkpt>
      <trkpt lat="47.36086" lon="-0.03432">
        <ele>65.99</ele>
        <time>2011-03-20T10:19:29Z</time>
      </trkpt>
      <trkpt lat="47.36122" lon="-0.03439">
        <ele>64.55</ele>
        <time>2011-03-20T10:19:34Z</time>
      </trkpt>
      <trkpt lat="47.36127" lon="-0.03443">
        <ele>63.1</ele>
        <time>2011-03-20T10:19:35Z</time>
      </trkpt>
      <trkpt lat="47.36131" lon="-0.03447">
        <ele>63.58</ele>
        <time>2011-03-20T10:19:36Z</time>
      </trkpt>
      <trkpt lat="47.36134" lon="-0.03451">
        <ele>63.1</ele>
        <time>2011-03-20T10:19:37Z</time>
      </trkpt>
      <trkpt lat="47.36135" lon="-0.03456">
        <ele>62.14</ele>
        <time>2011-03-20T10:19:38Z</time>
      </trkpt>
      <trkpt lat="47.36135" lon="-0.03461">
        <ele>62.14</ele>
        <time>2011-03-20T10:19:39Z</time>
      </trkpt>
      <trkpt lat="47.36134" lon="-0.03466">
        <ele>61.66</ele>
        <time>2011-03-20T10:19:40Z</time>
      </trkpt>
      <trkpt lat="47.36133" lon="-0.03472">
        <ele>62.62</ele>
        <time>2011-03-20T10:19:41Z</time>
      </trkpt>
      <trkpt lat="47.36132" lon="-0.03478">
        <ele>62.62</ele>
        <time>2011-03-20T10:19:42Z</time>
      </trkpt>
      <trkpt lat="47.36129" lon="-0.03482">
        <ele>62.62</ele>
        <time>2011-03-20T10:19:43Z</time>
      </trkpt>
      <trkpt lat="47.36126" lon="-0.03485">
        <ele>62.14</ele>
        <time>2011-03-20T10:19:44Z</time>
      </trkpt>
      <trkpt lat="47.36122" lon="-0.03486">
        <ele>63.1</ele>
        <time>2011-03-20T10:19:45Z</time>
      </trkpt>
      <trkpt lat="47.36119" lon="-0.03485">
        <ele>63.58</ele>
        <time>2011-03-20T10:19:46Z</time>
      </trkpt>
      <trkpt lat="47.36116" lon="-0.03485">
        <ele>63.58</ele>
        <time>2011-03-20T10:19:47Z</time>
      </trkpt>
      <trkpt lat="47.36112" lon="-0.03485">
        <ele>63.1</ele>
        <time>2011-03-20T10:19:48Z</time>
      </trkpt>
      <trkpt lat="47.36109" lon="-0.03485">
        <ele>63.1</ele>
        <time>2011-03-20T10:19:49Z</time>
      </trkpt>
      <trkpt lat="47.36107" lon="-0.03484">
        <ele>63.58</ele>
        <time>2011-03-20T10:19:50Z</time>
      </trkpt>
      <trkpt lat="47.36105" lon="-0.03484">
        <ele>64.07</ele>
        <time>2011-03-20T10:19:51Z</time>
      </trkpt>
      <trkpt lat="47.36102" lon="-0.03484">
        <ele>63.58</ele>
        <time>2011-03-20T10:19:52Z</time>
      </trkpt>
      <trkpt lat="47.36101" lon="-0.03484">
        <ele>63.58</ele>
        <time>2011-03-20T10:19:53Z</time>
      </trkpt>
      <trkpt lat="47.36099" lon="-0.03486">
        <ele>64.07</ele>
        <time>2011-03-20T10:19:54Z</time>
      </trkpt>
      <trkpt lat="47.36098" lon="-0.03489">
        <ele>63.58</ele>
        <time>2011-03-20T10:19:55Z</time>
      </trkpt>
      <trkpt lat="47.36098" lon="-0.03491">
        <ele>63.58</ele>
        <time>2011-03-20T10:19:56Z</time>
      </trkpt>
      <trkpt lat="47.36098" lon="-0.03494">
        <ele>64.07</ele>
        <time>2011-03-20T10:20:01Z</time>
      </trkpt>
      <trkpt lat="47.36098" lon="-0.03494">
        <ele>64.07</ele>
        <time>2011-03-20T10:20:22Z</time>
      </trkpt>
    </trkseg>
  </trk>
</gpx>